<?xml version="1.0" encoding="UTF-8" standalone="no" ?>
<gpx xmlns="http://www.topografix.com/GPX/1/1" xmlns:xsi="http://www.w3.org/2001/XMLSchema-instance" xsi:schemaLocation="http://www.topografix.com/GPX/1/1 http://www.topografix.com/GPX/1/1/gpx.xsd" version="1.1" creator="VisuGPX - https://www.visugpx.com">
  <metadata>
    <name>20\\\'Cho 2013</name>
    <desc><![CDATA[20'cho 2013]]></desc>
  </metadata>
  <trk>
    <name><![CDATA[20\\\'Cho 2013_1]]></name>
    <trkseg>
      <trkpt lat="49.3129" lon="1.04334">
        <ele>18.39999961853</ele>
        <time>2013-03-24T07:24:24.000Z</time>
      </trkpt>
      <trkpt lat="49.3133" lon="1.04315">
        <ele>15.039999961853</ele>
        <time>2013-03-24T07:24:36.000Z</time>
      </trkpt>
      <trkpt lat="49.31339" lon="1.04309">
        <ele>14.560000419617</ele>
        <time>2013-03-24T07:24:38.000Z</time>
      </trkpt>
      <trkpt lat="49.31344" lon="1.04308">
        <ele>14.560000419617</ele>
        <time>2013-03-24T07:24:39.000Z</time>
      </trkpt>
      <trkpt lat="49.31348" lon="1.04307">
        <ele>14.079999923706</ele>
        <time>2013-03-24T07:24:40.000Z</time>
      </trkpt>
      <trkpt lat="49.31385" lon="1.04292">
        <ele>15.039999961853</ele>
        <time>2013-03-24T07:24:50.000Z</time>
      </trkpt>
      <trkpt lat="49.31419" lon="1.04278">
        <ele>15.039999961853</ele>
        <time>2013-03-24T07:24:59.000Z</time>
      </trkpt>
      <trkpt lat="49.31426" lon="1.0428">
        <ele>15.039999961853</ele>
        <time>2013-03-24T07:25:01.000Z</time>
      </trkpt>
      <trkpt lat="49.31429" lon="1.04278">
        <ele>15.039999961853</ele>
        <time>2013-03-24T07:25:02.000Z</time>
      </trkpt>
      <trkpt lat="49.31432" lon="1.04276">
        <ele>15.520000457764</ele>
        <time>2013-03-24T07:25:03.000Z</time>
      </trkpt>
      <trkpt lat="49.31435" lon="1.04273">
        <ele>16</ele>
        <time>2013-03-24T07:25:04.000Z</time>
      </trkpt>
      <trkpt lat="49.31438" lon="1.04269">
        <ele>16</ele>
        <time>2013-03-24T07:25:05.000Z</time>
      </trkpt>
      <trkpt lat="49.3144" lon="1.04263">
        <ele>16</ele>
        <time>2013-03-24T07:25:06.000Z</time>
      </trkpt>
      <trkpt lat="49.31443" lon="1.04258">
        <ele>16</ele>
        <time>2013-03-24T07:25:07.000Z</time>
      </trkpt>
      <trkpt lat="49.31445" lon="1.04254">
        <ele>15.520000457764</ele>
        <time>2013-03-24T07:25:08.000Z</time>
      </trkpt>
      <trkpt lat="49.31447" lon="1.04252">
        <ele>15.520000457764</ele>
        <time>2013-03-24T07:25:09.000Z</time>
      </trkpt>
      <trkpt lat="49.3145" lon="1.04252">
        <ele>15.520000457764</ele>
        <time>2013-03-24T07:25:10.000Z</time>
      </trkpt>
      <trkpt lat="49.31454" lon="1.04253">
        <ele>15.039999961853</ele>
        <time>2013-03-24T07:25:11.000Z</time>
      </trkpt>
      <trkpt lat="49.31458" lon="1.04255">
        <ele>15.039999961853</ele>
        <time>2013-03-24T07:25:12.000Z</time>
      </trkpt>
      <trkpt lat="49.31462" lon="1.04256">
        <ele>15.039999961853</ele>
        <time>2013-03-24T07:25:13.000Z</time>
      </trkpt>
      <trkpt lat="49.31466" lon="1.04257">
        <ele>15.039999961853</ele>
        <time>2013-03-24T07:25:14.000Z</time>
      </trkpt>
      <trkpt lat="49.3147" lon="1.04257">
        <ele>15.039999961853</ele>
        <time>2013-03-24T07:25:15.000Z</time>
      </trkpt>
      <trkpt lat="49.31474" lon="1.04255">
        <ele>15.039999961853</ele>
        <time>2013-03-24T07:25:16.000Z</time>
      </trkpt>
      <trkpt lat="49.31512" lon="1.04239">
        <ele>14.079999923706</ele>
        <time>2013-03-24T07:25:26.000Z</time>
      </trkpt>
      <trkpt lat="49.31538" lon="1.04232">
        <ele>11.670000076294</ele>
        <time>2013-03-24T07:25:36.000Z</time>
      </trkpt>
      <trkpt lat="49.3154" lon="1.04228">
        <ele>11.670000076294</ele>
        <time>2013-03-24T07:25:37.000Z</time>
      </trkpt>
      <trkpt lat="49.31542" lon="1.04223">
        <ele>11.670000076294</ele>
        <time>2013-03-24T07:25:38.000Z</time>
      </trkpt>
      <trkpt lat="49.31546" lon="1.04217">
        <ele>11.670000076294</ele>
        <time>2013-03-24T07:25:39.000Z</time>
      </trkpt>
      <trkpt lat="49.3155" lon="1.04213">
        <ele>12.14999961853</ele>
        <time>2013-03-24T07:25:40.000Z</time>
      </trkpt>
      <trkpt lat="49.31554" lon="1.0421">
        <ele>12.14999961853</ele>
        <time>2013-03-24T07:25:41.000Z</time>
      </trkpt>
      <trkpt lat="49.31557" lon="1.04207">
        <ele>12.630000114441</ele>
        <time>2013-03-24T07:25:42.000Z</time>
      </trkpt>
      <trkpt lat="49.31558" lon="1.04202">
        <ele>12.630000114441</ele>
        <time>2013-03-24T07:25:43.000Z</time>
      </trkpt>
      <trkpt lat="49.31559" lon="1.04196">
        <ele>13.119999885559</ele>
        <time>2013-03-24T07:25:44.000Z</time>
      </trkpt>
      <trkpt lat="49.31559" lon="1.04131">
        <ele>13.119999885559</ele>
        <time>2013-03-24T07:25:56.000Z</time>
      </trkpt>
      <trkpt lat="49.31562" lon="1.04106">
        <ele>14.560000419617</ele>
        <time>2013-03-24T07:26:03.000Z</time>
      </trkpt>
      <trkpt lat="49.31565" lon="1.04104">
        <ele>14.560000419617</ele>
        <time>2013-03-24T07:26:04.000Z</time>
      </trkpt>
      <trkpt lat="49.31567" lon="1.04102">
        <ele>14.079999923706</ele>
        <time>2013-03-24T07:26:05.000Z</time>
      </trkpt>
      <trkpt lat="49.31569" lon="1.04099">
        <ele>14.079999923706</ele>
        <time>2013-03-24T07:26:06.000Z</time>
      </trkpt>
      <trkpt lat="49.31569" lon="1.04096">
        <ele>14.079999923706</ele>
        <time>2013-03-24T07:26:07.000Z</time>
      </trkpt>
      <trkpt lat="49.31567" lon="1.04093">
        <ele>14.079999923706</ele>
        <time>2013-03-24T07:26:08.000Z</time>
      </trkpt>
      <trkpt lat="49.31566" lon="1.04089">
        <ele>14.079999923706</ele>
        <time>2013-03-24T07:26:09.000Z</time>
      </trkpt>
      <trkpt lat="49.31565" lon="1.04084">
        <ele>14.079999923706</ele>
        <time>2013-03-24T07:26:10.000Z</time>
      </trkpt>
      <trkpt lat="49.31549" lon="1.04042">
        <ele>13.119999885559</ele>
        <time>2013-03-24T07:26:18.000Z</time>
      </trkpt>
      <trkpt lat="49.31547" lon="1.04028">
        <ele>12.630000114441</ele>
        <time>2013-03-24T07:26:20.000Z</time>
      </trkpt>
      <trkpt lat="49.31547" lon="1.04021">
        <ele>12.630000114441</ele>
        <time>2013-03-24T07:26:21.000Z</time>
      </trkpt>
      <trkpt lat="49.31547" lon="1.04008">
        <ele>12.630000114441</ele>
        <time>2013-03-24T07:26:23.000Z</time>
      </trkpt>
      <trkpt lat="49.31546" lon="1.04002">
        <ele>12.630000114441</ele>
        <time>2013-03-24T07:26:24.000Z</time>
      </trkpt>
      <trkpt lat="49.31545" lon="1.03996">
        <ele>12.630000114441</ele>
        <time>2013-03-24T07:26:25.000Z</time>
      </trkpt>
      <trkpt lat="49.31544" lon="1.0399">
        <ele>12.630000114441</ele>
        <time>2013-03-24T07:26:26.000Z</time>
      </trkpt>
      <trkpt lat="49.31544" lon="1.03985">
        <ele>12.630000114441</ele>
        <time>2013-03-24T07:26:27.000Z</time>
      </trkpt>
      <trkpt lat="49.31545" lon="1.0398">
        <ele>12.630000114441</ele>
        <time>2013-03-24T07:26:28.000Z</time>
      </trkpt>
      <trkpt lat="49.31548" lon="1.03976">
        <ele>12.630000114441</ele>
        <time>2013-03-24T07:26:29.000Z</time>
      </trkpt>
      <trkpt lat="49.31551" lon="1.03974">
        <ele>12.630000114441</ele>
        <time>2013-03-24T07:26:30.000Z</time>
      </trkpt>
      <trkpt lat="49.31572" lon="1.0396">
        <ele>13.60000038147</ele>
        <time>2013-03-24T07:26:36.000Z</time>
      </trkpt>
      <trkpt lat="49.31576" lon="1.03958">
        <ele>13.60000038147</ele>
        <time>2013-03-24T07:26:37.000Z</time>
      </trkpt>
      <trkpt lat="49.31601" lon="1.03942">
        <ele>13.60000038147</ele>
        <time>2013-03-24T07:26:44.000Z</time>
      </trkpt>
      <trkpt lat="49.31605" lon="1.03941">
        <ele>13.60000038147</ele>
        <time>2013-03-24T07:26:45.000Z</time>
      </trkpt>
      <trkpt lat="49.31684" lon="1.03893">
        <ele>8.789999961853</ele>
        <time>2013-03-24T07:27:02.000Z</time>
      </trkpt>
      <trkpt lat="49.31701" lon="1.03879">
        <ele>5.9099998474121</ele>
        <time>2013-03-24T07:27:08.000Z</time>
      </trkpt>
      <trkpt lat="49.31701" lon="1.03874">
        <ele>5.9099998474121</ele>
        <time>2013-03-24T07:27:09.000Z</time>
      </trkpt>
      <trkpt lat="49.31699" lon="1.03868">
        <ele>5.4200000762939</ele>
        <time>2013-03-24T07:27:10.000Z</time>
      </trkpt>
      <trkpt lat="49.31672" lon="1.03807">
        <ele>6.3899998664856</ele>
        <time>2013-03-24T07:27:22.000Z</time>
      </trkpt>
      <trkpt lat="49.31653" lon="1.03761">
        <ele>6.8699998855591</ele>
        <time>2013-03-24T07:27:32.000Z</time>
      </trkpt>
      <trkpt lat="49.31666" lon="1.03748">
        <ele>6.8699998855591</ele>
        <time>2013-03-24T07:27:37.000Z</time>
      </trkpt>
      <trkpt lat="49.31716" lon="1.03717">
        <ele>7.3499999046326</ele>
        <time>2013-03-24T07:27:51.000Z</time>
      </trkpt>
      <trkpt lat="49.31724" lon="1.03712">
        <ele>7.3499999046326</ele>
        <time>2013-03-24T07:27:53.000Z</time>
      </trkpt>
      <trkpt lat="49.31736" lon="1.03704">
        <ele>7.3499999046326</ele>
        <time>2013-03-24T07:27:56.000Z</time>
      </trkpt>
      <trkpt lat="49.31753" lon="1.03692">
        <ele>6.8699998855591</ele>
        <time>2013-03-24T07:28:01.000Z</time>
      </trkpt>
      <trkpt lat="49.31771" lon="1.03697">
        <ele>7.8299999237061</ele>
        <time>2013-03-24T07:28:07.000Z</time>
      </trkpt>
      <trkpt lat="49.31775" lon="1.03713">
        <ele>7.8299999237061</ele>
        <time>2013-03-24T07:28:10.000Z</time>
      </trkpt>
      <trkpt lat="49.31801" lon="1.038">
        <ele>8.789999961853</ele>
        <time>2013-03-24T07:28:23.000Z</time>
      </trkpt>
      <trkpt lat="49.31815" lon="1.03821">
        <ele>8.789999961853</ele>
        <time>2013-03-24T07:28:27.000Z</time>
      </trkpt>
      <trkpt lat="49.31859" lon="1.03841">
        <ele>7.8299999237061</ele>
        <time>2013-03-24T07:28:36.000Z</time>
      </trkpt>
      <trkpt lat="49.31869" lon="1.03841">
        <ele>7.8299999237061</ele>
        <time>2013-03-24T07:28:38.000Z</time>
      </trkpt>
      <trkpt lat="49.31935" lon="1.0381">
        <ele>6.3899998664856</ele>
        <time>2013-03-24T07:28:53.000Z</time>
      </trkpt>
      <trkpt lat="49.31959" lon="1.03787">
        <ele>5.9099998474121</ele>
        <time>2013-03-24T07:29:01.000Z</time>
      </trkpt>
      <trkpt lat="49.31968" lon="1.03798">
        <ele>6.3899998664856</ele>
        <time>2013-03-24T07:29:05.000Z</time>
      </trkpt>
      <trkpt lat="49.3199" lon="1.03851">
        <ele>5.4200000762939</ele>
        <time>2013-03-24T07:29:18.000Z</time>
      </trkpt>
      <trkpt lat="49.32001" lon="1.03884">
        <ele>5.9099998474121</ele>
        <time>2013-03-24T07:29:28.000Z</time>
      </trkpt>
      <trkpt lat="49.3202" lon="1.03957">
        <ele>4.9400000572205</ele>
        <time>2013-03-24T07:29:44.000Z</time>
      </trkpt>
      <trkpt lat="49.32042" lon="1.04041">
        <ele>4.9400000572205</ele>
        <time>2013-03-24T07:29:59.000Z</time>
      </trkpt>
      <trkpt lat="49.3205" lon="1.04065">
        <ele>5.4200000762939</ele>
        <time>2013-03-24T07:30:06.000Z</time>
      </trkpt>
      <trkpt lat="49.32052" lon="1.04066">
        <ele>5.4200000762939</ele>
        <time>2013-03-24T07:30:07.000Z</time>
      </trkpt>
      <trkpt lat="49.32054" lon="1.04065">
        <ele>5.9099998474121</ele>
        <time>2013-03-24T07:30:08.000Z</time>
      </trkpt>
      <trkpt lat="49.32056" lon="1.04063">
        <ele>5.9099998474121</ele>
        <time>2013-03-24T07:30:09.000Z</time>
      </trkpt>
      <trkpt lat="49.32059" lon="1.0406">
        <ele>5.4200000762939</ele>
        <time>2013-03-24T07:30:10.000Z</time>
      </trkpt>
      <trkpt lat="49.32082" lon="1.04048">
        <ele>5.4200000762939</ele>
        <time>2013-03-24T07:30:17.000Z</time>
      </trkpt>
      <trkpt lat="49.32139" lon="1.04028">
        <ele>5.4200000762939</ele>
        <time>2013-03-24T07:30:31.000Z</time>
      </trkpt>
      <trkpt lat="49.32151" lon="1.04024">
        <ele>4.9400000572205</ele>
        <time>2013-03-24T07:30:34.000Z</time>
      </trkpt>
      <trkpt lat="49.32172" lon="1.04015">
        <ele>4.9400000572205</ele>
        <time>2013-03-24T07:30:39.000Z</time>
      </trkpt>
      <trkpt lat="49.32212" lon="1.04">
        <ele>4.460000038147</ele>
        <time>2013-03-24T07:30:49.000Z</time>
      </trkpt>
      <trkpt lat="49.32265" lon="1.03979">
        <ele>3.5</ele>
        <time>2013-03-24T07:31:02.000Z</time>
      </trkpt>
      <trkpt lat="49.32277" lon="1.03976">
        <ele>3.0199999809265</ele>
        <time>2013-03-24T07:31:11.000Z</time>
      </trkpt>
      <trkpt lat="49.32278" lon="1.03977">
        <ele>3.5</ele>
        <time>2013-03-24T07:31:27.000Z</time>
      </trkpt>
      <trkpt lat="49.32278" lon="1.03979">
        <ele>3.9800000190735</ele>
        <time>2013-03-24T07:31:28.000Z</time>
      </trkpt>
      <trkpt lat="49.32278" lon="1.03983">
        <ele>3.9800000190735</ele>
        <time>2013-03-24T07:31:29.000Z</time>
      </trkpt>
      <trkpt lat="49.32279" lon="1.04037">
        <ele>5.4200000762939</ele>
        <time>2013-03-24T07:31:40.000Z</time>
      </trkpt>
      <trkpt lat="49.32282" lon="1.04115">
        <ele>4.9400000572205</ele>
        <time>2013-03-24T07:31:53.000Z</time>
      </trkpt>
      <trkpt lat="49.32286" lon="1.04179">
        <ele>6.3899998664856</ele>
        <time>2013-03-24T07:32:04.000Z</time>
      </trkpt>
      <trkpt lat="49.32288" lon="1.04252">
        <ele>7.3499999046326</ele>
        <time>2013-03-24T07:32:16.000Z</time>
      </trkpt>
      <trkpt lat="49.32293" lon="1.04324">
        <ele>6.3899998664856</ele>
        <time>2013-03-24T07:32:29.000Z</time>
      </trkpt>
      <trkpt lat="49.32297" lon="1.04394">
        <ele>4.460000038147</ele>
        <time>2013-03-24T07:32:41.000Z</time>
      </trkpt>
      <trkpt lat="49.32303" lon="1.04457">
        <ele>4.9400000572205</ele>
        <time>2013-03-24T07:32:52.000Z</time>
      </trkpt>
      <trkpt lat="49.32313" lon="1.04533">
        <ele>6.3899998664856</ele>
        <time>2013-03-24T07:33:05.000Z</time>
      </trkpt>
      <trkpt lat="49.32323" lon="1.04605">
        <ele>5.4200000762939</ele>
        <time>2013-03-24T07:33:17.000Z</time>
      </trkpt>
      <trkpt lat="49.32324" lon="1.04611">
        <ele>5.4200000762939</ele>
        <time>2013-03-24T07:33:18.000Z</time>
      </trkpt>
      <trkpt lat="49.32324" lon="1.04617">
        <ele>5.4200000762939</ele>
        <time>2013-03-24T07:33:19.000Z</time>
      </trkpt>
      <trkpt lat="49.32335" lon="1.04704">
        <ele>5.4200000762939</ele>
        <time>2013-03-24T07:33:33.000Z</time>
      </trkpt>
      <trkpt lat="49.3234" lon="1.04774">
        <ele>5.9099998474121</ele>
        <time>2013-03-24T07:33:44.000Z</time>
      </trkpt>
      <trkpt lat="49.32341" lon="1.04788">
        <ele>5.9099998474121</ele>
        <time>2013-03-24T07:33:46.000Z</time>
      </trkpt>
      <trkpt lat="49.32341" lon="1.04795">
        <ele>5.9099998474121</ele>
        <time>2013-03-24T07:33:47.000Z</time>
      </trkpt>
      <trkpt lat="49.32342" lon="1.04802">
        <ele>5.9099998474121</ele>
        <time>2013-03-24T07:33:48.000Z</time>
      </trkpt>
      <trkpt lat="49.32342" lon="1.04809">
        <ele>5.9099998474121</ele>
        <time>2013-03-24T07:33:49.000Z</time>
      </trkpt>
      <trkpt lat="49.32343" lon="1.04816">
        <ele>5.9099998474121</ele>
        <time>2013-03-24T07:33:50.000Z</time>
      </trkpt>
      <trkpt lat="49.32351" lon="1.049">
        <ele>6.3899998664856</ele>
        <time>2013-03-24T07:34:03.000Z</time>
      </trkpt>
      <trkpt lat="49.32355" lon="1.04956">
        <ele>8.3100004196167</ele>
        <time>2013-03-24T07:34:12.000Z</time>
      </trkpt>
      <trkpt lat="49.32355" lon="1.04962">
        <ele>8.3100004196167</ele>
        <time>2013-03-24T07:34:13.000Z</time>
      </trkpt>
      <trkpt lat="49.32356" lon="1.04969">
        <ele>8.789999961853</ele>
        <time>2013-03-24T07:34:14.000Z</time>
      </trkpt>
      <trkpt lat="49.32356" lon="1.04976">
        <ele>8.789999961853</ele>
        <time>2013-03-24T07:34:15.000Z</time>
      </trkpt>
      <trkpt lat="49.32357" lon="1.04983">
        <ele>8.789999961853</ele>
        <time>2013-03-24T07:34:16.000Z</time>
      </trkpt>
      <trkpt lat="49.32358" lon="1.0499">
        <ele>8.3100004196167</ele>
        <time>2013-03-24T07:34:17.000Z</time>
      </trkpt>
      <trkpt lat="49.32359" lon="1.04997">
        <ele>8.3100004196167</ele>
        <time>2013-03-24T07:34:18.000Z</time>
      </trkpt>
      <trkpt lat="49.32359" lon="1.05004">
        <ele>7.8299999237061</ele>
        <time>2013-03-24T07:34:19.000Z</time>
      </trkpt>
      <trkpt lat="49.32369" lon="1.05091">
        <ele>7.3499999046326</ele>
        <time>2013-03-24T07:34:31.000Z</time>
      </trkpt>
      <trkpt lat="49.3237" lon="1.05104">
        <ele>7.3499999046326</ele>
        <time>2013-03-24T07:34:33.000Z</time>
      </trkpt>
      <trkpt lat="49.32372" lon="1.05125">
        <ele>6.8699998855591</ele>
        <time>2013-03-24T07:34:36.000Z</time>
      </trkpt>
      <trkpt lat="49.32373" lon="1.05132">
        <ele>6.8699998855591</ele>
        <time>2013-03-24T07:34:37.000Z</time>
      </trkpt>
      <trkpt lat="49.32377" lon="1.05235">
        <ele>5.9099998474121</ele>
        <time>2013-03-24T07:34:52.000Z</time>
      </trkpt>
      <trkpt lat="49.32377" lon="1.05241">
        <ele>6.3899998664856</ele>
        <time>2013-03-24T07:34:53.000Z</time>
      </trkpt>
      <trkpt lat="49.32375" lon="1.05261">
        <ele>5.9099998474121</ele>
        <time>2013-03-24T07:34:56.000Z</time>
      </trkpt>
      <trkpt lat="49.32372" lon="1.0528">
        <ele>5.9099998474121</ele>
        <time>2013-03-24T07:34:59.000Z</time>
      </trkpt>
      <trkpt lat="49.32362" lon="1.05324">
        <ele>5.9099998474121</ele>
        <time>2013-03-24T07:35:06.000Z</time>
      </trkpt>
      <trkpt lat="49.32361" lon="1.0533">
        <ele>5.4200000762939</ele>
        <time>2013-03-24T07:35:07.000Z</time>
      </trkpt>
      <trkpt lat="49.32361" lon="1.05336">
        <ele>5.4200000762939</ele>
        <time>2013-03-24T07:35:08.000Z</time>
      </trkpt>
      <trkpt lat="49.32361" lon="1.05342">
        <ele>5.4200000762939</ele>
        <time>2013-03-24T07:35:09.000Z</time>
      </trkpt>
      <trkpt lat="49.32362" lon="1.05348">
        <ele>5.4200000762939</ele>
        <time>2013-03-24T07:35:10.000Z</time>
      </trkpt>
      <trkpt lat="49.32362" lon="1.05354">
        <ele>5.9099998474121</ele>
        <time>2013-03-24T07:35:11.000Z</time>
      </trkpt>
      <trkpt lat="49.32363" lon="1.05361">
        <ele>5.9099998474121</ele>
        <time>2013-03-24T07:35:12.000Z</time>
      </trkpt>
      <trkpt lat="49.32362" lon="1.05367">
        <ele>6.3899998664856</ele>
        <time>2013-03-24T07:35:13.000Z</time>
      </trkpt>
      <trkpt lat="49.3236" lon="1.05373">
        <ele>6.3899998664856</ele>
        <time>2013-03-24T07:35:14.000Z</time>
      </trkpt>
      <trkpt lat="49.32357" lon="1.05378">
        <ele>6.3899998664856</ele>
        <time>2013-03-24T07:35:15.000Z</time>
      </trkpt>
      <trkpt lat="49.32353" lon="1.0538">
        <ele>6.3899998664856</ele>
        <time>2013-03-24T07:35:16.000Z</time>
      </trkpt>
      <trkpt lat="49.32348" lon="1.0538">
        <ele>6.8699998855591</ele>
        <time>2013-03-24T07:35:17.000Z</time>
      </trkpt>
      <trkpt lat="49.32343" lon="1.05381">
        <ele>6.8699998855591</ele>
        <time>2013-03-24T07:35:18.000Z</time>
      </trkpt>
      <trkpt lat="49.32335" lon="1.05382">
        <ele>6.8699998855591</ele>
        <time>2013-03-24T07:35:20.000Z</time>
      </trkpt>
      <trkpt lat="49.32266" lon="1.05399">
        <ele>7.3499999046326</ele>
        <time>2013-03-24T07:35:36.000Z</time>
      </trkpt>
      <trkpt lat="49.32244" lon="1.05408">
        <ele>6.3899998664856</ele>
        <time>2013-03-24T07:35:42.000Z</time>
      </trkpt>
      <trkpt lat="49.32244" lon="1.05412">
        <ele>6.3899998664856</ele>
        <time>2013-03-24T07:35:43.000Z</time>
      </trkpt>
      <trkpt lat="49.32245" lon="1.05416">
        <ele>5.9099998474121</ele>
        <time>2013-03-24T07:35:44.000Z</time>
      </trkpt>
      <trkpt lat="49.32249" lon="1.05421">
        <ele>5.4200000762939</ele>
        <time>2013-03-24T07:35:45.000Z</time>
      </trkpt>
      <trkpt lat="49.32253" lon="1.05424">
        <ele>4.9400000572205</ele>
        <time>2013-03-24T07:35:46.000Z</time>
      </trkpt>
      <trkpt lat="49.32257" lon="1.05427">
        <ele>4.460000038147</ele>
        <time>2013-03-24T07:35:47.000Z</time>
      </trkpt>
      <trkpt lat="49.32269" lon="1.05437">
        <ele>3.9800000190735</ele>
        <time>2013-03-24T07:35:50.000Z</time>
      </trkpt>
      <trkpt lat="49.32273" lon="1.05441">
        <ele>3.9800000190735</ele>
        <time>2013-03-24T07:35:51.000Z</time>
      </trkpt>
      <trkpt lat="49.32276" lon="1.05445">
        <ele>3.9800000190735</ele>
        <time>2013-03-24T07:35:52.000Z</time>
      </trkpt>
      <trkpt lat="49.32279" lon="1.0545">
        <ele>3.9800000190735</ele>
        <time>2013-03-24T07:35:53.000Z</time>
      </trkpt>
      <trkpt lat="49.32283" lon="1.05456">
        <ele>3.9800000190735</ele>
        <time>2013-03-24T07:35:54.000Z</time>
      </trkpt>
      <trkpt lat="49.32317" lon="1.05524">
        <ele>3.5</ele>
        <time>2013-03-24T07:36:06.000Z</time>
      </trkpt>
      <trkpt lat="49.32329" lon="1.05553">
        <ele>3.5</ele>
        <time>2013-03-24T07:36:11.000Z</time>
      </trkpt>
      <trkpt lat="49.32354" lon="1.05652">
        <ele>4.9400000572205</ele>
        <time>2013-03-24T07:36:26.000Z</time>
      </trkpt>
      <trkpt lat="49.32364" lon="1.05741">
        <ele>6.3899998664856</ele>
        <time>2013-03-24T07:36:39.000Z</time>
      </trkpt>
      <trkpt lat="49.32372" lon="1.05812">
        <ele>5.9099998474121</ele>
        <time>2013-03-24T07:36:52.000Z</time>
      </trkpt>
      <trkpt lat="49.32374" lon="1.05834">
        <ele>4.460000038147</ele>
        <time>2013-03-24T07:36:57.000Z</time>
      </trkpt>
      <trkpt lat="49.32372" lon="1.05837">
        <ele>4.460000038147</ele>
        <time>2013-03-24T07:36:58.000Z</time>
      </trkpt>
      <trkpt lat="49.32368" lon="1.0584">
        <ele>4.9400000572205</ele>
        <time>2013-03-24T07:36:59.000Z</time>
      </trkpt>
      <trkpt lat="49.32365" lon="1.05842">
        <ele>4.460000038147</ele>
        <time>2013-03-24T07:37:00.000Z</time>
      </trkpt>
      <trkpt lat="49.32361" lon="1.05843">
        <ele>4.460000038147</ele>
        <time>2013-03-24T07:37:01.000Z</time>
      </trkpt>
      <trkpt lat="49.32357" lon="1.05845">
        <ele>4.460000038147</ele>
        <time>2013-03-24T07:37:02.000Z</time>
      </trkpt>
      <trkpt lat="49.32308" lon="1.05861">
        <ele>3.5</ele>
        <time>2013-03-24T07:37:16.000Z</time>
      </trkpt>
      <trkpt lat="49.32259" lon="1.05879">
        <ele>3.0199999809265</ele>
        <time>2013-03-24T07:37:31.000Z</time>
      </trkpt>
      <trkpt lat="49.32246" lon="1.05916">
        <ele>3.5</ele>
        <time>2013-03-24T07:37:40.000Z</time>
      </trkpt>
      <trkpt lat="49.32251" lon="1.05981">
        <ele>3.0199999809265</ele>
        <time>2013-03-24T07:37:52.000Z</time>
      </trkpt>
      <trkpt lat="49.32257" lon="1.06071">
        <ele>3.5</ele>
        <time>2013-03-24T07:38:08.000Z</time>
      </trkpt>
      <trkpt lat="49.32258" lon="1.06155">
        <ele>3.9800000190735</ele>
        <time>2013-03-24T07:38:23.000Z</time>
      </trkpt>
      <trkpt lat="49.32252" lon="1.06241">
        <ele>3.9800000190735</ele>
        <time>2013-03-24T07:38:38.000Z</time>
      </trkpt>
      <trkpt lat="49.32248" lon="1.06326">
        <ele>3.9800000190735</ele>
        <time>2013-03-24T07:38:53.000Z</time>
      </trkpt>
      <trkpt lat="49.3224" lon="1.06408">
        <ele>4.460000038147</ele>
        <time>2013-03-24T07:39:08.000Z</time>
      </trkpt>
      <trkpt lat="49.32224" lon="1.06472">
        <ele>4.460000038147</ele>
        <time>2013-03-24T07:39:20.000Z</time>
      </trkpt>
      <trkpt lat="49.32214" lon="1.06524">
        <ele>4.460000038147</ele>
        <time>2013-03-24T07:39:32.000Z</time>
      </trkpt>
      <trkpt lat="49.3223" lon="1.06579">
        <ele>4.460000038147</ele>
        <time>2013-03-24T07:39:43.000Z</time>
      </trkpt>
      <trkpt lat="49.32239" lon="1.06644">
        <ele>4.460000038147</ele>
        <time>2013-03-24T07:39:56.000Z</time>
      </trkpt>
      <trkpt lat="49.32232" lon="1.06694">
        <ele>3.5</ele>
        <time>2013-03-24T07:40:06.000Z</time>
      </trkpt>
      <trkpt lat="49.32229" lon="1.06779">
        <ele>3.9800000190735</ele>
        <time>2013-03-24T07:40:20.000Z</time>
      </trkpt>
      <trkpt lat="49.32228" lon="1.0681">
        <ele>4.460000038147</ele>
        <time>2013-03-24T07:40:25.000Z</time>
      </trkpt>
      <trkpt lat="49.32235" lon="1.06875">
        <ele>9.75</ele>
        <time>2013-03-24T07:40:36.000Z</time>
      </trkpt>
      <trkpt lat="49.32238" lon="1.06892">
        <ele>10.710000038147</ele>
        <time>2013-03-24T07:40:39.000Z</time>
      </trkpt>
      <trkpt lat="49.32239" lon="1.06899">
        <ele>11.189999580383</ele>
        <time>2013-03-24T07:40:40.000Z</time>
      </trkpt>
      <trkpt lat="49.3226" lon="1.06978">
        <ele>9.75</ele>
        <time>2013-03-24T07:40:53.000Z</time>
      </trkpt>
      <trkpt lat="49.32271" lon="1.07075">
        <ele>8.789999961853</ele>
        <time>2013-03-24T07:41:07.000Z</time>
      </trkpt>
      <trkpt lat="49.32275" lon="1.07122">
        <ele>7.8299999237061</ele>
        <time>2013-03-24T07:41:14.000Z</time>
      </trkpt>
      <trkpt lat="49.32289" lon="1.07207">
        <ele>7.3499999046326</ele>
        <time>2013-03-24T07:41:28.000Z</time>
      </trkpt>
      <trkpt lat="49.32291" lon="1.07213">
        <ele>7.3499999046326</ele>
        <time>2013-03-24T07:41:29.000Z</time>
      </trkpt>
      <trkpt lat="49.32295" lon="1.07217">
        <ele>7.3499999046326</ele>
        <time>2013-03-24T07:41:30.000Z</time>
      </trkpt>
      <trkpt lat="49.323" lon="1.07219">
        <ele>7.3499999046326</ele>
        <time>2013-03-24T07:41:31.000Z</time>
      </trkpt>
      <trkpt lat="49.32305" lon="1.07218">
        <ele>7.3499999046326</ele>
        <time>2013-03-24T07:41:32.000Z</time>
      </trkpt>
      <trkpt lat="49.3231" lon="1.07215">
        <ele>7.3499999046326</ele>
        <time>2013-03-24T07:41:33.000Z</time>
      </trkpt>
      <trkpt lat="49.32327" lon="1.0721">
        <ele>6.3899998664856</ele>
        <time>2013-03-24T07:41:36.000Z</time>
      </trkpt>
      <trkpt lat="49.32331" lon="1.07206">
        <ele>5.9099998474121</ele>
        <time>2013-03-24T07:41:37.000Z</time>
      </trkpt>
      <trkpt lat="49.32335" lon="1.07203">
        <ele>5.9099998474121</ele>
        <time>2013-03-24T07:41:38.000Z</time>
      </trkpt>
      <trkpt lat="49.32383" lon="1.0717">
        <ele>4.9400000572205</ele>
        <time>2013-03-24T07:41:49.000Z</time>
      </trkpt>
      <trkpt lat="49.32401" lon="1.07154">
        <ele>4.9400000572205</ele>
        <time>2013-03-24T07:41:53.000Z</time>
      </trkpt>
      <trkpt lat="49.32447" lon="1.07117">
        <ele>4.9400000572205</ele>
        <time>2013-03-24T07:42:03.000Z</time>
      </trkpt>
      <trkpt lat="49.32472" lon="1.07105">
        <ele>4.9400000572205</ele>
        <time>2013-03-24T07:42:08.000Z</time>
      </trkpt>
      <trkpt lat="49.32477" lon="1.07104">
        <ele>4.9400000572205</ele>
        <time>2013-03-24T07:42:09.000Z</time>
      </trkpt>
      <trkpt lat="49.32482" lon="1.071">
        <ele>4.9400000572205</ele>
        <time>2013-03-24T07:42:10.000Z</time>
      </trkpt>
      <trkpt lat="49.32513" lon="1.07074">
        <ele>3.0199999809265</ele>
        <time>2013-03-24T07:42:17.000Z</time>
      </trkpt>
      <trkpt lat="49.32521" lon="1.07066">
        <ele>2.0599999427795</ele>
        <time>2013-03-24T07:42:19.000Z</time>
      </trkpt>
      <trkpt lat="49.32575" lon="1.07016">
        <ele>0.14000000059605</ele>
        <time>2013-03-24T07:42:31.000Z</time>
      </trkpt>
      <trkpt lat="49.32648" lon="1.06946">
        <ele>2.0599999427795</ele>
        <time>2013-03-24T07:42:48.000Z</time>
      </trkpt>
      <trkpt lat="49.32652" lon="1.06948">
        <ele>2.539999961853</ele>
        <time>2013-03-24T07:42:49.000Z</time>
      </trkpt>
      <trkpt lat="49.32655" lon="1.06953">
        <ele>2.539999961853</ele>
        <time>2013-03-24T07:42:50.000Z</time>
      </trkpt>
      <trkpt lat="49.32656" lon="1.06959">
        <ele>2.539999961853</ele>
        <time>2013-03-24T07:42:51.000Z</time>
      </trkpt>
      <trkpt lat="49.32658" lon="1.06965">
        <ele>3.0199999809265</ele>
        <time>2013-03-24T07:42:52.000Z</time>
      </trkpt>
      <trkpt lat="49.32659" lon="1.06972">
        <ele>3.0199999809265</ele>
        <time>2013-03-24T07:42:53.000Z</time>
      </trkpt>
      <trkpt lat="49.3266" lon="1.06979">
        <ele>3.0199999809265</ele>
        <time>2013-03-24T07:42:54.000Z</time>
      </trkpt>
      <trkpt lat="49.32674" lon="1.07088">
        <ele>3.9800000190735</ele>
        <time>2013-03-24T07:43:09.000Z</time>
      </trkpt>
      <trkpt lat="49.32676" lon="1.07095">
        <ele>3.9800000190735</ele>
        <time>2013-03-24T07:43:10.000Z</time>
      </trkpt>
      <trkpt lat="49.32708" lon="1.07199">
        <ele>4.9400000572205</ele>
        <time>2013-03-24T07:43:25.000Z</time>
      </trkpt>
      <trkpt lat="49.32753" lon="1.07329">
        <ele>5.9099998474121</ele>
        <time>2013-03-24T07:43:44.000Z</time>
      </trkpt>
      <trkpt lat="49.32757" lon="1.07345">
        <ele>5.9099998474121</ele>
        <time>2013-03-24T07:43:46.000Z</time>
      </trkpt>
      <trkpt lat="49.32767" lon="1.07479">
        <ele>6.3899998664856</ele>
        <time>2013-03-24T07:44:03.000Z</time>
      </trkpt>
      <trkpt lat="49.32771" lon="1.0752">
        <ele>5.9099998474121</ele>
        <time>2013-03-24T07:44:08.000Z</time>
      </trkpt>
      <trkpt lat="49.32783" lon="1.07625">
        <ele>5.4200000762939</ele>
        <time>2013-03-24T07:44:21.000Z</time>
      </trkpt>
      <trkpt lat="49.32797" lon="1.07742">
        <ele>4.9400000572205</ele>
        <time>2013-03-24T07:44:36.000Z</time>
      </trkpt>
      <trkpt lat="49.32802" lon="1.07773">
        <ele>5.4200000762939</ele>
        <time>2013-03-24T07:44:40.000Z</time>
      </trkpt>
      <trkpt lat="49.32804" lon="1.0778">
        <ele>5.4200000762939</ele>
        <time>2013-03-24T07:44:41.000Z</time>
      </trkpt>
      <trkpt lat="49.3284" lon="1.07877">
        <ele>5.9099998474121</ele>
        <time>2013-03-24T07:44:55.000Z</time>
      </trkpt>
      <trkpt lat="49.32899" lon="1.07994">
        <ele>6.8699998855591</ele>
        <time>2013-03-24T07:45:13.000Z</time>
      </trkpt>
      <trkpt lat="49.32954" lon="1.08108">
        <ele>6.8699998855591</ele>
        <time>2013-03-24T07:45:31.000Z</time>
      </trkpt>
      <trkpt lat="49.32957" lon="1.08115">
        <ele>6.8699998855591</ele>
        <time>2013-03-24T07:45:32.000Z</time>
      </trkpt>
      <trkpt lat="49.32967" lon="1.08134">
        <ele>6.8699998855591</ele>
        <time>2013-03-24T07:45:35.000Z</time>
      </trkpt>
      <trkpt lat="49.32971" lon="1.0814">
        <ele>6.8699998855591</ele>
        <time>2013-03-24T07:45:36.000Z</time>
      </trkpt>
      <trkpt lat="49.32974" lon="1.08145">
        <ele>6.8699998855591</ele>
        <time>2013-03-24T07:45:37.000Z</time>
      </trkpt>
      <trkpt lat="49.32977" lon="1.08151">
        <ele>6.8699998855591</ele>
        <time>2013-03-24T07:45:38.000Z</time>
      </trkpt>
      <trkpt lat="49.3298" lon="1.08158">
        <ele>6.8699998855591</ele>
        <time>2013-03-24T07:45:39.000Z</time>
      </trkpt>
      <trkpt lat="49.33024" lon="1.08262">
        <ele>7.3499999046326</ele>
        <time>2013-03-24T07:45:54.000Z</time>
      </trkpt>
      <trkpt lat="49.33025" lon="1.08271">
        <ele>7.3499999046326</ele>
        <time>2013-03-24T07:45:55.000Z</time>
      </trkpt>
      <trkpt lat="49.33027" lon="1.08304">
        <ele>7.3499999046326</ele>
        <time>2013-03-24T07:45:59.000Z</time>
      </trkpt>
      <trkpt lat="49.33027" lon="1.08313">
        <ele>7.3499999046326</ele>
        <time>2013-03-24T07:46:00.000Z</time>
      </trkpt>
      <trkpt lat="49.32995" lon="1.08429">
        <ele>6.8699998855591</ele>
        <time>2013-03-24T07:46:14.000Z</time>
      </trkpt>
      <trkpt lat="49.32964" lon="1.08555">
        <ele>6.3899998664856</ele>
        <time>2013-03-24T07:46:29.000Z</time>
      </trkpt>
      <trkpt lat="49.32962" lon="1.08562">
        <ele>6.3899998664856</ele>
        <time>2013-03-24T07:46:30.000Z</time>
      </trkpt>
      <trkpt lat="49.32959" lon="1.08569">
        <ele>6.3899998664856</ele>
        <time>2013-03-24T07:46:31.000Z</time>
      </trkpt>
      <trkpt lat="49.32955" lon="1.08575">
        <ele>6.3899998664856</ele>
        <time>2013-03-24T07:46:32.000Z</time>
      </trkpt>
      <trkpt lat="49.32951" lon="1.08583">
        <ele>5.9099998474121</ele>
        <time>2013-03-24T07:46:33.000Z</time>
      </trkpt>
      <trkpt lat="49.32949" lon="1.08592">
        <ele>5.9099998474121</ele>
        <time>2013-03-24T07:46:34.000Z</time>
      </trkpt>
      <trkpt lat="49.32951" lon="1.08601">
        <ele>6.3899998664856</ele>
        <time>2013-03-24T07:46:35.000Z</time>
      </trkpt>
      <trkpt lat="49.32954" lon="1.08609">
        <ele>6.3899998664856</ele>
        <time>2013-03-24T07:46:36.000Z</time>
      </trkpt>
      <trkpt lat="49.3296" lon="1.08614">
        <ele>6.3899998664856</ele>
        <time>2013-03-24T07:46:37.000Z</time>
      </trkpt>
      <trkpt lat="49.32965" lon="1.08617">
        <ele>6.3899998664856</ele>
        <time>2013-03-24T07:46:38.000Z</time>
      </trkpt>
      <trkpt lat="49.3298" lon="1.08628">
        <ele>5.9099998474121</ele>
        <time>2013-03-24T07:46:41.000Z</time>
      </trkpt>
      <trkpt lat="49.32984" lon="1.08634">
        <ele>5.9099998474121</ele>
        <time>2013-03-24T07:46:42.000Z</time>
      </trkpt>
      <trkpt lat="49.32988" lon="1.0864">
        <ele>5.9099998474121</ele>
        <time>2013-03-24T07:46:43.000Z</time>
      </trkpt>
      <trkpt lat="49.33048" lon="1.08721">
        <ele>6.8699998855591</ele>
        <time>2013-03-24T07:46:57.000Z</time>
      </trkpt>
      <trkpt lat="49.33064" lon="1.08747">
        <ele>7.3499999046326</ele>
        <time>2013-03-24T07:47:01.000Z</time>
      </trkpt>
      <trkpt lat="49.33067" lon="1.08754">
        <ele>7.3499999046326</ele>
        <time>2013-03-24T07:47:02.000Z</time>
      </trkpt>
      <trkpt lat="49.3307" lon="1.08761">
        <ele>6.8699998855591</ele>
        <time>2013-03-24T07:47:03.000Z</time>
      </trkpt>
      <trkpt lat="49.33075" lon="1.08776">
        <ele>6.8699998855591</ele>
        <time>2013-03-24T07:47:05.000Z</time>
      </trkpt>
      <trkpt lat="49.33098" lon="1.089">
        <ele>6.8699998855591</ele>
        <time>2013-03-24T07:47:20.000Z</time>
      </trkpt>
      <trkpt lat="49.33118" lon="1.09015">
        <ele>7.3499999046326</ele>
        <time>2013-03-24T07:47:35.000Z</time>
      </trkpt>
      <trkpt lat="49.33131" lon="1.09084">
        <ele>7.3499999046326</ele>
        <time>2013-03-24T07:47:44.000Z</time>
      </trkpt>
      <trkpt lat="49.3313" lon="1.09093">
        <ele>7.3499999046326</ele>
        <time>2013-03-24T07:47:45.000Z</time>
      </trkpt>
      <trkpt lat="49.33128" lon="1.091">
        <ele>7.3499999046326</ele>
        <time>2013-03-24T07:47:46.000Z</time>
      </trkpt>
      <trkpt lat="49.33125" lon="1.09108">
        <ele>6.8699998855591</ele>
        <time>2013-03-24T07:47:47.000Z</time>
      </trkpt>
      <trkpt lat="49.33123" lon="1.09116">
        <ele>6.8699998855591</ele>
        <time>2013-03-24T07:47:48.000Z</time>
      </trkpt>
      <trkpt lat="49.33123" lon="1.09124">
        <ele>6.8699998855591</ele>
        <time>2013-03-24T07:47:49.000Z</time>
      </trkpt>
      <trkpt lat="49.33124" lon="1.09132">
        <ele>6.8699998855591</ele>
        <time>2013-03-24T07:47:50.000Z</time>
      </trkpt>
      <trkpt lat="49.33126" lon="1.0914">
        <ele>6.8699998855591</ele>
        <time>2013-03-24T07:47:51.000Z</time>
      </trkpt>
      <trkpt lat="49.33129" lon="1.09146">
        <ele>6.8699998855591</ele>
        <time>2013-03-24T07:47:52.000Z</time>
      </trkpt>
      <trkpt lat="49.33133" lon="1.09151">
        <ele>6.8699998855591</ele>
        <time>2013-03-24T07:47:53.000Z</time>
      </trkpt>
      <trkpt lat="49.33138" lon="1.09155">
        <ele>6.8699998855591</ele>
        <time>2013-03-24T07:47:54.000Z</time>
      </trkpt>
      <trkpt lat="49.33143" lon="1.09157">
        <ele>6.8699998855591</ele>
        <time>2013-03-24T07:47:55.000Z</time>
      </trkpt>
      <trkpt lat="49.33149" lon="1.09157">
        <ele>6.8699998855591</ele>
        <time>2013-03-24T07:47:56.000Z</time>
      </trkpt>
      <trkpt lat="49.33154" lon="1.09154">
        <ele>6.3899998664856</ele>
        <time>2013-03-24T07:47:57.000Z</time>
      </trkpt>
      <trkpt lat="49.33159" lon="1.0915">
        <ele>6.3899998664856</ele>
        <time>2013-03-24T07:47:58.000Z</time>
      </trkpt>
      <trkpt lat="49.33164" lon="1.09146">
        <ele>6.3899998664856</ele>
        <time>2013-03-24T07:47:59.000Z</time>
      </trkpt>
      <trkpt lat="49.33169" lon="1.09143">
        <ele>6.3899998664856</ele>
        <time>2013-03-24T07:48:00.000Z</time>
      </trkpt>
      <trkpt lat="49.33175" lon="1.09144">
        <ele>6.3899998664856</ele>
        <time>2013-03-24T07:48:01.000Z</time>
      </trkpt>
      <trkpt lat="49.33181" lon="1.09147">
        <ele>6.3899998664856</ele>
        <time>2013-03-24T07:48:02.000Z</time>
      </trkpt>
      <trkpt lat="49.33186" lon="1.09153">
        <ele>6.3899998664856</ele>
        <time>2013-03-24T07:48:03.000Z</time>
      </trkpt>
      <trkpt lat="49.33189" lon="1.0916">
        <ele>6.3899998664856</ele>
        <time>2013-03-24T07:48:04.000Z</time>
      </trkpt>
      <trkpt lat="49.33192" lon="1.09168">
        <ele>6.3899998664856</ele>
        <time>2013-03-24T07:48:05.000Z</time>
      </trkpt>
      <trkpt lat="49.33195" lon="1.09175">
        <ele>6.3899998664856</ele>
        <time>2013-03-24T07:48:06.000Z</time>
      </trkpt>
      <trkpt lat="49.33236" lon="1.09288">
        <ele>5.9099998474121</ele>
        <time>2013-03-24T07:48:23.000Z</time>
      </trkpt>
      <trkpt lat="49.33258" lon="1.09359">
        <ele>5.4200000762939</ele>
        <time>2013-03-24T07:48:33.000Z</time>
      </trkpt>
      <trkpt lat="49.33259" lon="1.09367">
        <ele>5.4200000762939</ele>
        <time>2013-03-24T07:48:34.000Z</time>
      </trkpt>
      <trkpt lat="49.33282" lon="1.09493">
        <ele>5.4200000762939</ele>
        <time>2013-03-24T07:48:50.000Z</time>
      </trkpt>
      <trkpt lat="49.33291" lon="1.09531">
        <ele>4.9400000572205</ele>
        <time>2013-03-24T07:48:55.000Z</time>
      </trkpt>
      <trkpt lat="49.33292" lon="1.09538">
        <ele>4.9400000572205</ele>
        <time>2013-03-24T07:48:56.000Z</time>
      </trkpt>
      <trkpt lat="49.33291" lon="1.09546">
        <ele>5.4200000762939</ele>
        <time>2013-03-24T07:48:57.000Z</time>
      </trkpt>
      <trkpt lat="49.33291" lon="1.09553">
        <ele>5.9099998474121</ele>
        <time>2013-03-24T07:48:58.000Z</time>
      </trkpt>
      <trkpt lat="49.33292" lon="1.09559">
        <ele>5.9099998474121</ele>
        <time>2013-03-24T07:48:59.000Z</time>
      </trkpt>
      <trkpt lat="49.33295" lon="1.09565">
        <ele>6.3899998664856</ele>
        <time>2013-03-24T07:49:00.000Z</time>
      </trkpt>
      <trkpt lat="49.33298" lon="1.09571">
        <ele>6.8699998855591</ele>
        <time>2013-03-24T07:49:01.000Z</time>
      </trkpt>
      <trkpt lat="49.33301" lon="1.09577">
        <ele>6.8699998855591</ele>
        <time>2013-03-24T07:49:02.000Z</time>
      </trkpt>
      <trkpt lat="49.33335" lon="1.09634">
        <ele>7.8299999237061</ele>
        <time>2013-03-24T07:49:11.000Z</time>
      </trkpt>
      <trkpt lat="49.3334" lon="1.09648">
        <ele>8.3100004196167</ele>
        <time>2013-03-24T07:49:13.000Z</time>
      </trkpt>
      <trkpt lat="49.33352" lon="1.09687">
        <ele>7.8299999237061</ele>
        <time>2013-03-24T07:49:19.000Z</time>
      </trkpt>
      <trkpt lat="49.33352" lon="1.09693">
        <ele>7.8299999237061</ele>
        <time>2013-03-24T07:49:20.000Z</time>
      </trkpt>
      <trkpt lat="49.33352" lon="1.09698">
        <ele>7.8299999237061</ele>
        <time>2013-03-24T07:49:21.000Z</time>
      </trkpt>
      <trkpt lat="49.33351" lon="1.09705">
        <ele>7.3499999046326</ele>
        <time>2013-03-24T07:49:22.000Z</time>
      </trkpt>
      <trkpt lat="49.33351" lon="1.09713">
        <ele>7.3499999046326</ele>
        <time>2013-03-24T07:49:23.000Z</time>
      </trkpt>
      <trkpt lat="49.33352" lon="1.0972">
        <ele>7.3499999046326</ele>
        <time>2013-03-24T07:49:24.000Z</time>
      </trkpt>
      <trkpt lat="49.33352" lon="1.09728">
        <ele>6.8699998855591</ele>
        <time>2013-03-24T07:49:25.000Z</time>
      </trkpt>
      <trkpt lat="49.33351" lon="1.09735">
        <ele>6.8699998855591</ele>
        <time>2013-03-24T07:49:26.000Z</time>
      </trkpt>
      <trkpt lat="49.33347" lon="1.09738">
        <ele>6.8699998855591</ele>
        <time>2013-03-24T07:49:27.000Z</time>
      </trkpt>
      <trkpt lat="49.33343" lon="1.09741">
        <ele>7.3499999046326</ele>
        <time>2013-03-24T07:49:28.000Z</time>
      </trkpt>
      <trkpt lat="49.3334" lon="1.09747">
        <ele>6.8699998855591</ele>
        <time>2013-03-24T07:49:29.000Z</time>
      </trkpt>
      <trkpt lat="49.33338" lon="1.09755">
        <ele>6.8699998855591</ele>
        <time>2013-03-24T07:49:30.000Z</time>
      </trkpt>
      <trkpt lat="49.33331" lon="1.09777">
        <ele>6.8699998855591</ele>
        <time>2013-03-24T07:49:33.000Z</time>
      </trkpt>
      <trkpt lat="49.33327" lon="1.09784">
        <ele>6.8699998855591</ele>
        <time>2013-03-24T07:49:34.000Z</time>
      </trkpt>
      <trkpt lat="49.33324" lon="1.0979">
        <ele>6.8699998855591</ele>
        <time>2013-03-24T07:49:35.000Z</time>
      </trkpt>
      <trkpt lat="49.3332" lon="1.09796">
        <ele>6.8699998855591</ele>
        <time>2013-03-24T07:49:36.000Z</time>
      </trkpt>
      <trkpt lat="49.33316" lon="1.09802">
        <ele>6.8699998855591</ele>
        <time>2013-03-24T07:49:37.000Z</time>
      </trkpt>
      <trkpt lat="49.33301" lon="1.09825">
        <ele>6.8699998855591</ele>
        <time>2013-03-24T07:49:41.000Z</time>
      </trkpt>
      <trkpt lat="49.33298" lon="1.09831">
        <ele>6.8699998855591</ele>
        <time>2013-03-24T07:49:42.000Z</time>
      </trkpt>
      <trkpt lat="49.33231" lon="1.09932">
        <ele>5.4200000762939</ele>
        <time>2013-03-24T07:49:58.000Z</time>
      </trkpt>
      <trkpt lat="49.33197" lon="1.09997">
        <ele>5.4200000762939</ele>
        <time>2013-03-24T07:50:07.000Z</time>
      </trkpt>
      <trkpt lat="49.33192" lon="1.10003">
        <ele>5.4200000762939</ele>
        <time>2013-03-24T07:50:08.000Z</time>
      </trkpt>
      <trkpt lat="49.33177" lon="1.10024">
        <ele>5.4200000762939</ele>
        <time>2013-03-24T07:50:11.000Z</time>
      </trkpt>
      <trkpt lat="49.33174" lon="1.10034">
        <ele>4.9400000572205</ele>
        <time>2013-03-24T07:50:12.000Z</time>
      </trkpt>
      <trkpt lat="49.33174" lon="1.10045">
        <ele>5.4200000762939</ele>
        <time>2013-03-24T07:50:13.000Z</time>
      </trkpt>
      <trkpt lat="49.33177" lon="1.10055">
        <ele>5.4200000762939</ele>
        <time>2013-03-24T07:50:14.000Z</time>
      </trkpt>
      <trkpt lat="49.33182" lon="1.10062">
        <ele>5.4200000762939</ele>
        <time>2013-03-24T07:50:15.000Z</time>
      </trkpt>
      <trkpt lat="49.33187" lon="1.10065">
        <ele>5.9099998474121</ele>
        <time>2013-03-24T07:50:16.000Z</time>
      </trkpt>
      <trkpt lat="49.33194" lon="1.10063">
        <ele>5.9099998474121</ele>
        <time>2013-03-24T07:50:17.000Z</time>
      </trkpt>
      <trkpt lat="49.332" lon="1.10061">
        <ele>5.9099998474121</ele>
        <time>2013-03-24T07:50:18.000Z</time>
      </trkpt>
      <trkpt lat="49.33205" lon="1.10057">
        <ele>5.9099998474121</ele>
        <time>2013-03-24T07:50:19.000Z</time>
      </trkpt>
      <trkpt lat="49.3321" lon="1.10053">
        <ele>5.9099998474121</ele>
        <time>2013-03-24T07:50:20.000Z</time>
      </trkpt>
      <trkpt lat="49.33216" lon="1.10051">
        <ele>5.9099998474121</ele>
        <time>2013-03-24T07:50:21.000Z</time>
      </trkpt>
      <trkpt lat="49.33222" lon="1.10049">
        <ele>5.9099998474121</ele>
        <time>2013-03-24T07:50:22.000Z</time>
      </trkpt>
      <trkpt lat="49.33228" lon="1.10049">
        <ele>5.4200000762939</ele>
        <time>2013-03-24T07:50:23.000Z</time>
      </trkpt>
      <trkpt lat="49.33234" lon="1.1005">
        <ele>5.4200000762939</ele>
        <time>2013-03-24T07:50:24.000Z</time>
      </trkpt>
      <trkpt lat="49.33252" lon="1.10048">
        <ele>6.3899998664856</ele>
        <time>2013-03-24T07:50:27.000Z</time>
      </trkpt>
      <trkpt lat="49.33296" lon="1.10035">
        <ele>6.8699998855591</ele>
        <time>2013-03-24T07:50:35.000Z</time>
      </trkpt>
      <trkpt lat="49.33301" lon="1.10034">
        <ele>6.8699998855591</ele>
        <time>2013-03-24T07:50:36.000Z</time>
      </trkpt>
      <trkpt lat="49.33377" lon="1.10047">
        <ele>10.710000038147</ele>
        <time>2013-03-24T07:50:51.000Z</time>
      </trkpt>
      <trkpt lat="49.33464" lon="1.10105">
        <ele>13.60000038147</ele>
        <time>2013-03-24T07:51:08.000Z</time>
      </trkpt>
      <trkpt lat="49.33565" lon="1.10174">
        <ele>14.560000419617</ele>
        <time>2013-03-24T07:51:28.000Z</time>
      </trkpt>
      <trkpt lat="49.33658" lon="1.10221">
        <ele>11.670000076294</ele>
        <time>2013-03-24T07:51:43.000Z</time>
      </trkpt>
      <trkpt lat="49.33752" lon="1.10216">
        <ele>12.630000114441</ele>
        <time>2013-03-24T07:51:57.000Z</time>
      </trkpt>
      <trkpt lat="49.33852" lon="1.10204">
        <ele>15.039999961853</ele>
        <time>2013-03-24T07:52:15.000Z</time>
      </trkpt>
      <trkpt lat="49.33945" lon="1.10193">
        <ele>14.079999923706</ele>
        <time>2013-03-24T07:52:33.000Z</time>
      </trkpt>
      <trkpt lat="49.33973" lon="1.10186">
        <ele>13.119999885559</ele>
        <time>2013-03-24T07:52:40.000Z</time>
      </trkpt>
      <trkpt lat="49.33974" lon="1.10182">
        <ele>13.119999885559</ele>
        <time>2013-03-24T07:52:41.000Z</time>
      </trkpt>
      <trkpt lat="49.33975" lon="1.10178">
        <ele>13.119999885559</ele>
        <time>2013-03-24T07:52:42.000Z</time>
      </trkpt>
      <trkpt lat="49.33978" lon="1.10175">
        <ele>13.119999885559</ele>
        <time>2013-03-24T07:52:43.000Z</time>
      </trkpt>
      <trkpt lat="49.3398" lon="1.10173">
        <ele>13.119999885559</ele>
        <time>2013-03-24T07:52:44.000Z</time>
      </trkpt>
      <trkpt lat="49.33983" lon="1.10172">
        <ele>12.630000114441</ele>
        <time>2013-03-24T07:52:45.000Z</time>
      </trkpt>
      <trkpt lat="49.33987" lon="1.10173">
        <ele>12.630000114441</ele>
        <time>2013-03-24T07:52:46.000Z</time>
      </trkpt>
      <trkpt lat="49.34013" lon="1.10165">
        <ele>12.14999961853</ele>
        <time>2013-03-24T07:52:53.000Z</time>
      </trkpt>
      <trkpt lat="49.34017" lon="1.10163">
        <ele>12.14999961853</ele>
        <time>2013-03-24T07:52:54.000Z</time>
      </trkpt>
      <trkpt lat="49.34026" lon="1.10157">
        <ele>12.14999961853</ele>
        <time>2013-03-24T07:52:56.000Z</time>
      </trkpt>
      <trkpt lat="49.34031" lon="1.10156">
        <ele>12.14999961853</ele>
        <time>2013-03-24T07:52:57.000Z</time>
      </trkpt>
      <trkpt lat="49.34036" lon="1.10156">
        <ele>11.670000076294</ele>
        <time>2013-03-24T07:52:58.000Z</time>
      </trkpt>
      <trkpt lat="49.3404" lon="1.10154">
        <ele>11.670000076294</ele>
        <time>2013-03-24T07:52:59.000Z</time>
      </trkpt>
      <trkpt lat="49.34043" lon="1.1015">
        <ele>11.670000076294</ele>
        <time>2013-03-24T07:53:00.000Z</time>
      </trkpt>
      <trkpt lat="49.34044" lon="1.10145">
        <ele>11.670000076294</ele>
        <time>2013-03-24T07:53:01.000Z</time>
      </trkpt>
      <trkpt lat="49.34043" lon="1.1014">
        <ele>11.670000076294</ele>
        <time>2013-03-24T07:53:02.000Z</time>
      </trkpt>
      <trkpt lat="49.34042" lon="1.10135">
        <ele>11.670000076294</ele>
        <time>2013-03-24T07:53:03.000Z</time>
      </trkpt>
      <trkpt lat="49.3404" lon="1.10131">
        <ele>11.189999580383</ele>
        <time>2013-03-24T07:53:04.000Z</time>
      </trkpt>
      <trkpt lat="49.34037" lon="1.10129">
        <ele>11.189999580383</ele>
        <time>2013-03-24T07:53:05.000Z</time>
      </trkpt>
      <trkpt lat="49.34033" lon="1.1013">
        <ele>10.710000038147</ele>
        <time>2013-03-24T07:53:06.000Z</time>
      </trkpt>
      <trkpt lat="49.3403" lon="1.10132">
        <ele>10.710000038147</ele>
        <time>2013-03-24T07:53:07.000Z</time>
      </trkpt>
      <trkpt lat="49.34026" lon="1.10134">
        <ele>10.229999542236</ele>
        <time>2013-03-24T07:53:08.000Z</time>
      </trkpt>
      <trkpt lat="49.33964" lon="1.10154">
        <ele>8.3100004196167</ele>
        <time>2013-03-24T07:53:21.000Z</time>
      </trkpt>
      <trkpt lat="49.33959" lon="1.10155">
        <ele>8.3100004196167</ele>
        <time>2013-03-24T07:53:22.000Z</time>
      </trkpt>
      <trkpt lat="49.33955" lon="1.10153">
        <ele>8.3100004196167</ele>
        <time>2013-03-24T07:53:23.000Z</time>
      </trkpt>
      <trkpt lat="49.33953" lon="1.10148">
        <ele>7.8299999237061</ele>
        <time>2013-03-24T07:53:24.000Z</time>
      </trkpt>
      <trkpt lat="49.33943" lon="1.10083">
        <ele>8.3100004196167</ele>
        <time>2013-03-24T07:53:31.000Z</time>
      </trkpt>
      <trkpt lat="49.33921" lon="1.09944">
        <ele>7.8299999237061</ele>
        <time>2013-03-24T07:53:46.000Z</time>
      </trkpt>
      <trkpt lat="49.33914" lon="1.09891">
        <ele>7.8299999237061</ele>
        <time>2013-03-24T07:53:52.000Z</time>
      </trkpt>
      <trkpt lat="49.33913" lon="1.09884">
        <ele>7.3499999046326</ele>
        <time>2013-03-24T07:53:53.000Z</time>
      </trkpt>
      <trkpt lat="49.33909" lon="1.09878">
        <ele>6.8699998855591</ele>
        <time>2013-03-24T07:53:54.000Z</time>
      </trkpt>
      <trkpt lat="49.33902" lon="1.09867">
        <ele>6.3899998664856</ele>
        <time>2013-03-24T07:53:56.000Z</time>
      </trkpt>
      <trkpt lat="49.33901" lon="1.09859">
        <ele>6.3899998664856</ele>
        <time>2013-03-24T07:53:57.000Z</time>
      </trkpt>
      <trkpt lat="49.339" lon="1.09851">
        <ele>5.9099998474121</ele>
        <time>2013-03-24T07:53:58.000Z</time>
      </trkpt>
      <trkpt lat="49.33894" lon="1.09727">
        <ele>3.9800000190735</ele>
        <time>2013-03-24T07:54:13.000Z</time>
      </trkpt>
      <trkpt lat="49.33883" lon="1.09596">
        <ele>4.9400000572205</ele>
        <time>2013-03-24T07:54:28.000Z</time>
      </trkpt>
      <trkpt lat="49.33872" lon="1.09452">
        <ele>6.8699998855591</ele>
        <time>2013-03-24T07:54:44.000Z</time>
      </trkpt>
      <trkpt lat="49.33849" lon="1.0932">
        <ele>7.3499999046326</ele>
        <time>2013-03-24T07:54:58.000Z</time>
      </trkpt>
      <trkpt lat="49.33842" lon="1.0924">
        <ele>6.3899998664856</ele>
        <time>2013-03-24T07:55:06.000Z</time>
      </trkpt>
      <trkpt lat="49.33832" lon="1.09185">
        <ele>6.3899998664856</ele>
        <time>2013-03-24T07:55:14.000Z</time>
      </trkpt>
      <trkpt lat="49.33831" lon="1.09183">
        <ele>6.3899998664856</ele>
        <time>2013-03-24T07:55:15.000Z</time>
      </trkpt>
      <trkpt lat="49.33829" lon="1.09182">
        <ele>6.3899998664856</ele>
        <time>2013-03-24T07:55:16.000Z</time>
      </trkpt>
      <trkpt lat="49.33827" lon="1.09183">
        <ele>5.9099998474121</ele>
        <time>2013-03-24T07:55:17.000Z</time>
      </trkpt>
      <trkpt lat="49.33825" lon="1.09184">
        <ele>5.9099998474121</ele>
        <time>2013-03-24T07:55:18.000Z</time>
      </trkpt>
      <trkpt lat="49.33823" lon="1.09186">
        <ele>5.9099998474121</ele>
        <time>2013-03-24T07:55:19.000Z</time>
      </trkpt>
      <trkpt lat="49.33816" lon="1.09192">
        <ele>5.9099998474121</ele>
        <time>2013-03-24T07:55:24.000Z</time>
      </trkpt>
      <trkpt lat="49.33814" lon="1.09191">
        <ele>5.9099998474121</ele>
        <time>2013-03-24T07:55:25.000Z</time>
      </trkpt>
      <trkpt lat="49.33813" lon="1.09191">
        <ele>5.9099998474121</ele>
        <time>2013-03-24T07:55:26.000Z</time>
      </trkpt>
      <trkpt lat="49.33811" lon="1.0919">
        <ele>5.9099998474121</ele>
        <time>2013-03-24T07:55:27.000Z</time>
      </trkpt>
      <trkpt lat="49.3381" lon="1.0919">
        <ele>5.9099998474121</ele>
        <time>2013-03-24T07:55:28.000Z</time>
      </trkpt>
      <trkpt lat="49.338" lon="1.09181">
        <ele>5.4200000762939</ele>
        <time>2013-03-24T07:55:36.000Z</time>
      </trkpt>
      <trkpt lat="49.33762" lon="1.09145">
        <ele>5.4200000762939</ele>
        <time>2013-03-24T07:55:49.000Z</time>
      </trkpt>
      <trkpt lat="49.3373" lon="1.09115">
        <ele>4.460000038147</ele>
        <time>2013-03-24T07:55:57.000Z</time>
      </trkpt>
      <trkpt lat="49.33694" lon="1.09082">
        <ele>3.9800000190735</ele>
        <time>2013-03-24T07:56:05.000Z</time>
      </trkpt>
      <trkpt lat="49.3369" lon="1.09076">
        <ele>3.9800000190735</ele>
        <time>2013-03-24T07:56:06.000Z</time>
      </trkpt>
      <trkpt lat="49.33686" lon="1.09068">
        <ele>3.9800000190735</ele>
        <time>2013-03-24T07:56:07.000Z</time>
      </trkpt>
      <trkpt lat="49.33669" lon="1.09031">
        <ele>4.460000038147</ele>
        <time>2013-03-24T07:56:12.000Z</time>
      </trkpt>
      <trkpt lat="49.33664" lon="1.09026">
        <ele>4.460000038147</ele>
        <time>2013-03-24T07:56:13.000Z</time>
      </trkpt>
      <trkpt lat="49.33659" lon="1.09021">
        <ele>3.9800000190735</ele>
        <time>2013-03-24T07:56:14.000Z</time>
      </trkpt>
      <trkpt lat="49.33648" lon="1.09012">
        <ele>4.460000038147</ele>
        <time>2013-03-24T07:56:16.000Z</time>
      </trkpt>
      <trkpt lat="49.33643" lon="1.09006">
        <ele>4.460000038147</ele>
        <time>2013-03-24T07:56:17.000Z</time>
      </trkpt>
      <trkpt lat="49.33639" lon="1.08999">
        <ele>3.9800000190735</ele>
        <time>2013-03-24T07:56:18.000Z</time>
      </trkpt>
      <trkpt lat="49.33636" lon="1.08991">
        <ele>3.9800000190735</ele>
        <time>2013-03-24T07:56:19.000Z</time>
      </trkpt>
      <trkpt lat="49.33635" lon="1.08982">
        <ele>3.9800000190735</ele>
        <time>2013-03-24T07:56:20.000Z</time>
      </trkpt>
      <trkpt lat="49.33635" lon="1.08974">
        <ele>3.5</ele>
        <time>2013-03-24T07:56:21.000Z</time>
      </trkpt>
      <trkpt lat="49.33633" lon="1.08965">
        <ele>3.5</ele>
        <time>2013-03-24T07:56:22.000Z</time>
      </trkpt>
      <trkpt lat="49.33625" lon="1.08929">
        <ele>2.539999961853</ele>
        <time>2013-03-24T07:56:26.000Z</time>
      </trkpt>
      <trkpt lat="49.33596" lon="1.08802">
        <ele>2.539999961853</ele>
        <time>2013-03-24T07:56:41.000Z</time>
      </trkpt>
      <trkpt lat="49.33584" lon="1.08732">
        <ele>2.539999961853</ele>
        <time>2013-03-24T07:56:50.000Z</time>
      </trkpt>
      <trkpt lat="49.33586" lon="1.08727">
        <ele>3.0199999809265</ele>
        <time>2013-03-24T07:56:51.000Z</time>
      </trkpt>
      <trkpt lat="49.33588" lon="1.08724">
        <ele>3.0199999809265</ele>
        <time>2013-03-24T07:56:52.000Z</time>
      </trkpt>
      <trkpt lat="49.33621" lon="1.08705">
        <ele>1.1000000238419</ele>
        <time>2013-03-24T07:57:00.000Z</time>
      </trkpt>
      <trkpt lat="49.3366" lon="1.08684">
        <ele>0.62000000476837</ele>
        <time>2013-03-24T07:57:09.000Z</time>
      </trkpt>
      <trkpt lat="49.33664" lon="1.08681">
        <ele>1.1000000238419</ele>
        <time>2013-03-24T07:57:10.000Z</time>
      </trkpt>
      <trkpt lat="49.33669" lon="1.08678">
        <ele>1.1000000238419</ele>
        <time>2013-03-24T07:57:11.000Z</time>
      </trkpt>
      <trkpt lat="49.33673" lon="1.08673">
        <ele>1.1000000238419</ele>
        <time>2013-03-24T07:57:12.000Z</time>
      </trkpt>
      <trkpt lat="49.33678" lon="1.0867">
        <ele>0.62000000476837</ele>
        <time>2013-03-24T07:57:13.000Z</time>
      </trkpt>
      <trkpt lat="49.33681" lon="1.08667">
        <ele>0.62000000476837</ele>
        <time>2013-03-24T07:57:14.000Z</time>
      </trkpt>
      <trkpt lat="49.33686" lon="1.08665">
        <ele>0.62000000476837</ele>
        <time>2013-03-24T07:57:15.000Z</time>
      </trkpt>
      <trkpt lat="49.33691" lon="1.08662">
        <ele>0.14000000059605</ele>
        <time>2013-03-24T07:57:16.000Z</time>
      </trkpt>
      <trkpt lat="49.33742" lon="1.08631">
        <ele>2.539999961853</ele>
        <time>2013-03-24T07:57:28.000Z</time>
      </trkpt>
      <trkpt lat="49.33775" lon="1.08608">
        <ele>4.9400000572205</ele>
        <time>2013-03-24T07:57:39.000Z</time>
      </trkpt>
      <trkpt lat="49.33808" lon="1.08596">
        <ele>6.8699998855591</ele>
        <time>2013-03-24T07:57:50.000Z</time>
      </trkpt>
      <trkpt lat="49.33815" lon="1.0859">
        <ele>7.3499999046326</ele>
        <time>2013-03-24T07:57:53.000Z</time>
      </trkpt>
      <trkpt lat="49.33816" lon="1.08586">
        <ele>7.8299999237061</ele>
        <time>2013-03-24T07:57:54.000Z</time>
      </trkpt>
      <trkpt lat="49.33817" lon="1.0858">
        <ele>8.3100004196167</ele>
        <time>2013-03-24T07:57:55.000Z</time>
      </trkpt>
      <trkpt lat="49.33814" lon="1.08492">
        <ele>14.560000419617</ele>
        <time>2013-03-24T07:58:11.000Z</time>
      </trkpt>
      <trkpt lat="49.33805" lon="1.08413">
        <ele>19.360000610352</ele>
        <time>2013-03-24T07:58:26.000Z</time>
      </trkpt>
      <trkpt lat="49.33802" lon="1.08328">
        <ele>20.809999465942</ele>
        <time>2013-03-24T07:58:41.000Z</time>
      </trkpt>
      <trkpt lat="49.33807" lon="1.08315">
        <ele>21.770000457764</ele>
        <time>2013-03-24T07:58:44.000Z</time>
      </trkpt>
      <trkpt lat="49.33809" lon="1.08313">
        <ele>21.770000457764</ele>
        <time>2013-03-24T07:58:45.000Z</time>
      </trkpt>
      <trkpt lat="49.33813" lon="1.08308">
        <ele>22.25</ele>
        <time>2013-03-24T07:58:47.000Z</time>
      </trkpt>
      <trkpt lat="49.33815" lon="1.08306">
        <ele>22.25</ele>
        <time>2013-03-24T07:58:48.000Z</time>
      </trkpt>
      <trkpt lat="49.33818" lon="1.08306">
        <ele>22.25</ele>
        <time>2013-03-24T07:58:49.000Z</time>
      </trkpt>
      <trkpt lat="49.3382" lon="1.08307">
        <ele>22.25</ele>
        <time>2013-03-24T07:58:50.000Z</time>
      </trkpt>
      <trkpt lat="49.33822" lon="1.08306">
        <ele>22.729999542236</ele>
        <time>2013-03-24T07:58:51.000Z</time>
      </trkpt>
      <trkpt lat="49.33825" lon="1.08304">
        <ele>22.729999542236</ele>
        <time>2013-03-24T07:58:52.000Z</time>
      </trkpt>
      <trkpt lat="49.33856" lon="1.08271">
        <ele>24.64999961853</ele>
        <time>2013-03-24T07:59:05.000Z</time>
      </trkpt>
      <trkpt lat="49.33881" lon="1.08242">
        <ele>23.209999084473</ele>
        <time>2013-03-24T07:59:13.000Z</time>
      </trkpt>
      <trkpt lat="49.33884" lon="1.08239">
        <ele>23.209999084473</ele>
        <time>2013-03-24T07:59:14.000Z</time>
      </trkpt>
      <trkpt lat="49.33938" lon="1.08183">
        <ele>22.729999542236</ele>
        <time>2013-03-24T07:59:29.000Z</time>
      </trkpt>
      <trkpt lat="49.33945" lon="1.08175">
        <ele>22.729999542236</ele>
        <time>2013-03-24T07:59:31.000Z</time>
      </trkpt>
      <trkpt lat="49.33949" lon="1.08171">
        <ele>22.729999542236</ele>
        <time>2013-03-24T07:59:32.000Z</time>
      </trkpt>
      <trkpt lat="49.34009" lon="1.08109">
        <ele>22.729999542236</ele>
        <time>2013-03-24T07:59:49.000Z</time>
      </trkpt>
      <trkpt lat="49.34022" lon="1.08095">
        <ele>24.170000076294</ele>
        <time>2013-03-24T07:59:54.000Z</time>
      </trkpt>
      <trkpt lat="49.34023" lon="1.0809">
        <ele>24.170000076294</ele>
        <time>2013-03-24T07:59:55.000Z</time>
      </trkpt>
      <trkpt lat="49.34039" lon="1.08029">
        <ele>23.690000534058</ele>
        <time>2013-03-24T08:00:08.000Z</time>
      </trkpt>
      <trkpt lat="49.34058" lon="1.07954">
        <ele>25.129999160767</ele>
        <time>2013-03-24T08:00:23.000Z</time>
      </trkpt>
      <trkpt lat="49.3408" lon="1.07884">
        <ele>25.129999160767</ele>
        <time>2013-03-24T08:00:38.000Z</time>
      </trkpt>
      <trkpt lat="49.34108" lon="1.07803">
        <ele>27.049999237061</ele>
        <time>2013-03-24T08:00:56.000Z</time>
      </trkpt>
      <trkpt lat="49.34134" lon="1.07786">
        <ele>30.89999961853</ele>
        <time>2013-03-24T08:01:06.000Z</time>
      </trkpt>
      <trkpt lat="49.34137" lon="1.07785">
        <ele>30.89999961853</ele>
        <time>2013-03-24T08:01:07.000Z</time>
      </trkpt>
      <trkpt lat="49.34163" lon="1.07797">
        <ele>32.819999694824</ele>
        <time>2013-03-24T08:01:17.000Z</time>
      </trkpt>
      <trkpt lat="49.34186" lon="1.07856">
        <ele>31.379999160767</ele>
        <time>2013-03-24T08:01:28.000Z</time>
      </trkpt>
      <trkpt lat="49.34225" lon="1.07961">
        <ele>28.979999542236</ele>
        <time>2013-03-24T08:01:43.000Z</time>
      </trkpt>
      <trkpt lat="49.34256" lon="1.08103">
        <ele>26.569999694824</ele>
        <time>2013-03-24T08:02:00.000Z</time>
      </trkpt>
      <trkpt lat="49.34275" lon="1.08205">
        <ele>24.64999961853</ele>
        <time>2013-03-24T08:02:14.000Z</time>
      </trkpt>
      <trkpt lat="49.34277" lon="1.08208">
        <ele>24.64999961853</ele>
        <time>2013-03-24T08:02:15.000Z</time>
      </trkpt>
      <trkpt lat="49.34279" lon="1.08208">
        <ele>24.64999961853</ele>
        <time>2013-03-24T08:02:16.000Z</time>
      </trkpt>
      <trkpt lat="49.34282" lon="1.08206">
        <ele>24.64999961853</ele>
        <time>2013-03-24T08:02:17.000Z</time>
      </trkpt>
      <trkpt lat="49.34285" lon="1.08202">
        <ele>24.64999961853</ele>
        <time>2013-03-24T08:02:18.000Z</time>
      </trkpt>
      <trkpt lat="49.34288" lon="1.08199">
        <ele>24.64999961853</ele>
        <time>2013-03-24T08:02:19.000Z</time>
      </trkpt>
      <trkpt lat="49.3433" lon="1.08156">
        <ele>25.610000610352</ele>
        <time>2013-03-24T08:02:33.000Z</time>
      </trkpt>
      <trkpt lat="49.34371" lon="1.08113">
        <ele>27.530000686646</ele>
        <time>2013-03-24T08:02:48.000Z</time>
      </trkpt>
      <trkpt lat="49.34411" lon="1.0807">
        <ele>28.5</ele>
        <time>2013-03-24T08:03:04.000Z</time>
      </trkpt>
      <trkpt lat="49.34441" lon="1.08029">
        <ele>30.89999961853</ele>
        <time>2013-03-24T08:03:18.000Z</time>
      </trkpt>
      <trkpt lat="49.34473" lon="1.07987">
        <ele>34.259998321533</ele>
        <time>2013-03-24T08:03:33.000Z</time>
      </trkpt>
      <trkpt lat="49.34502" lon="1.07944">
        <ele>36.189998626709</ele>
        <time>2013-03-24T08:03:48.000Z</time>
      </trkpt>
      <trkpt lat="49.34533" lon="1.07893">
        <ele>40.509998321533</ele>
        <time>2013-03-24T08:04:05.000Z</time>
      </trkpt>
      <trkpt lat="49.34558" lon="1.07859">
        <ele>45.319999694824</ele>
        <time>2013-03-24T08:04:18.000Z</time>
      </trkpt>
      <trkpt lat="49.34566" lon="1.07854">
        <ele>46.279998779297</ele>
        <time>2013-03-24T08:04:22.000Z</time>
      </trkpt>
      <trkpt lat="49.34568" lon="1.07856">
        <ele>46.279998779297</ele>
        <time>2013-03-24T08:04:23.000Z</time>
      </trkpt>
      <trkpt lat="49.3457" lon="1.07859">
        <ele>46.759998321533</ele>
        <time>2013-03-24T08:04:24.000Z</time>
      </trkpt>
      <trkpt lat="49.34571" lon="1.07863">
        <ele>47.240001678467</ele>
        <time>2013-03-24T08:04:25.000Z</time>
      </trkpt>
      <trkpt lat="49.34572" lon="1.07868">
        <ele>47.240001678467</ele>
        <time>2013-03-24T08:04:26.000Z</time>
      </trkpt>
      <trkpt lat="49.34586" lon="1.0792">
        <ele>45.79999923706</ele>
        <time>2013-03-24T08:04:38.000Z</time>
      </trkpt>
      <trkpt lat="49.34587" lon="1.07928">
        <ele>45.319999694824</ele>
        <time>2013-03-24T08:04:40.000Z</time>
      </trkpt>
      <trkpt lat="49.34589" lon="1.0793">
        <ele>45.319999694824</ele>
        <time>2013-03-24T08:04:41.000Z</time>
      </trkpt>
      <trkpt lat="49.34598" lon="1.07908">
        <ele>46.279998779297</ele>
        <time>2013-03-24T08:04:48.000Z</time>
      </trkpt>
      <trkpt lat="49.34597" lon="1.07898">
        <ele>45.79999923706</ele>
        <time>2013-03-24T08:04:51.000Z</time>
      </trkpt>
      <trkpt lat="49.34597" lon="1.07884">
        <ele>45.79999923706</ele>
        <time>2013-03-24T08:04:55.000Z</time>
      </trkpt>
      <trkpt lat="49.34602" lon="1.07868">
        <ele>45.319999694824</ele>
        <time>2013-03-24T08:05:02.000Z</time>
      </trkpt>
      <trkpt lat="49.34612" lon="1.07791">
        <ele>50.130001068115</ele>
        <time>2013-03-24T08:05:22.000Z</time>
      </trkpt>
      <trkpt lat="49.3462" lon="1.07783">
        <ele>51.569999694824</ele>
        <time>2013-03-24T08:05:26.000Z</time>
      </trkpt>
      <trkpt lat="49.34641" lon="1.07777">
        <ele>54.450000762939</ele>
        <time>2013-03-24T08:05:38.000Z</time>
      </trkpt>
      <trkpt lat="49.34643" lon="1.07776">
        <ele>54.930000305176</ele>
        <time>2013-03-24T08:05:39.000Z</time>
      </trkpt>
      <trkpt lat="49.34647" lon="1.07778">
        <ele>55.889999389648</ele>
        <time>2013-03-24T08:05:41.000Z</time>
      </trkpt>
      <trkpt lat="49.34657" lon="1.07795">
        <ele>55.889999389648</ele>
        <time>2013-03-24T08:05:47.000Z</time>
      </trkpt>
      <trkpt lat="49.34674" lon="1.07814">
        <ele>54.930000305176</ele>
        <time>2013-03-24T08:05:55.000Z</time>
      </trkpt>
      <trkpt lat="49.34686" lon="1.07815">
        <ele>54.930000305176</ele>
        <time>2013-03-24T08:05:58.000Z</time>
      </trkpt>
      <trkpt lat="49.34708" lon="1.07813">
        <ele>56.369998931885</ele>
        <time>2013-03-24T08:06:05.000Z</time>
      </trkpt>
      <trkpt lat="49.34727" lon="1.07827">
        <ele>56.369998931885</ele>
        <time>2013-03-24T08:06:11.000Z</time>
      </trkpt>
      <trkpt lat="49.34756" lon="1.07832">
        <ele>56.860000610352</ele>
        <time>2013-03-24T08:06:20.000Z</time>
      </trkpt>
      <trkpt lat="49.3476" lon="1.07831">
        <ele>57.340000152588</ele>
        <time>2013-03-24T08:06:21.000Z</time>
      </trkpt>
      <trkpt lat="49.34775" lon="1.07835">
        <ele>57.819999694824</ele>
        <time>2013-03-24T08:06:25.000Z</time>
      </trkpt>
      <trkpt lat="49.34788" lon="1.07836">
        <ele>57.819999694824</ele>
        <time>2013-03-24T08:06:29.000Z</time>
      </trkpt>
      <trkpt lat="49.34809" lon="1.07849">
        <ele>59.259998321533</ele>
        <time>2013-03-24T08:06:35.000Z</time>
      </trkpt>
      <trkpt lat="49.34826" lon="1.0787">
        <ele>57.819999694824</ele>
        <time>2013-03-24T08:06:44.000Z</time>
      </trkpt>
      <trkpt lat="49.34837" lon="1.07895">
        <ele>55.889999389648</ele>
        <time>2013-03-24T08:06:52.000Z</time>
      </trkpt>
      <trkpt lat="49.34855" lon="1.07921">
        <ele>48.200000762939</ele>
        <time>2013-03-24T08:06:59.000Z</time>
      </trkpt>
      <trkpt lat="49.34859" lon="1.07923">
        <ele>46.759998321533</ele>
        <time>2013-03-24T08:07:00.000Z</time>
      </trkpt>
      <trkpt lat="49.34865" lon="1.07923">
        <ele>45.79999923706</ele>
        <time>2013-03-24T08:07:01.000Z</time>
      </trkpt>
      <trkpt lat="49.34885" lon="1.07927">
        <ele>40.029998779297</ele>
        <time>2013-03-24T08:07:06.000Z</time>
      </trkpt>
      <trkpt lat="49.34889" lon="1.07932">
        <ele>39.069999694824</ele>
        <time>2013-03-24T08:07:07.000Z</time>
      </trkpt>
      <trkpt lat="49.34892" lon="1.07938">
        <ele>38.110000610352</ele>
        <time>2013-03-24T08:07:08.000Z</time>
      </trkpt>
      <trkpt lat="49.34895" lon="1.07945">
        <ele>37.150001525879</ele>
        <time>2013-03-24T08:07:09.000Z</time>
      </trkpt>
      <trkpt lat="49.34897" lon="1.07951">
        <ele>36.669998168945</ele>
        <time>2013-03-24T08:07:10.000Z</time>
      </trkpt>
      <trkpt lat="49.34899" lon="1.07987">
        <ele>35.709999084473</ele>
        <time>2013-03-24T08:07:17.000Z</time>
      </trkpt>
      <trkpt lat="49.34905" lon="1.07996">
        <ele>35.709999084473</ele>
        <time>2013-03-24T08:07:21.000Z</time>
      </trkpt>
      <trkpt lat="49.34916" lon="1.07994">
        <ele>35.709999084473</ele>
        <time>2013-03-24T08:07:27.000Z</time>
      </trkpt>
      <trkpt lat="49.34926" lon="1.07991">
        <ele>39.54999923706</ele>
        <time>2013-03-24T08:07:38.000Z</time>
      </trkpt>
      <trkpt lat="49.34933" lon="1.07992">
        <ele>42.919998168945</ele>
        <time>2013-03-24T08:07:45.000Z</time>
      </trkpt>
      <trkpt lat="49.34936" lon="1.07988">
        <ele>45.79999923706</ele>
        <time>2013-03-24T08:07:51.000Z</time>
      </trkpt>
      <trkpt lat="49.34938" lon="1.07979">
        <ele>47.720001220703</ele>
        <time>2013-03-24T08:08:02.000Z</time>
      </trkpt>
      <trkpt lat="49.34945" lon="1.07975">
        <ele>46.759998321533</ele>
        <time>2013-03-24T08:08:08.000Z</time>
      </trkpt>
      <trkpt lat="49.34959" lon="1.07966">
        <ele>44.840000152588</ele>
        <time>2013-03-24T08:08:17.000Z</time>
      </trkpt>
      <trkpt lat="49.34974" lon="1.07971">
        <ele>43.880001068115</ele>
        <time>2013-03-24T08:08:24.000Z</time>
      </trkpt>
      <trkpt lat="49.34976" lon="1.07988">
        <ele>44.360000610352</ele>
        <time>2013-03-24T08:08:28.000Z</time>
      </trkpt>
      <trkpt lat="49.34975" lon="1.08044">
        <ele>44.360000610352</ele>
        <time>2013-03-24T08:08:38.000Z</time>
      </trkpt>
      <trkpt lat="49.34995" lon="1.08072">
        <ele>47.240001678467</ele>
        <time>2013-03-24T08:08:47.000Z</time>
      </trkpt>
      <trkpt lat="49.34999" lon="1.08076">
        <ele>47.240001678467</ele>
        <time>2013-03-24T08:08:48.000Z</time>
      </trkpt>
      <trkpt lat="49.35003" lon="1.0808">
        <ele>47.240001678467</ele>
        <time>2013-03-24T08:08:49.000Z</time>
      </trkpt>
      <trkpt lat="49.35006" lon="1.08085">
        <ele>47.240001678467</ele>
        <time>2013-03-24T08:08:50.000Z</time>
      </trkpt>
      <trkpt lat="49.35009" lon="1.08091">
        <ele>47.240001678467</ele>
        <time>2013-03-24T08:08:51.000Z</time>
      </trkpt>
      <trkpt lat="49.35012" lon="1.08096">
        <ele>47.240001678467</ele>
        <time>2013-03-24T08:08:52.000Z</time>
      </trkpt>
      <trkpt lat="49.35053" lon="1.08122">
        <ele>46.279998779297</ele>
        <time>2013-03-24T08:09:02.000Z</time>
      </trkpt>
      <trkpt lat="49.35077" lon="1.08145">
        <ele>44.840000152588</ele>
        <time>2013-03-24T08:09:07.000Z</time>
      </trkpt>
      <trkpt lat="49.35083" lon="1.08151">
        <ele>45.319999694824</ele>
        <time>2013-03-24T08:09:08.000Z</time>
      </trkpt>
      <trkpt lat="49.35089" lon="1.08155">
        <ele>45.319999694824</ele>
        <time>2013-03-24T08:09:09.000Z</time>
      </trkpt>
      <trkpt lat="49.35096" lon="1.08156">
        <ele>45.319999694824</ele>
        <time>2013-03-24T08:09:10.000Z</time>
      </trkpt>
      <trkpt lat="49.35101" lon="1.08157">
        <ele>45.319999694824</ele>
        <time>2013-03-24T08:09:11.000Z</time>
      </trkpt>
      <trkpt lat="49.35106" lon="1.08158">
        <ele>45.319999694824</ele>
        <time>2013-03-24T08:09:12.000Z</time>
      </trkpt>
      <trkpt lat="49.35109" lon="1.08159">
        <ele>45.79999923706</ele>
        <time>2013-03-24T08:09:13.000Z</time>
      </trkpt>
      <trkpt lat="49.35112" lon="1.08159">
        <ele>46.279998779297</ele>
        <time>2013-03-24T08:09:14.000Z</time>
      </trkpt>
      <trkpt lat="49.35116" lon="1.0816">
        <ele>46.759998321533</ele>
        <time>2013-03-24T08:09:15.000Z</time>
      </trkpt>
      <trkpt lat="49.35118" lon="1.08161">
        <ele>47.240001678467</ele>
        <time>2013-03-24T08:09:16.000Z</time>
      </trkpt>
      <trkpt lat="49.3512" lon="1.08162">
        <ele>47.720001220703</ele>
        <time>2013-03-24T08:09:17.000Z</time>
      </trkpt>
      <trkpt lat="49.35123" lon="1.08164">
        <ele>48.680000305176</ele>
        <time>2013-03-24T08:09:18.000Z</time>
      </trkpt>
      <trkpt lat="49.35125" lon="1.08165">
        <ele>49.650001525879</ele>
        <time>2013-03-24T08:09:19.000Z</time>
      </trkpt>
      <trkpt lat="49.35146" lon="1.08184">
        <ele>56.860000610352</ele>
        <time>2013-03-24T08:09:30.000Z</time>
      </trkpt>
      <trkpt lat="49.35173" lon="1.08219">
        <ele>53.970001220703</ele>
        <time>2013-03-24T08:09:40.000Z</time>
      </trkpt>
      <trkpt lat="49.35196" lon="1.0827">
        <ele>52.04999923706</ele>
        <time>2013-03-24T08:09:52.000Z</time>
      </trkpt>
      <trkpt lat="49.35215" lon="1.08295">
        <ele>50.130001068115</ele>
        <time>2013-03-24T08:09:58.000Z</time>
      </trkpt>
      <trkpt lat="49.35258" lon="1.08347">
        <ele>48.680000305176</ele>
        <time>2013-03-24T08:10:08.000Z</time>
      </trkpt>
      <trkpt lat="49.35281" lon="1.08378">
        <ele>47.720001220703</ele>
        <time>2013-03-24T08:10:16.000Z</time>
      </trkpt>
      <trkpt lat="49.35281" lon="1.08381">
        <ele>48.680000305176</ele>
        <time>2013-03-24T08:10:17.000Z</time>
      </trkpt>
      <trkpt lat="49.35281" lon="1.08384">
        <ele>48.680000305176</ele>
        <time>2013-03-24T08:10:18.000Z</time>
      </trkpt>
      <trkpt lat="49.35281" lon="1.08388">
        <ele>49.159999847412</ele>
        <time>2013-03-24T08:10:19.000Z</time>
      </trkpt>
      <trkpt lat="49.3528" lon="1.08392">
        <ele>49.159999847412</ele>
        <time>2013-03-24T08:10:20.000Z</time>
      </trkpt>
      <trkpt lat="49.35279" lon="1.08397">
        <ele>49.159999847412</ele>
        <time>2013-03-24T08:10:21.000Z</time>
      </trkpt>
      <trkpt lat="49.35279" lon="1.08402">
        <ele>49.159999847412</ele>
        <time>2013-03-24T08:10:22.000Z</time>
      </trkpt>
      <trkpt lat="49.35279" lon="1.08407">
        <ele>49.159999847412</ele>
        <time>2013-03-24T08:10:23.000Z</time>
      </trkpt>
      <trkpt lat="49.35279" lon="1.08412">
        <ele>49.159999847412</ele>
        <time>2013-03-24T08:10:24.000Z</time>
      </trkpt>
      <trkpt lat="49.3528" lon="1.08416">
        <ele>49.159999847412</ele>
        <time>2013-03-24T08:10:25.000Z</time>
      </trkpt>
      <trkpt lat="49.35282" lon="1.08421">
        <ele>48.680000305176</ele>
        <time>2013-03-24T08:10:26.000Z</time>
      </trkpt>
      <trkpt lat="49.35283" lon="1.08425">
        <ele>48.200000762939</ele>
        <time>2013-03-24T08:10:27.000Z</time>
      </trkpt>
      <trkpt lat="49.35287" lon="1.0847">
        <ele>45.319999694824</ele>
        <time>2013-03-24T08:10:36.000Z</time>
      </trkpt>
      <trkpt lat="49.35288" lon="1.08473">
        <ele>45.319999694824</ele>
        <time>2013-03-24T08:10:37.000Z</time>
      </trkpt>
      <trkpt lat="49.35294" lon="1.08485">
        <ele>43.880001068115</ele>
        <time>2013-03-24T08:10:41.000Z</time>
      </trkpt>
      <trkpt lat="49.35294" lon="1.08488">
        <ele>43.880001068115</ele>
        <time>2013-03-24T08:10:42.000Z</time>
      </trkpt>
      <trkpt lat="49.35293" lon="1.08491">
        <ele>43.880001068115</ele>
        <time>2013-03-24T08:10:43.000Z</time>
      </trkpt>
      <trkpt lat="49.35291" lon="1.08495">
        <ele>43.880001068115</ele>
        <time>2013-03-24T08:10:44.000Z</time>
      </trkpt>
      <trkpt lat="49.35291" lon="1.085">
        <ele>43.400001525879</ele>
        <time>2013-03-24T08:10:45.000Z</time>
      </trkpt>
      <trkpt lat="49.3529" lon="1.08506">
        <ele>42.919998168945</ele>
        <time>2013-03-24T08:10:46.000Z</time>
      </trkpt>
      <trkpt lat="49.35289" lon="1.08527">
        <ele>40.990001678467</ele>
        <time>2013-03-24T08:10:50.000Z</time>
      </trkpt>
      <trkpt lat="49.35287" lon="1.08529">
        <ele>40.990001678467</ele>
        <time>2013-03-24T08:10:51.000Z</time>
      </trkpt>
      <trkpt lat="49.35287" lon="1.0853">
        <ele>40.990001678467</ele>
        <time>2013-03-24T08:10:52.000Z</time>
      </trkpt>
      <trkpt lat="49.35286" lon="1.08537">
        <ele>40.509998321533</ele>
        <time>2013-03-24T08:10:55.000Z</time>
      </trkpt>
      <trkpt lat="49.35289" lon="1.08563">
        <ele>38.590000152588</ele>
        <time>2013-03-24T08:11:00.000Z</time>
      </trkpt>
      <trkpt lat="49.35289" lon="1.0857">
        <ele>38.110000610352</ele>
        <time>2013-03-24T08:11:01.000Z</time>
      </trkpt>
      <trkpt lat="49.35289" lon="1.08577">
        <ele>38.110000610352</ele>
        <time>2013-03-24T08:11:02.000Z</time>
      </trkpt>
      <trkpt lat="49.35288" lon="1.08584">
        <ele>37.630001068115</ele>
        <time>2013-03-24T08:11:03.000Z</time>
      </trkpt>
      <trkpt lat="49.35288" lon="1.0859">
        <ele>37.630001068115</ele>
        <time>2013-03-24T08:11:04.000Z</time>
      </trkpt>
      <trkpt lat="49.35289" lon="1.08595">
        <ele>37.150001525879</ele>
        <time>2013-03-24T08:11:05.000Z</time>
      </trkpt>
      <trkpt lat="49.35291" lon="1.086">
        <ele>37.150001525879</ele>
        <time>2013-03-24T08:11:06.000Z</time>
      </trkpt>
      <trkpt lat="49.35293" lon="1.08604">
        <ele>36.669998168945</ele>
        <time>2013-03-24T08:11:07.000Z</time>
      </trkpt>
      <trkpt lat="49.35295" lon="1.08607">
        <ele>36.669998168945</ele>
        <time>2013-03-24T08:11:08.000Z</time>
      </trkpt>
      <trkpt lat="49.35298" lon="1.08611">
        <ele>36.189998626709</ele>
        <time>2013-03-24T08:11:09.000Z</time>
      </trkpt>
      <trkpt lat="49.353" lon="1.08614">
        <ele>35.709999084473</ele>
        <time>2013-03-24T08:11:10.000Z</time>
      </trkpt>
      <trkpt lat="49.35303" lon="1.08616">
        <ele>35.229999542236</ele>
        <time>2013-03-24T08:11:11.000Z</time>
      </trkpt>
      <trkpt lat="49.35306" lon="1.0862">
        <ele>35.229999542236</ele>
        <time>2013-03-24T08:11:12.000Z</time>
      </trkpt>
      <trkpt lat="49.35308" lon="1.08621">
        <ele>35.229999542236</ele>
        <time>2013-03-24T08:11:13.000Z</time>
      </trkpt>
      <trkpt lat="49.35309" lon="1.08625">
        <ele>35.709999084473</ele>
        <time>2013-03-24T08:11:14.000Z</time>
      </trkpt>
      <trkpt lat="49.35309" lon="1.08628">
        <ele>36.189998626709</ele>
        <time>2013-03-24T08:11:15.000Z</time>
      </trkpt>
      <trkpt lat="49.3531" lon="1.08632">
        <ele>36.669998168945</ele>
        <time>2013-03-24T08:11:16.000Z</time>
      </trkpt>
      <trkpt lat="49.35312" lon="1.08636">
        <ele>36.669998168945</ele>
        <time>2013-03-24T08:11:17.000Z</time>
      </trkpt>
      <trkpt lat="49.35335" lon="1.08665">
        <ele>38.110000610352</ele>
        <time>2013-03-24T08:11:27.000Z</time>
      </trkpt>
      <trkpt lat="49.35337" lon="1.08666">
        <ele>37.630001068115</ele>
        <time>2013-03-24T08:11:28.000Z</time>
      </trkpt>
      <trkpt lat="49.35339" lon="1.08669">
        <ele>37.630001068115</ele>
        <time>2013-03-24T08:11:29.000Z</time>
      </trkpt>
      <trkpt lat="49.3534" lon="1.08672">
        <ele>37.630001068115</ele>
        <time>2013-03-24T08:11:30.000Z</time>
      </trkpt>
      <trkpt lat="49.35341" lon="1.08676">
        <ele>37.630001068115</ele>
        <time>2013-03-24T08:11:31.000Z</time>
      </trkpt>
      <trkpt lat="49.35342" lon="1.08679">
        <ele>37.150001525879</ele>
        <time>2013-03-24T08:11:32.000Z</time>
      </trkpt>
      <trkpt lat="49.35342" lon="1.0868">
        <ele>36.669998168945</ele>
        <time>2013-03-24T08:11:33.000Z</time>
      </trkpt>
      <trkpt lat="49.35344" lon="1.08681">
        <ele>36.189998626709</ele>
        <time>2013-03-24T08:11:34.000Z</time>
      </trkpt>
      <trkpt lat="49.35346" lon="1.08682">
        <ele>35.709999084473</ele>
        <time>2013-03-24T08:11:35.000Z</time>
      </trkpt>
      <trkpt lat="49.35349" lon="1.08682">
        <ele>35.709999084473</ele>
        <time>2013-03-24T08:11:36.000Z</time>
      </trkpt>
      <trkpt lat="49.35352" lon="1.08684">
        <ele>34.740001678467</ele>
        <time>2013-03-24T08:11:37.000Z</time>
      </trkpt>
      <trkpt lat="49.35355" lon="1.08685">
        <ele>34.740001678467</ele>
        <time>2013-03-24T08:11:38.000Z</time>
      </trkpt>
      <trkpt lat="49.35359" lon="1.08686">
        <ele>34.259998321533</ele>
        <time>2013-03-24T08:11:39.000Z</time>
      </trkpt>
      <trkpt lat="49.35362" lon="1.08689">
        <ele>34.259998321533</ele>
        <time>2013-03-24T08:11:40.000Z</time>
      </trkpt>
      <trkpt lat="49.35365" lon="1.08691">
        <ele>33.779998779297</ele>
        <time>2013-03-24T08:11:41.000Z</time>
      </trkpt>
      <trkpt lat="49.35366" lon="1.08693">
        <ele>33.779998779297</ele>
        <time>2013-03-24T08:11:42.000Z</time>
      </trkpt>
      <trkpt lat="49.35368" lon="1.08694">
        <ele>33.29999923706</ele>
        <time>2013-03-24T08:11:43.000Z</time>
      </trkpt>
      <trkpt lat="49.35371" lon="1.08695">
        <ele>33.29999923706</ele>
        <time>2013-03-24T08:11:44.000Z</time>
      </trkpt>
      <trkpt lat="49.35375" lon="1.08695">
        <ele>33.29999923706</ele>
        <time>2013-03-24T08:11:45.000Z</time>
      </trkpt>
      <trkpt lat="49.35378" lon="1.08696">
        <ele>33.29999923706</ele>
        <time>2013-03-24T08:11:46.000Z</time>
      </trkpt>
      <trkpt lat="49.35381" lon="1.08699">
        <ele>33.779998779297</ele>
        <time>2013-03-24T08:11:47.000Z</time>
      </trkpt>
      <trkpt lat="49.35384" lon="1.08703">
        <ele>34.740001678467</ele>
        <time>2013-03-24T08:11:48.000Z</time>
      </trkpt>
      <trkpt lat="49.35387" lon="1.08705">
        <ele>34.740001678467</ele>
        <time>2013-03-24T08:11:49.000Z</time>
      </trkpt>
      <trkpt lat="49.35391" lon="1.08707">
        <ele>34.740001678467</ele>
        <time>2013-03-24T08:11:50.000Z</time>
      </trkpt>
      <trkpt lat="49.35404" lon="1.0872">
        <ele>36.669998168945</ele>
        <time>2013-03-24T08:11:54.000Z</time>
      </trkpt>
      <trkpt lat="49.35407" lon="1.08722">
        <ele>36.189998626709</ele>
        <time>2013-03-24T08:11:55.000Z</time>
      </trkpt>
      <trkpt lat="49.3541" lon="1.08724">
        <ele>36.189998626709</ele>
        <time>2013-03-24T08:11:56.000Z</time>
      </trkpt>
      <trkpt lat="49.35412" lon="1.08726">
        <ele>36.669998168945</ele>
        <time>2013-03-24T08:11:57.000Z</time>
      </trkpt>
      <trkpt lat="49.35414" lon="1.08728">
        <ele>37.150001525879</ele>
        <time>2013-03-24T08:11:58.000Z</time>
      </trkpt>
      <trkpt lat="49.35416" lon="1.08731">
        <ele>37.150001525879</ele>
        <time>2013-03-24T08:11:59.000Z</time>
      </trkpt>
      <trkpt lat="49.35419" lon="1.08734">
        <ele>37.630001068115</ele>
        <time>2013-03-24T08:12:00.000Z</time>
      </trkpt>
      <trkpt lat="49.35421" lon="1.08737">
        <ele>38.110000610352</ele>
        <time>2013-03-24T08:12:01.000Z</time>
      </trkpt>
      <trkpt lat="49.35423" lon="1.08741">
        <ele>38.110000610352</ele>
        <time>2013-03-24T08:12:02.000Z</time>
      </trkpt>
      <trkpt lat="49.35425" lon="1.08745">
        <ele>38.590000152588</ele>
        <time>2013-03-24T08:12:03.000Z</time>
      </trkpt>
      <trkpt lat="49.35427" lon="1.08749">
        <ele>38.590000152588</ele>
        <time>2013-03-24T08:12:04.000Z</time>
      </trkpt>
      <trkpt lat="49.3543" lon="1.08752">
        <ele>38.590000152588</ele>
        <time>2013-03-24T08:12:05.000Z</time>
      </trkpt>
      <trkpt lat="49.35432" lon="1.08756">
        <ele>38.590000152588</ele>
        <time>2013-03-24T08:12:06.000Z</time>
      </trkpt>
      <trkpt lat="49.35435" lon="1.0876">
        <ele>38.590000152588</ele>
        <time>2013-03-24T08:12:07.000Z</time>
      </trkpt>
      <trkpt lat="49.35451" lon="1.08795">
        <ele>39.54999923706</ele>
        <time>2013-03-24T08:12:15.000Z</time>
      </trkpt>
      <trkpt lat="49.35452" lon="1.08799">
        <ele>39.54999923706</ele>
        <time>2013-03-24T08:12:16.000Z</time>
      </trkpt>
      <trkpt lat="49.35454" lon="1.08802">
        <ele>39.069999694824</ele>
        <time>2013-03-24T08:12:17.000Z</time>
      </trkpt>
      <trkpt lat="49.35456" lon="1.08803">
        <ele>39.069999694824</ele>
        <time>2013-03-24T08:12:18.000Z</time>
      </trkpt>
      <trkpt lat="49.35458" lon="1.08806">
        <ele>38.110000610352</ele>
        <time>2013-03-24T08:12:19.000Z</time>
      </trkpt>
      <trkpt lat="49.3546" lon="1.08809">
        <ele>37.630001068115</ele>
        <time>2013-03-24T08:12:20.000Z</time>
      </trkpt>
      <trkpt lat="49.35463" lon="1.08812">
        <ele>37.630001068115</ele>
        <time>2013-03-24T08:12:21.000Z</time>
      </trkpt>
      <trkpt lat="49.35466" lon="1.08813">
        <ele>37.150001525879</ele>
        <time>2013-03-24T08:12:22.000Z</time>
      </trkpt>
      <trkpt lat="49.35469" lon="1.08815">
        <ele>36.669998168945</ele>
        <time>2013-03-24T08:12:23.000Z</time>
      </trkpt>
      <trkpt lat="49.35472" lon="1.08815">
        <ele>36.189998626709</ele>
        <time>2013-03-24T08:12:24.000Z</time>
      </trkpt>
      <trkpt lat="49.35474" lon="1.08814">
        <ele>35.709999084473</ele>
        <time>2013-03-24T08:12:25.000Z</time>
      </trkpt>
      <trkpt lat="49.35476" lon="1.0881">
        <ele>35.709999084473</ele>
        <time>2013-03-24T08:12:26.000Z</time>
      </trkpt>
      <trkpt lat="49.35476" lon="1.08805">
        <ele>35.709999084473</ele>
        <time>2013-03-24T08:12:27.000Z</time>
      </trkpt>
      <trkpt lat="49.35495" lon="1.08751">
        <ele>30.89999961853</ele>
        <time>2013-03-24T08:12:40.000Z</time>
      </trkpt>
      <trkpt lat="49.35506" lon="1.08701">
        <ele>26.569999694824</ele>
        <time>2013-03-24T08:12:50.000Z</time>
      </trkpt>
      <trkpt lat="49.35518" lon="1.08642">
        <ele>26.569999694824</ele>
        <time>2013-03-24T08:13:01.000Z</time>
      </trkpt>
      <trkpt lat="49.35531" lon="1.08581">
        <ele>29.459999084473</ele>
        <time>2013-03-24T08:13:13.000Z</time>
      </trkpt>
      <trkpt lat="49.35543" lon="1.08536">
        <ele>34.259998321533</ele>
        <time>2013-03-24T08:13:23.000Z</time>
      </trkpt>
      <trkpt lat="49.35556" lon="1.08481">
        <ele>39.069999694824</ele>
        <time>2013-03-24T08:13:35.000Z</time>
      </trkpt>
      <trkpt lat="49.35571" lon="1.08428">
        <ele>43.400001525879</ele>
        <time>2013-03-24T08:13:45.000Z</time>
      </trkpt>
      <trkpt lat="49.35573" lon="1.08414">
        <ele>44.360000610352</ele>
        <time>2013-03-24T08:13:48.000Z</time>
      </trkpt>
      <trkpt lat="49.35575" lon="1.0841">
        <ele>44.840000152588</ele>
        <time>2013-03-24T08:13:49.000Z</time>
      </trkpt>
      <trkpt lat="49.35576" lon="1.08406">
        <ele>44.840000152588</ele>
        <time>2013-03-24T08:13:50.000Z</time>
      </trkpt>
      <trkpt lat="49.35577" lon="1.08401">
        <ele>45.319999694824</ele>
        <time>2013-03-24T08:13:51.000Z</time>
      </trkpt>
      <trkpt lat="49.35577" lon="1.08397">
        <ele>45.319999694824</ele>
        <time>2013-03-24T08:13:52.000Z</time>
      </trkpt>
      <trkpt lat="49.35578" lon="1.0839">
        <ele>44.840000152588</ele>
        <time>2013-03-24T08:13:55.000Z</time>
      </trkpt>
      <trkpt lat="49.35576" lon="1.08388">
        <ele>44.840000152588</ele>
        <time>2013-03-24T08:13:56.000Z</time>
      </trkpt>
      <trkpt lat="49.35562" lon="1.08376">
        <ele>44.360000610352</ele>
        <time>2013-03-24T08:14:02.000Z</time>
      </trkpt>
      <trkpt lat="49.3556" lon="1.08375">
        <ele>44.840000152588</ele>
        <time>2013-03-24T08:14:03.000Z</time>
      </trkpt>
      <trkpt lat="49.35558" lon="1.08373">
        <ele>44.360000610352</ele>
        <time>2013-03-24T08:14:04.000Z</time>
      </trkpt>
      <trkpt lat="49.35523" lon="1.08344">
        <ele>44.840000152588</ele>
        <time>2013-03-24T08:14:16.000Z</time>
      </trkpt>
      <trkpt lat="49.35496" lon="1.08322">
        <ele>44.840000152588</ele>
        <time>2013-03-24T08:14:28.000Z</time>
      </trkpt>
      <trkpt lat="49.35473" lon="1.08304">
        <ele>45.319999694824</ele>
        <time>2013-03-24T08:14:39.000Z</time>
      </trkpt>
      <trkpt lat="49.35436" lon="1.08276">
        <ele>44.840000152588</ele>
        <time>2013-03-24T08:14:52.000Z</time>
      </trkpt>
      <trkpt lat="49.35403" lon="1.08251">
        <ele>43.880001068115</ele>
        <time>2013-03-24T08:15:04.000Z</time>
      </trkpt>
      <trkpt lat="49.35377" lon="1.08231">
        <ele>42.439998626709</ele>
        <time>2013-03-24T08:15:14.000Z</time>
      </trkpt>
      <trkpt lat="49.35337" lon="1.08207">
        <ele>43.400001525879</ele>
        <time>2013-03-24T08:15:27.000Z</time>
      </trkpt>
      <trkpt lat="49.35301" lon="1.08196">
        <ele>45.319999694824</ele>
        <time>2013-03-24T08:15:38.000Z</time>
      </trkpt>
      <trkpt lat="49.35287" lon="1.08191">
        <ele>46.279998779297</ele>
        <time>2013-03-24T08:15:43.000Z</time>
      </trkpt>
      <trkpt lat="49.35284" lon="1.08187">
        <ele>47.240001678467</ele>
        <time>2013-03-24T08:15:45.000Z</time>
      </trkpt>
      <trkpt lat="49.35284" lon="1.08186">
        <ele>47.720001220703</ele>
        <time>2013-03-24T08:15:46.000Z</time>
      </trkpt>
      <trkpt lat="49.35284" lon="1.08184">
        <ele>47.720001220703</ele>
        <time>2013-03-24T08:15:47.000Z</time>
      </trkpt>
      <trkpt lat="49.35284" lon="1.08183">
        <ele>47.720001220703</ele>
        <time>2013-03-24T08:15:48.000Z</time>
      </trkpt>
      <trkpt lat="49.35286" lon="1.08182">
        <ele>47.720001220703</ele>
        <time>2013-03-24T08:15:49.000Z</time>
      </trkpt>
      <trkpt lat="49.35287" lon="1.08181">
        <ele>47.720001220703</ele>
        <time>2013-03-24T08:15:50.000Z</time>
      </trkpt>
      <trkpt lat="49.35288" lon="1.08179">
        <ele>48.200000762939</ele>
        <time>2013-03-24T08:15:51.000Z</time>
      </trkpt>
      <trkpt lat="49.35289" lon="1.08178">
        <ele>48.200000762939</ele>
        <time>2013-03-24T08:15:52.000Z</time>
      </trkpt>
      <trkpt lat="49.35291" lon="1.08177">
        <ele>48.200000762939</ele>
        <time>2013-03-24T08:15:53.000Z</time>
      </trkpt>
      <trkpt lat="49.35293" lon="1.08172">
        <ele>47.720001220703</ele>
        <time>2013-03-24T08:15:56.000Z</time>
      </trkpt>
      <trkpt lat="49.35293" lon="1.0817">
        <ele>47.240001678467</ele>
        <time>2013-03-24T08:15:57.000Z</time>
      </trkpt>
      <trkpt lat="49.35294" lon="1.08168">
        <ele>47.240001678467</ele>
        <time>2013-03-24T08:15:58.000Z</time>
      </trkpt>
      <trkpt lat="49.35295" lon="1.08163">
        <ele>48.200000762939</ele>
        <time>2013-03-24T08:16:06.000Z</time>
      </trkpt>
      <trkpt lat="49.35297" lon="1.08159">
        <ele>49.159999847412</ele>
        <time>2013-03-24T08:16:16.000Z</time>
      </trkpt>
      <trkpt lat="49.3531" lon="1.08114">
        <ele>49.650001525879</ele>
        <time>2013-03-24T08:16:29.000Z</time>
      </trkpt>
      <trkpt lat="49.35315" lon="1.08098">
        <ele>49.159999847412</ele>
        <time>2013-03-24T08:16:40.000Z</time>
      </trkpt>
      <trkpt lat="49.35317" lon="1.08093">
        <ele>48.680000305176</ele>
        <time>2013-03-24T08:16:42.000Z</time>
      </trkpt>
      <trkpt lat="49.35319" lon="1.0809">
        <ele>47.720001220703</ele>
        <time>2013-03-24T08:16:43.000Z</time>
      </trkpt>
      <trkpt lat="49.35321" lon="1.08085">
        <ele>47.240001678467</ele>
        <time>2013-03-24T08:16:44.000Z</time>
      </trkpt>
      <trkpt lat="49.35322" lon="1.0808">
        <ele>46.279998779297</ele>
        <time>2013-03-24T08:16:45.000Z</time>
      </trkpt>
      <trkpt lat="49.35321" lon="1.08074">
        <ele>45.79999923706</ele>
        <time>2013-03-24T08:16:46.000Z</time>
      </trkpt>
      <trkpt lat="49.3532" lon="1.08069">
        <ele>45.79999923706</ele>
        <time>2013-03-24T08:16:47.000Z</time>
      </trkpt>
      <trkpt lat="49.35318" lon="1.08065">
        <ele>45.319999694824</ele>
        <time>2013-03-24T08:16:48.000Z</time>
      </trkpt>
      <trkpt lat="49.35317" lon="1.08063">
        <ele>45.319999694824</ele>
        <time>2013-03-24T08:16:49.000Z</time>
      </trkpt>
      <trkpt lat="49.35316" lon="1.08061">
        <ele>45.319999694824</ele>
        <time>2013-03-24T08:16:50.000Z</time>
      </trkpt>
      <trkpt lat="49.35314" lon="1.0806">
        <ele>45.319999694824</ele>
        <time>2013-03-24T08:16:51.000Z</time>
      </trkpt>
      <trkpt lat="49.35312" lon="1.08059">
        <ele>45.319999694824</ele>
        <time>2013-03-24T08:16:52.000Z</time>
      </trkpt>
      <trkpt lat="49.35311" lon="1.08057">
        <ele>44.840000152588</ele>
        <time>2013-03-24T08:16:53.000Z</time>
      </trkpt>
      <trkpt lat="49.35309" lon="1.08056">
        <ele>44.840000152588</ele>
        <time>2013-03-24T08:16:54.000Z</time>
      </trkpt>
      <trkpt lat="49.35308" lon="1.08054">
        <ele>44.840000152588</ele>
        <time>2013-03-24T08:16:55.000Z</time>
      </trkpt>
      <trkpt lat="49.35296" lon="1.08038">
        <ele>45.79999923706</ele>
        <time>2013-03-24T08:17:02.000Z</time>
      </trkpt>
      <trkpt lat="49.35297" lon="1.08035">
        <ele>45.79999923706</ele>
        <time>2013-03-24T08:17:03.000Z</time>
      </trkpt>
      <trkpt lat="49.353" lon="1.08024">
        <ele>44.360000610352</ele>
        <time>2013-03-24T08:17:09.000Z</time>
      </trkpt>
      <trkpt lat="49.353" lon="1.08022">
        <ele>44.360000610352</ele>
        <time>2013-03-24T08:17:10.000Z</time>
      </trkpt>
      <trkpt lat="49.353" lon="1.08018">
        <ele>43.880001068115</ele>
        <time>2013-03-24T08:17:11.000Z</time>
      </trkpt>
      <trkpt lat="49.35302" lon="1.08015">
        <ele>43.880001068115</ele>
        <time>2013-03-24T08:17:12.000Z</time>
      </trkpt>
      <trkpt lat="49.35303" lon="1.08013">
        <ele>43.400001525879</ele>
        <time>2013-03-24T08:17:13.000Z</time>
      </trkpt>
      <trkpt lat="49.35303" lon="1.08009">
        <ele>42.919998168945</ele>
        <time>2013-03-24T08:17:14.000Z</time>
      </trkpt>
      <trkpt lat="49.35302" lon="1.08005">
        <ele>41.950000762939</ele>
        <time>2013-03-24T08:17:15.000Z</time>
      </trkpt>
      <trkpt lat="49.353" lon="1.08003">
        <ele>41.950000762939</ele>
        <time>2013-03-24T08:17:16.000Z</time>
      </trkpt>
      <trkpt lat="49.35298" lon="1.08002">
        <ele>41.470001220703</ele>
        <time>2013-03-24T08:17:17.000Z</time>
      </trkpt>
      <trkpt lat="49.35296" lon="1.08001">
        <ele>41.470001220703</ele>
        <time>2013-03-24T08:17:18.000Z</time>
      </trkpt>
      <trkpt lat="49.35293" lon="1.08">
        <ele>41.470001220703</ele>
        <time>2013-03-24T08:17:19.000Z</time>
      </trkpt>
      <trkpt lat="49.35292" lon="1.07999">
        <ele>41.470001220703</ele>
        <time>2013-03-24T08:17:20.000Z</time>
      </trkpt>
      <trkpt lat="49.3529" lon="1.07997">
        <ele>41.470001220703</ele>
        <time>2013-03-24T08:17:21.000Z</time>
      </trkpt>
      <trkpt lat="49.35288" lon="1.07996">
        <ele>41.950000762939</ele>
        <time>2013-03-24T08:17:22.000Z</time>
      </trkpt>
      <trkpt lat="49.35286" lon="1.07994">
        <ele>41.950000762939</ele>
        <time>2013-03-24T08:17:23.000Z</time>
      </trkpt>
      <trkpt lat="49.35284" lon="1.07992">
        <ele>42.439998626709</ele>
        <time>2013-03-24T08:17:24.000Z</time>
      </trkpt>
      <trkpt lat="49.35282" lon="1.07989">
        <ele>42.439998626709</ele>
        <time>2013-03-24T08:17:25.000Z</time>
      </trkpt>
      <trkpt lat="49.35276" lon="1.07978">
        <ele>45.319999694824</ele>
        <time>2013-03-24T08:17:29.000Z</time>
      </trkpt>
      <trkpt lat="49.35276" lon="1.07976">
        <ele>45.79999923706</ele>
        <time>2013-03-24T08:17:30.000Z</time>
      </trkpt>
      <trkpt lat="49.35277" lon="1.07971">
        <ele>47.240001678467</ele>
        <time>2013-03-24T08:17:32.000Z</time>
      </trkpt>
      <trkpt lat="49.35278" lon="1.07969">
        <ele>47.240001678467</ele>
        <time>2013-03-24T08:17:33.000Z</time>
      </trkpt>
      <trkpt lat="49.35279" lon="1.07966">
        <ele>48.200000762939</ele>
        <time>2013-03-24T08:17:34.000Z</time>
      </trkpt>
      <trkpt lat="49.3528" lon="1.07964">
        <ele>48.680000305176</ele>
        <time>2013-03-24T08:17:35.000Z</time>
      </trkpt>
      <trkpt lat="49.35281" lon="1.07957">
        <ele>50.610000610352</ele>
        <time>2013-03-24T08:17:39.000Z</time>
      </trkpt>
      <trkpt lat="49.3528" lon="1.07953">
        <ele>51.090000152588</ele>
        <time>2013-03-24T08:17:40.000Z</time>
      </trkpt>
      <trkpt lat="49.35278" lon="1.07947">
        <ele>51.090000152588</ele>
        <time>2013-03-24T08:17:43.000Z</time>
      </trkpt>
      <trkpt lat="49.35277" lon="1.07944">
        <ele>51.090000152588</ele>
        <time>2013-03-24T08:17:44.000Z</time>
      </trkpt>
      <trkpt lat="49.35276" lon="1.07942">
        <ele>51.090000152588</ele>
        <time>2013-03-24T08:17:45.000Z</time>
      </trkpt>
      <trkpt lat="49.35277" lon="1.07939">
        <ele>51.569999694824</ele>
        <time>2013-03-24T08:17:46.000Z</time>
      </trkpt>
      <trkpt lat="49.35278" lon="1.07937">
        <ele>52.04999923706</ele>
        <time>2013-03-24T08:17:47.000Z</time>
      </trkpt>
      <trkpt lat="49.35279" lon="1.07934">
        <ele>52.04999923706</ele>
        <time>2013-03-24T08:17:48.000Z</time>
      </trkpt>
      <trkpt lat="49.35281" lon="1.07932">
        <ele>52.529998779297</ele>
        <time>2013-03-24T08:17:49.000Z</time>
      </trkpt>
      <trkpt lat="49.35282" lon="1.07931">
        <ele>53.009998321533</ele>
        <time>2013-03-24T08:17:50.000Z</time>
      </trkpt>
      <trkpt lat="49.35284" lon="1.0793">
        <ele>53.009998321533</ele>
        <time>2013-03-24T08:17:51.000Z</time>
      </trkpt>
      <trkpt lat="49.35286" lon="1.07929">
        <ele>53.490001678467</ele>
        <time>2013-03-24T08:17:52.000Z</time>
      </trkpt>
      <trkpt lat="49.35287" lon="1.07928">
        <ele>53.009998321533</ele>
        <time>2013-03-24T08:17:53.000Z</time>
      </trkpt>
      <trkpt lat="49.35302" lon="1.07913">
        <ele>54.930000305176</ele>
        <time>2013-03-24T08:18:03.000Z</time>
      </trkpt>
      <trkpt lat="49.35304" lon="1.07906">
        <ele>54.930000305176</ele>
        <time>2013-03-24T08:18:05.000Z</time>
      </trkpt>
      <trkpt lat="49.35317" lon="1.07865">
        <ele>55.409999847412</ele>
        <time>2013-03-24T08:18:14.000Z</time>
      </trkpt>
      <trkpt lat="49.35331" lon="1.07821">
        <ele>54.450000762939</ele>
        <time>2013-03-24T08:18:23.000Z</time>
      </trkpt>
      <trkpt lat="49.35343" lon="1.07774">
        <ele>54.930000305176</ele>
        <time>2013-03-24T08:18:33.000Z</time>
      </trkpt>
      <trkpt lat="49.35357" lon="1.07724">
        <ele>58.779998779297</ele>
        <time>2013-03-24T08:18:43.000Z</time>
      </trkpt>
      <trkpt lat="49.35373" lon="1.07674">
        <ele>62.619998931885</ele>
        <time>2013-03-24T08:18:54.000Z</time>
      </trkpt>
      <trkpt lat="49.35387" lon="1.07637">
        <ele>61.180000305176</ele>
        <time>2013-03-24T08:19:05.000Z</time>
      </trkpt>
      <trkpt lat="49.35367" lon="1.07609">
        <ele>62.139999389648</ele>
        <time>2013-03-24T08:19:15.000Z</time>
      </trkpt>
      <trkpt lat="49.35361" lon="1.07604">
        <ele>63.580001831055</ele>
        <time>2013-03-24T08:19:17.000Z</time>
      </trkpt>
      <trkpt lat="49.35357" lon="1.07583">
        <ele>64.069999694824</ele>
        <time>2013-03-24T08:19:22.000Z</time>
      </trkpt>
      <trkpt lat="49.35356" lon="1.0757">
        <ele>63.580001831055</ele>
        <time>2013-03-24T08:19:27.000Z</time>
      </trkpt>
      <trkpt lat="49.35348" lon="1.0756">
        <ele>64.069999694824</ele>
        <time>2013-03-24T08:19:34.000Z</time>
      </trkpt>
      <trkpt lat="49.35344" lon="1.07552">
        <ele>62.619998931885</ele>
        <time>2013-03-24T08:19:39.000Z</time>
      </trkpt>
      <trkpt lat="49.35344" lon="1.07546">
        <ele>61.659999847412</ele>
        <time>2013-03-24T08:19:42.000Z</time>
      </trkpt>
      <trkpt lat="49.35345" lon="1.07542">
        <ele>61.180000305176</ele>
        <time>2013-03-24T08:19:44.000Z</time>
      </trkpt>
      <trkpt lat="49.35357" lon="1.07537">
        <ele>61.180000305176</ele>
        <time>2013-03-24T08:19:56.000Z</time>
      </trkpt>
      <trkpt lat="49.3536" lon="1.07526">
        <ele>61.659999847412</ele>
        <time>2013-03-24T08:20:06.000Z</time>
      </trkpt>
      <trkpt lat="49.3536" lon="1.07525">
        <ele>62.139999389648</ele>
        <time>2013-03-24T08:20:07.000Z</time>
      </trkpt>
      <trkpt lat="49.35361" lon="1.07522">
        <ele>62.619998931885</ele>
        <time>2013-03-24T08:20:09.000Z</time>
      </trkpt>
      <trkpt lat="49.35357" lon="1.0751">
        <ele>65.51000213623</ele>
        <time>2013-03-24T08:20:22.000Z</time>
      </trkpt>
      <trkpt lat="49.35354" lon="1.0751">
        <ele>65.51000213623</ele>
        <time>2013-03-24T08:20:31.000Z</time>
      </trkpt>
      <trkpt lat="49.3535" lon="1.07516">
        <ele>65.029998779297</ele>
        <time>2013-03-24T08:20:35.000Z</time>
      </trkpt>
      <trkpt lat="49.35347" lon="1.07524">
        <ele>64.550003051758</ele>
        <time>2013-03-24T08:20:40.000Z</time>
      </trkpt>
      <trkpt lat="49.35344" lon="1.07525">
        <ele>65.029998779297</ele>
        <time>2013-03-24T08:20:42.000Z</time>
      </trkpt>
      <trkpt lat="49.35329" lon="1.07523">
        <ele>65.98999786377</ele>
        <time>2013-03-24T08:20:53.000Z</time>
      </trkpt>
      <trkpt lat="49.35328" lon="1.07523">
        <ele>66.470001220703</ele>
        <time>2013-03-24T08:20:54.000Z</time>
      </trkpt>
      <trkpt lat="49.35326" lon="1.07525">
        <ele>67.430000305176</ele>
        <time>2013-03-24T08:20:56.000Z</time>
      </trkpt>
      <trkpt lat="49.35316" lon="1.07548">
        <ele>69.830001831055</ele>
        <time>2013-03-24T08:21:04.000Z</time>
      </trkpt>
      <trkpt lat="49.35314" lon="1.07562">
        <ele>69.349998474121</ele>
        <time>2013-03-24T08:21:09.000Z</time>
      </trkpt>
      <trkpt lat="49.35299" lon="1.07577">
        <ele>67.910003662109</ele>
        <time>2013-03-24T08:21:18.000Z</time>
      </trkpt>
      <trkpt lat="49.35289" lon="1.07576">
        <ele>66.470001220703</ele>
        <time>2013-03-24T08:21:23.000Z</time>
      </trkpt>
      <trkpt lat="49.35288" lon="1.07557">
        <ele>62.139999389648</ele>
        <time>2013-03-24T08:21:30.000Z</time>
      </trkpt>
      <trkpt lat="49.35286" lon="1.07551">
        <ele>61.180000305176</ele>
        <time>2013-03-24T08:21:32.000Z</time>
      </trkpt>
      <trkpt lat="49.35277" lon="1.07534">
        <ele>63.099998474121</ele>
        <time>2013-03-24T08:21:41.000Z</time>
      </trkpt>
      <trkpt lat="49.35278" lon="1.07532">
        <ele>63.580001831055</ele>
        <time>2013-03-24T08:21:42.000Z</time>
      </trkpt>
      <trkpt lat="49.35276" lon="1.07523">
        <ele>64.550003051758</ele>
        <time>2013-03-24T08:21:45.000Z</time>
      </trkpt>
      <trkpt lat="49.35275" lon="1.0752">
        <ele>65.029998779297</ele>
        <time>2013-03-24T08:21:47.000Z</time>
      </trkpt>
      <trkpt lat="49.35279" lon="1.07515">
        <ele>65.51000213623</ele>
        <time>2013-03-24T08:21:58.000Z</time>
      </trkpt>
      <trkpt lat="49.35279" lon="1.07514">
        <ele>65.51000213623</ele>
        <time>2013-03-24T08:21:59.000Z</time>
      </trkpt>
      <trkpt lat="49.35285" lon="1.07519">
        <ele>65.029998779297</ele>
        <time>2013-03-24T08:22:03.000Z</time>
      </trkpt>
      <trkpt lat="49.35287" lon="1.07523">
        <ele>64.069999694824</ele>
        <time>2013-03-24T08:22:05.000Z</time>
      </trkpt>
      <trkpt lat="49.35294" lon="1.07523">
        <ele>64.069999694824</ele>
        <time>2013-03-24T08:22:10.000Z</time>
      </trkpt>
      <trkpt lat="49.35307" lon="1.0752">
        <ele>65.51000213623</ele>
        <time>2013-03-24T08:22:20.000Z</time>
      </trkpt>
      <trkpt lat="49.35301" lon="1.0752">
        <ele>65.98999786377</ele>
        <time>2013-03-24T08:22:25.000Z</time>
      </trkpt>
      <trkpt lat="49.35298" lon="1.0752">
        <ele>65.98999786377</ele>
        <time>2013-03-24T08:22:26.000Z</time>
      </trkpt>
      <trkpt lat="49.35296" lon="1.0752">
        <ele>65.98999786377</ele>
        <time>2013-03-24T08:22:27.000Z</time>
      </trkpt>
      <trkpt lat="49.35295" lon="1.07519">
        <ele>65.029998779297</ele>
        <time>2013-03-24T08:22:28.000Z</time>
      </trkpt>
      <trkpt lat="49.35292" lon="1.07516">
        <ele>63.580001831055</ele>
        <time>2013-03-24T08:22:35.000Z</time>
      </trkpt>
      <trkpt lat="49.35291" lon="1.07509">
        <ele>66.470001220703</ele>
        <time>2013-03-24T08:22:45.000Z</time>
      </trkpt>
      <trkpt lat="49.35289" lon="1.07506">
        <ele>66.949996948242</ele>
        <time>2013-03-24T08:22:53.000Z</time>
      </trkpt>
      <trkpt lat="49.35288" lon="1.07505">
        <ele>67.430000305176</ele>
        <time>2013-03-24T08:22:56.000Z</time>
      </trkpt>
      <trkpt lat="49.35284" lon="1.07503">
        <ele>68.870002746582</ele>
        <time>2013-03-24T08:23:06.000Z</time>
      </trkpt>
      <trkpt lat="49.35283" lon="1.07501">
        <ele>68.870002746582</ele>
        <time>2013-03-24T08:23:07.000Z</time>
      </trkpt>
      <trkpt lat="49.35284" lon="1.07498">
        <ele>68.870002746582</ele>
        <time>2013-03-24T08:23:08.000Z</time>
      </trkpt>
      <trkpt lat="49.35285" lon="1.07496">
        <ele>68.870002746582</ele>
        <time>2013-03-24T08:23:09.000Z</time>
      </trkpt>
      <trkpt lat="49.35286" lon="1.07493">
        <ele>69.349998474121</ele>
        <time>2013-03-24T08:23:10.000Z</time>
      </trkpt>
      <trkpt lat="49.35287" lon="1.07491">
        <ele>69.830001831055</ele>
        <time>2013-03-24T08:23:11.000Z</time>
      </trkpt>
      <trkpt lat="49.35287" lon="1.07489">
        <ele>69.830001831055</ele>
        <time>2013-03-24T08:23:12.000Z</time>
      </trkpt>
      <trkpt lat="49.35286" lon="1.07487">
        <ele>69.830001831055</ele>
        <time>2013-03-24T08:23:13.000Z</time>
      </trkpt>
      <trkpt lat="49.35284" lon="1.07486">
        <ele>69.349998474121</ele>
        <time>2013-03-24T08:23:14.000Z</time>
      </trkpt>
      <trkpt lat="49.35282" lon="1.07484">
        <ele>69.349998474121</ele>
        <time>2013-03-24T08:23:15.000Z</time>
      </trkpt>
      <trkpt lat="49.35279" lon="1.07483">
        <ele>69.349998474121</ele>
        <time>2013-03-24T08:23:16.000Z</time>
      </trkpt>
      <trkpt lat="49.35277" lon="1.07482">
        <ele>69.830001831055</ele>
        <time>2013-03-24T08:23:17.000Z</time>
      </trkpt>
      <trkpt lat="49.35244" lon="1.07458">
        <ele>65.98999786377</ele>
        <time>2013-03-24T08:23:27.000Z</time>
      </trkpt>
      <trkpt lat="49.35238" lon="1.07455">
        <ele>65.029998779297</ele>
        <time>2013-03-24T08:23:29.000Z</time>
      </trkpt>
      <trkpt lat="49.35235" lon="1.07451">
        <ele>64.550003051758</ele>
        <time>2013-03-24T08:23:30.000Z</time>
      </trkpt>
      <trkpt lat="49.35234" lon="1.07446">
        <ele>64.069999694824</ele>
        <time>2013-03-24T08:23:31.000Z</time>
      </trkpt>
      <trkpt lat="49.35234" lon="1.07441">
        <ele>63.580001831055</ele>
        <time>2013-03-24T08:23:32.000Z</time>
      </trkpt>
      <trkpt lat="49.35235" lon="1.07436">
        <ele>63.580001831055</ele>
        <time>2013-03-24T08:23:33.000Z</time>
      </trkpt>
      <trkpt lat="49.35247" lon="1.07349">
        <ele>62.619998931885</ele>
        <time>2013-03-24T08:23:48.000Z</time>
      </trkpt>
      <trkpt lat="49.35251" lon="1.07326">
        <ele>63.580001831055</ele>
        <time>2013-03-24T08:23:53.000Z</time>
      </trkpt>
      <trkpt lat="49.3525" lon="1.07323">
        <ele>63.580001831055</ele>
        <time>2013-03-24T08:23:54.000Z</time>
      </trkpt>
      <trkpt lat="49.35248" lon="1.0732">
        <ele>63.580001831055</ele>
        <time>2013-03-24T08:23:55.000Z</time>
      </trkpt>
      <trkpt lat="49.35246" lon="1.07316">
        <ele>63.099998474121</ele>
        <time>2013-03-24T08:23:56.000Z</time>
      </trkpt>
      <trkpt lat="49.35244" lon="1.07312">
        <ele>63.099998474121</ele>
        <time>2013-03-24T08:23:57.000Z</time>
      </trkpt>
      <trkpt lat="49.35241" lon="1.07309">
        <ele>62.619998931885</ele>
        <time>2013-03-24T08:23:58.000Z</time>
      </trkpt>
      <trkpt lat="49.35237" lon="1.07301">
        <ele>62.139999389648</ele>
        <time>2013-03-24T08:24:00.000Z</time>
      </trkpt>
      <trkpt lat="49.35236" lon="1.07297">
        <ele>61.659999847412</ele>
        <time>2013-03-24T08:24:01.000Z</time>
      </trkpt>
      <trkpt lat="49.35236" lon="1.07294">
        <ele>61.180000305176</ele>
        <time>2013-03-24T08:24:02.000Z</time>
      </trkpt>
      <trkpt lat="49.35236" lon="1.07291">
        <ele>60.700000762939</ele>
        <time>2013-03-24T08:24:03.000Z</time>
      </trkpt>
      <trkpt lat="49.35236" lon="1.07288">
        <ele>60.700000762939</ele>
        <time>2013-03-24T08:24:04.000Z</time>
      </trkpt>
      <trkpt lat="49.35238" lon="1.07284">
        <ele>60.220001220703</ele>
        <time>2013-03-24T08:24:05.000Z</time>
      </trkpt>
      <trkpt lat="49.35238" lon="1.07279">
        <ele>59.740001678467</ele>
        <time>2013-03-24T08:24:06.000Z</time>
      </trkpt>
      <trkpt lat="49.35244" lon="1.07251">
        <ele>60.220001220703</ele>
        <time>2013-03-24T08:24:14.000Z</time>
      </trkpt>
      <trkpt lat="49.35242" lon="1.07245">
        <ele>60.700000762939</ele>
        <time>2013-03-24T08:24:22.000Z</time>
      </trkpt>
      <trkpt lat="49.35244" lon="1.07234">
        <ele>61.659999847412</ele>
        <time>2013-03-24T08:24:32.000Z</time>
      </trkpt>
      <trkpt lat="49.35244" lon="1.07234">
        <ele>61.659999847412</ele>
        <time>2013-03-24T08:24:39.000Z</time>
      </trkpt>
      <trkpt lat="49.35244" lon="1.07232">
        <ele>61.659999847412</ele>
        <time>2013-03-24T08:24:40.000Z</time>
      </trkpt>
      <trkpt lat="49.35247" lon="1.07215">
        <ele>61.180000305176</ele>
        <time>2013-03-24T08:24:45.000Z</time>
      </trkpt>
      <trkpt lat="49.35247" lon="1.0721">
        <ele>61.180000305176</ele>
        <time>2013-03-24T08:24:46.000Z</time>
      </trkpt>
      <trkpt lat="49.35247" lon="1.07197">
        <ele>62.139999389648</ele>
        <time>2013-03-24T08:24:49.000Z</time>
      </trkpt>
      <trkpt lat="49.35247" lon="1.07194">
        <ele>62.619998931885</ele>
        <time>2013-03-24T08:24:50.000Z</time>
      </trkpt>
      <trkpt lat="49.35249" lon="1.07188">
        <ele>63.099998474121</ele>
        <time>2013-03-24T08:24:52.000Z</time>
      </trkpt>
      <trkpt lat="49.35249" lon="1.07183">
        <ele>63.580001831055</ele>
        <time>2013-03-24T08:24:53.000Z</time>
      </trkpt>
      <trkpt lat="49.35241" lon="1.07134">
        <ele>62.619998931885</ele>
        <time>2013-03-24T08:25:03.000Z</time>
      </trkpt>
      <trkpt lat="49.35241" lon="1.07126">
        <ele>62.139999389648</ele>
        <time>2013-03-24T08:25:05.000Z</time>
      </trkpt>
      <trkpt lat="49.35248" lon="1.07098">
        <ele>59.740001678467</ele>
        <time>2013-03-24T08:25:13.000Z</time>
      </trkpt>
      <trkpt lat="49.35246" lon="1.07095">
        <ele>59.259998321533</ele>
        <time>2013-03-24T08:25:14.000Z</time>
      </trkpt>
      <trkpt lat="49.35246" lon="1.07092">
        <ele>59.259998321533</ele>
        <time>2013-03-24T08:25:15.000Z</time>
      </trkpt>
      <trkpt lat="49.35247" lon="1.07088">
        <ele>59.259998321533</ele>
        <time>2013-03-24T08:25:16.000Z</time>
      </trkpt>
      <trkpt lat="49.35247" lon="1.07084">
        <ele>59.259998321533</ele>
        <time>2013-03-24T08:25:17.000Z</time>
      </trkpt>
      <trkpt lat="49.35248" lon="1.07081">
        <ele>58.779998779297</ele>
        <time>2013-03-24T08:25:18.000Z</time>
      </trkpt>
      <trkpt lat="49.35249" lon="1.0707">
        <ele>57.819999694824</ele>
        <time>2013-03-24T08:25:21.000Z</time>
      </trkpt>
      <trkpt lat="49.35251" lon="1.07066">
        <ele>57.340000152588</ele>
        <time>2013-03-24T08:25:22.000Z</time>
      </trkpt>
      <trkpt lat="49.35255" lon="1.07049">
        <ele>56.860000610352</ele>
        <time>2013-03-24T08:25:26.000Z</time>
      </trkpt>
      <trkpt lat="49.35255" lon="1.07046">
        <ele>56.860000610352</ele>
        <time>2013-03-24T08:25:27.000Z</time>
      </trkpt>
      <trkpt lat="49.35254" lon="1.07043">
        <ele>56.860000610352</ele>
        <time>2013-03-24T08:25:28.000Z</time>
      </trkpt>
      <trkpt lat="49.35254" lon="1.0704">
        <ele>57.340000152588</ele>
        <time>2013-03-24T08:25:29.000Z</time>
      </trkpt>
      <trkpt lat="49.35255" lon="1.07036">
        <ele>57.340000152588</ele>
        <time>2013-03-24T08:25:30.000Z</time>
      </trkpt>
      <trkpt lat="49.35255" lon="1.07033">
        <ele>57.819999694824</ele>
        <time>2013-03-24T08:25:31.000Z</time>
      </trkpt>
      <trkpt lat="49.35256" lon="1.07029">
        <ele>57.819999694824</ele>
        <time>2013-03-24T08:25:32.000Z</time>
      </trkpt>
      <trkpt lat="49.35257" lon="1.07026">
        <ele>57.819999694824</ele>
        <time>2013-03-24T08:25:33.000Z</time>
      </trkpt>
      <trkpt lat="49.35263" lon="1.07006">
        <ele>58.779998779297</ele>
        <time>2013-03-24T08:25:38.000Z</time>
      </trkpt>
      <trkpt lat="49.35263" lon="1.07002">
        <ele>59.259998321533</ele>
        <time>2013-03-24T08:25:39.000Z</time>
      </trkpt>
      <trkpt lat="49.35266" lon="1.06981">
        <ele>60.220001220703</ele>
        <time>2013-03-24T08:25:44.000Z</time>
      </trkpt>
      <trkpt lat="49.35267" lon="1.06977">
        <ele>59.740001678467</ele>
        <time>2013-03-24T08:25:45.000Z</time>
      </trkpt>
      <trkpt lat="49.35268" lon="1.06975">
        <ele>59.740001678467</ele>
        <time>2013-03-24T08:25:46.000Z</time>
      </trkpt>
      <trkpt lat="49.35268" lon="1.06973">
        <ele>59.740001678467</ele>
        <time>2013-03-24T08:25:47.000Z</time>
      </trkpt>
      <trkpt lat="49.35269" lon="1.06967">
        <ele>59.259998321533</ele>
        <time>2013-03-24T08:25:50.000Z</time>
      </trkpt>
      <trkpt lat="49.35268" lon="1.06963">
        <ele>59.259998321533</ele>
        <time>2013-03-24T08:25:51.000Z</time>
      </trkpt>
      <trkpt lat="49.35269" lon="1.06959">
        <ele>58.779998779297</ele>
        <time>2013-03-24T08:25:52.000Z</time>
      </trkpt>
      <trkpt lat="49.35271" lon="1.06956">
        <ele>58.779998779297</ele>
        <time>2013-03-24T08:25:53.000Z</time>
      </trkpt>
      <trkpt lat="49.35272" lon="1.06952">
        <ele>58.29999923706</ele>
        <time>2013-03-24T08:25:54.000Z</time>
      </trkpt>
      <trkpt lat="49.35273" lon="1.06948">
        <ele>57.819999694824</ele>
        <time>2013-03-24T08:25:55.000Z</time>
      </trkpt>
      <trkpt lat="49.35274" lon="1.06945">
        <ele>57.819999694824</ele>
        <time>2013-03-24T08:25:56.000Z</time>
      </trkpt>
      <trkpt lat="49.35276" lon="1.06942">
        <ele>57.340000152588</ele>
        <time>2013-03-24T08:25:57.000Z</time>
      </trkpt>
      <trkpt lat="49.35278" lon="1.06939">
        <ele>56.860000610352</ele>
        <time>2013-03-24T08:25:58.000Z</time>
      </trkpt>
      <trkpt lat="49.35279" lon="1.06935">
        <ele>56.369998931885</ele>
        <time>2013-03-24T08:25:59.000Z</time>
      </trkpt>
      <trkpt lat="49.35281" lon="1.06931">
        <ele>56.369998931885</ele>
        <time>2013-03-24T08:26:00.000Z</time>
      </trkpt>
      <trkpt lat="49.35283" lon="1.06927">
        <ele>55.889999389648</ele>
        <time>2013-03-24T08:26:01.000Z</time>
      </trkpt>
      <trkpt lat="49.35284" lon="1.06924">
        <ele>55.409999847412</ele>
        <time>2013-03-24T08:26:02.000Z</time>
      </trkpt>
      <trkpt lat="49.35285" lon="1.06921">
        <ele>54.930000305176</ele>
        <time>2013-03-24T08:26:03.000Z</time>
      </trkpt>
      <trkpt lat="49.35286" lon="1.06918">
        <ele>54.450000762939</ele>
        <time>2013-03-24T08:26:04.000Z</time>
      </trkpt>
      <trkpt lat="49.35286" lon="1.06914">
        <ele>53.970001220703</ele>
        <time>2013-03-24T08:26:05.000Z</time>
      </trkpt>
      <trkpt lat="49.35287" lon="1.0691">
        <ele>53.490001678467</ele>
        <time>2013-03-24T08:26:06.000Z</time>
      </trkpt>
      <trkpt lat="49.35298" lon="1.06869">
        <ele>56.860000610352</ele>
        <time>2013-03-24T08:26:17.000Z</time>
      </trkpt>
      <trkpt lat="49.3531" lon="1.06833">
        <ele>62.139999389648</ele>
        <time>2013-03-24T08:26:28.000Z</time>
      </trkpt>
      <trkpt lat="49.35313" lon="1.0682">
        <ele>66.470001220703</ele>
        <time>2013-03-24T08:26:39.000Z</time>
      </trkpt>
      <trkpt lat="49.35315" lon="1.06817">
        <ele>66.470001220703</ele>
        <time>2013-03-24T08:26:42.000Z</time>
      </trkpt>
      <trkpt lat="49.35321" lon="1.0681">
        <ele>67.430000305176</ele>
        <time>2013-03-24T08:26:47.000Z</time>
      </trkpt>
      <trkpt lat="49.35321" lon="1.06807">
        <ele>67.910003662109</ele>
        <time>2013-03-24T08:26:48.000Z</time>
      </trkpt>
      <trkpt lat="49.35322" lon="1.06804">
        <ele>67.910003662109</ele>
        <time>2013-03-24T08:26:49.000Z</time>
      </trkpt>
      <trkpt lat="49.35327" lon="1.0679">
        <ele>67.910003662109</ele>
        <time>2013-03-24T08:26:53.000Z</time>
      </trkpt>
      <trkpt lat="49.35328" lon="1.06786">
        <ele>67.910003662109</ele>
        <time>2013-03-24T08:26:54.000Z</time>
      </trkpt>
      <trkpt lat="49.35329" lon="1.06782">
        <ele>67.430000305176</ele>
        <time>2013-03-24T08:26:55.000Z</time>
      </trkpt>
      <trkpt lat="49.3533" lon="1.06779">
        <ele>66.949996948242</ele>
        <time>2013-03-24T08:26:56.000Z</time>
      </trkpt>
      <trkpt lat="49.35331" lon="1.06776">
        <ele>66.470001220703</ele>
        <time>2013-03-24T08:26:57.000Z</time>
      </trkpt>
      <trkpt lat="49.35338" lon="1.06756">
        <ele>62.619998931885</ele>
        <time>2013-03-24T08:27:04.000Z</time>
      </trkpt>
      <trkpt lat="49.35341" lon="1.0675">
        <ele>62.619998931885</ele>
        <time>2013-03-24T08:27:09.000Z</time>
      </trkpt>
      <trkpt lat="49.35342" lon="1.06749">
        <ele>62.619998931885</ele>
        <time>2013-03-24T08:27:10.000Z</time>
      </trkpt>
      <trkpt lat="49.35343" lon="1.06748">
        <ele>63.099998474121</ele>
        <time>2013-03-24T08:27:11.000Z</time>
      </trkpt>
      <trkpt lat="49.3535" lon="1.06743">
        <ele>64.550003051758</ele>
        <time>2013-03-24T08:27:22.000Z</time>
      </trkpt>
      <trkpt lat="49.35351" lon="1.06747">
        <ele>64.550003051758</ele>
        <time>2013-03-24T08:27:25.000Z</time>
      </trkpt>
      <trkpt lat="49.35352" lon="1.06749">
        <ele>65.029998779297</ele>
        <time>2013-03-24T08:27:26.000Z</time>
      </trkpt>
      <trkpt lat="49.35352" lon="1.06751">
        <ele>65.98999786377</ele>
        <time>2013-03-24T08:27:27.000Z</time>
      </trkpt>
      <trkpt lat="49.35353" lon="1.06753">
        <ele>65.98999786377</ele>
        <time>2013-03-24T08:27:28.000Z</time>
      </trkpt>
      <trkpt lat="49.35354" lon="1.06755">
        <ele>66.470001220703</ele>
        <time>2013-03-24T08:27:29.000Z</time>
      </trkpt>
      <trkpt lat="49.3536" lon="1.06774">
        <ele>70.790000915527</ele>
        <time>2013-03-24T08:27:38.000Z</time>
      </trkpt>
      <trkpt lat="49.35357" lon="1.06801">
        <ele>73.680000305176</ele>
        <time>2013-03-24T08:27:48.000Z</time>
      </trkpt>
      <trkpt lat="49.35347" lon="1.06823">
        <ele>72.23999786377</ele>
        <time>2013-03-24T08:27:57.000Z</time>
      </trkpt>
      <trkpt lat="49.35345" lon="1.06844">
        <ele>71.76000213623</ele>
        <time>2013-03-24T08:28:07.000Z</time>
      </trkpt>
      <trkpt lat="49.35333" lon="1.06856">
        <ele>73.199996948242</ele>
        <time>2013-03-24T08:28:16.000Z</time>
      </trkpt>
      <trkpt lat="49.35326" lon="1.06872">
        <ele>71.76000213623</ele>
        <time>2013-03-24T08:28:27.000Z</time>
      </trkpt>
      <trkpt lat="49.35313" lon="1.06892">
        <ele>69.349998474121</ele>
        <time>2013-03-24T08:28:34.000Z</time>
      </trkpt>
      <trkpt lat="49.353" lon="1.06903">
        <ele>65.98999786377</ele>
        <time>2013-03-24T08:28:45.000Z</time>
      </trkpt>
      <trkpt lat="49.35292" lon="1.06905">
        <ele>64.550003051758</ele>
        <time>2013-03-24T08:28:49.000Z</time>
      </trkpt>
      <trkpt lat="49.35289" lon="1.06905">
        <ele>64.069999694824</ele>
        <time>2013-03-24T08:28:51.000Z</time>
      </trkpt>
      <trkpt lat="49.35285" lon="1.06902">
        <ele>63.580001831055</ele>
        <time>2013-03-24T08:28:54.000Z</time>
      </trkpt>
      <trkpt lat="49.35273" lon="1.06911">
        <ele>62.619998931885</ele>
        <time>2013-03-24T08:29:02.000Z</time>
      </trkpt>
      <trkpt lat="49.35266" lon="1.06915">
        <ele>67.910003662109</ele>
        <time>2013-03-24T08:29:09.000Z</time>
      </trkpt>
      <trkpt lat="49.35263" lon="1.06928">
        <ele>70.309997558594</ele>
        <time>2013-03-24T08:29:19.000Z</time>
      </trkpt>
      <trkpt lat="49.3526" lon="1.06934">
        <ele>70.790000915527</ele>
        <time>2013-03-24T08:29:35.000Z</time>
      </trkpt>
      <trkpt lat="49.35257" lon="1.06946">
        <ele>70.309997558594</ele>
        <time>2013-03-24T08:29:44.000Z</time>
      </trkpt>
      <trkpt lat="49.35257" lon="1.06948">
        <ele>71.269996643066</ele>
        <time>2013-03-24T08:29:47.000Z</time>
      </trkpt>
      <trkpt lat="49.35252" lon="1.06967">
        <ele>71.269996643066</ele>
        <time>2013-03-24T08:29:55.000Z</time>
      </trkpt>
      <trkpt lat="49.35252" lon="1.06988">
        <ele>70.790000915527</ele>
        <time>2013-03-24T08:30:02.000Z</time>
      </trkpt>
      <trkpt lat="49.35259" lon="1.06994">
        <ele>68.870002746582</ele>
        <time>2013-03-24T08:30:06.000Z</time>
      </trkpt>
      <trkpt lat="49.35262" lon="1.06998">
        <ele>67.430000305176</ele>
        <time>2013-03-24T08:30:11.000Z</time>
      </trkpt>
      <trkpt lat="49.35267" lon="1.06998">
        <ele>66.949996948242</ele>
        <time>2013-03-24T08:30:14.000Z</time>
      </trkpt>
      <trkpt lat="49.35278" lon="1.07004">
        <ele>65.98999786377</ele>
        <time>2013-03-24T08:30:21.000Z</time>
      </trkpt>
      <trkpt lat="49.35284" lon="1.07029">
        <ele>63.580001831055</ele>
        <time>2013-03-24T08:30:31.000Z</time>
      </trkpt>
      <trkpt lat="49.35283" lon="1.07032">
        <ele>63.099998474121</ele>
        <time>2013-03-24T08:30:39.000Z</time>
      </trkpt>
      <trkpt lat="49.35283" lon="1.07032">
        <ele>63.099998474121</ele>
        <time>2013-03-24T08:30:48.000Z</time>
      </trkpt>
      <trkpt lat="49.35266" lon="1.07039">
        <ele>61.659999847412</ele>
        <time>2013-03-24T08:30:57.000Z</time>
      </trkpt>
      <trkpt lat="49.3526" lon="1.07041">
        <ele>60.700000762939</ele>
        <time>2013-03-24T08:31:07.000Z</time>
      </trkpt>
      <trkpt lat="49.3526" lon="1.07043">
        <ele>61.180000305176</ele>
        <time>2013-03-24T08:31:21.000Z</time>
      </trkpt>
      <trkpt lat="49.35265" lon="1.07049">
        <ele>62.619998931885</ele>
        <time>2013-03-24T08:31:31.000Z</time>
      </trkpt>
      <trkpt lat="49.35266" lon="1.0705">
        <ele>62.139999389648</ele>
        <time>2013-03-24T08:31:39.000Z</time>
      </trkpt>
      <trkpt lat="49.35263" lon="1.07077">
        <ele>61.180000305176</ele>
        <time>2013-03-24T08:31:48.000Z</time>
      </trkpt>
      <trkpt lat="49.35252" lon="1.07089">
        <ele>59.259998321533</ele>
        <time>2013-03-24T08:31:58.000Z</time>
      </trkpt>
      <trkpt lat="49.35252" lon="1.0709">
        <ele>60.700000762939</ele>
        <time>2013-03-24T08:32:13.000Z</time>
      </trkpt>
      <trkpt lat="49.35244" lon="1.07097">
        <ele>60.700000762939</ele>
        <time>2013-03-24T08:32:22.000Z</time>
      </trkpt>
      <trkpt lat="49.35237" lon="1.071">
        <ele>62.619998931885</ele>
        <time>2013-03-24T08:32:27.000Z</time>
      </trkpt>
      <trkpt lat="49.35229" lon="1.07101">
        <ele>66.949996948242</ele>
        <time>2013-03-24T08:32:39.000Z</time>
      </trkpt>
      <trkpt lat="49.35228" lon="1.07103">
        <ele>66.949996948242</ele>
        <time>2013-03-24T08:32:47.000Z</time>
      </trkpt>
      <trkpt lat="49.35224" lon="1.07106">
        <ele>68.389999389648</ele>
        <time>2013-03-24T08:32:59.000Z</time>
      </trkpt>
      <trkpt lat="49.35222" lon="1.07108">
        <ele>69.349998474121</ele>
        <time>2013-03-24T08:33:09.000Z</time>
      </trkpt>
      <trkpt lat="49.35221" lon="1.07109">
        <ele>69.830001831055</ele>
        <time>2013-03-24T08:33:11.000Z</time>
      </trkpt>
      <trkpt lat="49.35208" lon="1.07103">
        <ele>72.720001220703</ele>
        <time>2013-03-24T08:33:23.000Z</time>
      </trkpt>
      <trkpt lat="49.35197" lon="1.07103">
        <ele>74.639999389648</ele>
        <time>2013-03-24T08:33:36.000Z</time>
      </trkpt>
      <trkpt lat="49.35196" lon="1.07105">
        <ele>74.639999389648</ele>
        <time>2013-03-24T08:33:53.000Z</time>
      </trkpt>
      <trkpt lat="49.35193" lon="1.07112">
        <ele>73.199996948242</ele>
        <time>2013-03-24T08:34:09.000Z</time>
      </trkpt>
      <trkpt lat="49.3519" lon="1.07118">
        <ele>72.720001220703</ele>
        <time>2013-03-24T08:34:13.000Z</time>
      </trkpt>
      <trkpt lat="49.35181" lon="1.0714">
        <ele>72.23999786377</ele>
        <time>2013-03-24T08:34:23.000Z</time>
      </trkpt>
      <trkpt lat="49.35174" lon="1.07164">
        <ele>73.680000305176</ele>
        <time>2013-03-24T08:34:31.000Z</time>
      </trkpt>
      <trkpt lat="49.35158" lon="1.07218">
        <ele>72.23999786377</ele>
        <time>2013-03-24T08:34:44.000Z</time>
      </trkpt>
      <trkpt lat="49.35155" lon="1.07224">
        <ele>71.76000213623</ele>
        <time>2013-03-24T08:34:45.000Z</time>
      </trkpt>
      <trkpt lat="49.35152" lon="1.07231">
        <ele>71.76000213623</ele>
        <time>2013-03-24T08:34:46.000Z</time>
      </trkpt>
      <trkpt lat="49.35151" lon="1.07237">
        <ele>71.76000213623</ele>
        <time>2013-03-24T08:34:47.000Z</time>
      </trkpt>
      <trkpt lat="49.35149" lon="1.07245">
        <ele>71.76000213623</ele>
        <time>2013-03-24T08:34:48.000Z</time>
      </trkpt>
      <trkpt lat="49.35148" lon="1.07252">
        <ele>71.269996643066</ele>
        <time>2013-03-24T08:34:49.000Z</time>
      </trkpt>
      <trkpt lat="49.35146" lon="1.0727">
        <ele>70.309997558594</ele>
        <time>2013-03-24T08:34:52.000Z</time>
      </trkpt>
      <trkpt lat="49.35146" lon="1.07276">
        <ele>69.830001831055</ele>
        <time>2013-03-24T08:34:53.000Z</time>
      </trkpt>
      <trkpt lat="49.35152" lon="1.07302">
        <ele>67.910003662109</ele>
        <time>2013-03-24T08:34:59.000Z</time>
      </trkpt>
      <trkpt lat="49.35151" lon="1.07304">
        <ele>67.910003662109</ele>
        <time>2013-03-24T08:35:00.000Z</time>
      </trkpt>
      <trkpt lat="49.35136" lon="1.07315">
        <ele>66.470001220703</ele>
        <time>2013-03-24T08:35:07.000Z</time>
      </trkpt>
      <trkpt lat="49.35135" lon="1.07316">
        <ele>65.98999786377</ele>
        <time>2013-03-24T08:35:08.000Z</time>
      </trkpt>
      <trkpt lat="49.35139" lon="1.07336">
        <ele>60.700000762939</ele>
        <time>2013-03-24T08:35:16.000Z</time>
      </trkpt>
      <trkpt lat="49.35139" lon="1.07339">
        <ele>59.740001678467</ele>
        <time>2013-03-24T08:35:17.000Z</time>
      </trkpt>
      <trkpt lat="49.35141" lon="1.07357">
        <ele>58.779998779297</ele>
        <time>2013-03-24T08:35:21.000Z</time>
      </trkpt>
      <trkpt lat="49.35125" lon="1.07387">
        <ele>58.29999923706</ele>
        <time>2013-03-24T08:35:30.000Z</time>
      </trkpt>
      <trkpt lat="49.35123" lon="1.07389">
        <ele>58.779998779297</ele>
        <time>2013-03-24T08:35:31.000Z</time>
      </trkpt>
      <trkpt lat="49.35115" lon="1.07403">
        <ele>58.29999923706</ele>
        <time>2013-03-24T08:35:36.000Z</time>
      </trkpt>
      <trkpt lat="49.35107" lon="1.07433">
        <ele>56.369998931885</ele>
        <time>2013-03-24T08:35:44.000Z</time>
      </trkpt>
      <trkpt lat="49.35104" lon="1.07441">
        <ele>56.369998931885</ele>
        <time>2013-03-24T08:35:46.000Z</time>
      </trkpt>
      <trkpt lat="49.35098" lon="1.07459">
        <ele>56.860000610352</ele>
        <time>2013-03-24T08:35:51.000Z</time>
      </trkpt>
      <trkpt lat="49.35088" lon="1.0747">
        <ele>57.340000152588</ele>
        <time>2013-03-24T08:35:55.000Z</time>
      </trkpt>
      <trkpt lat="49.35072" lon="1.0749">
        <ele>57.340000152588</ele>
        <time>2013-03-24T08:36:03.000Z</time>
      </trkpt>
      <trkpt lat="49.35072" lon="1.07492">
        <ele>57.340000152588</ele>
        <time>2013-03-24T08:36:04.000Z</time>
      </trkpt>
      <trkpt lat="49.35075" lon="1.07538">
        <ele>53.970001220703</ele>
        <time>2013-03-24T08:36:14.000Z</time>
      </trkpt>
      <trkpt lat="49.35064" lon="1.07558">
        <ele>55.409999847412</ele>
        <time>2013-03-24T08:36:22.000Z</time>
      </trkpt>
      <trkpt lat="49.35062" lon="1.07563">
        <ele>56.860000610352</ele>
        <time>2013-03-24T08:36:26.000Z</time>
      </trkpt>
      <trkpt lat="49.35062" lon="1.07578">
        <ele>58.29999923706</ele>
        <time>2013-03-24T08:36:32.000Z</time>
      </trkpt>
      <trkpt lat="49.35062" lon="1.0759">
        <ele>59.740001678467</ele>
        <time>2013-03-24T08:36:36.000Z</time>
      </trkpt>
      <trkpt lat="49.35072" lon="1.07609">
        <ele>60.220001220703</ele>
        <time>2013-03-24T08:36:41.000Z</time>
      </trkpt>
      <trkpt lat="49.35073" lon="1.07634">
        <ele>58.779998779297</ele>
        <time>2013-03-24T08:36:46.000Z</time>
      </trkpt>
      <trkpt lat="49.35072" lon="1.07647">
        <ele>58.779998779297</ele>
        <time>2013-03-24T08:36:48.000Z</time>
      </trkpt>
      <trkpt lat="49.35072" lon="1.07695">
        <ele>58.29999923706</ele>
        <time>2013-03-24T08:36:55.000Z</time>
      </trkpt>
      <trkpt lat="49.35072" lon="1.07702">
        <ele>58.29999923706</ele>
        <time>2013-03-24T08:36:56.000Z</time>
      </trkpt>
      <trkpt lat="49.35072" lon="1.07709">
        <ele>57.819999694824</ele>
        <time>2013-03-24T08:36:57.000Z</time>
      </trkpt>
      <trkpt lat="49.35071" lon="1.07717">
        <ele>57.819999694824</ele>
        <time>2013-03-24T08:36:58.000Z</time>
      </trkpt>
      <trkpt lat="49.35071" lon="1.07725">
        <ele>57.819999694824</ele>
        <time>2013-03-24T08:36:59.000Z</time>
      </trkpt>
      <trkpt lat="49.35071" lon="1.07733">
        <ele>57.340000152588</ele>
        <time>2013-03-24T08:37:00.000Z</time>
      </trkpt>
      <trkpt lat="49.35071" lon="1.07739">
        <ele>57.340000152588</ele>
        <time>2013-03-24T08:37:01.000Z</time>
      </trkpt>
      <trkpt lat="49.35069" lon="1.07762">
        <ele>56.860000610352</ele>
        <time>2013-03-24T08:37:05.000Z</time>
      </trkpt>
      <trkpt lat="49.35066" lon="1.07764">
        <ele>56.369998931885</ele>
        <time>2013-03-24T08:37:06.000Z</time>
      </trkpt>
      <trkpt lat="49.35064" lon="1.07767">
        <ele>55.889999389648</ele>
        <time>2013-03-24T08:37:07.000Z</time>
      </trkpt>
      <trkpt lat="49.35066" lon="1.07793">
        <ele>55.409999847412</ele>
        <time>2013-03-24T08:37:13.000Z</time>
      </trkpt>
      <trkpt lat="49.35059" lon="1.07817">
        <ele>54.930000305176</ele>
        <time>2013-03-24T08:37:22.000Z</time>
      </trkpt>
      <trkpt lat="49.35042" lon="1.07813">
        <ele>55.409999847412</ele>
        <time>2013-03-24T08:37:29.000Z</time>
      </trkpt>
      <trkpt lat="49.3503" lon="1.07797">
        <ele>56.369998931885</ele>
        <time>2013-03-24T08:37:37.000Z</time>
      </trkpt>
      <trkpt lat="49.35027" lon="1.07793">
        <ele>56.369998931885</ele>
        <time>2013-03-24T08:37:40.000Z</time>
      </trkpt>
      <trkpt lat="49.3503" lon="1.0779">
        <ele>54.930000305176</ele>
        <time>2013-03-24T08:37:50.000Z</time>
      </trkpt>
      <trkpt lat="49.35033" lon="1.07796">
        <ele>54.450000762939</ele>
        <time>2013-03-24T08:37:56.000Z</time>
      </trkpt>
      <trkpt lat="49.35039" lon="1.07797">
        <ele>54.930000305176</ele>
        <time>2013-03-24T08:38:07.000Z</time>
      </trkpt>
      <trkpt lat="49.3504" lon="1.07796">
        <ele>54.930000305176</ele>
        <time>2013-03-24T08:38:11.000Z</time>
      </trkpt>
      <trkpt lat="49.35051" lon="1.0778">
        <ele>53.970001220703</ele>
        <time>2013-03-24T08:38:19.000Z</time>
      </trkpt>
      <trkpt lat="49.35048" lon="1.0777">
        <ele>53.009998321533</ele>
        <time>2013-03-24T08:38:23.000Z</time>
      </trkpt>
      <trkpt lat="49.35043" lon="1.07766">
        <ele>53.009998321533</ele>
        <time>2013-03-24T08:38:26.000Z</time>
      </trkpt>
      <trkpt lat="49.3504" lon="1.07767">
        <ele>53.970001220703</ele>
        <time>2013-03-24T08:38:30.000Z</time>
      </trkpt>
      <trkpt lat="49.35037" lon="1.07777">
        <ele>54.450000762939</ele>
        <time>2013-03-24T08:38:36.000Z</time>
      </trkpt>
      <trkpt lat="49.35031" lon="1.07779">
        <ele>54.450000762939</ele>
        <time>2013-03-24T08:38:40.000Z</time>
      </trkpt>
      <trkpt lat="49.35028" lon="1.07779">
        <ele>54.450000762939</ele>
        <time>2013-03-24T08:38:42.000Z</time>
      </trkpt>
      <trkpt lat="49.35025" lon="1.07782">
        <ele>55.889999389648</ele>
        <time>2013-03-24T08:38:45.000Z</time>
      </trkpt>
      <trkpt lat="49.35019" lon="1.07776">
        <ele>56.369998931885</ele>
        <time>2013-03-24T08:38:50.000Z</time>
      </trkpt>
      <trkpt lat="49.35025" lon="1.0777">
        <ele>57.819999694824</ele>
        <time>2013-03-24T08:39:00.000Z</time>
      </trkpt>
      <trkpt lat="49.35027" lon="1.07766">
        <ele>56.860000610352</ele>
        <time>2013-03-24T08:39:06.000Z</time>
      </trkpt>
      <trkpt lat="49.35023" lon="1.07764">
        <ele>54.450000762939</ele>
        <time>2013-03-24T08:39:13.000Z</time>
      </trkpt>
      <trkpt lat="49.35021" lon="1.07758">
        <ele>54.450000762939</ele>
        <time>2013-03-24T08:39:16.000Z</time>
      </trkpt>
      <trkpt lat="49.35025" lon="1.07749">
        <ele>57.340000152588</ele>
        <time>2013-03-24T08:39:22.000Z</time>
      </trkpt>
      <trkpt lat="49.35034" lon="1.07749">
        <ele>55.889999389648</ele>
        <time>2013-03-24T08:39:32.000Z</time>
      </trkpt>
      <trkpt lat="49.35034" lon="1.07748">
        <ele>55.889999389648</ele>
        <time>2013-03-24T08:39:33.000Z</time>
      </trkpt>
      <trkpt lat="49.35036" lon="1.07734">
        <ele>58.29999923706</ele>
        <time>2013-03-24T08:39:42.000Z</time>
      </trkpt>
      <trkpt lat="49.35036" lon="1.0772">
        <ele>61.659999847412</ele>
        <time>2013-03-24T08:39:53.000Z</time>
      </trkpt>
      <trkpt lat="49.35036" lon="1.07721">
        <ele>61.659999847412</ele>
        <time>2013-03-24T08:39:54.000Z</time>
      </trkpt>
      <trkpt lat="49.35032" lon="1.07724">
        <ele>62.139999389648</ele>
        <time>2013-03-24T08:39:58.000Z</time>
      </trkpt>
      <trkpt lat="49.35029" lon="1.0772">
        <ele>63.099998474121</ele>
        <time>2013-03-24T08:40:02.000Z</time>
      </trkpt>
      <trkpt lat="49.3503" lon="1.07709">
        <ele>62.139999389648</ele>
        <time>2013-03-24T08:40:12.000Z</time>
      </trkpt>
      <trkpt lat="49.3503" lon="1.07708">
        <ele>61.180000305176</ele>
        <time>2013-03-24T08:40:29.000Z</time>
      </trkpt>
      <trkpt lat="49.35028" lon="1.07702">
        <ele>61.180000305176</ele>
        <time>2013-03-24T08:40:47.000Z</time>
      </trkpt>
      <trkpt lat="49.35026" lon="1.07697">
        <ele>61.180000305176</ele>
        <time>2013-03-24T08:40:49.000Z</time>
      </trkpt>
      <trkpt lat="49.35023" lon="1.07693">
        <ele>60.700000762939</ele>
        <time>2013-03-24T08:40:51.000Z</time>
      </trkpt>
      <trkpt lat="49.35014" lon="1.07683">
        <ele>62.619998931885</ele>
        <time>2013-03-24T08:41:01.000Z</time>
      </trkpt>
      <trkpt lat="49.3501" lon="1.07675">
        <ele>61.659999847412</ele>
        <time>2013-03-24T08:41:05.000Z</time>
      </trkpt>
      <trkpt lat="49.35011" lon="1.07664">
        <ele>60.220001220703</ele>
        <time>2013-03-24T08:41:09.000Z</time>
      </trkpt>
      <trkpt lat="49.35012" lon="1.07649">
        <ele>58.779998779297</ele>
        <time>2013-03-24T08:41:15.000Z</time>
      </trkpt>
      <trkpt lat="49.35016" lon="1.0763">
        <ele>56.369998931885</ele>
        <time>2013-03-24T08:41:22.000Z</time>
      </trkpt>
      <trkpt lat="49.35027" lon="1.0757">
        <ele>57.819999694824</ele>
        <time>2013-03-24T08:41:37.000Z</time>
      </trkpt>
      <trkpt lat="49.35032" lon="1.07527">
        <ele>62.139999389648</ele>
        <time>2013-03-24T08:41:48.000Z</time>
      </trkpt>
      <trkpt lat="49.35038" lon="1.07474">
        <ele>63.099998474121</ele>
        <time>2013-03-24T08:42:01.000Z</time>
      </trkpt>
      <trkpt lat="49.35043" lon="1.07431">
        <ele>63.580001831055</ele>
        <time>2013-03-24T08:42:13.000Z</time>
      </trkpt>
      <trkpt lat="49.35048" lon="1.07388">
        <ele>65.029998779297</ele>
        <time>2013-03-24T08:42:25.000Z</time>
      </trkpt>
      <trkpt lat="49.35051" lon="1.0736">
        <ele>66.470001220703</ele>
        <time>2013-03-24T08:42:32.000Z</time>
      </trkpt>
      <trkpt lat="49.35059" lon="1.07304">
        <ele>66.470001220703</ele>
        <time>2013-03-24T08:42:44.000Z</time>
      </trkpt>
      <trkpt lat="49.35061" lon="1.07231">
        <ele>66.470001220703</ele>
        <time>2013-03-24T08:42:58.000Z</time>
      </trkpt>
      <trkpt lat="49.35061" lon="1.0718">
        <ele>69.830001831055</ele>
        <time>2013-03-24T08:43:07.000Z</time>
      </trkpt>
      <trkpt lat="49.35044" lon="1.07171">
        <ele>68.870002746582</ele>
        <time>2013-03-24T08:43:12.000Z</time>
      </trkpt>
      <trkpt lat="49.3504" lon="1.07169">
        <ele>68.870002746582</ele>
        <time>2013-03-24T08:43:13.000Z</time>
      </trkpt>
      <trkpt lat="49.35036" lon="1.07167">
        <ele>68.870002746582</ele>
        <time>2013-03-24T08:43:14.000Z</time>
      </trkpt>
      <trkpt lat="49.35012" lon="1.07147">
        <ele>69.349998474121</ele>
        <time>2013-03-24T08:43:21.000Z</time>
      </trkpt>
      <trkpt lat="49.35008" lon="1.07144">
        <ele>68.870002746582</ele>
        <time>2013-03-24T08:43:22.000Z</time>
      </trkpt>
      <trkpt lat="49.3495" lon="1.07104">
        <ele>72.23999786377</ele>
        <time>2013-03-24T08:43:36.000Z</time>
      </trkpt>
      <trkpt lat="49.34929" lon="1.0709">
        <ele>72.720001220703</ele>
        <time>2013-03-24T08:43:41.000Z</time>
      </trkpt>
      <trkpt lat="49.34924" lon="1.07087">
        <ele>72.720001220703</ele>
        <time>2013-03-24T08:43:42.000Z</time>
      </trkpt>
      <trkpt lat="49.3488" lon="1.07056">
        <ele>70.790000915527</ele>
        <time>2013-03-24T08:43:52.000Z</time>
      </trkpt>
      <trkpt lat="49.34859" lon="1.07039">
        <ele>69.349998474121</ele>
        <time>2013-03-24T08:43:57.000Z</time>
      </trkpt>
      <trkpt lat="49.34856" lon="1.07036">
        <ele>69.349998474121</ele>
        <time>2013-03-24T08:43:58.000Z</time>
      </trkpt>
      <trkpt lat="49.34815" lon="1.07008">
        <ele>66.949996948242</ele>
        <time>2013-03-24T08:44:09.000Z</time>
      </trkpt>
      <trkpt lat="49.34814" lon="1.07004">
        <ele>66.949996948242</ele>
        <time>2013-03-24T08:44:10.000Z</time>
      </trkpt>
      <trkpt lat="49.34813" lon="1.07">
        <ele>66.470001220703</ele>
        <time>2013-03-24T08:44:11.000Z</time>
      </trkpt>
      <trkpt lat="49.34813" lon="1.06997">
        <ele>66.470001220703</ele>
        <time>2013-03-24T08:44:12.000Z</time>
      </trkpt>
      <trkpt lat="49.34813" lon="1.06995">
        <ele>66.470001220703</ele>
        <time>2013-03-24T08:44:13.000Z</time>
      </trkpt>
      <trkpt lat="49.34818" lon="1.06961">
        <ele>64.550003051758</ele>
        <time>2013-03-24T08:44:23.000Z</time>
      </trkpt>
      <trkpt lat="49.34819" lon="1.06956">
        <ele>64.550003051758</ele>
        <time>2013-03-24T08:44:24.000Z</time>
      </trkpt>
      <trkpt lat="49.34829" lon="1.06917">
        <ele>65.029998779297</ele>
        <time>2013-03-24T08:44:34.000Z</time>
      </trkpt>
      <trkpt lat="49.34836" lon="1.06886">
        <ele>63.099998474121</ele>
        <time>2013-03-24T08:44:44.000Z</time>
      </trkpt>
      <trkpt lat="49.34837" lon="1.06884">
        <ele>63.099998474121</ele>
        <time>2013-03-24T08:44:45.000Z</time>
      </trkpt>
      <trkpt lat="49.34853" lon="1.06857">
        <ele>64.069999694824</ele>
        <time>2013-03-24T08:44:57.000Z</time>
      </trkpt>
      <trkpt lat="49.34857" lon="1.06845">
        <ele>65.51000213623</ele>
        <time>2013-03-24T08:45:01.000Z</time>
      </trkpt>
      <trkpt lat="49.34866" lon="1.06805">
        <ele>66.949996948242</ele>
        <time>2013-03-24T08:45:13.000Z</time>
      </trkpt>
      <trkpt lat="49.34866" lon="1.0679">
        <ele>66.949996948242</ele>
        <time>2013-03-24T08:45:17.000Z</time>
      </trkpt>
      <trkpt lat="49.34869" lon="1.06777">
        <ele>66.470001220703</ele>
        <time>2013-03-24T08:45:21.000Z</time>
      </trkpt>
      <trkpt lat="49.34877" lon="1.0675">
        <ele>65.51000213623</ele>
        <time>2013-03-24T08:45:29.000Z</time>
      </trkpt>
      <trkpt lat="49.34886" lon="1.06721">
        <ele>68.870002746582</ele>
        <time>2013-03-24T08:45:38.000Z</time>
      </trkpt>
      <trkpt lat="49.34888" lon="1.06717">
        <ele>69.830001831055</ele>
        <time>2013-03-24T08:45:40.000Z</time>
      </trkpt>
      <trkpt lat="49.34896" lon="1.06686">
        <ele>74.160003662109</ele>
        <time>2013-03-24T08:45:50.000Z</time>
      </trkpt>
      <trkpt lat="49.349" lon="1.06667">
        <ele>75.599998474121</ele>
        <time>2013-03-24T08:45:56.000Z</time>
      </trkpt>
      <trkpt lat="49.34903" lon="1.0666">
        <ele>75.120002746582</ele>
        <time>2013-03-24T08:45:59.000Z</time>
      </trkpt>
      <trkpt lat="49.34912" lon="1.06637">
        <ele>74.160003662109</ele>
        <time>2013-03-24T08:46:09.000Z</time>
      </trkpt>
      <trkpt lat="49.34917" lon="1.06629">
        <ele>75.120002746582</ele>
        <time>2013-03-24T08:46:13.000Z</time>
      </trkpt>
      <trkpt lat="49.34926" lon="1.06618">
        <ele>73.199996948242</ele>
        <time>2013-03-24T08:46:23.000Z</time>
      </trkpt>
      <trkpt lat="49.34926" lon="1.06609">
        <ele>71.76000213623</ele>
        <time>2013-03-24T08:46:26.000Z</time>
      </trkpt>
      <trkpt lat="49.34928" lon="1.06599">
        <ele>70.309997558594</ele>
        <time>2013-03-24T08:46:30.000Z</time>
      </trkpt>
      <trkpt lat="49.34933" lon="1.06585">
        <ele>68.870002746582</ele>
        <time>2013-03-24T08:46:36.000Z</time>
      </trkpt>
      <trkpt lat="49.34937" lon="1.06573">
        <ele>66.470001220703</ele>
        <time>2013-03-24T08:46:40.000Z</time>
      </trkpt>
      <trkpt lat="49.34941" lon="1.06561">
        <ele>65.98999786377</ele>
        <time>2013-03-24T08:46:44.000Z</time>
      </trkpt>
      <trkpt lat="49.34948" lon="1.06546">
        <ele>65.029998779297</ele>
        <time>2013-03-24T08:46:51.000Z</time>
      </trkpt>
      <trkpt lat="49.34961" lon="1.06534">
        <ele>67.430000305176</ele>
        <time>2013-03-24T08:47:01.000Z</time>
      </trkpt>
      <trkpt lat="49.34963" lon="1.06534">
        <ele>67.430000305176</ele>
        <time>2013-03-24T08:47:02.000Z</time>
      </trkpt>
      <trkpt lat="49.34974" lon="1.06507">
        <ele>74.160003662109</ele>
        <time>2013-03-24T08:47:13.000Z</time>
      </trkpt>
      <trkpt lat="49.34982" lon="1.06497">
        <ele>78.480003356934</ele>
        <time>2013-03-24T08:47:19.000Z</time>
      </trkpt>
      <trkpt lat="49.34985" lon="1.06481">
        <ele>81.370002746582</ele>
        <time>2013-03-24T08:47:24.000Z</time>
      </trkpt>
      <trkpt lat="49.34996" lon="1.06464">
        <ele>83.769996643066</ele>
        <time>2013-03-24T08:47:32.000Z</time>
      </trkpt>
      <trkpt lat="49.34994" lon="1.06449">
        <ele>84.25</ele>
        <time>2013-03-24T08:47:36.000Z</time>
      </trkpt>
      <trkpt lat="49.34999" lon="1.06436">
        <ele>84.25</ele>
        <time>2013-03-24T08:47:40.000Z</time>
      </trkpt>
      <trkpt lat="49.35006" lon="1.06424">
        <ele>83.769996643066</ele>
        <time>2013-03-24T08:47:45.000Z</time>
      </trkpt>
      <trkpt lat="49.35012" lon="1.06409">
        <ele>85.209999084473</ele>
        <time>2013-03-24T08:47:50.000Z</time>
      </trkpt>
      <trkpt lat="49.35019" lon="1.06401">
        <ele>85.209999084473</ele>
        <time>2013-03-24T08:47:54.000Z</time>
      </trkpt>
      <trkpt lat="49.35032" lon="1.06375">
        <ele>86.180000305176</ele>
        <time>2013-03-24T08:48:02.000Z</time>
      </trkpt>
      <trkpt lat="49.35036" lon="1.06365">
        <ele>85.690002441406</ele>
        <time>2013-03-24T08:48:05.000Z</time>
      </trkpt>
      <trkpt lat="49.3504" lon="1.0636">
        <ele>86.180000305176</ele>
        <time>2013-03-24T08:48:08.000Z</time>
      </trkpt>
      <trkpt lat="49.35044" lon="1.06346">
        <ele>85.690002441406</ele>
        <time>2013-03-24T08:48:12.000Z</time>
      </trkpt>
      <trkpt lat="49.35048" lon="1.06337">
        <ele>83.769996643066</ele>
        <time>2013-03-24T08:48:18.000Z</time>
      </trkpt>
      <trkpt lat="49.35066" lon="1.06334">
        <ele>84.730003356934</ele>
        <time>2013-03-24T08:48:26.000Z</time>
      </trkpt>
      <trkpt lat="49.35073" lon="1.06326">
        <ele>85.690002441406</ele>
        <time>2013-03-24T08:48:30.000Z</time>
      </trkpt>
      <trkpt lat="49.3508" lon="1.06319">
        <ele>86.660003662109</ele>
        <time>2013-03-24T08:48:33.000Z</time>
      </trkpt>
      <trkpt lat="49.35085" lon="1.06296">
        <ele>86.660003662109</ele>
        <time>2013-03-24T08:48:39.000Z</time>
      </trkpt>
      <trkpt lat="49.35093" lon="1.06283">
        <ele>85.690002441406</ele>
        <time>2013-03-24T08:48:44.000Z</time>
      </trkpt>
      <trkpt lat="49.35107" lon="1.06237">
        <ele>86.180000305176</ele>
        <time>2013-03-24T08:48:56.000Z</time>
      </trkpt>
      <trkpt lat="49.35119" lon="1.06208">
        <ele>86.660003662109</ele>
        <time>2013-03-24T08:49:03.000Z</time>
      </trkpt>
      <trkpt lat="49.35115" lon="1.06188">
        <ele>86.180000305176</ele>
        <time>2013-03-24T08:49:08.000Z</time>
      </trkpt>
      <trkpt lat="49.35105" lon="1.06179">
        <ele>86.180000305176</ele>
        <time>2013-03-24T08:49:12.000Z</time>
      </trkpt>
      <trkpt lat="49.3509" lon="1.06151">
        <ele>81.849998474121</ele>
        <time>2013-03-24T08:49:19.000Z</time>
      </trkpt>
      <trkpt lat="49.35084" lon="1.06144">
        <ele>79.449996948242</ele>
        <time>2013-03-24T08:49:21.000Z</time>
      </trkpt>
      <trkpt lat="49.35075" lon="1.06134">
        <ele>77.519996643066</ele>
        <time>2013-03-24T08:49:23.000Z</time>
      </trkpt>
      <trkpt lat="49.35069" lon="1.0613">
        <ele>76.559997558594</ele>
        <time>2013-03-24T08:49:24.000Z</time>
      </trkpt>
      <trkpt lat="49.35062" lon="1.06127">
        <ele>75.599998474121</ele>
        <time>2013-03-24T08:49:25.000Z</time>
      </trkpt>
      <trkpt lat="49.35057" lon="1.06127">
        <ele>75.120002746582</ele>
        <time>2013-03-24T08:49:26.000Z</time>
      </trkpt>
      <trkpt lat="49.35052" lon="1.0613">
        <ele>75.120002746582</ele>
        <time>2013-03-24T08:49:27.000Z</time>
      </trkpt>
      <trkpt lat="49.35047" lon="1.06133">
        <ele>75.120002746582</ele>
        <time>2013-03-24T08:49:28.000Z</time>
      </trkpt>
      <trkpt lat="49.35043" lon="1.06137">
        <ele>75.120002746582</ele>
        <time>2013-03-24T08:49:29.000Z</time>
      </trkpt>
      <trkpt lat="49.3504" lon="1.06141">
        <ele>75.120002746582</ele>
        <time>2013-03-24T08:49:30.000Z</time>
      </trkpt>
      <trkpt lat="49.35036" lon="1.06145">
        <ele>75.120002746582</ele>
        <time>2013-03-24T08:49:31.000Z</time>
      </trkpt>
      <trkpt lat="49.35025" lon="1.06156">
        <ele>75.599998474121</ele>
        <time>2013-03-24T08:49:34.000Z</time>
      </trkpt>
      <trkpt lat="49.35021" lon="1.06158">
        <ele>75.599998474121</ele>
        <time>2013-03-24T08:49:35.000Z</time>
      </trkpt>
      <trkpt lat="49.35017" lon="1.0616">
        <ele>76.080001831055</ele>
        <time>2013-03-24T08:49:36.000Z</time>
      </trkpt>
      <trkpt lat="49.35013" lon="1.06161">
        <ele>76.080001831055</ele>
        <time>2013-03-24T08:49:37.000Z</time>
      </trkpt>
      <trkpt lat="49.35009" lon="1.06161">
        <ele>76.559997558594</ele>
        <time>2013-03-24T08:49:38.000Z</time>
      </trkpt>
      <trkpt lat="49.35001" lon="1.06165">
        <ele>76.559997558594</ele>
        <time>2013-03-24T08:49:40.000Z</time>
      </trkpt>
      <trkpt lat="49.34998" lon="1.06168">
        <ele>76.559997558594</ele>
        <time>2013-03-24T08:49:41.000Z</time>
      </trkpt>
      <trkpt lat="49.34994" lon="1.06172">
        <ele>76.559997558594</ele>
        <time>2013-03-24T08:49:42.000Z</time>
      </trkpt>
      <trkpt lat="49.34969" lon="1.06216">
        <ele>78.970001220703</ele>
        <time>2013-03-24T08:49:54.000Z</time>
      </trkpt>
      <trkpt lat="49.34939" lon="1.06248">
        <ele>80.889999389648</ele>
        <time>2013-03-24T08:50:06.000Z</time>
      </trkpt>
      <trkpt lat="49.349" lon="1.06255">
        <ele>84.730003356934</ele>
        <time>2013-03-24T08:50:19.000Z</time>
      </trkpt>
      <trkpt lat="49.34859" lon="1.06229">
        <ele>87.139999389648</ele>
        <time>2013-03-24T08:50:31.000Z</time>
      </trkpt>
      <trkpt lat="49.34835" lon="1.0621">
        <ele>89.059997558594</ele>
        <time>2013-03-24T08:50:38.000Z</time>
      </trkpt>
      <trkpt lat="49.34831" lon="1.06207">
        <ele>89.059997558594</ele>
        <time>2013-03-24T08:50:39.000Z</time>
      </trkpt>
      <trkpt lat="49.34779" lon="1.06167">
        <ele>90.019996643066</ele>
        <time>2013-03-24T08:50:53.000Z</time>
      </trkpt>
      <trkpt lat="49.34732" lon="1.06133">
        <ele>90.5</ele>
        <time>2013-03-24T08:51:06.000Z</time>
      </trkpt>
      <trkpt lat="49.34678" lon="1.06093">
        <ele>91.459999084473</ele>
        <time>2013-03-24T08:51:21.000Z</time>
      </trkpt>
      <trkpt lat="49.3467" lon="1.06088">
        <ele>90.980003356934</ele>
        <time>2013-03-24T08:51:23.000Z</time>
      </trkpt>
      <trkpt lat="49.34647" lon="1.06071">
        <ele>90.5</ele>
        <time>2013-03-24T08:51:29.000Z</time>
      </trkpt>
      <trkpt lat="49.34628" lon="1.06057">
        <ele>91.459999084473</ele>
        <time>2013-03-24T08:51:34.000Z</time>
      </trkpt>
      <trkpt lat="49.34579" lon="1.06023">
        <ele>90.980003356934</ele>
        <time>2013-03-24T08:51:47.000Z</time>
      </trkpt>
      <trkpt lat="49.34534" lon="1.05992">
        <ele>91.459999084473</ele>
        <time>2013-03-24T09:06:27.000Z</time>
      </trkpt>
      <trkpt lat="49.34523" lon="1.05985">
        <ele>91.459999084473</ele>
        <time>2013-03-24T09:06:32.000Z</time>
      </trkpt>
      <trkpt lat="49.34498" lon="1.05966">
        <ele>92.419998168945</ele>
        <time>2013-03-24T09:06:42.000Z</time>
      </trkpt>
      <trkpt lat="49.3447" lon="1.05946">
        <ele>90.980003356934</ele>
        <time>2013-03-24T09:06:53.000Z</time>
      </trkpt>
      <trkpt lat="49.34438" lon="1.05924">
        <ele>90.5</ele>
        <time>2013-03-24T09:07:05.000Z</time>
      </trkpt>
      <trkpt lat="49.34432" lon="1.05919">
        <ele>90.980003356934</ele>
        <time>2013-03-24T09:07:08.000Z</time>
      </trkpt>
      <trkpt lat="49.34431" lon="1.05916">
        <ele>90.980003356934</ele>
        <time>2013-03-24T09:07:09.000Z</time>
      </trkpt>
      <trkpt lat="49.34431" lon="1.05914">
        <ele>90.980003356934</ele>
        <time>2013-03-24T09:07:10.000Z</time>
      </trkpt>
      <trkpt lat="49.34431" lon="1.05911">
        <ele>90.980003356934</ele>
        <time>2013-03-24T09:07:11.000Z</time>
      </trkpt>
      <trkpt lat="49.34433" lon="1.059">
        <ele>90.5</ele>
        <time>2013-03-24T09:07:20.000Z</time>
      </trkpt>
      <trkpt lat="49.34435" lon="1.05897">
        <ele>90.980003356934</ele>
        <time>2013-03-24T09:07:21.000Z</time>
      </trkpt>
      <trkpt lat="49.34436" lon="1.05894">
        <ele>90.980003356934</ele>
        <time>2013-03-24T09:07:22.000Z</time>
      </trkpt>
      <trkpt lat="49.34446" lon="1.0586">
        <ele>90.980003356934</ele>
        <time>2013-03-24T09:07:31.000Z</time>
      </trkpt>
      <trkpt lat="49.34449" lon="1.05819">
        <ele>93.870002746582</ele>
        <time>2013-03-24T09:07:41.000Z</time>
      </trkpt>
      <trkpt lat="49.34451" lon="1.05817">
        <ele>93.870002746582</ele>
        <time>2013-03-24T09:07:42.000Z</time>
      </trkpt>
      <trkpt lat="49.34453" lon="1.05815">
        <ele>93.870002746582</ele>
        <time>2013-03-24T09:07:43.000Z</time>
      </trkpt>
      <trkpt lat="49.34458" lon="1.05806">
        <ele>94.830001831055</ele>
        <time>2013-03-24T09:07:47.000Z</time>
      </trkpt>
      <trkpt lat="49.34461" lon="1.05794">
        <ele>94.349998474121</ele>
        <time>2013-03-24T09:07:51.000Z</time>
      </trkpt>
      <trkpt lat="49.34478" lon="1.05787">
        <ele>96.269996643066</ele>
        <time>2013-03-24T09:08:02.000Z</time>
      </trkpt>
      <trkpt lat="49.34482" lon="1.05768">
        <ele>94.830001831055</ele>
        <time>2013-03-24T09:08:08.000Z</time>
      </trkpt>
      <trkpt lat="49.34485" lon="1.05709">
        <ele>95.790000915527</ele>
        <time>2013-03-24T09:08:24.000Z</time>
      </trkpt>
      <trkpt lat="49.34489" lon="1.05666">
        <ele>98.190002441406</ele>
        <time>2013-03-24T09:08:36.000Z</time>
      </trkpt>
      <trkpt lat="49.3449" lon="1.05656">
        <ele>99.150001525879</ele>
        <time>2013-03-24T09:08:39.000Z</time>
      </trkpt>
      <trkpt lat="49.34492" lon="1.05641">
        <ele>101.08000183106</ele>
        <time>2013-03-24T09:08:43.000Z</time>
      </trkpt>
      <trkpt lat="49.34492" lon="1.05594">
        <ele>99.150001525879</ele>
        <time>2013-03-24T09:08:56.000Z</time>
      </trkpt>
      <trkpt lat="49.34496" lon="1.05548">
        <ele>98.669998168945</ele>
        <time>2013-03-24T09:09:08.000Z</time>
      </trkpt>
      <trkpt lat="49.34498" lon="1.05502">
        <ele>98.669998168945</ele>
        <time>2013-03-24T09:09:19.000Z</time>
      </trkpt>
      <trkpt lat="49.34501" lon="1.05455">
        <ele>100.11000061035</ele>
        <time>2013-03-24T09:09:30.000Z</time>
      </trkpt>
      <trkpt lat="49.34504" lon="1.05402">
        <ele>101.08000183106</ele>
        <time>2013-03-24T09:09:43.000Z</time>
      </trkpt>
      <trkpt lat="49.34507" lon="1.05354">
        <ele>102.51999664307</ele>
        <time>2013-03-24T09:09:54.000Z</time>
      </trkpt>
      <trkpt lat="49.34506" lon="1.05345">
        <ele>103.48000335693</ele>
        <time>2013-03-24T09:09:56.000Z</time>
      </trkpt>
      <trkpt lat="49.3451" lon="1.05286">
        <ele>105.40000152588</ele>
        <time>2013-03-24T09:10:10.000Z</time>
      </trkpt>
      <trkpt lat="49.34515" lon="1.05244">
        <ele>106.83999633789</ele>
        <time>2013-03-24T09:10:21.000Z</time>
      </trkpt>
      <trkpt lat="49.34516" lon="1.052">
        <ele>106.83999633789</ele>
        <time>2013-03-24T09:10:32.000Z</time>
      </trkpt>
      <trkpt lat="49.34519" lon="1.0515">
        <ele>108.76999664307</ele>
        <time>2013-03-24T09:10:45.000Z</time>
      </trkpt>
      <trkpt lat="49.3452" lon="1.0511">
        <ele>111.65000152588</ele>
        <time>2013-03-24T09:10:56.000Z</time>
      </trkpt>
      <trkpt lat="49.3452" lon="1.05108">
        <ele>112.12999725342</ele>
        <time>2013-03-24T09:10:58.000Z</time>
      </trkpt>
      <trkpt lat="49.34522" lon="1.05073">
        <ele>111.16999816894</ele>
        <time>2013-03-24T09:11:08.000Z</time>
      </trkpt>
      <trkpt lat="49.34523" lon="1.05054">
        <ele>111.65000152588</ele>
        <time>2013-03-24T09:11:12.000Z</time>
      </trkpt>
      <trkpt lat="49.34526" lon="1.04999">
        <ele>115.01000213623</ele>
        <time>2013-03-24T09:11:26.000Z</time>
      </trkpt>
      <trkpt lat="49.34527" lon="1.04974">
        <ele>115.01000213623</ele>
        <time>2013-03-24T09:11:33.000Z</time>
      </trkpt>
      <trkpt lat="49.34529" lon="1.04956">
        <ele>114.05000305176</ele>
        <time>2013-03-24T09:11:40.000Z</time>
      </trkpt>
      <trkpt lat="49.34531" lon="1.04949">
        <ele>113.56999969482</ele>
        <time>2013-03-24T09:11:44.000Z</time>
      </trkpt>
      <trkpt lat="49.34541" lon="1.04916">
        <ele>114.05000305176</ele>
        <time>2013-03-24T09:11:56.000Z</time>
      </trkpt>
      <trkpt lat="49.34549" lon="1.04881">
        <ele>113.56999969482</ele>
        <time>2013-03-24T09:12:07.000Z</time>
      </trkpt>
      <trkpt lat="49.34558" lon="1.04858">
        <ele>115.5</ele>
        <time>2013-03-24T09:12:14.000Z</time>
      </trkpt>
      <trkpt lat="49.34562" lon="1.04847">
        <ele>115.98000335693</ele>
        <time>2013-03-24T09:12:18.000Z</time>
      </trkpt>
      <trkpt lat="49.34573" lon="1.04805">
        <ele>114.5299987793</ele>
        <time>2013-03-24T09:12:30.000Z</time>
      </trkpt>
      <trkpt lat="49.34582" lon="1.04771">
        <ele>112.12999725342</ele>
        <time>2013-03-24T09:12:39.000Z</time>
      </trkpt>
      <trkpt lat="49.34594" lon="1.04726">
        <ele>111.65000152588</ele>
        <time>2013-03-24T09:12:51.000Z</time>
      </trkpt>
      <trkpt lat="49.34602" lon="1.047">
        <ele>111.65000152588</ele>
        <time>2013-03-24T09:12:58.000Z</time>
      </trkpt>
      <trkpt lat="49.34612" lon="1.04664">
        <ele>114.05000305176</ele>
        <time>2013-03-24T09:13:04.000Z</time>
      </trkpt>
      <trkpt lat="49.34618" lon="1.04647">
        <ele>114.5299987793</ele>
        <time>2013-03-24T09:13:08.000Z</time>
      </trkpt>
      <trkpt lat="49.34626" lon="1.04618">
        <ele>115.98000335693</ele>
        <time>2013-03-24T09:13:14.000Z</time>
      </trkpt>
      <trkpt lat="49.34638" lon="1.0458">
        <ele>118.86000061035</ele>
        <time>2013-03-24T09:13:23.000Z</time>
      </trkpt>
      <trkpt lat="49.34653" lon="1.04542">
        <ele>125.11000061035</ele>
        <time>2013-03-24T09:13:33.000Z</time>
      </trkpt>
      <trkpt lat="49.3466" lon="1.04525">
        <ele>126.55000305176</ele>
        <time>2013-03-24T09:13:37.000Z</time>
      </trkpt>
      <trkpt lat="49.34669" lon="1.04498">
        <ele>128.4700012207</ele>
        <time>2013-03-24T09:13:44.000Z</time>
      </trkpt>
      <trkpt lat="49.34682" lon="1.04458">
        <ele>130.39999389648</ele>
        <time>2013-03-24T09:13:53.000Z</time>
      </trkpt>
      <trkpt lat="49.34697" lon="1.04409">
        <ele>127.0299987793</ele>
        <time>2013-03-24T09:14:04.000Z</time>
      </trkpt>
      <trkpt lat="49.347" lon="1.04398">
        <ele>126.06999969482</ele>
        <time>2013-03-24T09:14:07.000Z</time>
      </trkpt>
      <trkpt lat="49.34711" lon="1.04355">
        <ele>120.30000305176</ele>
        <time>2013-03-24T09:14:20.000Z</time>
      </trkpt>
      <trkpt lat="49.34738" lon="1.04368">
        <ele>117.90000152588</ele>
        <time>2013-03-24T09:14:30.000Z</time>
      </trkpt>
      <trkpt lat="49.34773" lon="1.0439">
        <ele>117.90000152588</ele>
        <time>2013-03-24T09:14:42.000Z</time>
      </trkpt>
      <trkpt lat="49.34783" lon="1.04395">
        <ele>117.41999816894</ele>
        <time>2013-03-24T09:14:45.000Z</time>
      </trkpt>
      <trkpt lat="49.34788" lon="1.04404">
        <ele>116.94000244141</ele>
        <time>2013-03-24T09:14:48.000Z</time>
      </trkpt>
      <trkpt lat="49.34805" lon="1.04401">
        <ele>117.90000152588</ele>
        <time>2013-03-24T09:14:54.000Z</time>
      </trkpt>
      <trkpt lat="49.34809" lon="1.04393">
        <ele>117.41999816894</ele>
        <time>2013-03-24T09:14:56.000Z</time>
      </trkpt>
      <trkpt lat="49.34821" lon="1.04334">
        <ele>118.37999725342</ele>
        <time>2013-03-24T09:15:08.000Z</time>
      </trkpt>
      <trkpt lat="49.34831" lon="1.04274">
        <ele>118.86000061035</ele>
        <time>2013-03-24T09:15:20.000Z</time>
      </trkpt>
      <trkpt lat="49.34842" lon="1.04229">
        <ele>120.30000305176</ele>
        <time>2013-03-24T09:15:31.000Z</time>
      </trkpt>
      <trkpt lat="49.34859" lon="1.04156">
        <ele>122.70999908447</ele>
        <time>2013-03-24T09:15:45.000Z</time>
      </trkpt>
      <trkpt lat="49.34869" lon="1.04099">
        <ele>124.15000152588</ele>
        <time>2013-03-24T09:15:55.000Z</time>
      </trkpt>
      <trkpt lat="49.34883" lon="1.04025">
        <ele>125.58999633789</ele>
        <time>2013-03-24T09:16:08.000Z</time>
      </trkpt>
      <trkpt lat="49.34893" lon="1.03941">
        <ele>126.55000305176</ele>
        <time>2013-03-24T09:16:22.000Z</time>
      </trkpt>
      <trkpt lat="49.34904" lon="1.03833">
        <ele>129.42999267578</ele>
        <time>2013-03-24T09:16:39.000Z</time>
      </trkpt>
      <trkpt lat="49.34909" lon="1.03768">
        <ele>128.94999694824</ele>
        <time>2013-03-24T09:16:49.000Z</time>
      </trkpt>
      <trkpt lat="49.34912" lon="1.0373">
        <ele>128.94999694824</ele>
        <time>2013-03-24T09:16:55.000Z</time>
      </trkpt>
      <trkpt lat="49.34917" lon="1.03711">
        <ele>128.94999694824</ele>
        <time>2013-03-24T09:16:58.000Z</time>
      </trkpt>
      <trkpt lat="49.34918" lon="1.03704">
        <ele>128.94999694824</ele>
        <time>2013-03-24T09:16:59.000Z</time>
      </trkpt>
      <trkpt lat="49.34921" lon="1.0359">
        <ele>130.88000488281</ele>
        <time>2013-03-24T09:17:15.000Z</time>
      </trkpt>
      <trkpt lat="49.34925" lon="1.03494">
        <ele>131.36000061035</ele>
        <time>2013-03-24T09:17:29.000Z</time>
      </trkpt>
      <trkpt lat="49.34931" lon="1.03382">
        <ele>129.42999267578</ele>
        <time>2013-03-24T09:17:43.000Z</time>
      </trkpt>
      <trkpt lat="49.34933" lon="1.03364">
        <ele>129.42999267578</ele>
        <time>2013-03-24T09:17:45.000Z</time>
      </trkpt>
      <trkpt lat="49.34935" lon="1.03355">
        <ele>129.42999267578</ele>
        <time>2013-03-24T09:17:46.000Z</time>
      </trkpt>
      <trkpt lat="49.34943" lon="1.03293">
        <ele>127.51000213623</ele>
        <time>2013-03-24T09:17:53.000Z</time>
      </trkpt>
      <trkpt lat="49.34954" lon="1.03245">
        <ele>127.0299987793</ele>
        <time>2013-03-24T09:17:58.000Z</time>
      </trkpt>
      <trkpt lat="49.34956" lon="1.03235">
        <ele>126.55000305176</ele>
        <time>2013-03-24T09:17:59.000Z</time>
      </trkpt>
      <trkpt lat="49.34986" lon="1.03138">
        <ele>125.11000061035</ele>
        <time>2013-03-24T09:18:10.000Z</time>
      </trkpt>
      <trkpt lat="49.35014" lon="1.03068">
        <ele>124.62999725342</ele>
        <time>2013-03-24T09:18:19.000Z</time>
      </trkpt>
      <trkpt lat="49.35015" lon="1.0306">
        <ele>124.62999725342</ele>
        <time>2013-03-24T09:18:20.000Z</time>
      </trkpt>
      <trkpt lat="49.35017" lon="1.03051">
        <ele>124.62999725342</ele>
        <time>2013-03-24T09:18:21.000Z</time>
      </trkpt>
      <trkpt lat="49.35019" lon="1.03043">
        <ele>124.62999725342</ele>
        <time>2013-03-24T09:18:22.000Z</time>
      </trkpt>
      <trkpt lat="49.3502" lon="1.03035">
        <ele>124.62999725342</ele>
        <time>2013-03-24T09:18:23.000Z</time>
      </trkpt>
      <trkpt lat="49.35025" lon="1.03012">
        <ele>124.62999725342</ele>
        <time>2013-03-24T09:18:26.000Z</time>
      </trkpt>
      <trkpt lat="49.35027" lon="1.03005">
        <ele>124.62999725342</ele>
        <time>2013-03-24T09:18:27.000Z</time>
      </trkpt>
      <trkpt lat="49.3503" lon="1.02998">
        <ele>124.62999725342</ele>
        <time>2013-03-24T09:18:28.000Z</time>
      </trkpt>
      <trkpt lat="49.35033" lon="1.02992">
        <ele>124.62999725342</ele>
        <time>2013-03-24T09:18:29.000Z</time>
      </trkpt>
      <trkpt lat="49.35037" lon="1.02986">
        <ele>124.62999725342</ele>
        <time>2013-03-24T09:18:30.000Z</time>
      </trkpt>
      <trkpt lat="49.3504" lon="1.0298">
        <ele>124.62999725342</ele>
        <time>2013-03-24T09:18:31.000Z</time>
      </trkpt>
      <trkpt lat="49.35047" lon="1.0297">
        <ele>124.62999725342</ele>
        <time>2013-03-24T09:18:33.000Z</time>
      </trkpt>
      <trkpt lat="49.35054" lon="1.02959">
        <ele>123.66999816894</ele>
        <time>2013-03-24T09:18:36.000Z</time>
      </trkpt>
      <trkpt lat="49.35054" lon="1.02954">
        <ele>123.66999816894</ele>
        <time>2013-03-24T09:18:37.000Z</time>
      </trkpt>
      <trkpt lat="49.35053" lon="1.02951">
        <ele>123.66999816894</ele>
        <time>2013-03-24T09:18:38.000Z</time>
      </trkpt>
      <trkpt lat="49.35047" lon="1.02941">
        <ele>123.66999816894</ele>
        <time>2013-03-24T09:18:41.000Z</time>
      </trkpt>
      <trkpt lat="49.35044" lon="1.02939">
        <ele>123.66999816894</ele>
        <time>2013-03-24T09:18:42.000Z</time>
      </trkpt>
      <trkpt lat="49.35026" lon="1.02932">
        <ele>123.19000244141</ele>
        <time>2013-03-24T09:18:46.000Z</time>
      </trkpt>
      <trkpt lat="49.35022" lon="1.02932">
        <ele>123.19000244141</ele>
        <time>2013-03-24T09:18:47.000Z</time>
      </trkpt>
      <trkpt lat="49.35018" lon="1.02934">
        <ele>123.19000244141</ele>
        <time>2013-03-24T09:18:48.000Z</time>
      </trkpt>
      <trkpt lat="49.35014" lon="1.02934">
        <ele>123.19000244141</ele>
        <time>2013-03-24T09:18:49.000Z</time>
      </trkpt>
      <trkpt lat="49.35004" lon="1.02927">
        <ele>123.66999816894</ele>
        <time>2013-03-24T09:18:52.000Z</time>
      </trkpt>
      <trkpt lat="49.34973" lon="1.0291">
        <ele>123.66999816894</ele>
        <time>2013-03-24T09:19:02.000Z</time>
      </trkpt>
      <trkpt lat="49.34943" lon="1.02892">
        <ele>124.62999725342</ele>
        <time>2013-03-24T09:19:11.000Z</time>
      </trkpt>
      <trkpt lat="49.34913" lon="1.02875">
        <ele>124.62999725342</ele>
        <time>2013-03-24T09:19:21.000Z</time>
      </trkpt>
      <trkpt lat="49.34879" lon="1.02854">
        <ele>125.11000061035</ele>
        <time>2013-03-24T09:19:32.000Z</time>
      </trkpt>
      <trkpt lat="49.3484" lon="1.02834">
        <ele>125.58999633789</ele>
        <time>2013-03-24T09:19:44.000Z</time>
      </trkpt>
      <trkpt lat="49.34809" lon="1.02808">
        <ele>124.62999725342</ele>
        <time>2013-03-24T09:19:56.000Z</time>
      </trkpt>
      <trkpt lat="49.34786" lon="1.02788">
        <ele>125.58999633789</ele>
        <time>2013-03-24T09:20:06.000Z</time>
      </trkpt>
      <trkpt lat="49.34781" lon="1.02786">
        <ele>125.58999633789</ele>
        <time>2013-03-24T09:20:08.000Z</time>
      </trkpt>
      <trkpt lat="49.34772" lon="1.02795">
        <ele>126.06999969482</ele>
        <time>2013-03-24T09:20:12.000Z</time>
      </trkpt>
      <trkpt lat="49.34761" lon="1.02849">
        <ele>124.15000152588</ele>
        <time>2013-03-24T09:20:24.000Z</time>
      </trkpt>
      <trkpt lat="49.34752" lon="1.0289">
        <ele>123.66999816894</ele>
        <time>2013-03-24T09:20:34.000Z</time>
      </trkpt>
      <trkpt lat="49.34739" lon="1.02957">
        <ele>122.70999908447</ele>
        <time>2013-03-24T09:20:47.000Z</time>
      </trkpt>
      <trkpt lat="49.34733" lon="1.03009">
        <ele>123.19000244141</ele>
        <time>2013-03-24T09:20:58.000Z</time>
      </trkpt>
      <trkpt lat="49.34722" lon="1.03056">
        <ele>122.70999908447</ele>
        <time>2013-03-24T09:21:08.000Z</time>
      </trkpt>
      <trkpt lat="49.34714" lon="1.03104">
        <ele>122.70999908447</ele>
        <time>2013-03-24T09:21:17.000Z</time>
      </trkpt>
      <trkpt lat="49.3471" lon="1.03129">
        <ele>123.66999816894</ele>
        <time>2013-03-24T09:21:22.000Z</time>
      </trkpt>
      <trkpt lat="49.34695" lon="1.03192">
        <ele>126.06999969482</ele>
        <time>2013-03-24T09:21:34.000Z</time>
      </trkpt>
      <trkpt lat="49.34684" lon="1.03253">
        <ele>124.15000152588</ele>
        <time>2013-03-24T09:21:45.000Z</time>
      </trkpt>
      <trkpt lat="49.34673" lon="1.03304">
        <ele>122.70999908447</ele>
        <time>2013-03-24T09:21:55.000Z</time>
      </trkpt>
      <trkpt lat="49.34666" lon="1.03349">
        <ele>122.70999908447</ele>
        <time>2013-03-24T09:22:04.000Z</time>
      </trkpt>
      <trkpt lat="49.34659" lon="1.03397">
        <ele>122.70999908447</ele>
        <time>2013-03-24T09:22:15.000Z</time>
      </trkpt>
      <trkpt lat="49.34658" lon="1.03416">
        <ele>123.19000244141</ele>
        <time>2013-03-24T09:22:21.000Z</time>
      </trkpt>
      <trkpt lat="49.34655" lon="1.03425">
        <ele>123.19000244141</ele>
        <time>2013-03-24T09:22:24.000Z</time>
      </trkpt>
      <trkpt lat="49.34654" lon="1.03435">
        <ele>123.66999816894</ele>
        <time>2013-03-24T09:22:26.000Z</time>
      </trkpt>
      <trkpt lat="49.34652" lon="1.0344">
        <ele>123.66999816894</ele>
        <time>2013-03-24T09:22:28.000Z</time>
      </trkpt>
      <trkpt lat="49.34647" lon="1.03454">
        <ele>123.66999816894</ele>
        <time>2013-03-24T09:22:39.000Z</time>
      </trkpt>
      <trkpt lat="49.34643" lon="1.03484">
        <ele>124.15000152588</ele>
        <time>2013-03-24T09:22:45.000Z</time>
      </trkpt>
      <trkpt lat="49.34632" lon="1.03548">
        <ele>121.26000213623</ele>
        <time>2013-03-24T09:22:57.000Z</time>
      </trkpt>
      <trkpt lat="49.34619" lon="1.03603">
        <ele>120.7799987793</ele>
        <time>2013-03-24T09:23:07.000Z</time>
      </trkpt>
      <trkpt lat="49.34615" lon="1.03621">
        <ele>122.2200012207</ele>
        <time>2013-03-24T09:23:10.000Z</time>
      </trkpt>
      <trkpt lat="49.34599" lon="1.03676">
        <ele>123.66999816894</ele>
        <time>2013-03-24T09:23:21.000Z</time>
      </trkpt>
      <trkpt lat="49.34563" lon="1.03663">
        <ele>124.62999725342</ele>
        <time>2013-03-24T09:23:31.000Z</time>
      </trkpt>
      <trkpt lat="49.34509" lon="1.03638">
        <ele>126.55000305176</ele>
        <time>2013-03-24T09:23:45.000Z</time>
      </trkpt>
      <trkpt lat="49.34483" lon="1.03626">
        <ele>127.98999786377</ele>
        <time>2013-03-24T09:23:51.000Z</time>
      </trkpt>
      <trkpt lat="49.34423" lon="1.036">
        <ele>128.94999694824</ele>
        <time>2013-03-24T09:24:05.000Z</time>
      </trkpt>
      <trkpt lat="49.34394" lon="1.03588">
        <ele>129.42999267578</ele>
        <time>2013-03-24T09:24:12.000Z</time>
      </trkpt>
      <trkpt lat="49.3439" lon="1.03586">
        <ele>129.42999267578</ele>
        <time>2013-03-24T09:24:13.000Z</time>
      </trkpt>
      <trkpt lat="49.34375" lon="1.03579">
        <ele>129.91999816894</ele>
        <time>2013-03-24T09:24:17.000Z</time>
      </trkpt>
      <trkpt lat="49.34346" lon="1.03564">
        <ele>130.39999389648</ele>
        <time>2013-03-24T09:24:25.000Z</time>
      </trkpt>
      <trkpt lat="49.34342" lon="1.03561">
        <ele>130.88000488281</ele>
        <time>2013-03-24T09:24:26.000Z</time>
      </trkpt>
      <trkpt lat="49.34301" lon="1.03541">
        <ele>133.75999450684</ele>
        <time>2013-03-24T09:24:36.000Z</time>
      </trkpt>
      <trkpt lat="49.34247" lon="1.03519">
        <ele>132.80000305176</ele>
        <time>2013-03-24T09:24:49.000Z</time>
      </trkpt>
      <trkpt lat="49.34225" lon="1.03508">
        <ele>129.91999816894</ele>
        <time>2013-03-24T09:24:56.000Z</time>
      </trkpt>
      <trkpt lat="49.34221" lon="1.03506">
        <ele>129.42999267578</ele>
        <time>2013-03-24T09:24:57.000Z</time>
      </trkpt>
      <trkpt lat="49.34216" lon="1.03504">
        <ele>128.94999694824</ele>
        <time>2013-03-24T09:24:58.000Z</time>
      </trkpt>
      <trkpt lat="49.3421" lon="1.035">
        <ele>128.4700012207</ele>
        <time>2013-03-24T09:24:59.000Z</time>
      </trkpt>
      <trkpt lat="49.34205" lon="1.03498">
        <ele>127.98999786377</ele>
        <time>2013-03-24T09:25:00.000Z</time>
      </trkpt>
      <trkpt lat="49.342" lon="1.03494">
        <ele>127.51000213623</ele>
        <time>2013-03-24T09:25:01.000Z</time>
      </trkpt>
      <trkpt lat="49.34196" lon="1.0349">
        <ele>127.0299987793</ele>
        <time>2013-03-24T09:25:02.000Z</time>
      </trkpt>
      <trkpt lat="49.3419" lon="1.03487">
        <ele>127.0299987793</ele>
        <time>2013-03-24T09:25:03.000Z</time>
      </trkpt>
      <trkpt lat="49.34185" lon="1.03484">
        <ele>126.55000305176</ele>
        <time>2013-03-24T09:25:04.000Z</time>
      </trkpt>
      <trkpt lat="49.34175" lon="1.0348">
        <ele>126.06999969482</ele>
        <time>2013-03-24T09:25:06.000Z</time>
      </trkpt>
      <trkpt lat="49.34171" lon="1.03478">
        <ele>126.06999969482</ele>
        <time>2013-03-24T09:25:07.000Z</time>
      </trkpt>
      <trkpt lat="49.34166" lon="1.03479">
        <ele>126.06999969482</ele>
        <time>2013-03-24T09:25:08.000Z</time>
      </trkpt>
      <trkpt lat="49.34161" lon="1.03481">
        <ele>126.55000305176</ele>
        <time>2013-03-24T09:25:09.000Z</time>
      </trkpt>
      <trkpt lat="49.34157" lon="1.03485">
        <ele>126.55000305176</ele>
        <time>2013-03-24T09:25:10.000Z</time>
      </trkpt>
      <trkpt lat="49.34153" lon="1.03489">
        <ele>126.55000305176</ele>
        <time>2013-03-24T09:25:11.000Z</time>
      </trkpt>
      <trkpt lat="49.34151" lon="1.03493">
        <ele>126.55000305176</ele>
        <time>2013-03-24T09:25:12.000Z</time>
      </trkpt>
      <trkpt lat="49.3415" lon="1.03496">
        <ele>126.55000305176</ele>
        <time>2013-03-24T09:25:13.000Z</time>
      </trkpt>
      <trkpt lat="49.34151" lon="1.035">
        <ele>126.55000305176</ele>
        <time>2013-03-24T09:25:14.000Z</time>
      </trkpt>
      <trkpt lat="49.34151" lon="1.03505">
        <ele>126.55000305176</ele>
        <time>2013-03-24T09:25:15.000Z</time>
      </trkpt>
      <trkpt lat="49.34151" lon="1.03508">
        <ele>126.55000305176</ele>
        <time>2013-03-24T09:25:16.000Z</time>
      </trkpt>
      <trkpt lat="49.34151" lon="1.03511">
        <ele>127.0299987793</ele>
        <time>2013-03-24T09:25:17.000Z</time>
      </trkpt>
      <trkpt lat="49.3415" lon="1.03515">
        <ele>126.55000305176</ele>
        <time>2013-03-24T09:25:18.000Z</time>
      </trkpt>
      <trkpt lat="49.34149" lon="1.03519">
        <ele>127.0299987793</ele>
        <time>2013-03-24T09:25:19.000Z</time>
      </trkpt>
      <trkpt lat="49.34147" lon="1.03523">
        <ele>127.0299987793</ele>
        <time>2013-03-24T09:25:20.000Z</time>
      </trkpt>
      <trkpt lat="49.34145" lon="1.03527">
        <ele>127.51000213623</ele>
        <time>2013-03-24T09:25:21.000Z</time>
      </trkpt>
      <trkpt lat="49.34143" lon="1.0353">
        <ele>127.51000213623</ele>
        <time>2013-03-24T09:25:22.000Z</time>
      </trkpt>
      <trkpt lat="49.34142" lon="1.03534">
        <ele>127.98999786377</ele>
        <time>2013-03-24T09:25:23.000Z</time>
      </trkpt>
      <trkpt lat="49.34138" lon="1.03549">
        <ele>127.98999786377</ele>
        <time>2013-03-24T09:25:26.000Z</time>
      </trkpt>
      <trkpt lat="49.34136" lon="1.03553">
        <ele>127.98999786377</ele>
        <time>2013-03-24T09:25:27.000Z</time>
      </trkpt>
      <trkpt lat="49.34134" lon="1.03557">
        <ele>127.51000213623</ele>
        <time>2013-03-24T09:25:28.000Z</time>
      </trkpt>
      <trkpt lat="49.34132" lon="1.03559">
        <ele>127.51000213623</ele>
        <time>2013-03-24T09:25:29.000Z</time>
      </trkpt>
      <trkpt lat="49.34131" lon="1.03563">
        <ele>127.0299987793</ele>
        <time>2013-03-24T09:25:30.000Z</time>
      </trkpt>
      <trkpt lat="49.34129" lon="1.03567">
        <ele>127.0299987793</ele>
        <time>2013-03-24T09:25:31.000Z</time>
      </trkpt>
      <trkpt lat="49.34129" lon="1.03572">
        <ele>127.0299987793</ele>
        <time>2013-03-24T09:25:32.000Z</time>
      </trkpt>
      <trkpt lat="49.34129" lon="1.03577">
        <ele>126.55000305176</ele>
        <time>2013-03-24T09:25:33.000Z</time>
      </trkpt>
      <trkpt lat="49.34129" lon="1.03582">
        <ele>126.06999969482</ele>
        <time>2013-03-24T09:25:34.000Z</time>
      </trkpt>
      <trkpt lat="49.34129" lon="1.03585">
        <ele>125.58999633789</ele>
        <time>2013-03-24T09:25:35.000Z</time>
      </trkpt>
      <trkpt lat="49.34128" lon="1.03589">
        <ele>125.11000061035</ele>
        <time>2013-03-24T09:25:36.000Z</time>
      </trkpt>
      <trkpt lat="49.34127" lon="1.03593">
        <ele>124.15000152588</ele>
        <time>2013-03-24T09:25:37.000Z</time>
      </trkpt>
      <trkpt lat="49.34127" lon="1.03597">
        <ele>123.66999816894</ele>
        <time>2013-03-24T09:25:38.000Z</time>
      </trkpt>
      <trkpt lat="49.34126" lon="1.03601">
        <ele>122.70999908447</ele>
        <time>2013-03-24T09:25:39.000Z</time>
      </trkpt>
      <trkpt lat="49.34126" lon="1.03604">
        <ele>122.2200012207</ele>
        <time>2013-03-24T09:25:40.000Z</time>
      </trkpt>
      <trkpt lat="49.34124" lon="1.03606">
        <ele>121.26000213623</ele>
        <time>2013-03-24T09:25:41.000Z</time>
      </trkpt>
      <trkpt lat="49.34123" lon="1.0361">
        <ele>120.7799987793</ele>
        <time>2013-03-24T09:25:42.000Z</time>
      </trkpt>
      <trkpt lat="49.34124" lon="1.03613">
        <ele>120.30000305176</ele>
        <time>2013-03-24T09:25:43.000Z</time>
      </trkpt>
      <trkpt lat="49.34124" lon="1.03616">
        <ele>119.33999633789</ele>
        <time>2013-03-24T09:25:44.000Z</time>
      </trkpt>
      <trkpt lat="49.34122" lon="1.03621">
        <ele>119.33999633789</ele>
        <time>2013-03-24T09:25:45.000Z</time>
      </trkpt>
      <trkpt lat="49.3412" lon="1.03641">
        <ele>118.86000061035</ele>
        <time>2013-03-24T09:25:52.000Z</time>
      </trkpt>
      <trkpt lat="49.34119" lon="1.0365">
        <ele>118.86000061035</ele>
        <time>2013-03-24T09:25:55.000Z</time>
      </trkpt>
      <trkpt lat="49.34118" lon="1.03653">
        <ele>119.33999633789</ele>
        <time>2013-03-24T09:25:56.000Z</time>
      </trkpt>
      <trkpt lat="49.34117" lon="1.03656">
        <ele>119.81999969482</ele>
        <time>2013-03-24T09:25:57.000Z</time>
      </trkpt>
      <trkpt lat="49.34114" lon="1.03662">
        <ele>120.7799987793</ele>
        <time>2013-03-24T09:25:59.000Z</time>
      </trkpt>
      <trkpt lat="49.34114" lon="1.03669">
        <ele>122.2200012207</ele>
        <time>2013-03-24T09:26:01.000Z</time>
      </trkpt>
      <trkpt lat="49.3411" lon="1.0368">
        <ele>122.70999908447</ele>
        <time>2013-03-24T09:26:05.000Z</time>
      </trkpt>
      <trkpt lat="49.34109" lon="1.03684">
        <ele>122.70999908447</ele>
        <time>2013-03-24T09:26:06.000Z</time>
      </trkpt>
      <trkpt lat="49.34108" lon="1.03689">
        <ele>123.19000244141</ele>
        <time>2013-03-24T09:26:07.000Z</time>
      </trkpt>
      <trkpt lat="49.34105" lon="1.03703">
        <ele>121.73999786377</ele>
        <time>2013-03-24T09:26:10.000Z</time>
      </trkpt>
      <trkpt lat="49.34106" lon="1.03708">
        <ele>121.73999786377</ele>
        <time>2013-03-24T09:26:11.000Z</time>
      </trkpt>
      <trkpt lat="49.34107" lon="1.03714">
        <ele>121.73999786377</ele>
        <time>2013-03-24T09:26:12.000Z</time>
      </trkpt>
      <trkpt lat="49.34108" lon="1.03719">
        <ele>121.73999786377</ele>
        <time>2013-03-24T09:26:13.000Z</time>
      </trkpt>
      <trkpt lat="49.34108" lon="1.03724">
        <ele>122.2200012207</ele>
        <time>2013-03-24T09:26:14.000Z</time>
      </trkpt>
      <trkpt lat="49.34108" lon="1.0373">
        <ele>122.70999908447</ele>
        <time>2013-03-24T09:26:15.000Z</time>
      </trkpt>
      <trkpt lat="49.34106" lon="1.03735">
        <ele>122.70999908447</ele>
        <time>2013-03-24T09:26:16.000Z</time>
      </trkpt>
      <trkpt lat="49.34105" lon="1.03738">
        <ele>122.70999908447</ele>
        <time>2013-03-24T09:26:17.000Z</time>
      </trkpt>
      <trkpt lat="49.34103" lon="1.03741">
        <ele>123.19000244141</ele>
        <time>2013-03-24T09:26:18.000Z</time>
      </trkpt>
      <trkpt lat="49.34102" lon="1.03744">
        <ele>123.66999816894</ele>
        <time>2013-03-24T09:26:19.000Z</time>
      </trkpt>
      <trkpt lat="49.34101" lon="1.03748">
        <ele>123.66999816894</ele>
        <time>2013-03-24T09:26:20.000Z</time>
      </trkpt>
      <trkpt lat="49.341" lon="1.03752">
        <ele>123.66999816894</ele>
        <time>2013-03-24T09:26:21.000Z</time>
      </trkpt>
      <trkpt lat="49.34099" lon="1.03756">
        <ele>123.66999816894</ele>
        <time>2013-03-24T09:26:22.000Z</time>
      </trkpt>
      <trkpt lat="49.34091" lon="1.03797">
        <ele>125.58999633789</ele>
        <time>2013-03-24T09:26:31.000Z</time>
      </trkpt>
      <trkpt lat="49.34091" lon="1.03801">
        <ele>125.58999633789</ele>
        <time>2013-03-24T09:26:32.000Z</time>
      </trkpt>
      <trkpt lat="49.34091" lon="1.03804">
        <ele>125.58999633789</ele>
        <time>2013-03-24T09:26:33.000Z</time>
      </trkpt>
      <trkpt lat="49.3409" lon="1.03808">
        <ele>125.58999633789</ele>
        <time>2013-03-24T09:26:34.000Z</time>
      </trkpt>
      <trkpt lat="49.34089" lon="1.03812">
        <ele>125.11000061035</ele>
        <time>2013-03-24T09:26:35.000Z</time>
      </trkpt>
      <trkpt lat="49.34087" lon="1.03816">
        <ele>125.11000061035</ele>
        <time>2013-03-24T09:26:36.000Z</time>
      </trkpt>
      <trkpt lat="49.34087" lon="1.0382">
        <ele>125.11000061035</ele>
        <time>2013-03-24T09:26:37.000Z</time>
      </trkpt>
      <trkpt lat="49.34086" lon="1.03824">
        <ele>125.11000061035</ele>
        <time>2013-03-24T09:26:38.000Z</time>
      </trkpt>
      <trkpt lat="49.34084" lon="1.03828">
        <ele>126.55000305176</ele>
        <time>2013-03-24T09:26:39.000Z</time>
      </trkpt>
      <trkpt lat="49.34083" lon="1.0383">
        <ele>126.55000305176</ele>
        <time>2013-03-24T09:26:40.000Z</time>
      </trkpt>
      <trkpt lat="49.34081" lon="1.03834">
        <ele>127.0299987793</ele>
        <time>2013-03-24T09:26:41.000Z</time>
      </trkpt>
      <trkpt lat="49.3408" lon="1.03837">
        <ele>127.0299987793</ele>
        <time>2013-03-24T09:26:42.000Z</time>
      </trkpt>
      <trkpt lat="49.34078" lon="1.0384">
        <ele>127.98999786377</ele>
        <time>2013-03-24T09:26:43.000Z</time>
      </trkpt>
      <trkpt lat="49.34077" lon="1.03843">
        <ele>127.98999786377</ele>
        <time>2013-03-24T09:26:44.000Z</time>
      </trkpt>
      <trkpt lat="49.34074" lon="1.03874">
        <ele>129.42999267578</ele>
        <time>2013-03-24T09:26:52.000Z</time>
      </trkpt>
      <trkpt lat="49.34076" lon="1.03877">
        <ele>129.42999267578</ele>
        <time>2013-03-24T09:26:53.000Z</time>
      </trkpt>
      <trkpt lat="49.34077" lon="1.0388">
        <ele>128.94999694824</ele>
        <time>2013-03-24T09:26:54.000Z</time>
      </trkpt>
      <trkpt lat="49.34107" lon="1.03913">
        <ele>130.39999389648</ele>
        <time>2013-03-24T09:27:05.000Z</time>
      </trkpt>
      <trkpt lat="49.34142" lon="1.03939">
        <ele>128.94999694824</ele>
        <time>2013-03-24T09:27:16.000Z</time>
      </trkpt>
      <trkpt lat="49.34163" lon="1.03952">
        <ele>129.42999267578</ele>
        <time>2013-03-24T09:27:29.000Z</time>
      </trkpt>
      <trkpt lat="49.34187" lon="1.03968">
        <ele>128.94999694824</ele>
        <time>2013-03-24T09:27:41.000Z</time>
      </trkpt>
      <trkpt lat="49.34203" lon="1.03984">
        <ele>129.91999816894</ele>
        <time>2013-03-24T09:27:50.000Z</time>
      </trkpt>
      <trkpt lat="49.34229" lon="1.04001">
        <ele>129.42999267578</ele>
        <time>2013-03-24T09:28:02.000Z</time>
      </trkpt>
      <trkpt lat="49.34231" lon="1.04002">
        <ele>129.42999267578</ele>
        <time>2013-03-24T09:28:03.000Z</time>
      </trkpt>
      <trkpt lat="49.34233" lon="1.04004">
        <ele>129.42999267578</ele>
        <time>2013-03-24T09:28:04.000Z</time>
      </trkpt>
      <trkpt lat="49.34236" lon="1.04005">
        <ele>128.94999694824</ele>
        <time>2013-03-24T09:28:05.000Z</time>
      </trkpt>
      <trkpt lat="49.34238" lon="1.04007">
        <ele>128.4700012207</ele>
        <time>2013-03-24T09:28:06.000Z</time>
      </trkpt>
      <trkpt lat="49.34241" lon="1.04009">
        <ele>128.4700012207</ele>
        <time>2013-03-24T09:28:07.000Z</time>
      </trkpt>
      <trkpt lat="49.34243" lon="1.04011">
        <ele>128.4700012207</ele>
        <time>2013-03-24T09:28:08.000Z</time>
      </trkpt>
      <trkpt lat="49.34266" lon="1.04026">
        <ele>125.58999633789</ele>
        <time>2013-03-24T09:28:17.000Z</time>
      </trkpt>
      <trkpt lat="49.34268" lon="1.04027">
        <ele>125.11000061035</ele>
        <time>2013-03-24T09:28:18.000Z</time>
      </trkpt>
      <trkpt lat="49.34271" lon="1.04028">
        <ele>124.62999725342</ele>
        <time>2013-03-24T09:28:19.000Z</time>
      </trkpt>
      <trkpt lat="49.34293" lon="1.04051">
        <ele>122.2200012207</ele>
        <time>2013-03-24T09:28:27.000Z</time>
      </trkpt>
      <trkpt lat="49.34295" lon="1.04063">
        <ele>121.73999786377</ele>
        <time>2013-03-24T09:28:29.000Z</time>
      </trkpt>
      <trkpt lat="49.34297" lon="1.04096">
        <ele>123.19000244141</ele>
        <time>2013-03-24T09:28:34.000Z</time>
      </trkpt>
      <trkpt lat="49.34296" lon="1.04102">
        <ele>123.66999816894</ele>
        <time>2013-03-24T09:28:35.000Z</time>
      </trkpt>
      <trkpt lat="49.34295" lon="1.04108">
        <ele>124.15000152588</ele>
        <time>2013-03-24T09:28:36.000Z</time>
      </trkpt>
      <trkpt lat="49.34295" lon="1.04116">
        <ele>125.11000061035</ele>
        <time>2013-03-24T09:28:37.000Z</time>
      </trkpt>
      <trkpt lat="49.34295" lon="1.04124">
        <ele>125.11000061035</ele>
        <time>2013-03-24T09:28:38.000Z</time>
      </trkpt>
      <trkpt lat="49.34295" lon="1.04154">
        <ele>126.06999969482</ele>
        <time>2013-03-24T09:28:42.000Z</time>
      </trkpt>
      <trkpt lat="49.34295" lon="1.04162">
        <ele>126.55000305176</ele>
        <time>2013-03-24T09:28:43.000Z</time>
      </trkpt>
      <trkpt lat="49.34297" lon="1.04207">
        <ele>125.58999633789</ele>
        <time>2013-03-24T09:28:49.000Z</time>
      </trkpt>
      <trkpt lat="49.34298" lon="1.04214">
        <ele>125.58999633789</ele>
        <time>2013-03-24T09:28:50.000Z</time>
      </trkpt>
      <trkpt lat="49.34299" lon="1.0425">
        <ele>124.15000152588</ele>
        <time>2013-03-24T09:28:55.000Z</time>
      </trkpt>
      <trkpt lat="49.34299" lon="1.04257">
        <ele>124.15000152588</ele>
        <time>2013-03-24T09:28:56.000Z</time>
      </trkpt>
      <trkpt lat="49.343" lon="1.04329">
        <ele>123.66999816894</ele>
        <time>2013-03-24T09:29:07.000Z</time>
      </trkpt>
      <trkpt lat="49.34303" lon="1.04371">
        <ele>124.15000152588</ele>
        <time>2013-03-24T09:29:15.000Z</time>
      </trkpt>
      <trkpt lat="49.34305" lon="1.04386">
        <ele>124.62999725342</ele>
        <time>2013-03-24T09:29:18.000Z</time>
      </trkpt>
      <trkpt lat="49.34305" lon="1.04392">
        <ele>125.11000061035</ele>
        <time>2013-03-24T09:29:19.000Z</time>
      </trkpt>
      <trkpt lat="49.34304" lon="1.04399">
        <ele>125.58999633789</ele>
        <time>2013-03-24T09:29:20.000Z</time>
      </trkpt>
      <trkpt lat="49.34303" lon="1.0446">
        <ele>129.42999267578</ele>
        <time>2013-03-24T09:29:31.000Z</time>
      </trkpt>
      <trkpt lat="49.34304" lon="1.04516">
        <ele>133.2799987793</ele>
        <time>2013-03-24T09:29:41.000Z</time>
      </trkpt>
      <trkpt lat="49.34306" lon="1.04569">
        <ele>136.63999938965</ele>
        <time>2013-03-24T09:29:50.000Z</time>
      </trkpt>
      <trkpt lat="49.34307" lon="1.04575">
        <ele>136.63999938965</ele>
        <time>2013-03-24T09:29:51.000Z</time>
      </trkpt>
      <trkpt lat="49.34307" lon="1.04581">
        <ele>137.13000488281</ele>
        <time>2013-03-24T09:29:52.000Z</time>
      </trkpt>
      <trkpt lat="49.34307" lon="1.04587">
        <ele>137.61000061035</ele>
        <time>2013-03-24T09:29:53.000Z</time>
      </trkpt>
      <trkpt lat="49.34308" lon="1.04593">
        <ele>138.08999633789</ele>
        <time>2013-03-24T09:29:54.000Z</time>
      </trkpt>
      <trkpt lat="49.34309" lon="1.04599">
        <ele>138.57000732422</ele>
        <time>2013-03-24T09:29:55.000Z</time>
      </trkpt>
      <trkpt lat="49.34309" lon="1.04604">
        <ele>139.05000305176</ele>
        <time>2013-03-24T09:29:56.000Z</time>
      </trkpt>
      <trkpt lat="49.3431" lon="1.04612">
        <ele>137.61000061035</ele>
        <time>2013-03-24T09:29:57.000Z</time>
      </trkpt>
      <trkpt lat="49.34311" lon="1.04618">
        <ele>137.13000488281</ele>
        <time>2013-03-24T09:29:58.000Z</time>
      </trkpt>
      <trkpt lat="49.3431" lon="1.04624">
        <ele>136.63999938965</ele>
        <time>2013-03-24T09:29:59.000Z</time>
      </trkpt>
      <trkpt lat="49.3431" lon="1.04631">
        <ele>135.67999267578</ele>
        <time>2013-03-24T09:30:00.000Z</time>
      </trkpt>
      <trkpt lat="49.3431" lon="1.04645">
        <ele>135.67999267578</ele>
        <time>2013-03-24T09:30:02.000Z</time>
      </trkpt>
      <trkpt lat="49.3431" lon="1.04651">
        <ele>135.67999267578</ele>
        <time>2013-03-24T09:30:03.000Z</time>
      </trkpt>
      <trkpt lat="49.3431" lon="1.04658">
        <ele>135.67999267578</ele>
        <time>2013-03-24T09:30:04.000Z</time>
      </trkpt>
      <trkpt lat="49.34311" lon="1.04664">
        <ele>136.16000366211</ele>
        <time>2013-03-24T09:30:05.000Z</time>
      </trkpt>
      <trkpt lat="49.34311" lon="1.0467">
        <ele>136.16000366211</ele>
        <time>2013-03-24T09:30:06.000Z</time>
      </trkpt>
      <trkpt lat="49.34311" lon="1.04676">
        <ele>136.16000366211</ele>
        <time>2013-03-24T09:30:07.000Z</time>
      </trkpt>
      <trkpt lat="49.34313" lon="1.04752">
        <ele>137.13000488281</ele>
        <time>2013-03-24T09:30:19.000Z</time>
      </trkpt>
      <trkpt lat="49.34312" lon="1.04765">
        <ele>136.63999938965</ele>
        <time>2013-03-24T09:30:21.000Z</time>
      </trkpt>
      <trkpt lat="49.34312" lon="1.04772">
        <ele>136.63999938965</ele>
        <time>2013-03-24T09:30:22.000Z</time>
      </trkpt>
      <trkpt lat="49.34311" lon="1.04779">
        <ele>136.16000366211</ele>
        <time>2013-03-24T09:30:23.000Z</time>
      </trkpt>
      <trkpt lat="49.3431" lon="1.04785">
        <ele>136.16000366211</ele>
        <time>2013-03-24T09:30:24.000Z</time>
      </trkpt>
      <trkpt lat="49.3431" lon="1.04792">
        <ele>135.19999694824</ele>
        <time>2013-03-24T09:30:25.000Z</time>
      </trkpt>
      <trkpt lat="49.34309" lon="1.04799">
        <ele>134.24000549316</ele>
        <time>2013-03-24T09:30:26.000Z</time>
      </trkpt>
      <trkpt lat="49.34309" lon="1.04806">
        <ele>133.75999450684</ele>
        <time>2013-03-24T09:30:27.000Z</time>
      </trkpt>
      <trkpt lat="49.34305" lon="1.04857">
        <ele>127.98999786377</ele>
        <time>2013-03-24T09:30:34.000Z</time>
      </trkpt>
      <trkpt lat="49.34305" lon="1.04864">
        <ele>127.51000213623</ele>
        <time>2013-03-24T09:30:35.000Z</time>
      </trkpt>
      <trkpt lat="49.34305" lon="1.04871">
        <ele>127.0299987793</ele>
        <time>2013-03-24T09:30:36.000Z</time>
      </trkpt>
      <trkpt lat="49.34305" lon="1.04878">
        <ele>126.55000305176</ele>
        <time>2013-03-24T09:30:37.000Z</time>
      </trkpt>
      <trkpt lat="49.34304" lon="1.04885">
        <ele>126.06999969482</ele>
        <time>2013-03-24T09:30:38.000Z</time>
      </trkpt>
      <trkpt lat="49.34303" lon="1.04928">
        <ele>122.70999908447</ele>
        <time>2013-03-24T09:30:45.000Z</time>
      </trkpt>
      <trkpt lat="49.34302" lon="1.04991">
        <ele>120.30000305176</ele>
        <time>2013-03-24T09:30:55.000Z</time>
      </trkpt>
      <trkpt lat="49.343" lon="1.05003">
        <ele>119.81999969482</ele>
        <time>2013-03-24T09:30:57.000Z</time>
      </trkpt>
      <trkpt lat="49.343" lon="1.0501">
        <ele>119.81999969482</ele>
        <time>2013-03-24T09:30:58.000Z</time>
      </trkpt>
      <trkpt lat="49.34301" lon="1.05017">
        <ele>119.33999633789</ele>
        <time>2013-03-24T09:30:59.000Z</time>
      </trkpt>
      <trkpt lat="49.34302" lon="1.0503">
        <ele>118.37999725342</ele>
        <time>2013-03-24T09:31:01.000Z</time>
      </trkpt>
      <trkpt lat="49.34301" lon="1.0505">
        <ele>118.37999725342</ele>
        <time>2013-03-24T09:31:04.000Z</time>
      </trkpt>
      <trkpt lat="49.34298" lon="1.05063">
        <ele>117.41999816894</ele>
        <time>2013-03-24T09:31:06.000Z</time>
      </trkpt>
      <trkpt lat="49.34297" lon="1.0507">
        <ele>117.41999816894</ele>
        <time>2013-03-24T09:31:07.000Z</time>
      </trkpt>
      <trkpt lat="49.34296" lon="1.05079">
        <ele>117.41999816894</ele>
        <time>2013-03-24T09:31:08.000Z</time>
      </trkpt>
      <trkpt lat="49.34294" lon="1.05097">
        <ele>116.94000244141</ele>
        <time>2013-03-24T09:31:10.000Z</time>
      </trkpt>
      <trkpt lat="49.34291" lon="1.05118">
        <ele>115.98000335693</ele>
        <time>2013-03-24T09:31:13.000Z</time>
      </trkpt>
      <trkpt lat="49.34291" lon="1.05126">
        <ele>115.98000335693</ele>
        <time>2013-03-24T09:31:14.000Z</time>
      </trkpt>
      <trkpt lat="49.34292" lon="1.05133">
        <ele>115.5</ele>
        <time>2013-03-24T09:31:15.000Z</time>
      </trkpt>
      <trkpt lat="49.34295" lon="1.05148">
        <ele>115.5</ele>
        <time>2013-03-24T09:31:17.000Z</time>
      </trkpt>
      <trkpt lat="49.34295" lon="1.05186">
        <ele>114.05000305176</ele>
        <time>2013-03-24T09:31:22.000Z</time>
      </trkpt>
      <trkpt lat="49.34293" lon="1.05194">
        <ele>113.56999969482</ele>
        <time>2013-03-24T09:31:23.000Z</time>
      </trkpt>
      <trkpt lat="49.3429" lon="1.05202">
        <ele>113.08999633789</ele>
        <time>2013-03-24T09:31:24.000Z</time>
      </trkpt>
      <trkpt lat="49.34286" lon="1.05218">
        <ele>113.08999633789</ele>
        <time>2013-03-24T09:31:26.000Z</time>
      </trkpt>
      <trkpt lat="49.34283" lon="1.05245">
        <ele>112.61000061035</ele>
        <time>2013-03-24T09:31:29.000Z</time>
      </trkpt>
      <trkpt lat="49.34278" lon="1.05294">
        <ele>112.12999725342</ele>
        <time>2013-03-24T09:31:34.000Z</time>
      </trkpt>
      <trkpt lat="49.34278" lon="1.05304">
        <ele>111.65000152588</ele>
        <time>2013-03-24T09:31:35.000Z</time>
      </trkpt>
      <trkpt lat="49.34282" lon="1.05323">
        <ele>111.16999816894</ele>
        <time>2013-03-24T09:31:37.000Z</time>
      </trkpt>
      <trkpt lat="49.34284" lon="1.05441">
        <ele>105.87999725342</ele>
        <time>2013-03-24T09:31:49.000Z</time>
      </trkpt>
      <trkpt lat="49.34283" lon="1.0548">
        <ele>104.44000244141</ele>
        <time>2013-03-24T09:31:53.000Z</time>
      </trkpt>
      <trkpt lat="49.34282" lon="1.05489">
        <ele>103.95999908447</ele>
        <time>2013-03-24T09:31:54.000Z</time>
      </trkpt>
      <trkpt lat="49.34278" lon="1.05527">
        <ele>102.51999664307</ele>
        <time>2013-03-24T09:31:58.000Z</time>
      </trkpt>
      <trkpt lat="49.34279" lon="1.05537">
        <ele>102.51999664307</ele>
        <time>2013-03-24T09:31:59.000Z</time>
      </trkpt>
      <trkpt lat="49.34291" lon="1.05597">
        <ele>101.55999755859</ele>
        <time>2013-03-24T09:32:05.000Z</time>
      </trkpt>
      <trkpt lat="49.34292" lon="1.05607">
        <ele>101.08000183106</ele>
        <time>2013-03-24T09:32:06.000Z</time>
      </trkpt>
      <trkpt lat="49.34292" lon="1.05617">
        <ele>100.59999847412</ele>
        <time>2013-03-24T09:32:07.000Z</time>
      </trkpt>
      <trkpt lat="49.34292" lon="1.05627">
        <ele>100.59999847412</ele>
        <time>2013-03-24T09:32:08.000Z</time>
      </trkpt>
      <trkpt lat="49.34291" lon="1.05636">
        <ele>100.11000061035</ele>
        <time>2013-03-24T09:32:09.000Z</time>
      </trkpt>
      <trkpt lat="49.34291" lon="1.05644">
        <ele>99.629997253418</ele>
        <time>2013-03-24T09:32:10.000Z</time>
      </trkpt>
      <trkpt lat="49.34292" lon="1.05656">
        <ele>98.669998168945</ele>
        <time>2013-03-24T09:32:12.000Z</time>
      </trkpt>
      <trkpt lat="49.34291" lon="1.05659">
        <ele>98.190002441406</ele>
        <time>2013-03-24T09:32:13.000Z</time>
      </trkpt>
      <trkpt lat="49.34282" lon="1.05656">
        <ele>96.269996643066</ele>
        <time>2013-03-24T09:32:17.000Z</time>
      </trkpt>
      <trkpt lat="49.3428" lon="1.05651">
        <ele>95.790000915527</ele>
        <time>2013-03-24T09:32:18.000Z</time>
      </trkpt>
      <trkpt lat="49.34278" lon="1.05645">
        <ele>95.309997558594</ele>
        <time>2013-03-24T09:32:19.000Z</time>
      </trkpt>
      <trkpt lat="49.34276" lon="1.05638">
        <ele>94.830001831055</ele>
        <time>2013-03-24T09:32:20.000Z</time>
      </trkpt>
      <trkpt lat="49.34271" lon="1.05617">
        <ele>93.389999389648</ele>
        <time>2013-03-24T09:32:23.000Z</time>
      </trkpt>
      <trkpt lat="49.3427" lon="1.05609">
        <ele>93.389999389648</ele>
        <time>2013-03-24T09:32:24.000Z</time>
      </trkpt>
      <trkpt lat="49.34262" lon="1.0558">
        <ele>92.419998168945</ele>
        <time>2013-03-24T09:32:28.000Z</time>
      </trkpt>
      <trkpt lat="49.34243" lon="1.05534">
        <ele>92.419998168945</ele>
        <time>2013-03-24T09:32:35.000Z</time>
      </trkpt>
      <trkpt lat="49.34235" lon="1.05523">
        <ele>92.419998168945</ele>
        <time>2013-03-24T09:32:37.000Z</time>
      </trkpt>
      <trkpt lat="49.34211" lon="1.05485">
        <ele>92.900001525879</ele>
        <time>2013-03-24T09:32:44.000Z</time>
      </trkpt>
      <trkpt lat="49.34188" lon="1.05438">
        <ele>93.870002746582</ele>
        <time>2013-03-24T09:32:52.000Z</time>
      </trkpt>
      <trkpt lat="49.34182" lon="1.05406">
        <ele>94.830001831055</ele>
        <time>2013-03-24T09:32:57.000Z</time>
      </trkpt>
      <trkpt lat="49.34168" lon="1.05388">
        <ele>94.349998474121</ele>
        <time>2013-03-24T09:33:01.000Z</time>
      </trkpt>
      <trkpt lat="49.34153" lon="1.05364">
        <ele>94.349998474121</ele>
        <time>2013-03-24T09:33:06.000Z</time>
      </trkpt>
      <trkpt lat="49.34145" lon="1.0532">
        <ele>93.870002746582</ele>
        <time>2013-03-24T09:33:17.000Z</time>
      </trkpt>
      <trkpt lat="49.34144" lon="1.05305">
        <ele>94.830001831055</ele>
        <time>2013-03-24T09:33:21.000Z</time>
      </trkpt>
      <trkpt lat="49.34141" lon="1.05285">
        <ele>96.269996643066</ele>
        <time>2013-03-24T09:33:26.000Z</time>
      </trkpt>
      <trkpt lat="49.34136" lon="1.05271">
        <ele>98.669998168945</ele>
        <time>2013-03-24T09:33:31.000Z</time>
      </trkpt>
      <trkpt lat="49.34115" lon="1.05262">
        <ele>98.190002441406</ele>
        <time>2013-03-24T09:33:41.000Z</time>
      </trkpt>
      <trkpt lat="49.34113" lon="1.05262">
        <ele>98.190002441406</ele>
        <time>2013-03-24T09:33:42.000Z</time>
      </trkpt>
      <trkpt lat="49.34107" lon="1.05274">
        <ele>96.75</ele>
        <time>2013-03-24T09:33:47.000Z</time>
      </trkpt>
      <trkpt lat="49.34107" lon="1.05281">
        <ele>94.830001831055</ele>
        <time>2013-03-24T09:33:49.000Z</time>
      </trkpt>
      <trkpt lat="49.34095" lon="1.05303">
        <ele>89.059997558594</ele>
        <time>2013-03-24T09:33:57.000Z</time>
      </trkpt>
      <trkpt lat="49.34087" lon="1.05301">
        <ele>88.580001831055</ele>
        <time>2013-03-24T09:34:02.000Z</time>
      </trkpt>
      <trkpt lat="49.34059" lon="1.05292">
        <ele>90.980003356934</ele>
        <time>2013-03-24T09:34:12.000Z</time>
      </trkpt>
      <trkpt lat="49.34037" lon="1.05276">
        <ele>90.980003356934</ele>
        <time>2013-03-24T09:34:20.000Z</time>
      </trkpt>
      <trkpt lat="49.34014" lon="1.0524">
        <ele>91.459999084473</ele>
        <time>2013-03-24T09:34:29.000Z</time>
      </trkpt>
      <trkpt lat="49.34009" lon="1.05224">
        <ele>92.419998168945</ele>
        <time>2013-03-24T09:34:32.000Z</time>
      </trkpt>
      <trkpt lat="49.34012" lon="1.05181">
        <ele>94.349998474121</ele>
        <time>2013-03-24T09:34:43.000Z</time>
      </trkpt>
      <trkpt lat="49.34012" lon="1.05165">
        <ele>94.830001831055</ele>
        <time>2013-03-24T09:34:47.000Z</time>
      </trkpt>
      <trkpt lat="49.34012" lon="1.05153">
        <ele>95.790000915527</ele>
        <time>2013-03-24T09:34:49.000Z</time>
      </trkpt>
      <trkpt lat="49.34015" lon="1.05118">
        <ele>102.04000091553</ele>
        <time>2013-03-24T09:35:00.000Z</time>
      </trkpt>
      <trkpt lat="49.34004" lon="1.05112">
        <ele>103.95999908447</ele>
        <time>2013-03-24T09:35:07.000Z</time>
      </trkpt>
      <trkpt lat="49.33993" lon="1.05132">
        <ele>103</ele>
        <time>2013-03-24T09:35:14.000Z</time>
      </trkpt>
      <trkpt lat="49.33979" lon="1.05168">
        <ele>99.629997253418</ele>
        <time>2013-03-24T09:35:22.000Z</time>
      </trkpt>
      <trkpt lat="49.33976" lon="1.05172">
        <ele>99.150001525879</ele>
        <time>2013-03-24T09:35:23.000Z</time>
      </trkpt>
      <trkpt lat="49.33973" lon="1.05175">
        <ele>99.150001525879</ele>
        <time>2013-03-24T09:35:24.000Z</time>
      </trkpt>
      <trkpt lat="49.3397" lon="1.05179">
        <ele>98.669998168945</ele>
        <time>2013-03-24T09:35:25.000Z</time>
      </trkpt>
      <trkpt lat="49.33968" lon="1.05185">
        <ele>98.190002441406</ele>
        <time>2013-03-24T09:35:26.000Z</time>
      </trkpt>
      <trkpt lat="49.33966" lon="1.05191">
        <ele>97.709999084473</ele>
        <time>2013-03-24T09:35:27.000Z</time>
      </trkpt>
      <trkpt lat="49.33965" lon="1.05198">
        <ele>96.75</ele>
        <time>2013-03-24T09:35:28.000Z</time>
      </trkpt>
      <trkpt lat="49.33963" lon="1.05204">
        <ele>96.269996643066</ele>
        <time>2013-03-24T09:35:29.000Z</time>
      </trkpt>
      <trkpt lat="49.3396" lon="1.0521">
        <ele>95.790000915527</ele>
        <time>2013-03-24T09:35:30.000Z</time>
      </trkpt>
      <trkpt lat="49.33956" lon="1.05219">
        <ele>95.309997558594</ele>
        <time>2013-03-24T09:35:31.000Z</time>
      </trkpt>
      <trkpt lat="49.33947" lon="1.05244">
        <ele>92.900001525879</ele>
        <time>2013-03-24T09:35:35.000Z</time>
      </trkpt>
      <trkpt lat="49.33945" lon="1.05251">
        <ele>91.940002441406</ele>
        <time>2013-03-24T09:35:36.000Z</time>
      </trkpt>
      <trkpt lat="49.33944" lon="1.05258">
        <ele>90.980003356934</ele>
        <time>2013-03-24T09:35:37.000Z</time>
      </trkpt>
      <trkpt lat="49.33934" lon="1.05303">
        <ele>85.690002441406</ele>
        <time>2013-03-24T09:35:42.000Z</time>
      </trkpt>
      <trkpt lat="49.33932" lon="1.05352">
        <ele>78.970001220703</ele>
        <time>2013-03-24T09:35:47.000Z</time>
      </trkpt>
      <trkpt lat="49.3394" lon="1.05384">
        <ele>72.23999786377</ele>
        <time>2013-03-24T09:35:53.000Z</time>
      </trkpt>
      <trkpt lat="49.3395" lon="1.05413">
        <ele>66.949996948242</ele>
        <time>2013-03-24T09:36:00.000Z</time>
      </trkpt>
      <trkpt lat="49.33958" lon="1.05453">
        <ele>62.139999389648</ele>
        <time>2013-03-24T09:36:10.000Z</time>
      </trkpt>
      <trkpt lat="49.3396" lon="1.05473">
        <ele>59.259998321533</ele>
        <time>2013-03-24T09:36:16.000Z</time>
      </trkpt>
      <trkpt lat="49.33969" lon="1.05485">
        <ele>73.680000305176</ele>
        <time>2013-03-24T09:37:53.000Z</time>
      </trkpt>
      <trkpt lat="49.3394" lon="1.05492">
        <ele>80.410003662109</ele>
        <time>2013-03-24T09:38:16.000Z</time>
      </trkpt>
      <trkpt lat="49.33913" lon="1.05468">
        <ele>79.930000305176</ele>
        <time>2013-03-24T09:38:28.000Z</time>
      </trkpt>
      <trkpt lat="49.3391" lon="1.05465">
        <ele>79.930000305176</ele>
        <time>2013-03-24T09:38:29.000Z</time>
      </trkpt>
      <trkpt lat="49.33897" lon="1.05453">
        <ele>78.970001220703</ele>
        <time>2013-03-24T09:38:32.000Z</time>
      </trkpt>
      <trkpt lat="49.33894" lon="1.05449">
        <ele>78.970001220703</ele>
        <time>2013-03-24T09:38:33.000Z</time>
      </trkpt>
      <trkpt lat="49.33891" lon="1.05444">
        <ele>78.970001220703</ele>
        <time>2013-03-24T09:38:34.000Z</time>
      </trkpt>
      <trkpt lat="49.33889" lon="1.0544">
        <ele>78.970001220703</ele>
        <time>2013-03-24T09:38:35.000Z</time>
      </trkpt>
      <trkpt lat="49.33886" lon="1.05435">
        <ele>78.970001220703</ele>
        <time>2013-03-24T09:38:36.000Z</time>
      </trkpt>
      <trkpt lat="49.33884" lon="1.0543">
        <ele>78.970001220703</ele>
        <time>2013-03-24T09:38:37.000Z</time>
      </trkpt>
      <trkpt lat="49.33873" lon="1.05408">
        <ele>78.480003356934</ele>
        <time>2013-03-24T09:38:41.000Z</time>
      </trkpt>
      <trkpt lat="49.3387" lon="1.05402">
        <ele>78.480003356934</ele>
        <time>2013-03-24T09:38:42.000Z</time>
      </trkpt>
      <trkpt lat="49.33867" lon="1.05395">
        <ele>78.480003356934</ele>
        <time>2013-03-24T09:38:43.000Z</time>
      </trkpt>
      <trkpt lat="49.33865" lon="1.05389">
        <ele>78.480003356934</ele>
        <time>2013-03-24T09:38:44.000Z</time>
      </trkpt>
      <trkpt lat="49.33863" lon="1.05383">
        <ele>78.480003356934</ele>
        <time>2013-03-24T09:38:45.000Z</time>
      </trkpt>
      <trkpt lat="49.33857" lon="1.05368">
        <ele>78</ele>
        <time>2013-03-24T09:38:48.000Z</time>
      </trkpt>
      <trkpt lat="49.33855" lon="1.05362">
        <ele>78</ele>
        <time>2013-03-24T09:38:49.000Z</time>
      </trkpt>
      <trkpt lat="49.33849" lon="1.05335">
        <ele>76.559997558594</ele>
        <time>2013-03-24T09:38:53.000Z</time>
      </trkpt>
      <trkpt lat="49.33848" lon="1.05328">
        <ele>76.080001831055</ele>
        <time>2013-03-24T09:38:54.000Z</time>
      </trkpt>
      <trkpt lat="49.33847" lon="1.05322">
        <ele>75.599998474121</ele>
        <time>2013-03-24T09:38:55.000Z</time>
      </trkpt>
      <trkpt lat="49.33846" lon="1.05316">
        <ele>75.599998474121</ele>
        <time>2013-03-24T09:38:56.000Z</time>
      </trkpt>
      <trkpt lat="49.33846" lon="1.0531">
        <ele>75.120002746582</ele>
        <time>2013-03-24T09:38:57.000Z</time>
      </trkpt>
      <trkpt lat="49.33845" lon="1.05304">
        <ele>75.120002746582</ele>
        <time>2013-03-24T09:38:58.000Z</time>
      </trkpt>
      <trkpt lat="49.33844" lon="1.05298">
        <ele>75.120002746582</ele>
        <time>2013-03-24T09:38:59.000Z</time>
      </trkpt>
      <trkpt lat="49.3384" lon="1.05279">
        <ele>74.639999389648</ele>
        <time>2013-03-24T09:39:02.000Z</time>
      </trkpt>
      <trkpt lat="49.33837" lon="1.05259">
        <ele>74.160003662109</ele>
        <time>2013-03-24T09:39:05.000Z</time>
      </trkpt>
      <trkpt lat="49.33836" lon="1.05246">
        <ele>73.680000305176</ele>
        <time>2013-03-24T09:39:07.000Z</time>
      </trkpt>
      <trkpt lat="49.33834" lon="1.0524">
        <ele>73.680000305176</ele>
        <time>2013-03-24T09:39:08.000Z</time>
      </trkpt>
      <trkpt lat="49.33827" lon="1.05207">
        <ele>73.680000305176</ele>
        <time>2013-03-24T09:39:13.000Z</time>
      </trkpt>
      <trkpt lat="49.33827" lon="1.052">
        <ele>73.199996948242</ele>
        <time>2013-03-24T09:39:14.000Z</time>
      </trkpt>
      <trkpt lat="49.33826" lon="1.05194">
        <ele>73.680000305176</ele>
        <time>2013-03-24T09:39:15.000Z</time>
      </trkpt>
      <trkpt lat="49.33808" lon="1.05116">
        <ele>74.160003662109</ele>
        <time>2013-03-24T09:39:27.000Z</time>
      </trkpt>
      <trkpt lat="49.33788" lon="1.05041">
        <ele>75.120002746582</ele>
        <time>2013-03-24T09:39:39.000Z</time>
      </trkpt>
      <trkpt lat="49.33787" lon="1.05034">
        <ele>75.120002746582</ele>
        <time>2013-03-24T09:39:40.000Z</time>
      </trkpt>
      <trkpt lat="49.33777" lon="1.04987">
        <ele>75.599998474121</ele>
        <time>2013-03-24T09:39:48.000Z</time>
      </trkpt>
      <trkpt lat="49.33761" lon="1.04932">
        <ele>76.559997558594</ele>
        <time>2013-03-24T09:39:58.000Z</time>
      </trkpt>
      <trkpt lat="49.3376" lon="1.04926">
        <ele>76.080001831055</ele>
        <time>2013-03-24T09:39:59.000Z</time>
      </trkpt>
      <trkpt lat="49.33758" lon="1.04922">
        <ele>76.080001831055</ele>
        <time>2013-03-24T09:40:00.000Z</time>
      </trkpt>
      <trkpt lat="49.33756" lon="1.04917">
        <ele>75.599998474121</ele>
        <time>2013-03-24T09:40:01.000Z</time>
      </trkpt>
      <trkpt lat="49.33754" lon="1.04913">
        <ele>75.599998474121</ele>
        <time>2013-03-24T09:40:02.000Z</time>
      </trkpt>
      <trkpt lat="49.33753" lon="1.04908">
        <ele>75.599998474121</ele>
        <time>2013-03-24T09:40:03.000Z</time>
      </trkpt>
      <trkpt lat="49.33736" lon="1.04865">
        <ele>74.160003662109</ele>
        <time>2013-03-24T09:40:12.000Z</time>
      </trkpt>
      <trkpt lat="49.33707" lon="1.04824">
        <ele>73.680000305176</ele>
        <time>2013-03-24T09:40:22.000Z</time>
      </trkpt>
      <trkpt lat="49.33696" lon="1.04808">
        <ele>73.680000305176</ele>
        <time>2013-03-24T09:40:26.000Z</time>
      </trkpt>
      <trkpt lat="49.33694" lon="1.04804">
        <ele>74.160003662109</ele>
        <time>2013-03-24T09:40:27.000Z</time>
      </trkpt>
      <trkpt lat="49.33692" lon="1.04799">
        <ele>74.160003662109</ele>
        <time>2013-03-24T09:40:28.000Z</time>
      </trkpt>
      <trkpt lat="49.33666" lon="1.04764">
        <ele>76.559997558594</ele>
        <time>2013-03-24T09:40:38.000Z</time>
      </trkpt>
      <trkpt lat="49.33646" lon="1.04725">
        <ele>79.449996948242</ele>
        <time>2013-03-24T09:40:47.000Z</time>
      </trkpt>
      <trkpt lat="49.33627" lon="1.04685">
        <ele>82.330001831055</ele>
        <time>2013-03-24T09:40:58.000Z</time>
      </trkpt>
      <trkpt lat="49.33603" lon="1.04649">
        <ele>84.730003356934</ele>
        <time>2013-03-24T09:41:09.000Z</time>
      </trkpt>
      <trkpt lat="49.33577" lon="1.04601">
        <ele>88.580001831055</ele>
        <time>2013-03-24T09:41:20.000Z</time>
      </trkpt>
      <trkpt lat="49.33563" lon="1.04542">
        <ele>90.019996643066</ele>
        <time>2013-03-24T09:41:32.000Z</time>
      </trkpt>
      <trkpt lat="49.33552" lon="1.04502">
        <ele>89.540000915527</ele>
        <time>2013-03-24T09:41:39.000Z</time>
      </trkpt>
      <trkpt lat="49.3355" lon="1.04495">
        <ele>89.059997558594</ele>
        <time>2013-03-24T09:41:40.000Z</time>
      </trkpt>
      <trkpt lat="49.33549" lon="1.04489">
        <ele>89.059997558594</ele>
        <time>2013-03-24T09:41:41.000Z</time>
      </trkpt>
      <trkpt lat="49.3354" lon="1.04418">
        <ele>86.660003662109</ele>
        <time>2013-03-24T09:41:53.000Z</time>
      </trkpt>
      <trkpt lat="49.33538" lon="1.04398">
        <ele>86.180000305176</ele>
        <time>2013-03-24T09:41:56.000Z</time>
      </trkpt>
      <trkpt lat="49.33538" lon="1.04392">
        <ele>86.180000305176</ele>
        <time>2013-03-24T09:41:57.000Z</time>
      </trkpt>
      <trkpt lat="49.33537" lon="1.04385">
        <ele>86.660003662109</ele>
        <time>2013-03-24T09:41:58.000Z</time>
      </trkpt>
      <trkpt lat="49.33536" lon="1.04379">
        <ele>86.180000305176</ele>
        <time>2013-03-24T09:41:59.000Z</time>
      </trkpt>
      <trkpt lat="49.33535" lon="1.04373">
        <ele>86.180000305176</ele>
        <time>2013-03-24T09:42:00.000Z</time>
      </trkpt>
      <trkpt lat="49.33535" lon="1.04367">
        <ele>86.180000305176</ele>
        <time>2013-03-24T09:42:01.000Z</time>
      </trkpt>
      <trkpt lat="49.33535" lon="1.0436">
        <ele>86.180000305176</ele>
        <time>2013-03-24T09:42:02.000Z</time>
      </trkpt>
      <trkpt lat="49.33536" lon="1.04355">
        <ele>86.180000305176</ele>
        <time>2013-03-24T09:42:03.000Z</time>
      </trkpt>
      <trkpt lat="49.33536" lon="1.04349">
        <ele>86.180000305176</ele>
        <time>2013-03-24T09:42:04.000Z</time>
      </trkpt>
      <trkpt lat="49.33535" lon="1.04343">
        <ele>85.690002441406</ele>
        <time>2013-03-24T09:42:05.000Z</time>
      </trkpt>
      <trkpt lat="49.33531" lon="1.0428">
        <ele>85.209999084473</ele>
        <time>2013-03-24T09:42:16.000Z</time>
      </trkpt>
      <trkpt lat="49.33531" lon="1.04231">
        <ele>86.180000305176</ele>
        <time>2013-03-24T09:42:25.000Z</time>
      </trkpt>
      <trkpt lat="49.33529" lon="1.04204">
        <ele>86.180000305176</ele>
        <time>2013-03-24T09:42:31.000Z</time>
      </trkpt>
      <trkpt lat="49.3353" lon="1.042">
        <ele>86.180000305176</ele>
        <time>2013-03-24T09:42:32.000Z</time>
      </trkpt>
      <trkpt lat="49.33526" lon="1.04166">
        <ele>86.660003662109</ele>
        <time>2013-03-24T09:42:38.000Z</time>
      </trkpt>
      <trkpt lat="49.33525" lon="1.0416">
        <ele>86.660003662109</ele>
        <time>2013-03-24T09:42:39.000Z</time>
      </trkpt>
      <trkpt lat="49.33524" lon="1.04153">
        <ele>86.180000305176</ele>
        <time>2013-03-24T09:42:40.000Z</time>
      </trkpt>
      <trkpt lat="49.33524" lon="1.04146">
        <ele>86.180000305176</ele>
        <time>2013-03-24T09:42:41.000Z</time>
      </trkpt>
      <trkpt lat="49.33523" lon="1.0414">
        <ele>86.180000305176</ele>
        <time>2013-03-24T09:42:42.000Z</time>
      </trkpt>
      <trkpt lat="49.33521" lon="1.04133">
        <ele>86.180000305176</ele>
        <time>2013-03-24T09:42:43.000Z</time>
      </trkpt>
      <trkpt lat="49.33512" lon="1.04079">
        <ele>88.099998474121</ele>
        <time>2013-03-24T09:42:52.000Z</time>
      </trkpt>
      <trkpt lat="49.33511" lon="1.04073">
        <ele>88.099998474121</ele>
        <time>2013-03-24T09:42:53.000Z</time>
      </trkpt>
      <trkpt lat="49.33497" lon="1.04018">
        <ele>88.099998474121</ele>
        <time>2013-03-24T09:43:03.000Z</time>
      </trkpt>
      <trkpt lat="49.3348" lon="1.03974">
        <ele>89.059997558594</ele>
        <time>2013-03-24T09:43:12.000Z</time>
      </trkpt>
      <trkpt lat="49.33459" lon="1.03923">
        <ele>90.019996643066</ele>
        <time>2013-03-24T09:43:22.000Z</time>
      </trkpt>
      <trkpt lat="49.3344" lon="1.03875">
        <ele>92.900001525879</ele>
        <time>2013-03-24T09:43:33.000Z</time>
      </trkpt>
      <trkpt lat="49.33416" lon="1.03818">
        <ele>96.75</ele>
        <time>2013-03-24T09:43:47.000Z</time>
      </trkpt>
      <trkpt lat="49.33403" lon="1.03796">
        <ele>101.08000183106</ele>
        <time>2013-03-24T09:43:57.000Z</time>
      </trkpt>
      <trkpt lat="49.33401" lon="1.03794">
        <ele>101.55999755859</ele>
        <time>2013-03-24T09:43:58.000Z</time>
      </trkpt>
      <trkpt lat="49.33401" lon="1.03791">
        <ele>102.04000091553</ele>
        <time>2013-03-24T09:43:59.000Z</time>
      </trkpt>
      <trkpt lat="49.33397" lon="1.03782">
        <ele>103.48000335693</ele>
        <time>2013-03-24T09:44:03.000Z</time>
      </trkpt>
      <trkpt lat="49.33396" lon="1.03781">
        <ele>103.48000335693</ele>
        <time>2013-03-24T09:44:04.000Z</time>
      </trkpt>
      <trkpt lat="49.33395" lon="1.03779">
        <ele>103.95999908447</ele>
        <time>2013-03-24T09:44:05.000Z</time>
      </trkpt>
      <trkpt lat="49.33393" lon="1.03777">
        <ele>103.95999908447</ele>
        <time>2013-03-24T09:44:06.000Z</time>
      </trkpt>
      <trkpt lat="49.33392" lon="1.03774">
        <ele>103.95999908447</ele>
        <time>2013-03-24T09:44:07.000Z</time>
      </trkpt>
      <trkpt lat="49.33381" lon="1.03742">
        <ele>105.87999725342</ele>
        <time>2013-03-24T09:44:20.000Z</time>
      </trkpt>
      <trkpt lat="49.33369" lon="1.037">
        <ele>114.5299987793</ele>
        <time>2013-03-24T09:44:33.000Z</time>
      </trkpt>
      <trkpt lat="49.3337" lon="1.03692">
        <ele>115.98000335693</ele>
        <time>2013-03-24T09:44:36.000Z</time>
      </trkpt>
      <trkpt lat="49.3337" lon="1.0369">
        <ele>115.98000335693</ele>
        <time>2013-03-24T09:44:37.000Z</time>
      </trkpt>
      <trkpt lat="49.3337" lon="1.03687">
        <ele>115.98000335693</ele>
        <time>2013-03-24T09:44:38.000Z</time>
      </trkpt>
      <trkpt lat="49.33368" lon="1.03684">
        <ele>115.5</ele>
        <time>2013-03-24T09:44:40.000Z</time>
      </trkpt>
      <trkpt lat="49.33367" lon="1.03683">
        <ele>115.01000213623</ele>
        <time>2013-03-24T09:44:41.000Z</time>
      </trkpt>
      <trkpt lat="49.33364" lon="1.03683">
        <ele>114.5299987793</ele>
        <time>2013-03-24T09:44:42.000Z</time>
      </trkpt>
      <trkpt lat="49.33362" lon="1.03683">
        <ele>114.05000305176</ele>
        <time>2013-03-24T09:44:43.000Z</time>
      </trkpt>
      <trkpt lat="49.3336" lon="1.03684">
        <ele>113.56999969482</ele>
        <time>2013-03-24T09:44:44.000Z</time>
      </trkpt>
      <trkpt lat="49.33356" lon="1.03691">
        <ele>112.12999725342</ele>
        <time>2013-03-24T09:44:47.000Z</time>
      </trkpt>
      <trkpt lat="49.33355" lon="1.03697">
        <ele>110.69000244141</ele>
        <time>2013-03-24T09:44:49.000Z</time>
      </trkpt>
      <trkpt lat="49.33354" lon="1.03702">
        <ele>109.25</ele>
        <time>2013-03-24T09:44:51.000Z</time>
      </trkpt>
      <trkpt lat="49.33354" lon="1.03709">
        <ele>106.83999633789</ele>
        <time>2013-03-24T09:44:55.000Z</time>
      </trkpt>
      <trkpt lat="49.33353" lon="1.03715">
        <ele>104.44000244141</ele>
        <time>2013-03-24T09:44:59.000Z</time>
      </trkpt>
      <trkpt lat="49.33353" lon="1.03719">
        <ele>103.48000335693</ele>
        <time>2013-03-24T09:45:01.000Z</time>
      </trkpt>
      <trkpt lat="49.3334" lon="1.03725">
        <ele>100.59999847412</ele>
        <time>2013-03-24T09:45:10.000Z</time>
      </trkpt>
      <trkpt lat="49.33327" lon="1.03725">
        <ele>97.709999084473</ele>
        <time>2013-03-24T09:45:17.000Z</time>
      </trkpt>
      <trkpt lat="49.33319" lon="1.03727">
        <ele>97.230003356934</ele>
        <time>2013-03-24T09:45:31.000Z</time>
      </trkpt>
      <trkpt lat="49.33314" lon="1.03729">
        <ele>97.230003356934</ele>
        <time>2013-03-24T09:45:47.000Z</time>
      </trkpt>
      <trkpt lat="49.33306" lon="1.03733">
        <ele>97.709999084473</ele>
        <time>2013-03-24T09:45:58.000Z</time>
      </trkpt>
      <trkpt lat="49.33295" lon="1.03738">
        <ele>102.04000091553</ele>
        <time>2013-03-24T09:46:09.000Z</time>
      </trkpt>
      <trkpt lat="49.33293" lon="1.03739">
        <ele>103</ele>
        <time>2013-03-24T09:46:13.000Z</time>
      </trkpt>
      <trkpt lat="49.33287" lon="1.03743">
        <ele>105.40000152588</ele>
        <time>2013-03-24T09:46:25.000Z</time>
      </trkpt>
      <trkpt lat="49.33275" lon="1.03747">
        <ele>108.29000091553</ele>
        <time>2013-03-24T09:46:38.000Z</time>
      </trkpt>
      <trkpt lat="49.33265" lon="1.03749">
        <ele>107.80999755859</ele>
        <time>2013-03-24T09:46:52.000Z</time>
      </trkpt>
      <trkpt lat="49.33262" lon="1.0375">
        <ele>107.80999755859</ele>
        <time>2013-03-24T09:46:56.000Z</time>
      </trkpt>
      <trkpt lat="49.33257" lon="1.03753">
        <ele>108.29000091553</ele>
        <time>2013-03-24T09:47:02.000Z</time>
      </trkpt>
      <trkpt lat="49.33254" lon="1.03755">
        <ele>108.76999664307</ele>
        <time>2013-03-24T09:47:04.000Z</time>
      </trkpt>
      <trkpt lat="49.33251" lon="1.03756">
        <ele>110.20999908447</ele>
        <time>2013-03-24T09:47:07.000Z</time>
      </trkpt>
      <trkpt lat="49.33249" lon="1.03756">
        <ele>110.20999908447</ele>
        <time>2013-03-24T09:47:09.000Z</time>
      </trkpt>
      <trkpt lat="49.33242" lon="1.0376">
        <ele>112.12999725342</ele>
        <time>2013-03-24T09:47:21.000Z</time>
      </trkpt>
      <trkpt lat="49.3322" lon="1.03771">
        <ele>112.12999725342</ele>
        <time>2013-03-24T09:47:34.000Z</time>
      </trkpt>
      <trkpt lat="49.33196" lon="1.03778">
        <ele>110.69000244141</ele>
        <time>2013-03-24T09:47:48.000Z</time>
      </trkpt>
      <trkpt lat="49.33192" lon="1.03778">
        <ele>110.69000244141</ele>
        <time>2013-03-24T09:47:50.000Z</time>
      </trkpt>
      <trkpt lat="49.33179" lon="1.03743">
        <ele>114.5299987793</ele>
        <time>2013-03-24T09:48:02.000Z</time>
      </trkpt>
      <trkpt lat="49.33166" lon="1.03692">
        <ele>115.98000335693</ele>
        <time>2013-03-24T09:48:12.000Z</time>
      </trkpt>
      <trkpt lat="49.33164" lon="1.03686">
        <ele>115.98000335693</ele>
        <time>2013-03-24T09:48:13.000Z</time>
      </trkpt>
      <trkpt lat="49.33162" lon="1.0368">
        <ele>115.98000335693</ele>
        <time>2013-03-24T09:48:14.000Z</time>
      </trkpt>
      <trkpt lat="49.3316" lon="1.03674">
        <ele>115.98000335693</ele>
        <time>2013-03-24T09:48:15.000Z</time>
      </trkpt>
      <trkpt lat="49.33158" lon="1.03668">
        <ele>115.98000335693</ele>
        <time>2013-03-24T09:48:16.000Z</time>
      </trkpt>
      <trkpt lat="49.33157" lon="1.03662">
        <ele>116.45999908447</ele>
        <time>2013-03-24T09:48:17.000Z</time>
      </trkpt>
      <trkpt lat="49.33155" lon="1.03655">
        <ele>116.94000244141</ele>
        <time>2013-03-24T09:48:18.000Z</time>
      </trkpt>
      <trkpt lat="49.33133" lon="1.03602">
        <ele>120.7799987793</ele>
        <time>2013-03-24T09:48:30.000Z</time>
      </trkpt>
      <trkpt lat="49.33123" lon="1.03577">
        <ele>121.26000213623</ele>
        <time>2013-03-24T09:48:35.000Z</time>
      </trkpt>
      <trkpt lat="49.3312" lon="1.03572">
        <ele>121.26000213623</ele>
        <time>2013-03-24T09:48:36.000Z</time>
      </trkpt>
      <trkpt lat="49.33116" lon="1.03561">
        <ele>121.26000213623</ele>
        <time>2013-03-24T09:48:38.000Z</time>
      </trkpt>
      <trkpt lat="49.33114" lon="1.03557">
        <ele>121.26000213623</ele>
        <time>2013-03-24T09:48:39.000Z</time>
      </trkpt>
      <trkpt lat="49.33102" lon="1.03532">
        <ele>121.26000213623</ele>
        <time>2013-03-24T09:48:48.000Z</time>
      </trkpt>
      <trkpt lat="49.33099" lon="1.03529">
        <ele>122.70999908447</ele>
        <time>2013-03-24T09:48:56.000Z</time>
      </trkpt>
      <trkpt lat="49.33098" lon="1.03527">
        <ele>122.70999908447</ele>
        <time>2013-03-24T09:48:57.000Z</time>
      </trkpt>
      <trkpt lat="49.33096" lon="1.03523">
        <ele>123.19000244141</ele>
        <time>2013-03-24T09:49:00.000Z</time>
      </trkpt>
      <trkpt lat="49.33095" lon="1.03522">
        <ele>123.66999816894</ele>
        <time>2013-03-24T09:49:01.000Z</time>
      </trkpt>
      <trkpt lat="49.33094" lon="1.03521">
        <ele>123.66999816894</ele>
        <time>2013-03-24T09:49:02.000Z</time>
      </trkpt>
      <trkpt lat="49.33093" lon="1.0352">
        <ele>124.15000152588</ele>
        <time>2013-03-24T09:49:03.000Z</time>
      </trkpt>
      <trkpt lat="49.3309" lon="1.03513">
        <ele>124.15000152588</ele>
        <time>2013-03-24T09:49:07.000Z</time>
      </trkpt>
      <trkpt lat="49.33075" lon="1.03481">
        <ele>124.15000152588</ele>
        <time>2013-03-24T09:49:21.000Z</time>
      </trkpt>
      <trkpt lat="49.33057" lon="1.03443">
        <ele>123.19000244141</ele>
        <time>2013-03-24T09:49:32.000Z</time>
      </trkpt>
      <trkpt lat="49.33033" lon="1.03399">
        <ele>123.66999816894</ele>
        <time>2013-03-24T09:49:45.000Z</time>
      </trkpt>
      <trkpt lat="49.33018" lon="1.03364">
        <ele>124.15000152588</ele>
        <time>2013-03-24T09:49:57.000Z</time>
      </trkpt>
      <trkpt lat="49.33016" lon="1.03313">
        <ele>123.19000244141</ele>
        <time>2013-03-24T09:50:10.000Z</time>
      </trkpt>
      <trkpt lat="49.33014" lon="1.033">
        <ele>123.19000244141</ele>
        <time>2013-03-24T09:50:13.000Z</time>
      </trkpt>
      <trkpt lat="49.33012" lon="1.03298">
        <ele>123.19000244141</ele>
        <time>2013-03-24T09:50:14.000Z</time>
      </trkpt>
      <trkpt lat="49.33009" lon="1.03296">
        <ele>122.70999908447</ele>
        <time>2013-03-24T09:50:15.000Z</time>
      </trkpt>
      <trkpt lat="49.33006" lon="1.03293">
        <ele>122.70999908447</ele>
        <time>2013-03-24T09:50:16.000Z</time>
      </trkpt>
      <trkpt lat="49.33004" lon="1.03288">
        <ele>122.70999908447</ele>
        <time>2013-03-24T09:50:17.000Z</time>
      </trkpt>
      <trkpt lat="49.33002" lon="1.03283">
        <ele>122.70999908447</ele>
        <time>2013-03-24T09:50:18.000Z</time>
      </trkpt>
      <trkpt lat="49.33" lon="1.03277">
        <ele>122.70999908447</ele>
        <time>2013-03-24T09:50:19.000Z</time>
      </trkpt>
      <trkpt lat="49.32999" lon="1.03271">
        <ele>122.70999908447</ele>
        <time>2013-03-24T09:50:20.000Z</time>
      </trkpt>
      <trkpt lat="49.32999" lon="1.03265">
        <ele>122.70999908447</ele>
        <time>2013-03-24T09:50:21.000Z</time>
      </trkpt>
      <trkpt lat="49.32999" lon="1.03259">
        <ele>122.70999908447</ele>
        <time>2013-03-24T09:50:22.000Z</time>
      </trkpt>
      <trkpt lat="49.33" lon="1.03253">
        <ele>122.70999908447</ele>
        <time>2013-03-24T09:50:23.000Z</time>
      </trkpt>
      <trkpt lat="49.33001" lon="1.03247">
        <ele>122.70999908447</ele>
        <time>2013-03-24T09:50:24.000Z</time>
      </trkpt>
      <trkpt lat="49.33002" lon="1.03242">
        <ele>122.70999908447</ele>
        <time>2013-03-24T09:50:25.000Z</time>
      </trkpt>
      <trkpt lat="49.33002" lon="1.03237">
        <ele>122.2200012207</ele>
        <time>2013-03-24T09:50:26.000Z</time>
      </trkpt>
      <trkpt lat="49.33004" lon="1.03227">
        <ele>122.2200012207</ele>
        <time>2013-03-24T09:50:28.000Z</time>
      </trkpt>
      <trkpt lat="49.33009" lon="1.0321">
        <ele>122.70999908447</ele>
        <time>2013-03-24T09:50:32.000Z</time>
      </trkpt>
      <trkpt lat="49.33011" lon="1.03208">
        <ele>122.70999908447</ele>
        <time>2013-03-24T09:50:33.000Z</time>
      </trkpt>
      <trkpt lat="49.33013" lon="1.03204">
        <ele>122.70999908447</ele>
        <time>2013-03-24T09:50:34.000Z</time>
      </trkpt>
      <trkpt lat="49.33015" lon="1.032">
        <ele>123.19000244141</ele>
        <time>2013-03-24T09:50:35.000Z</time>
      </trkpt>
      <trkpt lat="49.33016" lon="1.03196">
        <ele>123.19000244141</ele>
        <time>2013-03-24T09:50:36.000Z</time>
      </trkpt>
      <trkpt lat="49.33018" lon="1.03192">
        <ele>123.19000244141</ele>
        <time>2013-03-24T09:50:37.000Z</time>
      </trkpt>
      <trkpt lat="49.33019" lon="1.03188">
        <ele>123.19000244141</ele>
        <time>2013-03-24T09:50:38.000Z</time>
      </trkpt>
      <trkpt lat="49.3302" lon="1.03184">
        <ele>123.19000244141</ele>
        <time>2013-03-24T09:50:39.000Z</time>
      </trkpt>
      <trkpt lat="49.33021" lon="1.0318">
        <ele>123.19000244141</ele>
        <time>2013-03-24T09:50:40.000Z</time>
      </trkpt>
      <trkpt lat="49.33022" lon="1.03177">
        <ele>123.19000244141</ele>
        <time>2013-03-24T09:50:41.000Z</time>
      </trkpt>
      <trkpt lat="49.33036" lon="1.03133">
        <ele>123.66999816894</ele>
        <time>2013-03-24T09:50:53.000Z</time>
      </trkpt>
      <trkpt lat="49.33052" lon="1.03086">
        <ele>124.15000152588</ele>
        <time>2013-03-24T09:51:04.000Z</time>
      </trkpt>
      <trkpt lat="49.33059" lon="1.03042">
        <ele>124.62999725342</ele>
        <time>2013-03-24T09:51:13.000Z</time>
      </trkpt>
      <trkpt lat="49.33073" lon="1.02987">
        <ele>125.58999633789</ele>
        <time>2013-03-24T09:51:24.000Z</time>
      </trkpt>
      <trkpt lat="49.33084" lon="1.02918">
        <ele>125.58999633789</ele>
        <time>2013-03-24T09:51:36.000Z</time>
      </trkpt>
      <trkpt lat="49.33085" lon="1.02912">
        <ele>125.58999633789</ele>
        <time>2013-03-24T09:51:37.000Z</time>
      </trkpt>
      <trkpt lat="49.331" lon="1.02804">
        <ele>126.55000305176</ele>
        <time>2013-03-24T09:51:53.000Z</time>
      </trkpt>
      <trkpt lat="49.33102" lon="1.02791">
        <ele>126.55000305176</ele>
        <time>2013-03-24T09:51:55.000Z</time>
      </trkpt>
      <trkpt lat="49.33104" lon="1.02778">
        <ele>126.06999969482</ele>
        <time>2013-03-24T09:51:57.000Z</time>
      </trkpt>
      <trkpt lat="49.33105" lon="1.02772">
        <ele>126.06999969482</ele>
        <time>2013-03-24T09:51:58.000Z</time>
      </trkpt>
      <trkpt lat="49.33105" lon="1.02766">
        <ele>126.06999969482</ele>
        <time>2013-03-24T09:51:59.000Z</time>
      </trkpt>
      <trkpt lat="49.33106" lon="1.0276">
        <ele>126.06999969482</ele>
        <time>2013-03-24T09:52:00.000Z</time>
      </trkpt>
      <trkpt lat="49.33107" lon="1.02756">
        <ele>126.55000305176</ele>
        <time>2013-03-24T09:52:01.000Z</time>
      </trkpt>
      <trkpt lat="49.33109" lon="1.02751">
        <ele>126.55000305176</ele>
        <time>2013-03-24T09:52:02.000Z</time>
      </trkpt>
      <trkpt lat="49.33121" lon="1.02721">
        <ele>126.55000305176</ele>
        <time>2013-03-24T09:52:08.000Z</time>
      </trkpt>
      <trkpt lat="49.33123" lon="1.02715">
        <ele>126.55000305176</ele>
        <time>2013-03-24T09:52:09.000Z</time>
      </trkpt>
      <trkpt lat="49.33124" lon="1.02709">
        <ele>127.0299987793</ele>
        <time>2013-03-24T09:52:10.000Z</time>
      </trkpt>
      <trkpt lat="49.33124" lon="1.02703">
        <ele>127.0299987793</ele>
        <time>2013-03-24T09:52:11.000Z</time>
      </trkpt>
      <trkpt lat="49.33124" lon="1.02697">
        <ele>127.0299987793</ele>
        <time>2013-03-24T09:52:12.000Z</time>
      </trkpt>
      <trkpt lat="49.33123" lon="1.02684">
        <ele>127.0299987793</ele>
        <time>2013-03-24T09:52:14.000Z</time>
      </trkpt>
      <trkpt lat="49.33124" lon="1.02678">
        <ele>127.0299987793</ele>
        <time>2013-03-24T09:52:15.000Z</time>
      </trkpt>
      <trkpt lat="49.33125" lon="1.02664">
        <ele>127.51000213623</ele>
        <time>2013-03-24T09:52:17.000Z</time>
      </trkpt>
      <trkpt lat="49.33127" lon="1.02643">
        <ele>127.0299987793</ele>
        <time>2013-03-24T09:52:20.000Z</time>
      </trkpt>
      <trkpt lat="49.33131" lon="1.02613">
        <ele>127.51000213623</ele>
        <time>2013-03-24T09:52:24.000Z</time>
      </trkpt>
      <trkpt lat="49.33138" lon="1.02578">
        <ele>127.98999786377</ele>
        <time>2013-03-24T09:52:29.000Z</time>
      </trkpt>
      <trkpt lat="49.3314" lon="1.02564">
        <ele>127.51000213623</ele>
        <time>2013-03-24T09:52:31.000Z</time>
      </trkpt>
      <trkpt lat="49.33141" lon="1.02533">
        <ele>127.98999786377</ele>
        <time>2013-03-24T09:52:35.000Z</time>
      </trkpt>
      <trkpt lat="49.33142" lon="1.02518">
        <ele>127.98999786377</ele>
        <time>2013-03-24T09:52:37.000Z</time>
      </trkpt>
      <trkpt lat="49.33145" lon="1.0249">
        <ele>127.98999786377</ele>
        <time>2013-03-24T09:52:41.000Z</time>
      </trkpt>
      <trkpt lat="49.33145" lon="1.02483">
        <ele>127.98999786377</ele>
        <time>2013-03-24T09:52:42.000Z</time>
      </trkpt>
      <trkpt lat="49.33144" lon="1.02475">
        <ele>127.98999786377</ele>
        <time>2013-03-24T09:52:43.000Z</time>
      </trkpt>
      <trkpt lat="49.33143" lon="1.02468">
        <ele>127.51000213623</ele>
        <time>2013-03-24T09:52:44.000Z</time>
      </trkpt>
      <trkpt lat="49.33141" lon="1.02462">
        <ele>127.98999786377</ele>
        <time>2013-03-24T09:52:45.000Z</time>
      </trkpt>
      <trkpt lat="49.33107" lon="1.02358">
        <ele>127.98999786377</ele>
        <time>2013-03-24T09:53:00.000Z</time>
      </trkpt>
      <trkpt lat="49.33064" lon="1.02226">
        <ele>128.4700012207</ele>
        <time>2013-03-24T09:53:18.000Z</time>
      </trkpt>
      <trkpt lat="49.33036" lon="1.02142">
        <ele>127.98999786377</ele>
        <time>2013-03-24T09:53:29.000Z</time>
      </trkpt>
      <trkpt lat="49.33033" lon="1.02135">
        <ele>127.98999786377</ele>
        <time>2013-03-24T09:53:30.000Z</time>
      </trkpt>
      <trkpt lat="49.32995" lon="1.02021">
        <ele>128.4700012207</ele>
        <time>2013-03-24T09:53:45.000Z</time>
      </trkpt>
      <trkpt lat="49.32983" lon="1.01983">
        <ele>127.51000213623</ele>
        <time>2013-03-24T09:53:50.000Z</time>
      </trkpt>
      <trkpt lat="49.3297" lon="1.01947">
        <ele>126.55000305176</ele>
        <time>2013-03-24T09:53:55.000Z</time>
      </trkpt>
      <trkpt lat="49.32965" lon="1.01931">
        <ele>126.06999969482</ele>
        <time>2013-03-24T09:53:57.000Z</time>
      </trkpt>
      <trkpt lat="49.32945" lon="1.0187">
        <ele>124.62999725342</ele>
        <time>2013-03-24T09:54:05.000Z</time>
      </trkpt>
      <trkpt lat="49.32943" lon="1.01863">
        <ele>124.15000152588</ele>
        <time>2013-03-24T09:54:06.000Z</time>
      </trkpt>
      <trkpt lat="49.32941" lon="1.01855">
        <ele>124.15000152588</ele>
        <time>2013-03-24T09:54:07.000Z</time>
      </trkpt>
      <trkpt lat="49.32927" lon="1.01812">
        <ele>123.19000244141</ele>
        <time>2013-03-24T09:54:13.000Z</time>
      </trkpt>
      <trkpt lat="49.32923" lon="1.018">
        <ele>123.19000244141</ele>
        <time>2013-03-24T09:54:16.000Z</time>
      </trkpt>
      <trkpt lat="49.32921" lon="1.01799">
        <ele>122.70999908447</ele>
        <time>2013-03-24T09:54:17.000Z</time>
      </trkpt>
      <trkpt lat="49.32919" lon="1.018">
        <ele>122.2200012207</ele>
        <time>2013-03-24T09:54:18.000Z</time>
      </trkpt>
      <trkpt lat="49.32917" lon="1.01801">
        <ele>121.73999786377</ele>
        <time>2013-03-24T09:54:19.000Z</time>
      </trkpt>
      <trkpt lat="49.32915" lon="1.01802">
        <ele>121.73999786377</ele>
        <time>2013-03-24T09:54:20.000Z</time>
      </trkpt>
      <trkpt lat="49.32912" lon="1.01804">
        <ele>121.26000213623</ele>
        <time>2013-03-24T09:54:21.000Z</time>
      </trkpt>
      <trkpt lat="49.32865" lon="1.0184">
        <ele>116.45999908447</ele>
        <time>2013-03-24T09:54:34.000Z</time>
      </trkpt>
      <trkpt lat="49.32853" lon="1.01845">
        <ele>115.5</ele>
        <time>2013-03-24T09:54:37.000Z</time>
      </trkpt>
      <trkpt lat="49.32811" lon="1.01878">
        <ele>112.12999725342</ele>
        <time>2013-03-24T09:54:47.000Z</time>
      </trkpt>
      <trkpt lat="49.32772" lon="1.0191">
        <ele>109.73000335693</ele>
        <time>2013-03-24T09:54:57.000Z</time>
      </trkpt>
      <trkpt lat="49.32738" lon="1.01935">
        <ele>108.76999664307</ele>
        <time>2013-03-24T09:55:07.000Z</time>
      </trkpt>
      <trkpt lat="49.3271" lon="1.01961">
        <ele>109.73000335693</ele>
        <time>2013-03-24T09:55:17.000Z</time>
      </trkpt>
      <trkpt lat="49.32707" lon="1.01963">
        <ele>109.25</ele>
        <time>2013-03-24T09:55:18.000Z</time>
      </trkpt>
      <trkpt lat="49.32704" lon="1.01965">
        <ele>109.25</ele>
        <time>2013-03-24T09:55:19.000Z</time>
      </trkpt>
      <trkpt lat="49.32697" lon="1.0197">
        <ele>109.25</ele>
        <time>2013-03-24T09:55:22.000Z</time>
      </trkpt>
      <trkpt lat="49.32694" lon="1.01972">
        <ele>109.25</ele>
        <time>2013-03-24T09:55:23.000Z</time>
      </trkpt>
      <trkpt lat="49.32691" lon="1.01973">
        <ele>109.25</ele>
        <time>2013-03-24T09:55:24.000Z</time>
      </trkpt>
      <trkpt lat="49.32689" lon="1.01974">
        <ele>108.76999664307</ele>
        <time>2013-03-24T09:55:25.000Z</time>
      </trkpt>
      <trkpt lat="49.32686" lon="1.01976">
        <ele>108.76999664307</ele>
        <time>2013-03-24T09:55:26.000Z</time>
      </trkpt>
      <trkpt lat="49.32683" lon="1.01977">
        <ele>108.76999664307</ele>
        <time>2013-03-24T09:55:27.000Z</time>
      </trkpt>
      <trkpt lat="49.32681" lon="1.01976">
        <ele>108.76999664307</ele>
        <time>2013-03-24T09:55:28.000Z</time>
      </trkpt>
      <trkpt lat="49.32678" lon="1.01975">
        <ele>108.76999664307</ele>
        <time>2013-03-24T09:55:29.000Z</time>
      </trkpt>
      <trkpt lat="49.32676" lon="1.01974">
        <ele>108.76999664307</ele>
        <time>2013-03-24T09:55:30.000Z</time>
      </trkpt>
      <trkpt lat="49.32674" lon="1.01972">
        <ele>109.25</ele>
        <time>2013-03-24T09:55:31.000Z</time>
      </trkpt>
      <trkpt lat="49.32673" lon="1.01969">
        <ele>109.25</ele>
        <time>2013-03-24T09:55:32.000Z</time>
      </trkpt>
      <trkpt lat="49.32671" lon="1.01967">
        <ele>108.76999664307</ele>
        <time>2013-03-24T09:55:33.000Z</time>
      </trkpt>
      <trkpt lat="49.3267" lon="1.01965">
        <ele>108.76999664307</ele>
        <time>2013-03-24T09:55:34.000Z</time>
      </trkpt>
      <trkpt lat="49.32668" lon="1.01963">
        <ele>108.76999664307</ele>
        <time>2013-03-24T09:55:35.000Z</time>
      </trkpt>
      <trkpt lat="49.32663" lon="1.01952">
        <ele>108.29000091553</ele>
        <time>2013-03-24T09:55:38.000Z</time>
      </trkpt>
      <trkpt lat="49.32661" lon="1.01949">
        <ele>108.29000091553</ele>
        <time>2013-03-24T09:55:39.000Z</time>
      </trkpt>
      <trkpt lat="49.32658" lon="1.01945">
        <ele>108.29000091553</ele>
        <time>2013-03-24T09:55:40.000Z</time>
      </trkpt>
      <trkpt lat="49.32656" lon="1.01941">
        <ele>108.29000091553</ele>
        <time>2013-03-24T09:55:41.000Z</time>
      </trkpt>
      <trkpt lat="49.32655" lon="1.01935">
        <ele>108.76999664307</ele>
        <time>2013-03-24T09:55:42.000Z</time>
      </trkpt>
      <trkpt lat="49.32645" lon="1.01886">
        <ele>111.16999816894</ele>
        <time>2013-03-24T09:55:52.000Z</time>
      </trkpt>
      <trkpt lat="49.32645" lon="1.01882">
        <ele>111.16999816894</ele>
        <time>2013-03-24T09:55:53.000Z</time>
      </trkpt>
      <trkpt lat="49.32645" lon="1.01877">
        <ele>111.16999816894</ele>
        <time>2013-03-24T09:55:54.000Z</time>
      </trkpt>
      <trkpt lat="49.32644" lon="1.01872">
        <ele>111.65000152588</ele>
        <time>2013-03-24T09:55:55.000Z</time>
      </trkpt>
      <trkpt lat="49.32643" lon="1.01867">
        <ele>111.65000152588</ele>
        <time>2013-03-24T09:55:56.000Z</time>
      </trkpt>
      <trkpt lat="49.32643" lon="1.01862">
        <ele>111.65000152588</ele>
        <time>2013-03-24T09:55:57.000Z</time>
      </trkpt>
      <trkpt lat="49.32642" lon="1.01856">
        <ele>112.12999725342</ele>
        <time>2013-03-24T09:55:58.000Z</time>
      </trkpt>
      <trkpt lat="49.32641" lon="1.01849">
        <ele>112.12999725342</ele>
        <time>2013-03-24T09:55:59.000Z</time>
      </trkpt>
      <trkpt lat="49.32641" lon="1.01843">
        <ele>112.12999725342</ele>
        <time>2013-03-24T09:56:00.000Z</time>
      </trkpt>
      <trkpt lat="49.32641" lon="1.01838">
        <ele>111.65000152588</ele>
        <time>2013-03-24T09:56:01.000Z</time>
      </trkpt>
      <trkpt lat="49.3264" lon="1.01814">
        <ele>111.65000152588</ele>
        <time>2013-03-24T09:56:07.000Z</time>
      </trkpt>
      <trkpt lat="49.32639" lon="1.0181">
        <ele>111.16999816894</ele>
        <time>2013-03-24T09:56:08.000Z</time>
      </trkpt>
      <trkpt lat="49.32637" lon="1.01804">
        <ele>110.20999908447</ele>
        <time>2013-03-24T09:56:09.000Z</time>
      </trkpt>
      <trkpt lat="49.32631" lon="1.01785">
        <ele>108.76999664307</ele>
        <time>2013-03-24T09:56:12.000Z</time>
      </trkpt>
      <trkpt lat="49.32612" lon="1.01747">
        <ele>106.83999633789</ele>
        <time>2013-03-24T09:56:19.000Z</time>
      </trkpt>
      <trkpt lat="49.3259" lon="1.01703">
        <ele>104.91999816894</ele>
        <time>2013-03-24T09:56:26.000Z</time>
      </trkpt>
      <trkpt lat="49.32588" lon="1.01694">
        <ele>104.44000244141</ele>
        <time>2013-03-24T09:56:27.000Z</time>
      </trkpt>
      <trkpt lat="49.32584" lon="1.01678">
        <ele>103.95999908447</ele>
        <time>2013-03-24T09:56:29.000Z</time>
      </trkpt>
      <trkpt lat="49.32581" lon="1.01671">
        <ele>103.95999908447</ele>
        <time>2013-03-24T09:56:30.000Z</time>
      </trkpt>
      <trkpt lat="49.32576" lon="1.01656">
        <ele>103.95999908447</ele>
        <time>2013-03-24T09:56:32.000Z</time>
      </trkpt>
      <trkpt lat="49.32572" lon="1.0165">
        <ele>103.48000335693</ele>
        <time>2013-03-24T09:56:33.000Z</time>
      </trkpt>
      <trkpt lat="49.32568" lon="1.01644">
        <ele>103</ele>
        <time>2013-03-24T09:56:34.000Z</time>
      </trkpt>
      <trkpt lat="49.32565" lon="1.01638">
        <ele>102.51999664307</ele>
        <time>2013-03-24T09:56:35.000Z</time>
      </trkpt>
      <trkpt lat="49.32562" lon="1.01632">
        <ele>102.51999664307</ele>
        <time>2013-03-24T09:56:36.000Z</time>
      </trkpt>
      <trkpt lat="49.32559" lon="1.01625">
        <ele>102.51999664307</ele>
        <time>2013-03-24T09:56:37.000Z</time>
      </trkpt>
      <trkpt lat="49.3255" lon="1.01604">
        <ele>102.04000091553</ele>
        <time>2013-03-24T09:56:41.000Z</time>
      </trkpt>
      <trkpt lat="49.32546" lon="1.01599">
        <ele>102.04000091553</ele>
        <time>2013-03-24T09:56:42.000Z</time>
      </trkpt>
      <trkpt lat="49.32527" lon="1.01575">
        <ele>101.55999755859</ele>
        <time>2013-03-24T09:56:47.000Z</time>
      </trkpt>
      <trkpt lat="49.32523" lon="1.01572">
        <ele>101.55999755859</ele>
        <time>2013-03-24T09:56:48.000Z</time>
      </trkpt>
      <trkpt lat="49.3252" lon="1.01571">
        <ele>101.55999755859</ele>
        <time>2013-03-24T09:56:49.000Z</time>
      </trkpt>
      <trkpt lat="49.32517" lon="1.01569">
        <ele>102.04000091553</ele>
        <time>2013-03-24T09:56:50.000Z</time>
      </trkpt>
      <trkpt lat="49.32515" lon="1.01566">
        <ele>102.04000091553</ele>
        <time>2013-03-24T09:56:51.000Z</time>
      </trkpt>
      <trkpt lat="49.32512" lon="1.01561">
        <ele>102.51999664307</ele>
        <time>2013-03-24T09:56:52.000Z</time>
      </trkpt>
      <trkpt lat="49.32509" lon="1.01555">
        <ele>103</ele>
        <time>2013-03-24T09:56:53.000Z</time>
      </trkpt>
      <trkpt lat="49.32507" lon="1.01549">
        <ele>103.48000335693</ele>
        <time>2013-03-24T09:56:54.000Z</time>
      </trkpt>
      <trkpt lat="49.32505" lon="1.01543">
        <ele>103.95999908447</ele>
        <time>2013-03-24T09:56:55.000Z</time>
      </trkpt>
      <trkpt lat="49.32502" lon="1.01537">
        <ele>103.95999908447</ele>
        <time>2013-03-24T09:56:56.000Z</time>
      </trkpt>
      <trkpt lat="49.32499" lon="1.01533">
        <ele>104.44000244141</ele>
        <time>2013-03-24T09:56:57.000Z</time>
      </trkpt>
      <trkpt lat="49.32495" lon="1.01529">
        <ele>104.44000244141</ele>
        <time>2013-03-24T09:56:58.000Z</time>
      </trkpt>
      <trkpt lat="49.32492" lon="1.01525">
        <ele>104.44000244141</ele>
        <time>2013-03-24T09:56:59.000Z</time>
      </trkpt>
      <trkpt lat="49.32488" lon="1.0152">
        <ele>104.91999816894</ele>
        <time>2013-03-24T09:57:00.000Z</time>
      </trkpt>
      <trkpt lat="49.32485" lon="1.01514">
        <ele>105.40000152588</ele>
        <time>2013-03-24T09:57:01.000Z</time>
      </trkpt>
      <trkpt lat="49.32482" lon="1.01509">
        <ele>106.36000061035</ele>
        <time>2013-03-24T09:57:02.000Z</time>
      </trkpt>
      <trkpt lat="49.32478" lon="1.01503">
        <ele>106.83999633789</ele>
        <time>2013-03-24T09:57:03.000Z</time>
      </trkpt>
      <trkpt lat="49.32475" lon="1.01498">
        <ele>107.31999969482</ele>
        <time>2013-03-24T09:57:04.000Z</time>
      </trkpt>
      <trkpt lat="49.32472" lon="1.01493">
        <ele>107.80999755859</ele>
        <time>2013-03-24T09:57:05.000Z</time>
      </trkpt>
      <trkpt lat="49.32468" lon="1.01487">
        <ele>108.29000091553</ele>
        <time>2013-03-24T09:57:06.000Z</time>
      </trkpt>
      <trkpt lat="49.32465" lon="1.01482">
        <ele>108.76999664307</ele>
        <time>2013-03-24T09:57:07.000Z</time>
      </trkpt>
      <trkpt lat="49.32454" lon="1.01465">
        <ele>110.20999908447</ele>
        <time>2013-03-24T09:57:10.000Z</time>
      </trkpt>
      <trkpt lat="49.32451" lon="1.0146">
        <ele>110.20999908447</ele>
        <time>2013-03-24T09:57:11.000Z</time>
      </trkpt>
      <trkpt lat="49.32447" lon="1.01455">
        <ele>110.69000244141</ele>
        <time>2013-03-24T09:57:12.000Z</time>
      </trkpt>
      <trkpt lat="49.32431" lon="1.01431">
        <ele>111.65000152588</ele>
        <time>2013-03-24T09:57:17.000Z</time>
      </trkpt>
      <trkpt lat="49.32427" lon="1.01427">
        <ele>112.12999725342</ele>
        <time>2013-03-24T09:57:18.000Z</time>
      </trkpt>
      <trkpt lat="49.32423" lon="1.01423">
        <ele>112.12999725342</ele>
        <time>2013-03-24T09:57:19.000Z</time>
      </trkpt>
      <trkpt lat="49.3242" lon="1.0142">
        <ele>112.12999725342</ele>
        <time>2013-03-24T09:57:20.000Z</time>
      </trkpt>
      <trkpt lat="49.32416" lon="1.01416">
        <ele>112.61000061035</ele>
        <time>2013-03-24T09:57:21.000Z</time>
      </trkpt>
      <trkpt lat="49.32409" lon="1.01407">
        <ele>113.08999633789</ele>
        <time>2013-03-24T09:57:23.000Z</time>
      </trkpt>
      <trkpt lat="49.32403" lon="1.01395">
        <ele>113.56999969482</ele>
        <time>2013-03-24T09:57:25.000Z</time>
      </trkpt>
      <trkpt lat="49.32401" lon="1.01387">
        <ele>114.05000305176</ele>
        <time>2013-03-24T09:57:26.000Z</time>
      </trkpt>
      <trkpt lat="49.32399" lon="1.0138">
        <ele>114.5299987793</ele>
        <time>2013-03-24T09:57:27.000Z</time>
      </trkpt>
      <trkpt lat="49.32396" lon="1.01372">
        <ele>114.5299987793</ele>
        <time>2013-03-24T09:57:28.000Z</time>
      </trkpt>
      <trkpt lat="49.32394" lon="1.01366">
        <ele>114.5299987793</ele>
        <time>2013-03-24T09:57:29.000Z</time>
      </trkpt>
      <trkpt lat="49.32392" lon="1.0136">
        <ele>114.05000305176</ele>
        <time>2013-03-24T09:57:30.000Z</time>
      </trkpt>
      <trkpt lat="49.32387" lon="1.01347">
        <ele>113.08999633789</ele>
        <time>2013-03-24T09:57:32.000Z</time>
      </trkpt>
      <trkpt lat="49.32384" lon="1.01342">
        <ele>112.61000061035</ele>
        <time>2013-03-24T09:57:33.000Z</time>
      </trkpt>
      <trkpt lat="49.32382" lon="1.01336">
        <ele>112.61000061035</ele>
        <time>2013-03-24T09:57:34.000Z</time>
      </trkpt>
      <trkpt lat="49.3238" lon="1.01329">
        <ele>112.12999725342</ele>
        <time>2013-03-24T09:57:35.000Z</time>
      </trkpt>
      <trkpt lat="49.32379" lon="1.01322">
        <ele>112.12999725342</ele>
        <time>2013-03-24T09:57:36.000Z</time>
      </trkpt>
      <trkpt lat="49.32379" lon="1.01314">
        <ele>111.65000152588</ele>
        <time>2013-03-24T09:57:37.000Z</time>
      </trkpt>
      <trkpt lat="49.32379" lon="1.01307">
        <ele>111.65000152588</ele>
        <time>2013-03-24T09:57:38.000Z</time>
      </trkpt>
      <trkpt lat="49.3238" lon="1.01301">
        <ele>111.16999816894</ele>
        <time>2013-03-24T09:57:39.000Z</time>
      </trkpt>
      <trkpt lat="49.32381" lon="1.01295">
        <ele>110.69000244141</ele>
        <time>2013-03-24T09:57:40.000Z</time>
      </trkpt>
      <trkpt lat="49.32383" lon="1.01289">
        <ele>110.20999908447</ele>
        <time>2013-03-24T09:57:41.000Z</time>
      </trkpt>
      <trkpt lat="49.32383" lon="1.01283">
        <ele>110.20999908447</ele>
        <time>2013-03-24T09:57:42.000Z</time>
      </trkpt>
      <trkpt lat="49.32384" lon="1.01276">
        <ele>109.73000335693</ele>
        <time>2013-03-24T09:57:43.000Z</time>
      </trkpt>
      <trkpt lat="49.32384" lon="1.01268">
        <ele>109.73000335693</ele>
        <time>2013-03-24T09:57:44.000Z</time>
      </trkpt>
      <trkpt lat="49.32385" lon="1.01261">
        <ele>109.73000335693</ele>
        <time>2013-03-24T09:57:45.000Z</time>
      </trkpt>
      <trkpt lat="49.32386" lon="1.01254">
        <ele>109.25</ele>
        <time>2013-03-24T09:57:46.000Z</time>
      </trkpt>
      <trkpt lat="49.32387" lon="1.01246">
        <ele>109.25</ele>
        <time>2013-03-24T09:57:47.000Z</time>
      </trkpt>
      <trkpt lat="49.32387" lon="1.01228">
        <ele>109.25</ele>
        <time>2013-03-24T09:57:50.000Z</time>
      </trkpt>
      <trkpt lat="49.32386" lon="1.01222">
        <ele>109.25</ele>
        <time>2013-03-24T09:57:51.000Z</time>
      </trkpt>
      <trkpt lat="49.32384" lon="1.01217">
        <ele>109.25</ele>
        <time>2013-03-24T09:57:52.000Z</time>
      </trkpt>
      <trkpt lat="49.32377" lon="1.01203">
        <ele>109.25</ele>
        <time>2013-03-24T09:57:55.000Z</time>
      </trkpt>
      <trkpt lat="49.32362" lon="1.01177">
        <ele>108.76999664307</ele>
        <time>2013-03-24T09:58:02.000Z</time>
      </trkpt>
      <trkpt lat="49.32361" lon="1.01173">
        <ele>108.29000091553</ele>
        <time>2013-03-24T09:58:03.000Z</time>
      </trkpt>
      <trkpt lat="49.32352" lon="1.0115">
        <ele>106.36000061035</ele>
        <time>2013-03-24T09:58:08.000Z</time>
      </trkpt>
      <trkpt lat="49.3235" lon="1.01142">
        <ele>106.36000061035</ele>
        <time>2013-03-24T09:58:09.000Z</time>
      </trkpt>
      <trkpt lat="49.32349" lon="1.01136">
        <ele>105.87999725342</ele>
        <time>2013-03-24T09:58:10.000Z</time>
      </trkpt>
      <trkpt lat="49.32347" lon="1.0113">
        <ele>105.87999725342</ele>
        <time>2013-03-24T09:58:11.000Z</time>
      </trkpt>
      <trkpt lat="49.32345" lon="1.01126">
        <ele>105.87999725342</ele>
        <time>2013-03-24T09:58:12.000Z</time>
      </trkpt>
      <trkpt lat="49.32343" lon="1.01123">
        <ele>105.40000152588</ele>
        <time>2013-03-24T09:58:13.000Z</time>
      </trkpt>
      <trkpt lat="49.3234" lon="1.01118">
        <ele>104.91999816894</ele>
        <time>2013-03-24T09:58:14.000Z</time>
      </trkpt>
      <trkpt lat="49.32338" lon="1.01114">
        <ele>104.91999816894</ele>
        <time>2013-03-24T09:58:15.000Z</time>
      </trkpt>
      <trkpt lat="49.32335" lon="1.01111">
        <ele>104.44000244141</ele>
        <time>2013-03-24T09:58:16.000Z</time>
      </trkpt>
      <trkpt lat="49.32333" lon="1.01109">
        <ele>104.44000244141</ele>
        <time>2013-03-24T09:58:17.000Z</time>
      </trkpt>
      <trkpt lat="49.32316" lon="1.0109">
        <ele>103.95999908447</ele>
        <time>2013-03-24T09:58:23.000Z</time>
      </trkpt>
      <trkpt lat="49.32312" lon="1.01086">
        <ele>103.48000335693</ele>
        <time>2013-03-24T09:58:24.000Z</time>
      </trkpt>
      <trkpt lat="49.32308" lon="1.01082">
        <ele>103</ele>
        <time>2013-03-24T09:58:25.000Z</time>
      </trkpt>
      <trkpt lat="49.32306" lon="1.01079">
        <ele>102.51999664307</ele>
        <time>2013-03-24T09:58:26.000Z</time>
      </trkpt>
      <trkpt lat="49.32302" lon="1.01075">
        <ele>102.04000091553</ele>
        <time>2013-03-24T09:58:27.000Z</time>
      </trkpt>
      <trkpt lat="49.32299" lon="1.01072">
        <ele>101.55999755859</ele>
        <time>2013-03-24T09:58:28.000Z</time>
      </trkpt>
      <trkpt lat="49.32285" lon="1.01055">
        <ele>99.629997253418</ele>
        <time>2013-03-24T09:58:36.000Z</time>
      </trkpt>
      <trkpt lat="49.32283" lon="1.01043">
        <ele>101.08000183106</ele>
        <time>2013-03-24T09:58:46.000Z</time>
      </trkpt>
      <trkpt lat="49.32283" lon="1.0104">
        <ele>101.08000183106</ele>
        <time>2013-03-24T09:58:47.000Z</time>
      </trkpt>
      <trkpt lat="49.32282" lon="1.01037">
        <ele>100.59999847412</ele>
        <time>2013-03-24T09:58:48.000Z</time>
      </trkpt>
      <trkpt lat="49.32281" lon="1.01034">
        <ele>100.59999847412</ele>
        <time>2013-03-24T09:58:49.000Z</time>
      </trkpt>
      <trkpt lat="49.3228" lon="1.01032">
        <ele>101.08000183106</ele>
        <time>2013-03-24T09:58:50.000Z</time>
      </trkpt>
      <trkpt lat="49.32279" lon="1.0103">
        <ele>101.08000183106</ele>
        <time>2013-03-24T09:58:51.000Z</time>
      </trkpt>
      <trkpt lat="49.32278" lon="1.01028">
        <ele>101.08000183106</ele>
        <time>2013-03-24T09:58:52.000Z</time>
      </trkpt>
      <trkpt lat="49.32268" lon="1.0101">
        <ele>99.629997253418</ele>
        <time>2013-03-24T09:59:02.000Z</time>
      </trkpt>
      <trkpt lat="49.32264" lon="1.01013">
        <ele>97.709999084473</ele>
        <time>2013-03-24T09:59:08.000Z</time>
      </trkpt>
      <trkpt lat="49.32262" lon="1.01019">
        <ele>96.75</ele>
        <time>2013-03-24T09:59:14.000Z</time>
      </trkpt>
      <trkpt lat="49.32261" lon="1.0102">
        <ele>96.75</ele>
        <time>2013-03-24T09:59:15.000Z</time>
      </trkpt>
      <trkpt lat="49.32259" lon="1.0102">
        <ele>96.269996643066</ele>
        <time>2013-03-24T09:59:16.000Z</time>
      </trkpt>
      <trkpt lat="49.32258" lon="1.0102">
        <ele>95.790000915527</ele>
        <time>2013-03-24T09:59:17.000Z</time>
      </trkpt>
      <trkpt lat="49.32257" lon="1.01015">
        <ele>94.830001831055</ele>
        <time>2013-03-24T09:59:21.000Z</time>
      </trkpt>
      <trkpt lat="49.32256" lon="1.01012">
        <ele>94.349998474121</ele>
        <time>2013-03-24T09:59:22.000Z</time>
      </trkpt>
      <trkpt lat="49.32255" lon="1.01009">
        <ele>94.349998474121</ele>
        <time>2013-03-24T09:59:23.000Z</time>
      </trkpt>
      <trkpt lat="49.32254" lon="1.01005">
        <ele>94.349998474121</ele>
        <time>2013-03-24T09:59:24.000Z</time>
      </trkpt>
      <trkpt lat="49.32253" lon="1.01">
        <ele>94.349998474121</ele>
        <time>2013-03-24T09:59:25.000Z</time>
      </trkpt>
      <trkpt lat="49.3225" lon="1.00994">
        <ele>93.870002746582</ele>
        <time>2013-03-24T09:59:26.000Z</time>
      </trkpt>
      <trkpt lat="49.32247" lon="1.00989">
        <ele>93.870002746582</ele>
        <time>2013-03-24T09:59:27.000Z</time>
      </trkpt>
      <trkpt lat="49.32244" lon="1.00983">
        <ele>93.870002746582</ele>
        <time>2013-03-24T09:59:28.000Z</time>
      </trkpt>
      <trkpt lat="49.3224" lon="1.00977">
        <ele>93.870002746582</ele>
        <time>2013-03-24T09:59:29.000Z</time>
      </trkpt>
      <trkpt lat="49.3223" lon="1.00952">
        <ele>94.830001831055</ele>
        <time>2013-03-24T09:59:37.000Z</time>
      </trkpt>
      <trkpt lat="49.32227" lon="1.00938">
        <ele>96.75</ele>
        <time>2013-03-24T09:59:43.000Z</time>
      </trkpt>
      <trkpt lat="49.32225" lon="1.00936">
        <ele>97.230003356934</ele>
        <time>2013-03-24T09:59:44.000Z</time>
      </trkpt>
      <trkpt lat="49.32224" lon="1.00933">
        <ele>97.230003356934</ele>
        <time>2013-03-24T09:59:45.000Z</time>
      </trkpt>
      <trkpt lat="49.3221" lon="1.00908">
        <ele>97.709999084473</ele>
        <time>2013-03-24T09:59:50.000Z</time>
      </trkpt>
      <trkpt lat="49.32207" lon="1.00901">
        <ele>97.230003356934</ele>
        <time>2013-03-24T09:59:51.000Z</time>
      </trkpt>
      <trkpt lat="49.32206" lon="1.00893">
        <ele>96.75</ele>
        <time>2013-03-24T09:59:52.000Z</time>
      </trkpt>
      <trkpt lat="49.32206" lon="1.00885">
        <ele>95.790000915527</ele>
        <time>2013-03-24T09:59:53.000Z</time>
      </trkpt>
      <trkpt lat="49.32205" lon="1.00876">
        <ele>95.309997558594</ele>
        <time>2013-03-24T09:59:54.000Z</time>
      </trkpt>
      <trkpt lat="49.32205" lon="1.00853">
        <ele>92.900001525879</ele>
        <time>2013-03-24T09:59:57.000Z</time>
      </trkpt>
      <trkpt lat="49.32204" lon="1.00838">
        <ele>91.459999084473</ele>
        <time>2013-03-24T09:59:59.000Z</time>
      </trkpt>
      <trkpt lat="49.32204" lon="1.00829">
        <ele>90.5</ele>
        <time>2013-03-24T10:00:00.000Z</time>
      </trkpt>
      <trkpt lat="49.32206" lon="1.00822">
        <ele>90.019996643066</ele>
        <time>2013-03-24T10:00:01.000Z</time>
      </trkpt>
      <trkpt lat="49.32209" lon="1.00795">
        <ele>86.180000305176</ele>
        <time>2013-03-24T10:00:06.000Z</time>
      </trkpt>
      <trkpt lat="49.32207" lon="1.0079">
        <ele>85.690002441406</ele>
        <time>2013-03-24T10:00:07.000Z</time>
      </trkpt>
      <trkpt lat="49.32207" lon="1.00786">
        <ele>85.209999084473</ele>
        <time>2013-03-24T10:00:08.000Z</time>
      </trkpt>
      <trkpt lat="49.32208" lon="1.00781">
        <ele>84.25</ele>
        <time>2013-03-24T10:00:09.000Z</time>
      </trkpt>
      <trkpt lat="49.3221" lon="1.00776">
        <ele>83.769996643066</ele>
        <time>2013-03-24T10:00:10.000Z</time>
      </trkpt>
      <trkpt lat="49.32212" lon="1.00772">
        <ele>82.809997558594</ele>
        <time>2013-03-24T10:00:11.000Z</time>
      </trkpt>
      <trkpt lat="49.32214" lon="1.00768">
        <ele>82.330001831055</ele>
        <time>2013-03-24T10:00:12.000Z</time>
      </trkpt>
      <trkpt lat="49.32214" lon="1.00765">
        <ele>81.849998474121</ele>
        <time>2013-03-24T10:00:13.000Z</time>
      </trkpt>
      <trkpt lat="49.32216" lon="1.0076">
        <ele>80.889999389648</ele>
        <time>2013-03-24T10:00:22.000Z</time>
      </trkpt>
      <trkpt lat="49.32215" lon="1.0076">
        <ele>84.25</ele>
        <time>2013-03-24T10:00:46.000Z</time>
      </trkpt>
      <trkpt lat="49.32215" lon="1.00759">
        <ele>90.980003356934</ele>
        <time>2013-03-24T10:01:15.000Z</time>
      </trkpt>
      <trkpt lat="49.32215" lon="1.00759">
        <ele>91.940002441406</ele>
        <time>2013-03-24T10:01:35.000Z</time>
      </trkpt>
      <trkpt lat="49.32215" lon="1.00757">
        <ele>92.900001525879</ele>
        <time>2013-03-24T10:02:05.000Z</time>
      </trkpt>
      <trkpt lat="49.32215" lon="1.00757">
        <ele>93.870002746582</ele>
        <time>2013-03-24T10:02:34.000Z</time>
      </trkpt>
      <trkpt lat="49.32214" lon="1.00758">
        <ele>97.230003356934</ele>
        <time>2013-03-24T10:03:05.000Z</time>
      </trkpt>
      <trkpt lat="49.32215" lon="1.00757">
        <ele>97.709999084473</ele>
        <time>2013-03-24T10:03:13.000Z</time>
      </trkpt>
      <trkpt lat="49.32217" lon="1.00756">
        <ele>97.230003356934</ele>
        <time>2013-03-24T10:03:14.000Z</time>
      </trkpt>
      <trkpt lat="49.3222" lon="1.00756">
        <ele>97.230003356934</ele>
        <time>2013-03-24T10:03:15.000Z</time>
      </trkpt>
      <trkpt lat="49.32223" lon="1.00757">
        <ele>97.230003356934</ele>
        <time>2013-03-24T10:03:16.000Z</time>
      </trkpt>
      <trkpt lat="49.32225" lon="1.00758">
        <ele>96.75</ele>
        <time>2013-03-24T10:03:17.000Z</time>
      </trkpt>
      <trkpt lat="49.32228" lon="1.00758">
        <ele>96.75</ele>
        <time>2013-03-24T10:03:18.000Z</time>
      </trkpt>
      <trkpt lat="49.32232" lon="1.00757">
        <ele>96.75</ele>
        <time>2013-03-24T10:03:19.000Z</time>
      </trkpt>
      <trkpt lat="49.32236" lon="1.00757">
        <ele>96.269996643066</ele>
        <time>2013-03-24T10:03:20.000Z</time>
      </trkpt>
      <trkpt lat="49.3224" lon="1.00758">
        <ele>96.269996643066</ele>
        <time>2013-03-24T10:03:21.000Z</time>
      </trkpt>
      <trkpt lat="49.32244" lon="1.00759">
        <ele>95.309997558594</ele>
        <time>2013-03-24T10:03:22.000Z</time>
      </trkpt>
      <trkpt lat="49.32248" lon="1.00758">
        <ele>94.830001831055</ele>
        <time>2013-03-24T10:03:23.000Z</time>
      </trkpt>
      <trkpt lat="49.3225" lon="1.00757">
        <ele>94.349998474121</ele>
        <time>2013-03-24T10:03:24.000Z</time>
      </trkpt>
      <trkpt lat="49.32253" lon="1.00756">
        <ele>93.870002746582</ele>
        <time>2013-03-24T10:03:25.000Z</time>
      </trkpt>
      <trkpt lat="49.32253" lon="1.00753">
        <ele>92.419998168945</ele>
        <time>2013-03-24T10:03:28.000Z</time>
      </trkpt>
      <trkpt lat="49.32252" lon="1.00752">
        <ele>91.940002441406</ele>
        <time>2013-03-24T10:03:29.000Z</time>
      </trkpt>
      <trkpt lat="49.3224" lon="1.00751">
        <ele>88.580001831055</ele>
        <time>2013-03-24T10:03:35.000Z</time>
      </trkpt>
      <trkpt lat="49.32227" lon="1.00743">
        <ele>86.660003662109</ele>
        <time>2013-03-24T10:03:43.000Z</time>
      </trkpt>
      <trkpt lat="49.32216" lon="1.00731">
        <ele>86.180000305176</ele>
        <time>2013-03-24T10:03:49.000Z</time>
      </trkpt>
      <trkpt lat="49.32214" lon="1.00712">
        <ele>85.690002441406</ele>
        <time>2013-03-24T10:03:56.000Z</time>
      </trkpt>
      <trkpt lat="49.32217" lon="1.00697">
        <ele>87.620002746582</ele>
        <time>2013-03-24T10:04:04.000Z</time>
      </trkpt>
      <trkpt lat="49.32227" lon="1.00674">
        <ele>90.5</ele>
        <time>2013-03-24T10:04:14.000Z</time>
      </trkpt>
      <trkpt lat="49.32228" lon="1.00671">
        <ele>90.5</ele>
        <time>2013-03-24T10:04:15.000Z</time>
      </trkpt>
      <trkpt lat="49.32235" lon="1.00657">
        <ele>89.540000915527</ele>
        <time>2013-03-24T10:04:22.000Z</time>
      </trkpt>
      <trkpt lat="49.32236" lon="1.00625">
        <ele>93.389999389648</ele>
        <time>2013-03-24T10:04:34.000Z</time>
      </trkpt>
      <trkpt lat="49.3224" lon="1.00579">
        <ele>97.230003356934</ele>
        <time>2013-03-24T10:04:47.000Z</time>
      </trkpt>
      <trkpt lat="49.32245" lon="1.00569">
        <ele>97.709999084473</ele>
        <time>2013-03-24T10:04:52.000Z</time>
      </trkpt>
      <trkpt lat="49.32249" lon="1.00562">
        <ele>98.190002441406</ele>
        <time>2013-03-24T10:04:55.000Z</time>
      </trkpt>
      <trkpt lat="49.32249" lon="1.00538">
        <ele>100.11000061035</ele>
        <time>2013-03-24T10:05:03.000Z</time>
      </trkpt>
      <trkpt lat="49.32249" lon="1.00498">
        <ele>101.55999755859</ele>
        <time>2013-03-24T10:05:14.000Z</time>
      </trkpt>
      <trkpt lat="49.32251" lon="1.00491">
        <ele>102.04000091553</ele>
        <time>2013-03-24T10:05:17.000Z</time>
      </trkpt>
      <trkpt lat="49.3225" lon="1.00487">
        <ele>102.04000091553</ele>
        <time>2013-03-24T10:05:19.000Z</time>
      </trkpt>
      <trkpt lat="49.32235" lon="1.00459">
        <ele>103.95999908447</ele>
        <time>2013-03-24T10:05:32.000Z</time>
      </trkpt>
      <trkpt lat="49.3223" lon="1.00456">
        <ele>103.95999908447</ele>
        <time>2013-03-24T10:05:36.000Z</time>
      </trkpt>
      <trkpt lat="49.32211" lon="1.00449">
        <ele>105.87999725342</ele>
        <time>2013-03-24T10:05:50.000Z</time>
      </trkpt>
      <trkpt lat="49.32202" lon="1.00449">
        <ele>107.80999755859</ele>
        <time>2013-03-24T10:05:55.000Z</time>
      </trkpt>
      <trkpt lat="49.32199" lon="1.00452">
        <ele>107.31999969482</ele>
        <time>2013-03-24T10:05:57.000Z</time>
      </trkpt>
      <trkpt lat="49.32191" lon="1.00461">
        <ele>107.31999969482</ele>
        <time>2013-03-24T10:06:02.000Z</time>
      </trkpt>
      <trkpt lat="49.32176" lon="1.00472">
        <ele>107.31999969482</ele>
        <time>2013-03-24T10:06:10.000Z</time>
      </trkpt>
      <trkpt lat="49.32158" lon="1.00483">
        <ele>107.31999969482</ele>
        <time>2013-03-24T10:06:18.000Z</time>
      </trkpt>
      <trkpt lat="49.32139" lon="1.00496">
        <ele>103.95999908447</ele>
        <time>2013-03-24T10:06:30.000Z</time>
      </trkpt>
      <trkpt lat="49.32109" lon="1.00509">
        <ele>100.59999847412</ele>
        <time>2013-03-24T10:06:42.000Z</time>
      </trkpt>
      <trkpt lat="49.32083" lon="1.00517">
        <ele>101.55999755859</ele>
        <time>2013-03-24T10:06:52.000Z</time>
      </trkpt>
      <trkpt lat="49.32074" lon="1.00521">
        <ele>102.51999664307</ele>
        <time>2013-03-24T10:06:56.000Z</time>
      </trkpt>
      <trkpt lat="49.32067" lon="1.00523">
        <ele>103</ele>
        <time>2013-03-24T10:06:59.000Z</time>
      </trkpt>
      <trkpt lat="49.32058" lon="1.00518">
        <ele>105.40000152588</ele>
        <time>2013-03-24T10:07:03.000Z</time>
      </trkpt>
      <trkpt lat="49.32056" lon="1.00508">
        <ele>107.80999755859</ele>
        <time>2013-03-24T10:07:07.000Z</time>
      </trkpt>
      <trkpt lat="49.32043" lon="1.00475">
        <ele>113.08999633789</ele>
        <time>2013-03-24T10:07:18.000Z</time>
      </trkpt>
      <trkpt lat="49.32031" lon="1.00457">
        <ele>115.01000213623</ele>
        <time>2013-03-24T10:07:24.000Z</time>
      </trkpt>
      <trkpt lat="49.32026" lon="1.00444">
        <ele>117.90000152588</ele>
        <time>2013-03-24T10:07:29.000Z</time>
      </trkpt>
      <trkpt lat="49.32016" lon="1.00401">
        <ele>117.90000152588</ele>
        <time>2013-03-24T10:07:39.000Z</time>
      </trkpt>
      <trkpt lat="49.31988" lon="1.00383">
        <ele>114.5299987793</ele>
        <time>2013-03-24T10:07:50.000Z</time>
      </trkpt>
      <trkpt lat="49.31961" lon="1.0037">
        <ele>115.98000335693</ele>
        <time>2013-03-24T10:07:59.000Z</time>
      </trkpt>
      <trkpt lat="49.31951" lon="1.00353">
        <ele>116.45999908447</ele>
        <time>2013-03-24T10:08:03.000Z</time>
      </trkpt>
      <trkpt lat="49.31933" lon="1.00345">
        <ele>115.98000335693</ele>
        <time>2013-03-24T10:08:08.000Z</time>
      </trkpt>
      <trkpt lat="49.31931" lon="1.00342">
        <ele>115.5</ele>
        <time>2013-03-24T10:08:09.000Z</time>
      </trkpt>
      <trkpt lat="49.31929" lon="1.00338">
        <ele>115.5</ele>
        <time>2013-03-24T10:08:10.000Z</time>
      </trkpt>
      <trkpt lat="49.31928" lon="1.00333">
        <ele>114.5299987793</ele>
        <time>2013-03-24T10:08:11.000Z</time>
      </trkpt>
      <trkpt lat="49.31927" lon="1.00327">
        <ele>114.05000305176</ele>
        <time>2013-03-24T10:08:12.000Z</time>
      </trkpt>
      <trkpt lat="49.31927" lon="1.00288">
        <ele>112.12999725342</ele>
        <time>2013-03-24T10:08:20.000Z</time>
      </trkpt>
      <trkpt lat="49.31926" lon="1.00284">
        <ele>111.65000152588</ele>
        <time>2013-03-24T10:08:21.000Z</time>
      </trkpt>
      <trkpt lat="49.31925" lon="1.0028">
        <ele>111.65000152588</ele>
        <time>2013-03-24T10:08:22.000Z</time>
      </trkpt>
      <trkpt lat="49.31923" lon="1.00277">
        <ele>111.16999816894</ele>
        <time>2013-03-24T10:08:23.000Z</time>
      </trkpt>
      <trkpt lat="49.3192" lon="1.00277">
        <ele>111.16999816894</ele>
        <time>2013-03-24T10:08:24.000Z</time>
      </trkpt>
      <trkpt lat="49.31916" lon="1.00276">
        <ele>110.69000244141</ele>
        <time>2013-03-24T10:08:25.000Z</time>
      </trkpt>
      <trkpt lat="49.31913" lon="1.00276">
        <ele>111.16999816894</ele>
        <time>2013-03-24T10:08:26.000Z</time>
      </trkpt>
      <trkpt lat="49.31908" lon="1.00275">
        <ele>111.16999816894</ele>
        <time>2013-03-24T10:08:27.000Z</time>
      </trkpt>
      <trkpt lat="49.31904" lon="1.00274">
        <ele>111.16999816894</ele>
        <time>2013-03-24T10:08:28.000Z</time>
      </trkpt>
      <trkpt lat="49.319" lon="1.00271">
        <ele>111.16999816894</ele>
        <time>2013-03-24T10:08:29.000Z</time>
      </trkpt>
      <trkpt lat="49.31896" lon="1.00267">
        <ele>110.69000244141</ele>
        <time>2013-03-24T10:08:30.000Z</time>
      </trkpt>
      <trkpt lat="49.31893" lon="1.00262">
        <ele>110.20999908447</ele>
        <time>2013-03-24T10:08:31.000Z</time>
      </trkpt>
      <trkpt lat="49.3189" lon="1.00256">
        <ele>109.73000335693</ele>
        <time>2013-03-24T10:08:32.000Z</time>
      </trkpt>
      <trkpt lat="49.31889" lon="1.00251">
        <ele>109.25</ele>
        <time>2013-03-24T10:08:33.000Z</time>
      </trkpt>
      <trkpt lat="49.31888" lon="1.00246">
        <ele>108.76999664307</ele>
        <time>2013-03-24T10:08:34.000Z</time>
      </trkpt>
      <trkpt lat="49.31889" lon="1.00242">
        <ele>107.80999755859</ele>
        <time>2013-03-24T10:08:35.000Z</time>
      </trkpt>
      <trkpt lat="49.31891" lon="1.0024">
        <ele>107.31999969482</ele>
        <time>2013-03-24T10:08:36.000Z</time>
      </trkpt>
      <trkpt lat="49.31894" lon="1.00237">
        <ele>106.36000061035</ele>
        <time>2013-03-24T10:08:37.000Z</time>
      </trkpt>
      <trkpt lat="49.31935" lon="1.00205">
        <ele>99.629997253418</ele>
        <time>2013-03-24T10:08:49.000Z</time>
      </trkpt>
      <trkpt lat="49.31962" lon="1.00184">
        <ele>98.190002441406</ele>
        <time>2013-03-24T10:08:58.000Z</time>
      </trkpt>
      <trkpt lat="49.31966" lon="1.00182">
        <ele>98.190002441406</ele>
        <time>2013-03-24T10:09:00.000Z</time>
      </trkpt>
      <trkpt lat="49.31968" lon="1.0018">
        <ele>98.190002441406</ele>
        <time>2013-03-24T10:09:01.000Z</time>
      </trkpt>
      <trkpt lat="49.3197" lon="1.00178">
        <ele>98.669998168945</ele>
        <time>2013-03-24T10:09:02.000Z</time>
      </trkpt>
      <trkpt lat="49.31973" lon="1.00175">
        <ele>98.669998168945</ele>
        <time>2013-03-24T10:09:03.000Z</time>
      </trkpt>
      <trkpt lat="49.31976" lon="1.00172">
        <ele>98.669998168945</ele>
        <time>2013-03-24T10:09:04.000Z</time>
      </trkpt>
      <trkpt lat="49.31984" lon="1.00166">
        <ele>98.669998168945</ele>
        <time>2013-03-24T10:09:06.000Z</time>
      </trkpt>
      <trkpt lat="49.31987" lon="1.00163">
        <ele>99.150001525879</ele>
        <time>2013-03-24T10:09:07.000Z</time>
      </trkpt>
      <trkpt lat="49.31991" lon="1.0016">
        <ele>99.629997253418</ele>
        <time>2013-03-24T10:09:08.000Z</time>
      </trkpt>
      <trkpt lat="49.32006" lon="1.00149">
        <ele>103</ele>
        <time>2013-03-24T10:09:13.000Z</time>
      </trkpt>
      <trkpt lat="49.32008" lon="1.00146">
        <ele>103</ele>
        <time>2013-03-24T10:09:14.000Z</time>
      </trkpt>
      <trkpt lat="49.32011" lon="1.00144">
        <ele>103</ele>
        <time>2013-03-24T10:09:15.000Z</time>
      </trkpt>
      <trkpt lat="49.32014" lon="1.00141">
        <ele>102.51999664307</ele>
        <time>2013-03-24T10:09:16.000Z</time>
      </trkpt>
      <trkpt lat="49.32018" lon="1.00138">
        <ele>103</ele>
        <time>2013-03-24T10:09:17.000Z</time>
      </trkpt>
      <trkpt lat="49.32022" lon="1.00135">
        <ele>103</ele>
        <time>2013-03-24T10:09:18.000Z</time>
      </trkpt>
      <trkpt lat="49.32054" lon="1.00109">
        <ele>102.51999664307</ele>
        <time>2013-03-24T10:09:25.000Z</time>
      </trkpt>
      <trkpt lat="49.32084" lon="1.00086">
        <ele>100.11000061035</ele>
        <time>2013-03-24T10:09:33.000Z</time>
      </trkpt>
      <trkpt lat="49.32088" lon="1.00083">
        <ele>100.11000061035</ele>
        <time>2013-03-24T10:09:34.000Z</time>
      </trkpt>
      <trkpt lat="49.32092" lon="1.0008">
        <ele>100.11000061035</ele>
        <time>2013-03-24T10:09:35.000Z</time>
      </trkpt>
      <trkpt lat="49.32096" lon="1.00077">
        <ele>99.629997253418</ele>
        <time>2013-03-24T10:09:36.000Z</time>
      </trkpt>
      <trkpt lat="49.321" lon="1.00074">
        <ele>99.150001525879</ele>
        <time>2013-03-24T10:09:37.000Z</time>
      </trkpt>
      <trkpt lat="49.32104" lon="1.0007">
        <ele>98.669998168945</ele>
        <time>2013-03-24T10:09:38.000Z</time>
      </trkpt>
      <trkpt lat="49.32109" lon="1.00067">
        <ele>98.190002441406</ele>
        <time>2013-03-24T10:09:39.000Z</time>
      </trkpt>
      <trkpt lat="49.32112" lon="1.00064">
        <ele>97.709999084473</ele>
        <time>2013-03-24T10:09:40.000Z</time>
      </trkpt>
      <trkpt lat="49.32114" lon="1.00059">
        <ele>97.230003356934</ele>
        <time>2013-03-24T10:09:41.000Z</time>
      </trkpt>
      <trkpt lat="49.32114" lon="1.00053">
        <ele>97.230003356934</ele>
        <time>2013-03-24T10:09:42.000Z</time>
      </trkpt>
      <trkpt lat="49.32111" lon="1.00047">
        <ele>97.230003356934</ele>
        <time>2013-03-24T10:09:43.000Z</time>
      </trkpt>
      <trkpt lat="49.32107" lon="1.00044">
        <ele>97.230003356934</ele>
        <time>2013-03-24T10:09:44.000Z</time>
      </trkpt>
      <trkpt lat="49.32103" lon="1.00042">
        <ele>97.709999084473</ele>
        <time>2013-03-24T10:09:45.000Z</time>
      </trkpt>
      <trkpt lat="49.32068" lon="1.00025">
        <ele>96.269996643066</ele>
        <time>2013-03-24T10:09:52.000Z</time>
      </trkpt>
      <trkpt lat="49.32058" lon="1.00021">
        <ele>95.790000915527</ele>
        <time>2013-03-24T10:09:54.000Z</time>
      </trkpt>
      <trkpt lat="49.32006" lon="0.99983">
        <ele>92.900001525879</ele>
        <time>2013-03-24T10:10:03.000Z</time>
      </trkpt>
      <trkpt lat="49.32003" lon="0.99976">
        <ele>92.419998168945</ele>
        <time>2013-03-24T10:10:04.000Z</time>
      </trkpt>
      <trkpt lat="49.32" lon="0.9997">
        <ele>91.940002441406</ele>
        <time>2013-03-24T10:10:05.000Z</time>
      </trkpt>
      <trkpt lat="49.31995" lon="0.99949">
        <ele>88.099998474121</ele>
        <time>2013-03-24T10:10:11.000Z</time>
      </trkpt>
      <trkpt lat="49.31997" lon="0.99947">
        <ele>87.139999389648</ele>
        <time>2013-03-24T10:10:12.000Z</time>
      </trkpt>
      <trkpt lat="49.31998" lon="0.99944">
        <ele>87.139999389648</ele>
        <time>2013-03-24T10:10:13.000Z</time>
      </trkpt>
      <trkpt lat="49.32" lon="0.99943">
        <ele>86.180000305176</ele>
        <time>2013-03-24T10:10:14.000Z</time>
      </trkpt>
      <trkpt lat="49.32" lon="0.99942">
        <ele>85.690002441406</ele>
        <time>2013-03-24T10:10:15.000Z</time>
      </trkpt>
      <trkpt lat="49.32001" lon="0.9994">
        <ele>85.690002441406</ele>
        <time>2013-03-24T10:10:16.000Z</time>
      </trkpt>
      <trkpt lat="49.32009" lon="0.99933">
        <ele>84.25</ele>
        <time>2013-03-24T10:10:27.000Z</time>
      </trkpt>
      <trkpt lat="49.32016" lon="0.99931">
        <ele>93.389999389648</ele>
        <time>2013-03-24T10:10:36.000Z</time>
      </trkpt>
      <trkpt lat="49.32021" lon="0.99929">
        <ele>96.75</ele>
        <time>2013-03-24T10:10:41.000Z</time>
      </trkpt>
      <trkpt lat="49.32028" lon="0.99922">
        <ele>101.08000183106</ele>
        <time>2013-03-24T10:10:52.000Z</time>
      </trkpt>
      <trkpt lat="49.32029" lon="0.99918">
        <ele>101.08000183106</ele>
        <time>2013-03-24T10:11:02.000Z</time>
      </trkpt>
      <trkpt lat="49.32029" lon="0.99913">
        <ele>101.08000183106</ele>
        <time>2013-03-24T10:11:04.000Z</time>
      </trkpt>
      <trkpt lat="49.3203" lon="0.99911">
        <ele>101.55999755859</ele>
        <time>2013-03-24T10:11:05.000Z</time>
      </trkpt>
      <trkpt lat="49.3203" lon="0.99909">
        <ele>101.55999755859</ele>
        <time>2013-03-24T10:11:06.000Z</time>
      </trkpt>
      <trkpt lat="49.32034" lon="0.99887">
        <ele>100.59999847412</ele>
        <time>2013-03-24T10:11:13.000Z</time>
      </trkpt>
      <trkpt lat="49.32054" lon="0.99884">
        <ele>100.11000061035</ele>
        <time>2013-03-24T10:11:21.000Z</time>
      </trkpt>
      <trkpt lat="49.32059" lon="0.99878">
        <ele>100.11000061035</ele>
        <time>2013-03-24T10:11:24.000Z</time>
      </trkpt>
      <trkpt lat="49.3206" lon="0.99856">
        <ele>99.150001525879</ele>
        <time>2013-03-24T10:11:29.000Z</time>
      </trkpt>
      <trkpt lat="49.3204" lon="0.99834">
        <ele>99.629997253418</ele>
        <time>2013-03-24T10:11:38.000Z</time>
      </trkpt>
      <trkpt lat="49.32024" lon="0.99834">
        <ele>97.709999084473</ele>
        <time>2013-03-24T10:11:44.000Z</time>
      </trkpt>
      <trkpt lat="49.32012" lon="0.99836">
        <ele>96.269996643066</ele>
        <time>2013-03-24T10:11:48.000Z</time>
      </trkpt>
      <trkpt lat="49.32014" lon="0.99819">
        <ele>93.389999389648</ele>
        <time>2013-03-24T10:11:55.000Z</time>
      </trkpt>
      <trkpt lat="49.32013" lon="0.99807">
        <ele>91.459999084473</ele>
        <time>2013-03-24T10:12:00.000Z</time>
      </trkpt>
      <trkpt lat="49.31992" lon="0.99786">
        <ele>87.139999389648</ele>
        <time>2013-03-24T10:12:10.000Z</time>
      </trkpt>
      <trkpt lat="49.31994" lon="0.99776">
        <ele>84.25</ele>
        <time>2013-03-24T10:12:15.000Z</time>
      </trkpt>
      <trkpt lat="49.31988" lon="0.99762">
        <ele>80.889999389648</ele>
        <time>2013-03-24T10:12:23.000Z</time>
      </trkpt>
      <trkpt lat="49.31974" lon="0.99757">
        <ele>78.480003356934</ele>
        <time>2013-03-24T10:12:32.000Z</time>
      </trkpt>
      <trkpt lat="49.31971" lon="0.99753">
        <ele>76.559997558594</ele>
        <time>2013-03-24T10:12:35.000Z</time>
      </trkpt>
      <trkpt lat="49.31956" lon="0.99739">
        <ele>70.309997558594</ele>
        <time>2013-03-24T10:12:44.000Z</time>
      </trkpt>
      <trkpt lat="49.31951" lon="0.99734">
        <ele>68.389999389648</ele>
        <time>2013-03-24T10:12:46.000Z</time>
      </trkpt>
      <trkpt lat="49.31948" lon="0.99714">
        <ele>65.029998779297</ele>
        <time>2013-03-24T10:12:52.000Z</time>
      </trkpt>
      <trkpt lat="49.31945" lon="0.99696">
        <ele>66.470001220703</ele>
        <time>2013-03-24T10:12:56.000Z</time>
      </trkpt>
      <trkpt lat="49.31928" lon="0.99695">
        <ele>65.029998779297</ele>
        <time>2013-03-24T10:13:05.000Z</time>
      </trkpt>
      <trkpt lat="49.31926" lon="0.99696">
        <ele>65.51000213623</ele>
        <time>2013-03-24T10:13:12.000Z</time>
      </trkpt>
      <trkpt lat="49.31922" lon="0.99695">
        <ele>66.470001220703</ele>
        <time>2013-03-24T10:13:15.000Z</time>
      </trkpt>
      <trkpt lat="49.31915" lon="0.99691">
        <ele>67.430000305176</ele>
        <time>2013-03-24T10:13:21.000Z</time>
      </trkpt>
      <trkpt lat="49.31915" lon="0.99684">
        <ele>68.389999389648</ele>
        <time>2013-03-24T10:13:27.000Z</time>
      </trkpt>
      <trkpt lat="49.31905" lon="0.9967">
        <ele>68.870002746582</ele>
        <time>2013-03-24T10:13:34.000Z</time>
      </trkpt>
      <trkpt lat="49.31901" lon="0.99677">
        <ele>70.309997558594</ele>
        <time>2013-03-24T10:13:43.000Z</time>
      </trkpt>
      <trkpt lat="49.31892" lon="0.99677">
        <ele>71.76000213623</ele>
        <time>2013-03-24T10:13:55.000Z</time>
      </trkpt>
      <trkpt lat="49.31889" lon="0.99679">
        <ele>73.199996948242</ele>
        <time>2013-03-24T10:14:11.000Z</time>
      </trkpt>
      <trkpt lat="49.31888" lon="0.99681">
        <ele>73.199996948242</ele>
        <time>2013-03-24T10:14:16.000Z</time>
      </trkpt>
      <trkpt lat="49.31882" lon="0.99683">
        <ele>73.199996948242</ele>
        <time>2013-03-24T10:14:18.000Z</time>
      </trkpt>
      <trkpt lat="49.31861" lon="0.99664">
        <ele>70.309997558594</ele>
        <time>2013-03-24T10:14:27.000Z</time>
      </trkpt>
      <trkpt lat="49.31847" lon="0.99671">
        <ele>68.389999389648</ele>
        <time>2013-03-24T10:14:34.000Z</time>
      </trkpt>
      <trkpt lat="49.31848" lon="0.99663">
        <ele>67.910003662109</ele>
        <time>2013-03-24T10:14:37.000Z</time>
      </trkpt>
      <trkpt lat="49.31857" lon="0.99651">
        <ele>66.470001220703</ele>
        <time>2013-03-24T10:14:42.000Z</time>
      </trkpt>
      <trkpt lat="49.31873" lon="0.99621">
        <ele>66.470001220703</ele>
        <time>2013-03-24T10:14:51.000Z</time>
      </trkpt>
      <trkpt lat="49.31874" lon="0.99619">
        <ele>66.949996948242</ele>
        <time>2013-03-24T10:14:52.000Z</time>
      </trkpt>
      <trkpt lat="49.3188" lon="0.99598">
        <ele>65.029998779297</ele>
        <time>2013-03-24T10:15:00.000Z</time>
      </trkpt>
      <trkpt lat="49.31884" lon="0.9959">
        <ele>64.550003051758</ele>
        <time>2013-03-24T10:15:04.000Z</time>
      </trkpt>
      <trkpt lat="49.3189" lon="0.99588">
        <ele>62.619998931885</ele>
        <time>2013-03-24T10:15:15.000Z</time>
      </trkpt>
      <trkpt lat="49.31895" lon="0.99586">
        <ele>61.180000305176</ele>
        <time>2013-03-24T10:15:20.000Z</time>
      </trkpt>
      <trkpt lat="49.31898" lon="0.99587">
        <ele>61.659999847412</ele>
        <time>2013-03-24T10:15:23.000Z</time>
      </trkpt>
      <trkpt lat="49.31916" lon="0.99576">
        <ele>62.139999389648</ele>
        <time>2013-03-24T10:15:33.000Z</time>
      </trkpt>
      <trkpt lat="49.31932" lon="0.99578">
        <ele>61.659999847412</ele>
        <time>2013-03-24T10:15:39.000Z</time>
      </trkpt>
      <trkpt lat="49.31936" lon="0.99578">
        <ele>61.180000305176</ele>
        <time>2013-03-24T10:15:41.000Z</time>
      </trkpt>
      <trkpt lat="49.31958" lon="0.99589">
        <ele>58.29999923706</ele>
        <time>2013-03-24T10:15:53.000Z</time>
      </trkpt>
      <trkpt lat="49.31974" lon="0.99599">
        <ele>53.970001220703</ele>
        <time>2013-03-24T10:16:01.000Z</time>
      </trkpt>
      <trkpt lat="49.31987" lon="0.99591">
        <ele>49.650001525879</ele>
        <time>2013-03-24T10:16:09.000Z</time>
      </trkpt>
      <trkpt lat="49.31973" lon="0.99572">
        <ele>44.840000152588</ele>
        <time>2013-03-24T10:16:17.000Z</time>
      </trkpt>
      <trkpt lat="49.31959" lon="0.99556">
        <ele>44.840000152588</ele>
        <time>2013-03-24T10:16:21.000Z</time>
      </trkpt>
      <trkpt lat="49.31955" lon="0.9955">
        <ele>44.360000610352</ele>
        <time>2013-03-24T10:16:22.000Z</time>
      </trkpt>
      <trkpt lat="49.3195" lon="0.99544">
        <ele>44.360000610352</ele>
        <time>2013-03-24T10:16:23.000Z</time>
      </trkpt>
      <trkpt lat="49.31942" lon="0.99532">
        <ele>43.880001068115</ele>
        <time>2013-03-24T10:16:25.000Z</time>
      </trkpt>
      <trkpt lat="49.31938" lon="0.99527">
        <ele>43.400001525879</ele>
        <time>2013-03-24T10:16:26.000Z</time>
      </trkpt>
      <trkpt lat="49.319" lon="0.99496">
        <ele>38.110000610352</ele>
        <time>2013-03-24T10:16:34.000Z</time>
      </trkpt>
      <trkpt lat="49.31895" lon="0.99494">
        <ele>37.630001068115</ele>
        <time>2013-03-24T10:16:35.000Z</time>
      </trkpt>
      <trkpt lat="49.31889" lon="0.99497">
        <ele>37.150001525879</ele>
        <time>2013-03-24T10:16:36.000Z</time>
      </trkpt>
      <trkpt lat="49.31883" lon="0.99501">
        <ele>37.150001525879</ele>
        <time>2013-03-24T10:16:37.000Z</time>
      </trkpt>
      <trkpt lat="49.31878" lon="0.99504">
        <ele>36.669998168945</ele>
        <time>2013-03-24T10:16:38.000Z</time>
      </trkpt>
      <trkpt lat="49.31873" lon="0.99508">
        <ele>36.669998168945</ele>
        <time>2013-03-24T10:16:39.000Z</time>
      </trkpt>
      <trkpt lat="49.31858" lon="0.99517">
        <ele>36.669998168945</ele>
        <time>2013-03-24T10:16:42.000Z</time>
      </trkpt>
      <trkpt lat="49.31853" lon="0.99519">
        <ele>36.669998168945</ele>
        <time>2013-03-24T10:16:43.000Z</time>
      </trkpt>
      <trkpt lat="49.3185" lon="0.99521">
        <ele>36.669998168945</ele>
        <time>2013-03-24T10:16:44.000Z</time>
      </trkpt>
      <trkpt lat="49.31816" lon="0.99554">
        <ele>36.669998168945</ele>
        <time>2013-03-24T10:16:53.000Z</time>
      </trkpt>
      <trkpt lat="49.31807" lon="0.99569">
        <ele>36.189998626709</ele>
        <time>2013-03-24T10:16:56.000Z</time>
      </trkpt>
      <trkpt lat="49.31802" lon="0.99574">
        <ele>36.189998626709</ele>
        <time>2013-03-24T10:16:57.000Z</time>
      </trkpt>
      <trkpt lat="49.31797" lon="0.9958">
        <ele>36.189998626709</ele>
        <time>2013-03-24T10:16:58.000Z</time>
      </trkpt>
      <trkpt lat="49.31789" lon="0.9959">
        <ele>36.189998626709</ele>
        <time>2013-03-24T10:17:00.000Z</time>
      </trkpt>
      <trkpt lat="49.31785" lon="0.99594">
        <ele>36.189998626709</ele>
        <time>2013-03-24T10:17:01.000Z</time>
      </trkpt>
      <trkpt lat="49.31781" lon="0.99598">
        <ele>36.189998626709</ele>
        <time>2013-03-24T10:17:02.000Z</time>
      </trkpt>
      <trkpt lat="49.31777" lon="0.99603">
        <ele>36.189998626709</ele>
        <time>2013-03-24T10:17:03.000Z</time>
      </trkpt>
      <trkpt lat="49.31774" lon="0.9961">
        <ele>36.669998168945</ele>
        <time>2013-03-24T10:17:04.000Z</time>
      </trkpt>
      <trkpt lat="49.31763" lon="0.9963">
        <ele>36.189998626709</ele>
        <time>2013-03-24T10:17:07.000Z</time>
      </trkpt>
      <trkpt lat="49.3176" lon="0.99636">
        <ele>36.189998626709</ele>
        <time>2013-03-24T10:17:08.000Z</time>
      </trkpt>
      <trkpt lat="49.31753" lon="0.99655">
        <ele>35.709999084473</ele>
        <time>2013-03-24T10:17:11.000Z</time>
      </trkpt>
      <trkpt lat="49.31752" lon="0.99661">
        <ele>35.709999084473</ele>
        <time>2013-03-24T10:17:12.000Z</time>
      </trkpt>
      <trkpt lat="49.3175" lon="0.99666">
        <ele>35.709999084473</ele>
        <time>2013-03-24T10:17:13.000Z</time>
      </trkpt>
      <trkpt lat="49.31748" lon="0.99667">
        <ele>35.709999084473</ele>
        <time>2013-03-24T10:17:14.000Z</time>
      </trkpt>
      <trkpt lat="49.31744" lon="0.99666">
        <ele>35.709999084473</ele>
        <time>2013-03-24T10:17:15.000Z</time>
      </trkpt>
      <trkpt lat="49.31741" lon="0.99663">
        <ele>35.709999084473</ele>
        <time>2013-03-24T10:17:16.000Z</time>
      </trkpt>
      <trkpt lat="49.31739" lon="0.99659">
        <ele>35.709999084473</ele>
        <time>2013-03-24T10:17:17.000Z</time>
      </trkpt>
      <trkpt lat="49.31738" lon="0.99653">
        <ele>35.709999084473</ele>
        <time>2013-03-24T10:17:18.000Z</time>
      </trkpt>
      <trkpt lat="49.31736" lon="0.99648">
        <ele>35.709999084473</ele>
        <time>2013-03-24T10:17:19.000Z</time>
      </trkpt>
      <trkpt lat="49.31733" lon="0.99645">
        <ele>35.229999542236</ele>
        <time>2013-03-24T10:17:20.000Z</time>
      </trkpt>
      <trkpt lat="49.3173" lon="0.99643">
        <ele>34.740001678467</ele>
        <time>2013-03-24T10:17:21.000Z</time>
      </trkpt>
      <trkpt lat="49.31725" lon="0.99644">
        <ele>33.29999923706</ele>
        <time>2013-03-24T10:17:24.000Z</time>
      </trkpt>
      <trkpt lat="49.31723" lon="0.99642">
        <ele>32.819999694824</ele>
        <time>2013-03-24T10:17:25.000Z</time>
      </trkpt>
      <trkpt lat="49.31722" lon="0.99639">
        <ele>32.340000152588</ele>
        <time>2013-03-24T10:17:26.000Z</time>
      </trkpt>
      <trkpt lat="49.31722" lon="0.99634">
        <ele>31.860000610352</ele>
        <time>2013-03-24T10:17:27.000Z</time>
      </trkpt>
      <trkpt lat="49.31723" lon="0.99627">
        <ele>31.860000610352</ele>
        <time>2013-03-24T10:17:28.000Z</time>
      </trkpt>
      <trkpt lat="49.31725" lon="0.99617">
        <ele>31.379999160767</ele>
        <time>2013-03-24T10:17:29.000Z</time>
      </trkpt>
      <trkpt lat="49.31734" lon="0.99582">
        <ele>29.459999084473</ele>
        <time>2013-03-24T10:17:32.000Z</time>
      </trkpt>
      <trkpt lat="49.31739" lon="0.99571">
        <ele>28.5</ele>
        <time>2013-03-24T10:17:33.000Z</time>
      </trkpt>
      <trkpt lat="49.31746" lon="0.99561">
        <ele>27.530000686646</ele>
        <time>2013-03-24T10:17:34.000Z</time>
      </trkpt>
      <trkpt lat="49.3181" lon="0.99455">
        <ele>20.319999694824</ele>
        <time>2013-03-24T10:17:44.000Z</time>
      </trkpt>
      <trkpt lat="49.31817" lon="0.99448">
        <ele>19.840000152588</ele>
        <time>2013-03-24T10:17:45.000Z</time>
      </trkpt>
      <trkpt lat="49.31831" lon="0.99437">
        <ele>20.319999694824</ele>
        <time>2013-03-24T10:17:47.000Z</time>
      </trkpt>
      <trkpt lat="49.31837" lon="0.99431">
        <ele>19.840000152588</ele>
        <time>2013-03-24T10:17:48.000Z</time>
      </trkpt>
      <trkpt lat="49.31865" lon="0.99396">
        <ele>20.809999465942</ele>
        <time>2013-03-24T10:17:56.000Z</time>
      </trkpt>
      <trkpt lat="49.31868" lon="0.99393">
        <ele>21.290000915527</ele>
        <time>2013-03-24T10:17:57.000Z</time>
      </trkpt>
      <trkpt lat="49.31883" lon="0.99378">
        <ele>20.809999465942</ele>
        <time>2013-03-24T10:18:01.000Z</time>
      </trkpt>
      <trkpt lat="49.31886" lon="0.99372">
        <ele>20.809999465942</ele>
        <time>2013-03-24T10:18:02.000Z</time>
      </trkpt>
      <trkpt lat="49.31887" lon="0.99365">
        <ele>20.809999465942</ele>
        <time>2013-03-24T10:18:03.000Z</time>
      </trkpt>
      <trkpt lat="49.31887" lon="0.99357">
        <ele>20.809999465942</ele>
        <time>2013-03-24T10:18:04.000Z</time>
      </trkpt>
      <trkpt lat="49.31886" lon="0.99348">
        <ele>20.809999465942</ele>
        <time>2013-03-24T10:18:05.000Z</time>
      </trkpt>
      <trkpt lat="49.31883" lon="0.99341">
        <ele>20.809999465942</ele>
        <time>2013-03-24T10:18:06.000Z</time>
      </trkpt>
      <trkpt lat="49.31879" lon="0.99335">
        <ele>21.290000915527</ele>
        <time>2013-03-24T10:18:07.000Z</time>
      </trkpt>
      <trkpt lat="49.31873" lon="0.9933">
        <ele>20.809999465942</ele>
        <time>2013-03-24T10:18:08.000Z</time>
      </trkpt>
      <trkpt lat="49.31868" lon="0.99328">
        <ele>20.809999465942</ele>
        <time>2013-03-24T10:18:09.000Z</time>
      </trkpt>
      <trkpt lat="49.31862" lon="0.99328">
        <ele>20.809999465942</ele>
        <time>2013-03-24T10:18:10.000Z</time>
      </trkpt>
      <trkpt lat="49.31857" lon="0.99329">
        <ele>20.809999465942</ele>
        <time>2013-03-24T10:18:11.000Z</time>
      </trkpt>
      <trkpt lat="49.31851" lon="0.9933">
        <ele>20.319999694824</ele>
        <time>2013-03-24T10:18:12.000Z</time>
      </trkpt>
      <trkpt lat="49.31847" lon="0.99331">
        <ele>19.840000152588</ele>
        <time>2013-03-24T10:18:13.000Z</time>
      </trkpt>
      <trkpt lat="49.31844" lon="0.99329">
        <ele>19.840000152588</ele>
        <time>2013-03-24T10:18:14.000Z</time>
      </trkpt>
      <trkpt lat="49.31841" lon="0.99328">
        <ele>19.360000610352</ele>
        <time>2013-03-24T10:18:15.000Z</time>
      </trkpt>
      <trkpt lat="49.31839" lon="0.99328">
        <ele>18.879999160767</ele>
        <time>2013-03-24T10:18:16.000Z</time>
      </trkpt>
      <trkpt lat="49.31836" lon="0.99331">
        <ele>18.879999160767</ele>
        <time>2013-03-24T10:18:17.000Z</time>
      </trkpt>
      <trkpt lat="49.31834" lon="0.99335">
        <ele>18.879999160767</ele>
        <time>2013-03-24T10:18:18.000Z</time>
      </trkpt>
      <trkpt lat="49.31832" lon="0.99339">
        <ele>18.39999961853</ele>
        <time>2013-03-24T10:18:19.000Z</time>
      </trkpt>
      <trkpt lat="49.3183" lon="0.99345">
        <ele>18.39999961853</ele>
        <time>2013-03-24T10:18:20.000Z</time>
      </trkpt>
      <trkpt lat="49.31819" lon="0.99376">
        <ele>17.920000076294</ele>
        <time>2013-03-24T10:18:25.000Z</time>
      </trkpt>
      <trkpt lat="49.31815" lon="0.9938">
        <ele>17.920000076294</ele>
        <time>2013-03-24T10:18:26.000Z</time>
      </trkpt>
      <trkpt lat="49.3181" lon="0.99382">
        <ele>17.920000076294</ele>
        <time>2013-03-24T10:18:27.000Z</time>
      </trkpt>
      <trkpt lat="49.31787" lon="0.99394">
        <ele>17.440000534058</ele>
        <time>2013-03-24T10:18:32.000Z</time>
      </trkpt>
      <trkpt lat="49.31783" lon="0.99395">
        <ele>17.440000534058</ele>
        <time>2013-03-24T10:18:33.000Z</time>
      </trkpt>
      <trkpt lat="49.31778" lon="0.99396">
        <ele>16.959999084473</ele>
        <time>2013-03-24T10:18:34.000Z</time>
      </trkpt>
      <trkpt lat="49.31774" lon="0.99398">
        <ele>16.479999542236</ele>
        <time>2013-03-24T10:18:35.000Z</time>
      </trkpt>
      <trkpt lat="49.3177" lon="0.994">
        <ele>16</ele>
        <time>2013-03-24T10:18:36.000Z</time>
      </trkpt>
      <trkpt lat="49.31755" lon="0.99407">
        <ele>15.039999961853</ele>
        <time>2013-03-24T10:18:39.000Z</time>
      </trkpt>
      <trkpt lat="49.31696" lon="0.99456">
        <ele>10.710000038147</ele>
        <time>2013-03-24T10:18:51.000Z</time>
      </trkpt>
      <trkpt lat="49.31647" lon="0.99481">
        <ele>8.789999961853</ele>
        <time>2013-03-24T10:19:00.000Z</time>
      </trkpt>
      <trkpt lat="49.31641" lon="0.99481">
        <ele>8.789999961853</ele>
        <time>2013-03-24T10:19:01.000Z</time>
      </trkpt>
      <trkpt lat="49.31635" lon="0.99481">
        <ele>8.3100004196167</ele>
        <time>2013-03-24T10:19:02.000Z</time>
      </trkpt>
      <trkpt lat="49.3163" lon="0.9948">
        <ele>8.3100004196167</ele>
        <time>2013-03-24T10:19:03.000Z</time>
      </trkpt>
      <trkpt lat="49.31623" lon="0.99478">
        <ele>8.3100004196167</ele>
        <time>2013-03-24T10:19:04.000Z</time>
      </trkpt>
      <trkpt lat="49.31612" lon="0.99477">
        <ele>8.3100004196167</ele>
        <time>2013-03-24T10:19:06.000Z</time>
      </trkpt>
      <trkpt lat="49.31606" lon="0.99479">
        <ele>8.3100004196167</ele>
        <time>2013-03-24T10:19:07.000Z</time>
      </trkpt>
      <trkpt lat="49.31599" lon="0.99481">
        <ele>7.8299999237061</ele>
        <time>2013-03-24T10:19:08.000Z</time>
      </trkpt>
      <trkpt lat="49.31594" lon="0.99485">
        <ele>7.8299999237061</ele>
        <time>2013-03-24T10:19:09.000Z</time>
      </trkpt>
      <trkpt lat="49.31588" lon="0.99489">
        <ele>7.8299999237061</ele>
        <time>2013-03-24T10:19:10.000Z</time>
      </trkpt>
      <trkpt lat="49.31583" lon="0.99492">
        <ele>7.8299999237061</ele>
        <time>2013-03-24T10:19:11.000Z</time>
      </trkpt>
      <trkpt lat="49.31497" lon="0.99524">
        <ele>9.75</ele>
        <time>2013-03-24T10:19:25.000Z</time>
      </trkpt>
      <trkpt lat="49.31408" lon="0.99555">
        <ele>9.2700004577637</ele>
        <time>2013-03-24T10:19:39.000Z</time>
      </trkpt>
      <trkpt lat="49.31384" lon="0.99565">
        <ele>9.2700004577637</ele>
        <time>2013-03-24T10:19:43.000Z</time>
      </trkpt>
      <trkpt lat="49.3129" lon="0.99598">
        <ele>7.8299999237061</ele>
        <time>2013-03-24T10:19:58.000Z</time>
      </trkpt>
      <trkpt lat="49.31274" lon="0.99609">
        <ele>7.8299999237061</ele>
        <time>2013-03-24T10:20:01.000Z</time>
      </trkpt>
      <trkpt lat="49.31264" lon="0.99613">
        <ele>7.3499999046326</ele>
        <time>2013-03-24T10:20:03.000Z</time>
      </trkpt>
      <trkpt lat="49.3124" lon="0.99615">
        <ele>7.3499999046326</ele>
        <time>2013-03-24T10:20:12.000Z</time>
      </trkpt>
      <trkpt lat="49.31237" lon="0.9962">
        <ele>7.8299999237061</ele>
        <time>2013-03-24T10:20:22.000Z</time>
      </trkpt>
      <trkpt lat="49.31237" lon="0.99623">
        <ele>8.3100004196167</ele>
        <time>2013-03-24T10:20:23.000Z</time>
      </trkpt>
      <trkpt lat="49.31236" lon="0.99626">
        <ele>8.3100004196167</ele>
        <time>2013-03-24T10:20:24.000Z</time>
      </trkpt>
      <trkpt lat="49.31233" lon="0.99631">
        <ele>8.3100004196167</ele>
        <time>2013-03-24T10:20:26.000Z</time>
      </trkpt>
      <trkpt lat="49.31229" lon="0.99636">
        <ele>8.3100004196167</ele>
        <time>2013-03-24T10:20:28.000Z</time>
      </trkpt>
      <trkpt lat="49.31224" lon="0.99639">
        <ele>8.3100004196167</ele>
        <time>2013-03-24T10:20:30.000Z</time>
      </trkpt>
      <trkpt lat="49.31221" lon="0.9964">
        <ele>8.3100004196167</ele>
        <time>2013-03-24T10:20:31.000Z</time>
      </trkpt>
      <trkpt lat="49.31219" lon="0.99641">
        <ele>8.3100004196167</ele>
        <time>2013-03-24T10:20:32.000Z</time>
      </trkpt>
      <trkpt lat="49.31217" lon="0.99644">
        <ele>8.789999961853</ele>
        <time>2013-03-24T10:20:33.000Z</time>
      </trkpt>
      <trkpt lat="49.31215" lon="0.99647">
        <ele>8.789999961853</ele>
        <time>2013-03-24T10:20:34.000Z</time>
      </trkpt>
      <trkpt lat="49.31213" lon="0.99653">
        <ele>8.789999961853</ele>
        <time>2013-03-24T10:20:36.000Z</time>
      </trkpt>
      <trkpt lat="49.3121" lon="0.99656">
        <ele>9.75</ele>
        <time>2013-03-24T10:20:45.000Z</time>
      </trkpt>
      <trkpt lat="49.3121" lon="0.99658">
        <ele>8.3100004196167</ele>
        <time>2013-03-24T10:21:11.000Z</time>
      </trkpt>
      <trkpt lat="49.3121" lon="0.99658">
        <ele>8.789999961853</ele>
        <time>2013-03-24T10:21:33.000Z</time>
      </trkpt>
      <trkpt lat="49.31188" lon="0.99683">
        <ele>10.229999542236</ele>
        <time>2013-03-24T10:21:43.000Z</time>
      </trkpt>
      <trkpt lat="49.31153" lon="0.99718">
        <ele>11.670000076294</ele>
        <time>2013-03-24T10:21:58.000Z</time>
      </trkpt>
      <trkpt lat="49.31117" lon="0.99762">
        <ele>16.479999542236</ele>
        <time>2013-03-24T10:22:13.000Z</time>
      </trkpt>
      <trkpt lat="49.31088" lon="0.99805">
        <ele>16.959999084473</ele>
        <time>2013-03-24T10:22:25.000Z</time>
      </trkpt>
      <trkpt lat="49.31085" lon="0.99809">
        <ele>16.959999084473</ele>
        <time>2013-03-24T10:22:26.000Z</time>
      </trkpt>
      <trkpt lat="49.3104" lon="0.99872">
        <ele>13.60000038147</ele>
        <time>2013-03-24T10:22:41.000Z</time>
      </trkpt>
      <trkpt lat="49.31002" lon="0.99931">
        <ele>13.119999885559</ele>
        <time>2013-03-24T10:22:54.000Z</time>
      </trkpt>
      <trkpt lat="49.30956" lon="1.00004">
        <ele>13.60000038147</ele>
        <time>2013-03-24T10:23:08.000Z</time>
      </trkpt>
      <trkpt lat="49.30925" lon="1.00052">
        <ele>13.119999885559</ele>
        <time>2013-03-24T10:23:19.000Z</time>
      </trkpt>
      <trkpt lat="49.30923" lon="1.00056">
        <ele>13.119999885559</ele>
        <time>2013-03-24T10:23:20.000Z</time>
      </trkpt>
      <trkpt lat="49.3092" lon="1.00062">
        <ele>13.119999885559</ele>
        <time>2013-03-24T10:23:21.000Z</time>
      </trkpt>
      <trkpt lat="49.30917" lon="1.00067">
        <ele>12.630000114441</ele>
        <time>2013-03-24T10:23:22.000Z</time>
      </trkpt>
      <trkpt lat="49.30915" lon="1.00073">
        <ele>12.630000114441</ele>
        <time>2013-03-24T10:23:23.000Z</time>
      </trkpt>
      <trkpt lat="49.30863" lon="1.00161">
        <ele>11.670000076294</ele>
        <time>2013-03-24T10:23:38.000Z</time>
      </trkpt>
      <trkpt lat="49.30833" lon="1.00217">
        <ele>10.710000038147</ele>
        <time>2013-03-24T10:23:46.000Z</time>
      </trkpt>
      <trkpt lat="49.30799" lon="1.00276">
        <ele>7.8299999237061</ele>
        <time>2013-03-24T10:23:54.000Z</time>
      </trkpt>
      <trkpt lat="49.30798" lon="1.00282">
        <ele>7.8299999237061</ele>
        <time>2013-03-24T10:23:55.000Z</time>
      </trkpt>
      <trkpt lat="49.30799" lon="1.00287">
        <ele>7.3499999046326</ele>
        <time>2013-03-24T10:23:56.000Z</time>
      </trkpt>
      <trkpt lat="49.30803" lon="1.00289">
        <ele>7.3499999046326</ele>
        <time>2013-03-24T10:23:57.000Z</time>
      </trkpt>
      <trkpt lat="49.30806" lon="1.00288">
        <ele>7.3499999046326</ele>
        <time>2013-03-24T10:23:58.000Z</time>
      </trkpt>
      <trkpt lat="49.3081" lon="1.00285">
        <ele>7.8299999237061</ele>
        <time>2013-03-24T10:23:59.000Z</time>
      </trkpt>
      <trkpt lat="49.30814" lon="1.00282">
        <ele>7.3499999046326</ele>
        <time>2013-03-24T10:24:00.000Z</time>
      </trkpt>
      <trkpt lat="49.30818" lon="1.00281">
        <ele>7.8299999237061</ele>
        <time>2013-03-24T10:24:01.000Z</time>
      </trkpt>
      <trkpt lat="49.30822" lon="1.00278">
        <ele>7.8299999237061</ele>
        <time>2013-03-24T10:24:02.000Z</time>
      </trkpt>
      <trkpt lat="49.30838" lon="1.0027">
        <ele>7.3499999046326</ele>
        <time>2013-03-24T10:24:06.000Z</time>
      </trkpt>
      <trkpt lat="49.30842" lon="1.00268">
        <ele>7.3499999046326</ele>
        <time>2013-03-24T10:24:07.000Z</time>
      </trkpt>
      <trkpt lat="49.30845" lon="1.00264">
        <ele>7.3499999046326</ele>
        <time>2013-03-24T10:24:08.000Z</time>
      </trkpt>
      <trkpt lat="49.30848" lon="1.00261">
        <ele>6.8699998855591</ele>
        <time>2013-03-24T10:24:09.000Z</time>
      </trkpt>
      <trkpt lat="49.3085" lon="1.00257">
        <ele>6.8699998855591</ele>
        <time>2013-03-24T10:24:10.000Z</time>
      </trkpt>
      <trkpt lat="49.30853" lon="1.00253">
        <ele>6.3899998664856</ele>
        <time>2013-03-24T10:24:11.000Z</time>
      </trkpt>
      <trkpt lat="49.30858" lon="1.00243">
        <ele>5.9099998474121</ele>
        <time>2013-03-24T10:24:13.000Z</time>
      </trkpt>
      <trkpt lat="49.30861" lon="1.00238">
        <ele>5.9099998474121</ele>
        <time>2013-03-24T10:24:14.000Z</time>
      </trkpt>
      <trkpt lat="49.30877" lon="1.00207">
        <ele>5.9099998474121</ele>
        <time>2013-03-24T10:24:19.000Z</time>
      </trkpt>
      <trkpt lat="49.30898" lon="1.00164">
        <ele>5.4200000762939</ele>
        <time>2013-03-24T10:24:26.000Z</time>
      </trkpt>
      <trkpt lat="49.30901" lon="1.00158">
        <ele>5.9099998474121</ele>
        <time>2013-03-24T10:24:27.000Z</time>
      </trkpt>
      <trkpt lat="49.30904" lon="1.00152">
        <ele>5.9099998474121</ele>
        <time>2013-03-24T10:24:28.000Z</time>
      </trkpt>
      <trkpt lat="49.30907" lon="1.00147">
        <ele>5.9099998474121</ele>
        <time>2013-03-24T10:24:29.000Z</time>
      </trkpt>
      <trkpt lat="49.30909" lon="1.00142">
        <ele>5.9099998474121</ele>
        <time>2013-03-24T10:24:30.000Z</time>
      </trkpt>
      <trkpt lat="49.30912" lon="1.00136">
        <ele>5.9099998474121</ele>
        <time>2013-03-24T10:24:31.000Z</time>
      </trkpt>
      <trkpt lat="49.30915" lon="1.0013">
        <ele>5.9099998474121</ele>
        <time>2013-03-24T10:24:32.000Z</time>
      </trkpt>
      <trkpt lat="49.30922" lon="1.00114">
        <ele>6.8699998855591</ele>
        <time>2013-03-24T10:24:35.000Z</time>
      </trkpt>
      <trkpt lat="49.30923" lon="1.00108">
        <ele>7.3499999046326</ele>
        <time>2013-03-24T10:24:36.000Z</time>
      </trkpt>
      <trkpt lat="49.30937" lon="1.00085">
        <ele>8.3100004196167</ele>
        <time>2013-03-24T10:24:42.000Z</time>
      </trkpt>
      <trkpt lat="49.30954" lon="1.00116">
        <ele>6.3899998664856</ele>
        <time>2013-03-24T10:24:49.000Z</time>
      </trkpt>
      <trkpt lat="49.30965" lon="1.00137">
        <ele>5.9099998474121</ele>
        <time>2013-03-24T10:24:53.000Z</time>
      </trkpt>
      <trkpt lat="49.30997" lon="1.00185">
        <ele>5.4200000762939</ele>
        <time>2013-03-24T10:25:04.000Z</time>
      </trkpt>
      <trkpt lat="49.31013" lon="1.00206">
        <ele>6.3899998664856</ele>
        <time>2013-03-24T10:25:11.000Z</time>
      </trkpt>
      <trkpt lat="49.31057" lon="1.00264">
        <ele>6.3899998664856</ele>
        <time>2013-03-24T10:25:26.000Z</time>
      </trkpt>
      <trkpt lat="49.31087" lon="1.00308">
        <ele>6.3899998664856</ele>
        <time>2013-03-24T10:25:37.000Z</time>
      </trkpt>
      <trkpt lat="49.31113" lon="1.00345">
        <ele>4.9400000572205</ele>
        <time>2013-03-24T10:25:49.000Z</time>
      </trkpt>
      <trkpt lat="49.3114" lon="1.00379">
        <ele>3.5</ele>
        <time>2013-03-24T10:26:00.000Z</time>
      </trkpt>
      <trkpt lat="49.31142" lon="1.00383">
        <ele>3.5</ele>
        <time>2013-03-24T10:26:01.000Z</time>
      </trkpt>
      <trkpt lat="49.31174" lon="1.00419">
        <ele>5.4200000762939</ele>
        <time>2013-03-24T10:26:13.000Z</time>
      </trkpt>
      <trkpt lat="49.31202" lon="1.00448">
        <ele>9.75</ele>
        <time>2013-03-24T10:26:24.000Z</time>
      </trkpt>
      <trkpt lat="49.31227" lon="1.00479">
        <ele>10.710000038147</ele>
        <time>2013-03-24T10:26:35.000Z</time>
      </trkpt>
      <trkpt lat="49.31255" lon="1.00512">
        <ele>11.670000076294</ele>
        <time>2013-03-24T10:26:46.000Z</time>
      </trkpt>
      <trkpt lat="49.31284" lon="1.00542">
        <ele>7.3499999046326</ele>
        <time>2013-03-24T10:26:57.000Z</time>
      </trkpt>
      <trkpt lat="49.31316" lon="1.00574">
        <ele>5.9099998474121</ele>
        <time>2013-03-24T10:27:09.000Z</time>
      </trkpt>
      <trkpt lat="49.31318" lon="1.00577">
        <ele>6.3899998664856</ele>
        <time>2013-03-24T10:27:10.000Z</time>
      </trkpt>
      <trkpt lat="49.31305" lon="1.00602">
        <ele>6.3899998664856</ele>
        <time>2013-03-24T10:27:18.000Z</time>
      </trkpt>
      <trkpt lat="49.31301" lon="1.00606">
        <ele>6.3899998664856</ele>
        <time>2013-03-24T10:27:19.000Z</time>
      </trkpt>
      <trkpt lat="49.31257" lon="1.00663">
        <ele>6.3899998664856</ele>
        <time>2013-03-24T10:27:34.000Z</time>
      </trkpt>
      <trkpt lat="49.31224" lon="1.00704">
        <ele>6.8699998855591</ele>
        <time>2013-03-24T10:27:46.000Z</time>
      </trkpt>
      <trkpt lat="49.31207" lon="1.00732">
        <ele>7.8299999237061</ele>
        <time>2013-03-24T10:27:56.000Z</time>
      </trkpt>
      <trkpt lat="49.31207" lon="1.00735">
        <ele>7.8299999237061</ele>
        <time>2013-03-24T10:27:57.000Z</time>
      </trkpt>
      <trkpt lat="49.31207" lon="1.00738">
        <ele>7.8299999237061</ele>
        <time>2013-03-24T10:27:58.000Z</time>
      </trkpt>
      <trkpt lat="49.31209" lon="1.00741">
        <ele>7.8299999237061</ele>
        <time>2013-03-24T10:27:59.000Z</time>
      </trkpt>
      <trkpt lat="49.31211" lon="1.00743">
        <ele>7.8299999237061</ele>
        <time>2013-03-24T10:28:00.000Z</time>
      </trkpt>
      <trkpt lat="49.31213" lon="1.00746">
        <ele>7.3499999046326</ele>
        <time>2013-03-24T10:28:01.000Z</time>
      </trkpt>
      <trkpt lat="49.3124" lon="1.00796">
        <ele>7.3499999046326</ele>
        <time>2013-03-24T10:28:16.000Z</time>
      </trkpt>
      <trkpt lat="49.31274" lon="1.00863">
        <ele>8.789999961853</ele>
        <time>2013-03-24T10:28:34.000Z</time>
      </trkpt>
      <trkpt lat="49.313" lon="1.00916">
        <ele>8.789999961853</ele>
        <time>2013-03-24T10:28:49.000Z</time>
      </trkpt>
      <trkpt lat="49.31303" lon="1.00921">
        <ele>8.3100004196167</ele>
        <time>2013-03-24T10:28:51.000Z</time>
      </trkpt>
      <trkpt lat="49.31303" lon="1.00923">
        <ele>8.3100004196167</ele>
        <time>2013-03-24T10:28:52.000Z</time>
      </trkpt>
      <trkpt lat="49.31307" lon="1.00949">
        <ele>8.789999961853</ele>
        <time>2013-03-24T10:29:02.000Z</time>
      </trkpt>
      <trkpt lat="49.31335" lon="1.01">
        <ele>9.75</ele>
        <time>2013-03-24T10:29:13.000Z</time>
      </trkpt>
      <trkpt lat="49.31336" lon="1.01006">
        <ele>9.75</ele>
        <time>2013-03-24T10:29:14.000Z</time>
      </trkpt>
      <trkpt lat="49.31336" lon="1.01013">
        <ele>10.229999542236</ele>
        <time>2013-03-24T10:29:15.000Z</time>
      </trkpt>
      <trkpt lat="49.31337" lon="1.0102">
        <ele>10.229999542236</ele>
        <time>2013-03-24T10:29:16.000Z</time>
      </trkpt>
      <trkpt lat="49.31339" lon="1.01027">
        <ele>10.229999542236</ele>
        <time>2013-03-24T10:29:17.000Z</time>
      </trkpt>
      <trkpt lat="49.31342" lon="1.01032">
        <ele>10.710000038147</ele>
        <time>2013-03-24T10:29:18.000Z</time>
      </trkpt>
      <trkpt lat="49.31345" lon="1.01037">
        <ele>10.710000038147</ele>
        <time>2013-03-24T10:29:19.000Z</time>
      </trkpt>
      <trkpt lat="49.31353" lon="1.01047">
        <ele>10.710000038147</ele>
        <time>2013-03-24T10:29:21.000Z</time>
      </trkpt>
      <trkpt lat="49.31356" lon="1.01052">
        <ele>10.710000038147</ele>
        <time>2013-03-24T10:29:22.000Z</time>
      </trkpt>
      <trkpt lat="49.31362" lon="1.01064">
        <ele>10.710000038147</ele>
        <time>2013-03-24T10:29:24.000Z</time>
      </trkpt>
      <trkpt lat="49.31365" lon="1.0107">
        <ele>11.189999580383</ele>
        <time>2013-03-24T10:29:25.000Z</time>
      </trkpt>
      <trkpt lat="49.31367" lon="1.01076">
        <ele>10.710000038147</ele>
        <time>2013-03-24T10:29:26.000Z</time>
      </trkpt>
      <trkpt lat="49.31414" lon="1.0118">
        <ele>11.670000076294</ele>
        <time>2013-03-24T10:29:41.000Z</time>
      </trkpt>
      <trkpt lat="49.31456" lon="1.01309">
        <ele>10.710000038147</ele>
        <time>2013-03-24T10:29:57.000Z</time>
      </trkpt>
      <trkpt lat="49.31511" lon="1.01469">
        <ele>10.229999542236</ele>
        <time>2013-03-24T10:30:16.000Z</time>
      </trkpt>
      <trkpt lat="49.31549" lon="1.01549">
        <ele>10.229999542236</ele>
        <time>2013-03-24T10:30:29.000Z</time>
      </trkpt>
      <trkpt lat="49.3156" lon="1.01573">
        <ele>9.75</ele>
        <time>2013-03-24T10:30:36.000Z</time>
      </trkpt>
      <trkpt lat="49.31558" lon="1.01575">
        <ele>9.2700004577637</ele>
        <time>2013-03-24T10:30:37.000Z</time>
      </trkpt>
      <trkpt lat="49.31556" lon="1.01576">
        <ele>9.2700004577637</ele>
        <time>2013-03-24T10:30:38.000Z</time>
      </trkpt>
      <trkpt lat="49.31555" lon="1.01577">
        <ele>9.2700004577637</ele>
        <time>2013-03-24T10:30:39.000Z</time>
      </trkpt>
      <trkpt lat="49.31553" lon="1.01576">
        <ele>9.2700004577637</ele>
        <time>2013-03-24T10:30:40.000Z</time>
      </trkpt>
      <trkpt lat="49.31552" lon="1.01576">
        <ele>9.2700004577637</ele>
        <time>2013-03-24T10:30:41.000Z</time>
      </trkpt>
      <trkpt lat="49.31551" lon="1.01578">
        <ele>9.2700004577637</ele>
        <time>2013-03-24T10:30:42.000Z</time>
      </trkpt>
      <trkpt lat="49.31549" lon="1.0158">
        <ele>9.2700004577637</ele>
        <time>2013-03-24T10:30:43.000Z</time>
      </trkpt>
      <trkpt lat="49.31547" lon="1.01582">
        <ele>9.75</ele>
        <time>2013-03-24T10:30:44.000Z</time>
      </trkpt>
      <trkpt lat="49.31545" lon="1.01583">
        <ele>9.75</ele>
        <time>2013-03-24T10:30:45.000Z</time>
      </trkpt>
      <trkpt lat="49.31542" lon="1.01584">
        <ele>9.2700004577637</ele>
        <time>2013-03-24T10:30:46.000Z</time>
      </trkpt>
      <trkpt lat="49.31538" lon="1.01584">
        <ele>8.789999961853</ele>
        <time>2013-03-24T10:30:47.000Z</time>
      </trkpt>
      <trkpt lat="49.31533" lon="1.01584">
        <ele>8.789999961853</ele>
        <time>2013-03-24T10:30:48.000Z</time>
      </trkpt>
      <trkpt lat="49.31529" lon="1.01585">
        <ele>8.789999961853</ele>
        <time>2013-03-24T10:30:49.000Z</time>
      </trkpt>
      <trkpt lat="49.31526" lon="1.01586">
        <ele>8.3100004196167</ele>
        <time>2013-03-24T10:30:50.000Z</time>
      </trkpt>
      <trkpt lat="49.31523" lon="1.01587">
        <ele>8.3100004196167</ele>
        <time>2013-03-24T10:30:51.000Z</time>
      </trkpt>
      <trkpt lat="49.3152" lon="1.01588">
        <ele>8.3100004196167</ele>
        <time>2013-03-24T10:30:52.000Z</time>
      </trkpt>
      <trkpt lat="49.31483" lon="1.01606">
        <ele>6.3899998664856</ele>
        <time>2013-03-24T10:31:03.000Z</time>
      </trkpt>
      <trkpt lat="49.31474" lon="1.0161">
        <ele>6.8699998855591</ele>
        <time>2013-03-24T10:31:05.000Z</time>
      </trkpt>
      <trkpt lat="49.31411" lon="1.01644">
        <ele>7.3499999046326</ele>
        <time>2013-03-24T10:31:18.000Z</time>
      </trkpt>
      <trkpt lat="49.31408" lon="1.0165">
        <ele>7.3499999046326</ele>
        <time>2013-03-24T10:31:19.000Z</time>
      </trkpt>
      <trkpt lat="49.31406" lon="1.01656">
        <ele>7.3499999046326</ele>
        <time>2013-03-24T10:31:20.000Z</time>
      </trkpt>
      <trkpt lat="49.31405" lon="1.01663">
        <ele>7.3499999046326</ele>
        <time>2013-03-24T10:31:21.000Z</time>
      </trkpt>
      <trkpt lat="49.31404" lon="1.01668">
        <ele>7.3499999046326</ele>
        <time>2013-03-24T10:31:22.000Z</time>
      </trkpt>
      <trkpt lat="49.31413" lon="1.01699">
        <ele>7.8299999237061</ele>
        <time>2013-03-24T10:31:30.000Z</time>
      </trkpt>
      <trkpt lat="49.31414" lon="1.01707">
        <ele>9.2700004577637</ele>
        <time>2013-03-24T10:31:38.000Z</time>
      </trkpt>
      <trkpt lat="49.31413" lon="1.01711">
        <ele>10.229999542236</ele>
        <time>2013-03-24T10:31:43.000Z</time>
      </trkpt>
      <trkpt lat="49.31416" lon="1.0172">
        <ele>9.75</ele>
        <time>2013-03-24T10:31:47.000Z</time>
      </trkpt>
      <trkpt lat="49.31416" lon="1.01729">
        <ele>9.75</ele>
        <time>2013-03-24T10:31:49.000Z</time>
      </trkpt>
      <trkpt lat="49.31419" lon="1.01764">
        <ele>11.189999580383</ele>
        <time>2013-03-24T10:31:57.000Z</time>
      </trkpt>
      <trkpt lat="49.31425" lon="1.01787">
        <ele>12.14999961853</ele>
        <time>2013-03-24T10:32:01.000Z</time>
      </trkpt>
      <trkpt lat="49.31443" lon="1.01791">
        <ele>11.189999580383</ele>
        <time>2013-03-24T10:32:07.000Z</time>
      </trkpt>
      <trkpt lat="49.31461" lon="1.01839">
        <ele>11.189999580383</ele>
        <time>2013-03-24T10:32:17.000Z</time>
      </trkpt>
      <trkpt lat="49.31476" lon="1.01895">
        <ele>10.229999542236</ele>
        <time>2013-03-24T10:32:28.000Z</time>
      </trkpt>
      <trkpt lat="49.31478" lon="1.01902">
        <ele>10.229999542236</ele>
        <time>2013-03-24T10:32:29.000Z</time>
      </trkpt>
      <trkpt lat="49.3148" lon="1.01909">
        <ele>10.229999542236</ele>
        <time>2013-03-24T10:32:30.000Z</time>
      </trkpt>
      <trkpt lat="49.31491" lon="1.01964">
        <ele>10.229999542236</ele>
        <time>2013-03-24T10:32:38.000Z</time>
      </trkpt>
      <trkpt lat="49.31508" lon="1.02069">
        <ele>10.710000038147</ele>
        <time>2013-03-24T10:32:53.000Z</time>
      </trkpt>
      <trkpt lat="49.31514" lon="1.0212">
        <ele>9.75</ele>
        <time>2013-03-24T10:33:00.000Z</time>
      </trkpt>
      <trkpt lat="49.31516" lon="1.02136">
        <ele>9.75</ele>
        <time>2013-03-24T10:33:02.000Z</time>
      </trkpt>
      <trkpt lat="49.31519" lon="1.02149">
        <ele>9.75</ele>
        <time>2013-03-24T10:33:04.000Z</time>
      </trkpt>
      <trkpt lat="49.3152" lon="1.02156">
        <ele>9.75</ele>
        <time>2013-03-24T10:33:05.000Z</time>
      </trkpt>
      <trkpt lat="49.31519" lon="1.02163">
        <ele>9.75</ele>
        <time>2013-03-24T10:33:06.000Z</time>
      </trkpt>
      <trkpt lat="49.3151" lon="1.02228">
        <ele>9.75</ele>
        <time>2013-03-24T10:33:15.000Z</time>
      </trkpt>
      <trkpt lat="49.31509" lon="1.02236">
        <ele>9.75</ele>
        <time>2013-03-24T10:33:16.000Z</time>
      </trkpt>
      <trkpt lat="49.31509" lon="1.02244">
        <ele>10.229999542236</ele>
        <time>2013-03-24T10:33:17.000Z</time>
      </trkpt>
      <trkpt lat="49.31509" lon="1.02275">
        <ele>9.75</ele>
        <time>2013-03-24T10:33:21.000Z</time>
      </trkpt>
      <trkpt lat="49.31507" lon="1.0229">
        <ele>9.75</ele>
        <time>2013-03-24T10:33:23.000Z</time>
      </trkpt>
      <trkpt lat="49.31507" lon="1.02305">
        <ele>9.2700004577637</ele>
        <time>2013-03-24T10:33:25.000Z</time>
      </trkpt>
      <trkpt lat="49.31509" lon="1.02328">
        <ele>9.2700004577637</ele>
        <time>2013-03-24T10:33:29.000Z</time>
      </trkpt>
      <trkpt lat="49.31509" lon="1.02334">
        <ele>9.2700004577637</ele>
        <time>2013-03-24T10:33:30.000Z</time>
      </trkpt>
      <trkpt lat="49.31509" lon="1.02341">
        <ele>9.2700004577637</ele>
        <time>2013-03-24T10:33:31.000Z</time>
      </trkpt>
      <trkpt lat="49.31509" lon="1.02347">
        <ele>8.789999961853</ele>
        <time>2013-03-24T10:33:32.000Z</time>
      </trkpt>
      <trkpt lat="49.31509" lon="1.02353">
        <ele>8.789999961853</ele>
        <time>2013-03-24T10:33:33.000Z</time>
      </trkpt>
      <trkpt lat="49.3151" lon="1.0236">
        <ele>8.789999961853</ele>
        <time>2013-03-24T10:33:34.000Z</time>
      </trkpt>
      <trkpt lat="49.31512" lon="1.02388">
        <ele>8.3100004196167</ele>
        <time>2013-03-24T10:33:40.000Z</time>
      </trkpt>
      <trkpt lat="49.31511" lon="1.02391">
        <ele>8.3100004196167</ele>
        <time>2013-03-24T10:33:41.000Z</time>
      </trkpt>
      <trkpt lat="49.31511" lon="1.02413">
        <ele>9.2700004577637</ele>
        <time>2013-03-24T10:33:48.000Z</time>
      </trkpt>
      <trkpt lat="49.31516" lon="1.02427">
        <ele>8.789999961853</ele>
        <time>2013-03-24T10:33:54.000Z</time>
      </trkpt>
      <trkpt lat="49.31517" lon="1.02451">
        <ele>9.2700004577637</ele>
        <time>2013-03-24T10:34:04.000Z</time>
      </trkpt>
      <trkpt lat="49.31514" lon="1.02464">
        <ele>8.789999961853</ele>
        <time>2013-03-24T10:34:10.000Z</time>
      </trkpt>
      <trkpt lat="49.31512" lon="1.02476">
        <ele>8.3100004196167</ele>
        <time>2013-03-24T10:34:20.000Z</time>
      </trkpt>
      <trkpt lat="49.31512" lon="1.02486">
        <ele>11.189999580383</ele>
        <time>2013-03-24T10:34:31.000Z</time>
      </trkpt>
      <trkpt lat="49.31514" lon="1.02494">
        <ele>10.710000038147</ele>
        <time>2013-03-24T10:34:44.000Z</time>
      </trkpt>
      <trkpt lat="49.31517" lon="1.0252">
        <ele>11.189999580383</ele>
        <time>2013-03-24T10:34:59.000Z</time>
      </trkpt>
      <trkpt lat="49.31517" lon="1.02521">
        <ele>10.710000038147</ele>
        <time>2013-03-24T10:35:01.000Z</time>
      </trkpt>
      <trkpt lat="49.31518" lon="1.02528">
        <ele>10.710000038147</ele>
        <time>2013-03-24T10:35:06.000Z</time>
      </trkpt>
      <trkpt lat="49.31517" lon="1.02539">
        <ele>10.710000038147</ele>
        <time>2013-03-24T10:35:18.000Z</time>
      </trkpt>
      <trkpt lat="49.31517" lon="1.0254">
        <ele>10.229999542236</ele>
        <time>2013-03-24T10:35:21.000Z</time>
      </trkpt>
      <trkpt lat="49.3152" lon="1.02553">
        <ele>10.229999542236</ele>
        <time>2013-03-24T10:35:26.000Z</time>
      </trkpt>
      <trkpt lat="49.31521" lon="1.02572">
        <ele>10.229999542236</ele>
        <time>2013-03-24T10:35:30.000Z</time>
      </trkpt>
      <trkpt lat="49.31529" lon="1.02605">
        <ele>9.75</ele>
        <time>2013-03-24T10:35:36.000Z</time>
      </trkpt>
      <trkpt lat="49.3154" lon="1.02661">
        <ele>9.75</ele>
        <time>2013-03-24T10:35:47.000Z</time>
      </trkpt>
      <trkpt lat="49.31549" lon="1.02716">
        <ele>9.75</ele>
        <time>2013-03-24T10:35:58.000Z</time>
      </trkpt>
      <trkpt lat="49.31559" lon="1.02714">
        <ele>9.75</ele>
        <time>2013-03-24T10:36:02.000Z</time>
      </trkpt>
      <trkpt lat="49.3159" lon="1.0271">
        <ele>9.75</ele>
        <time>2013-03-24T10:36:10.000Z</time>
      </trkpt>
      <trkpt lat="49.31625" lon="1.02699">
        <ele>10.229999542236</ele>
        <time>2013-03-24T10:36:20.000Z</time>
      </trkpt>
      <trkpt lat="49.31632" lon="1.02719">
        <ele>9.75</ele>
        <time>2013-03-24T10:36:24.000Z</time>
      </trkpt>
      <trkpt lat="49.31646" lon="1.02768">
        <ele>9.75</ele>
        <time>2013-03-24T10:36:34.000Z</time>
      </trkpt>
      <trkpt lat="49.31649" lon="1.028">
        <ele>7.8299999237061</ele>
        <time>2013-03-24T10:36:43.000Z</time>
      </trkpt>
      <trkpt lat="49.31649" lon="1.02803">
        <ele>6.8699998855591</ele>
        <time>2013-03-24T10:36:52.000Z</time>
      </trkpt>
      <trkpt lat="49.31651" lon="1.02808">
        <ele>7.3499999046326</ele>
        <time>2013-03-24T10:36:55.000Z</time>
      </trkpt>
      <trkpt lat="49.31652" lon="1.02812">
        <ele>6.8699998855591</ele>
        <time>2013-03-24T10:37:03.000Z</time>
      </trkpt>
      <trkpt lat="49.31652" lon="1.02816">
        <ele>6.3899998664856</ele>
        <time>2013-03-24T10:37:07.000Z</time>
      </trkpt>
      <trkpt lat="49.31654" lon="1.02831">
        <ele>6.3899998664856</ele>
        <time>2013-03-24T10:37:11.000Z</time>
      </trkpt>
      <trkpt lat="49.31657" lon="1.02878">
        <ele>7.3499999046326</ele>
        <time>2013-03-24T10:37:21.000Z</time>
      </trkpt>
      <trkpt lat="49.31659" lon="1.02917">
        <ele>6.8699998855591</ele>
        <time>2013-03-24T10:37:29.000Z</time>
      </trkpt>
      <trkpt lat="49.31686" lon="1.02926">
        <ele>7.3499999046326</ele>
        <time>2013-03-24T10:37:40.000Z</time>
      </trkpt>
      <trkpt lat="49.31744" lon="1.02902">
        <ele>9.2700004577637</ele>
        <time>2013-03-24T10:37:56.000Z</time>
      </trkpt>
      <trkpt lat="49.31747" lon="1.02905">
        <ele>9.2700004577637</ele>
        <time>2013-03-24T10:37:57.000Z</time>
      </trkpt>
      <trkpt lat="49.31749" lon="1.02909">
        <ele>9.75</ele>
        <time>2013-03-24T10:37:58.000Z</time>
      </trkpt>
      <trkpt lat="49.31752" lon="1.0292">
        <ele>10.710000038147</ele>
        <time>2013-03-24T10:38:00.000Z</time>
      </trkpt>
      <trkpt lat="49.31766" lon="1.03016">
        <ele>11.189999580383</ele>
        <time>2013-03-24T10:38:14.000Z</time>
      </trkpt>
      <trkpt lat="49.3177" lon="1.03044">
        <ele>10.710000038147</ele>
        <time>2013-03-24T10:38:18.000Z</time>
      </trkpt>
      <trkpt lat="49.3177" lon="1.03051">
        <ele>10.710000038147</ele>
        <time>2013-03-24T10:38:19.000Z</time>
      </trkpt>
      <trkpt lat="49.3177" lon="1.03058">
        <ele>10.710000038147</ele>
        <time>2013-03-24T10:38:20.000Z</time>
      </trkpt>
      <trkpt lat="49.31771" lon="1.03064">
        <ele>10.710000038147</ele>
        <time>2013-03-24T10:38:21.000Z</time>
      </trkpt>
      <trkpt lat="49.31773" lon="1.0307">
        <ele>10.710000038147</ele>
        <time>2013-03-24T10:38:22.000Z</time>
      </trkpt>
      <trkpt lat="49.31777" lon="1.03093">
        <ele>10.710000038147</ele>
        <time>2013-03-24T10:38:26.000Z</time>
      </trkpt>
      <trkpt lat="49.31778" lon="1.03099">
        <ele>10.229999542236</ele>
        <time>2013-03-24T10:38:27.000Z</time>
      </trkpt>
      <trkpt lat="49.31782" lon="1.03119">
        <ele>10.229999542236</ele>
        <time>2013-03-24T10:38:30.000Z</time>
      </trkpt>
      <trkpt lat="49.31793" lon="1.03162">
        <ele>10.229999542236</ele>
        <time>2013-03-24T10:38:37.000Z</time>
      </trkpt>
      <trkpt lat="49.31796" lon="1.03163">
        <ele>10.229999542236</ele>
        <time>2013-03-24T10:38:38.000Z</time>
      </trkpt>
      <trkpt lat="49.31799" lon="1.03165">
        <ele>10.229999542236</ele>
        <time>2013-03-24T10:38:39.000Z</time>
      </trkpt>
      <trkpt lat="49.31802" lon="1.03168">
        <ele>10.710000038147</ele>
        <time>2013-03-24T10:38:49.000Z</time>
      </trkpt>
      <trkpt lat="49.31802" lon="1.0317">
        <ele>10.710000038147</ele>
        <time>2013-03-24T10:38:51.000Z</time>
      </trkpt>
      <trkpt lat="49.31802" lon="1.03175">
        <ele>10.710000038147</ele>
        <time>2013-03-24T10:38:58.000Z</time>
      </trkpt>
      <trkpt lat="49.31813" lon="1.03225">
        <ele>9.75</ele>
        <time>2013-03-24T10:39:09.000Z</time>
      </trkpt>
      <trkpt lat="49.31817" lon="1.03242">
        <ele>9.2700004577637</ele>
        <time>2013-03-24T10:39:18.000Z</time>
      </trkpt>
      <trkpt lat="49.31828" lon="1.03275">
        <ele>9.75</ele>
        <time>2013-03-24T10:39:27.000Z</time>
      </trkpt>
      <trkpt lat="49.31833" lon="1.03297">
        <ele>9.2700004577637</ele>
        <time>2013-03-24T10:39:31.000Z</time>
      </trkpt>
      <trkpt lat="49.31834" lon="1.03303">
        <ele>9.2700004577637</ele>
        <time>2013-03-24T10:39:32.000Z</time>
      </trkpt>
      <trkpt lat="49.31835" lon="1.0331">
        <ele>9.2700004577637</ele>
        <time>2013-03-24T10:39:33.000Z</time>
      </trkpt>
      <trkpt lat="49.3184" lon="1.03334">
        <ele>9.2700004577637</ele>
        <time>2013-03-24T10:39:37.000Z</time>
      </trkpt>
      <trkpt lat="49.31841" lon="1.0334">
        <ele>8.789999961853</ele>
        <time>2013-03-24T10:39:38.000Z</time>
      </trkpt>
      <trkpt lat="49.31845" lon="1.03366">
        <ele>8.789999961853</ele>
        <time>2013-03-24T10:39:43.000Z</time>
      </trkpt>
      <trkpt lat="49.31856" lon="1.03425">
        <ele>7.8299999237061</ele>
        <time>2013-03-24T10:39:52.000Z</time>
      </trkpt>
      <trkpt lat="49.31863" lon="1.03463">
        <ele>8.3100004196167</ele>
        <time>2013-03-24T10:39:57.000Z</time>
      </trkpt>
      <trkpt lat="49.31873" lon="1.0352">
        <ele>7.3499999046326</ele>
        <time>2013-03-24T10:40:05.000Z</time>
      </trkpt>
      <trkpt lat="49.31875" lon="1.03527">
        <ele>7.8299999237061</ele>
        <time>2013-03-24T10:40:06.000Z</time>
      </trkpt>
      <trkpt lat="49.31883" lon="1.03569">
        <ele>7.3499999046326</ele>
        <time>2013-03-24T10:40:12.000Z</time>
      </trkpt>
      <trkpt lat="49.31884" lon="1.03575">
        <ele>7.3499999046326</ele>
        <time>2013-03-24T10:40:13.000Z</time>
      </trkpt>
      <trkpt lat="49.31884" lon="1.03581">
        <ele>7.3499999046326</ele>
        <time>2013-03-24T10:40:14.000Z</time>
      </trkpt>
      <trkpt lat="49.31882" lon="1.03586">
        <ele>7.3499999046326</ele>
        <time>2013-03-24T10:40:15.000Z</time>
      </trkpt>
      <trkpt lat="49.31881" lon="1.03591">
        <ele>7.3499999046326</ele>
        <time>2013-03-24T10:40:16.000Z</time>
      </trkpt>
      <trkpt lat="49.31879" lon="1.03596">
        <ele>7.3499999046326</ele>
        <time>2013-03-24T10:40:17.000Z</time>
      </trkpt>
      <trkpt lat="49.31836" lon="1.03633">
        <ele>7.8299999237061</ele>
        <time>2013-03-24T10:40:30.000Z</time>
      </trkpt>
      <trkpt lat="49.31771" lon="1.03667">
        <ele>8.789999961853</ele>
        <time>2013-03-24T10:40:46.000Z</time>
      </trkpt>
      <trkpt lat="49.31765" lon="1.03672">
        <ele>9.2700004577637</ele>
        <time>2013-03-24T10:40:48.000Z</time>
      </trkpt>
      <trkpt lat="49.3177" lon="1.03709">
        <ele>9.75</ele>
        <time>2013-03-24T10:40:56.000Z</time>
      </trkpt>
      <trkpt lat="49.31789" lon="1.03769">
        <ele>9.2700004577637</ele>
        <time>2013-03-24T10:41:09.000Z</time>
      </trkpt>
      <trkpt lat="49.31807" lon="1.03818">
        <ele>9.2700004577637</ele>
        <time>2013-03-24T10:41:21.000Z</time>
      </trkpt>
      <trkpt lat="49.31835" lon="1.03836">
        <ele>8.3100004196167</ele>
        <time>2013-03-24T10:41:32.000Z</time>
      </trkpt>
      <trkpt lat="49.31886" lon="1.03838">
        <ele>8.3100004196167</ele>
        <time>2013-03-24T10:41:47.000Z</time>
      </trkpt>
      <trkpt lat="49.31937" lon="1.03807">
        <ele>7.3499999046326</ele>
        <time>2013-03-24T10:42:03.000Z</time>
      </trkpt>
      <trkpt lat="49.31958" lon="1.03791">
        <ele>7.8299999237061</ele>
        <time>2013-03-24T10:42:14.000Z</time>
      </trkpt>
      <trkpt lat="49.31957" lon="1.03792">
        <ele>7.3499999046326</ele>
        <time>2013-03-24T10:42:20.000Z</time>
      </trkpt>
      <trkpt lat="49.31927" lon="1.03816">
        <ele>6.8699998855591</ele>
        <time>2013-03-24T10:42:34.000Z</time>
      </trkpt>
      <trkpt lat="49.3187" lon="1.03842">
        <ele>8.789999961853</ele>
        <time>2013-03-24T10:42:52.000Z</time>
      </trkpt>
      <trkpt lat="49.31813" lon="1.03821">
        <ele>10.229999542236</ele>
        <time>2013-03-24T10:43:09.000Z</time>
      </trkpt>
      <trkpt lat="49.31791" lon="1.03769">
        <ele>10.710000038147</ele>
        <time>2013-03-24T10:43:21.000Z</time>
      </trkpt>
      <trkpt lat="49.31772" lon="1.0371">
        <ele>11.189999580383</ele>
        <time>2013-03-24T10:43:35.000Z</time>
      </trkpt>
      <trkpt lat="49.31766" lon="1.03693">
        <ele>10.710000038147</ele>
        <time>2013-03-24T10:43:39.000Z</time>
      </trkpt>
      <trkpt lat="49.31744" lon="1.03702">
        <ele>10.229999542236</ele>
        <time>2013-03-24T10:43:48.000Z</time>
      </trkpt>
      <trkpt lat="49.31741" lon="1.03704">
        <ele>10.229999542236</ele>
        <time>2013-03-24T10:43:49.000Z</time>
      </trkpt>
      <trkpt lat="49.317" lon="1.03728">
        <ele>10.710000038147</ele>
        <time>2013-03-24T10:44:02.000Z</time>
      </trkpt>
      <trkpt lat="49.31651" lon="1.03762">
        <ele>9.75</ele>
        <time>2013-03-24T10:44:18.000Z</time>
      </trkpt>
      <trkpt lat="49.31667" lon="1.03817">
        <ele>8.789999961853</ele>
        <time>2013-03-24T10:44:29.000Z</time>
      </trkpt>
      <trkpt lat="49.31697" lon="1.0388">
        <ele>8.789999961853</ele>
        <time>2013-03-24T10:44:42.000Z</time>
      </trkpt>
      <trkpt lat="49.31696" lon="1.03884">
        <ele>8.789999961853</ele>
        <time>2013-03-24T10:44:43.000Z</time>
      </trkpt>
      <trkpt lat="49.31693" lon="1.03887">
        <ele>8.789999961853</ele>
        <time>2013-03-24T10:44:44.000Z</time>
      </trkpt>
      <trkpt lat="49.31689" lon="1.0389">
        <ele>9.2700004577637</ele>
        <time>2013-03-24T10:44:45.000Z</time>
      </trkpt>
      <trkpt lat="49.31686" lon="1.03891">
        <ele>9.2700004577637</ele>
        <time>2013-03-24T10:44:46.000Z</time>
      </trkpt>
      <trkpt lat="49.31683" lon="1.03893">
        <ele>9.75</ele>
        <time>2013-03-24T10:44:47.000Z</time>
      </trkpt>
      <trkpt lat="49.3168" lon="1.03894">
        <ele>9.75</ele>
        <time>2013-03-24T10:44:48.000Z</time>
      </trkpt>
      <trkpt lat="49.31638" lon="1.03919">
        <ele>13.119999885559</ele>
        <time>2013-03-24T10:45:01.000Z</time>
      </trkpt>
      <trkpt lat="49.31599" lon="1.03944">
        <ele>14.560000419617</ele>
        <time>2013-03-24T10:45:15.000Z</time>
      </trkpt>
      <trkpt lat="49.31561" lon="1.0397">
        <ele>15.520000457764</ele>
        <time>2013-03-24T10:45:29.000Z</time>
      </trkpt>
      <trkpt lat="49.31541" lon="1.03983">
        <ele>16.479999542236</ele>
        <time>2013-03-24T10:45:36.000Z</time>
      </trkpt>
      <trkpt lat="49.3154" lon="1.03988">
        <ele>16.479999542236</ele>
        <time>2013-03-24T10:45:37.000Z</time>
      </trkpt>
      <trkpt lat="49.3154" lon="1.03992">
        <ele>16</ele>
        <time>2013-03-24T10:45:38.000Z</time>
      </trkpt>
      <trkpt lat="49.31541" lon="1.03997">
        <ele>16</ele>
        <time>2013-03-24T10:45:39.000Z</time>
      </trkpt>
      <trkpt lat="49.31541" lon="1.04002">
        <ele>16</ele>
        <time>2013-03-24T10:45:40.000Z</time>
      </trkpt>
      <trkpt lat="49.31543" lon="1.04006">
        <ele>15.520000457764</ele>
        <time>2013-03-24T10:45:41.000Z</time>
      </trkpt>
      <trkpt lat="49.31547" lon="1.0404">
        <ele>16</ele>
        <time>2013-03-24T10:45:48.000Z</time>
      </trkpt>
      <trkpt lat="49.31563" lon="1.04077">
        <ele>16</ele>
        <time>2013-03-24T10:45:56.000Z</time>
      </trkpt>
      <trkpt lat="49.31564" lon="1.04083">
        <ele>16.479999542236</ele>
        <time>2013-03-24T10:45:57.000Z</time>
      </trkpt>
      <trkpt lat="49.31568" lon="1.04098">
        <ele>16</ele>
        <time>2013-03-24T10:46:01.000Z</time>
      </trkpt>
      <trkpt lat="49.31566" lon="1.04101">
        <ele>16</ele>
        <time>2013-03-24T10:46:02.000Z</time>
      </trkpt>
      <trkpt lat="49.31564" lon="1.04102">
        <ele>16</ele>
        <time>2013-03-24T10:46:03.000Z</time>
      </trkpt>
      <trkpt lat="49.31534" lon="1.04108">
        <ele>15.520000457764</ele>
        <time>2013-03-24T10:46:11.000Z</time>
      </trkpt>
      <trkpt lat="49.3153" lon="1.0411">
        <ele>16</ele>
        <time>2013-03-24T10:46:12.000Z</time>
      </trkpt>
      <trkpt lat="49.31526" lon="1.04112">
        <ele>16</ele>
        <time>2013-03-24T10:46:13.000Z</time>
      </trkpt>
      <trkpt lat="49.31482" lon="1.04135">
        <ele>14.079999923706</ele>
        <time>2013-03-24T10:46:25.000Z</time>
      </trkpt>
      <trkpt lat="49.3143" lon="1.04159">
        <ele>15.039999961853</ele>
        <time>2013-03-24T10:46:38.000Z</time>
      </trkpt>
      <trkpt lat="49.31415" lon="1.04168">
        <ele>15.039999961853</ele>
        <time>2013-03-24T10:46:42.000Z</time>
      </trkpt>
      <trkpt lat="49.31411" lon="1.04171">
        <ele>15.520000457764</ele>
        <time>2013-03-24T10:46:43.000Z</time>
      </trkpt>
      <trkpt lat="49.31395" lon="1.04182">
        <ele>15.520000457764</ele>
        <time>2013-03-24T10:46:47.000Z</time>
      </trkpt>
      <trkpt lat="49.31359" lon="1.042">
        <ele>15.039999961853</ele>
        <time>2013-03-24T10:46:56.000Z</time>
      </trkpt>
      <trkpt lat="49.31352" lon="1.04208">
        <ele>15.039999961853</ele>
        <time>2013-03-24T10:46:58.000Z</time>
      </trkpt>
      <trkpt lat="49.31348" lon="1.04211">
        <ele>15.039999961853</ele>
        <time>2013-03-24T10:46:59.000Z</time>
      </trkpt>
      <trkpt lat="49.31344" lon="1.04213">
        <ele>15.039999961853</ele>
        <time>2013-03-24T10:47:00.000Z</time>
      </trkpt>
      <trkpt lat="49.3134" lon="1.04214">
        <ele>15.039999961853</ele>
        <time>2013-03-24T10:47:01.000Z</time>
      </trkpt>
      <trkpt lat="49.31337" lon="1.04216">
        <ele>15.039999961853</ele>
        <time>2013-03-24T10:47:02.000Z</time>
      </trkpt>
      <trkpt lat="49.31334" lon="1.04217">
        <ele>15.039999961853</ele>
        <time>2013-03-24T10:47:03.000Z</time>
      </trkpt>
      <trkpt lat="49.31332" lon="1.04218">
        <ele>15.039999961853</ele>
        <time>2013-03-24T10:47:04.000Z</time>
      </trkpt>
      <trkpt lat="49.31329" lon="1.04219">
        <ele>15.039999961853</ele>
        <time>2013-03-24T10:47:05.000Z</time>
      </trkpt>
      <trkpt lat="49.31326" lon="1.04219">
        <ele>15.039999961853</ele>
        <time>2013-03-24T10:47:06.000Z</time>
      </trkpt>
      <trkpt lat="49.3131" lon="1.04224">
        <ele>15.039999961853</ele>
        <time>2013-03-24T10:47:12.000Z</time>
      </trkpt>
    </trkseg>
  </trk>
</gpx>